<?xml version="1.0" encoding="UTF-8" standalone="no" ?>
<gpx xmlns="http://www.topografix.com/GPX/1/1" xmlns:xsi="http://www.w3.org/2001/XMLSchema-instance" xsi:schemaLocation="http://www.topografix.com/GPX/1/1 http://www.topografix.com/GPX/1/1/gpx.xsd" version="1.1" creator="VisuGPX - https://www.visugpx.com">
  <metadata>
    <name>Gorges de Daluis 090617</name>
  </metadata>
  <trk>
    <name><![CDATA[Gorges de Daluis 090617_1]]></name>
    <trkseg>
      <trkpt lat="44.07643" lon="6.85773">
        <ele>764</ele>
        <time>2017-06-09T08:03:24Z</time>
      </trkpt>
      <trkpt lat="44.07643" lon="6.85773">
        <ele>764</ele>
        <time>2017-06-09T08:03:24Z</time>
      </trkpt>
      <trkpt lat="44.07641" lon="6.85771">
        <ele>764</ele>
        <time>2017-06-09T08:03:24Z</time>
      </trkpt>
      <trkpt lat="44.07637" lon="6.8577">
        <ele>764</ele>
        <time>2017-06-09T08:03:24Z</time>
      </trkpt>
      <trkpt lat="44.07629" lon="6.85774">
        <ele>764</ele>
        <time>2017-06-09T08:03:24Z</time>
      </trkpt>
      <trkpt lat="44.07628" lon="6.85784">
        <ele>764</ele>
        <time>2017-06-09T08:05:04Z</time>
      </trkpt>
      <trkpt lat="44.07624" lon="6.85785">
        <ele>763</ele>
        <time>2017-06-09T08:05:04Z</time>
      </trkpt>
      <trkpt lat="44.07616" lon="6.85792">
        <ele>768</ele>
        <time>2017-06-09T08:05:04Z</time>
      </trkpt>
      <trkpt lat="44.07609" lon="6.85799">
        <ele>768</ele>
        <time>2017-06-09T08:05:05Z</time>
      </trkpt>
      <trkpt lat="44.07607" lon="6.858">
        <ele>768</ele>
        <time>2017-06-09T08:05:05Z</time>
      </trkpt>
      <trkpt lat="44.07603" lon="6.85797">
        <ele>768</ele>
        <time>2017-06-09T08:05:22Z</time>
      </trkpt>
      <trkpt lat="44.07597" lon="6.85797">
        <ele>768</ele>
        <time>2017-06-09T08:05:22Z</time>
      </trkpt>
      <trkpt lat="44.07594" lon="6.85797">
        <ele>764</ele>
        <time>2017-06-09T08:05:22Z</time>
      </trkpt>
      <trkpt lat="44.07588" lon="6.85797">
        <ele>764</ele>
        <time>2017-06-09T08:05:22Z</time>
      </trkpt>
      <trkpt lat="44.07583" lon="6.85801">
        <ele>764</ele>
        <time>2017-06-09T08:05:40Z</time>
      </trkpt>
      <trkpt lat="44.07582" lon="6.85802">
        <ele>764</ele>
        <time>2017-06-09T08:05:40Z</time>
      </trkpt>
      <trkpt lat="44.07579" lon="6.85804">
        <ele>764</ele>
        <time>2017-06-09T08:05:40Z</time>
      </trkpt>
      <trkpt lat="44.07576" lon="6.85805">
        <ele>764</ele>
        <time>2017-06-09T08:05:40Z</time>
      </trkpt>
      <trkpt lat="44.07574" lon="6.85809">
        <ele>764</ele>
        <time>2017-06-09T08:05:40Z</time>
      </trkpt>
      <trkpt lat="44.07573" lon="6.85811">
        <ele>764</ele>
        <time>2017-06-09T08:06:09Z</time>
      </trkpt>
      <trkpt lat="44.07572" lon="6.85814">
        <ele>764</ele>
        <time>2017-06-09T08:06:09Z</time>
      </trkpt>
      <trkpt lat="44.07574" lon="6.85818">
        <ele>764</ele>
        <time>2017-06-09T08:06:10Z</time>
      </trkpt>
      <trkpt lat="44.07573" lon="6.85822">
        <ele>767</ele>
        <time>2017-06-09T08:06:10Z</time>
      </trkpt>
      <trkpt lat="44.0757" lon="6.85825">
        <ele>767</ele>
        <time>2017-06-09T08:06:10Z</time>
      </trkpt>
      <trkpt lat="44.07566" lon="6.85832">
        <ele>764</ele>
        <time>2017-06-09T08:06:29Z</time>
      </trkpt>
      <trkpt lat="44.07562" lon="6.85839">
        <ele>764</ele>
        <time>2017-06-09T08:06:29Z</time>
      </trkpt>
      <trkpt lat="44.07555" lon="6.8585">
        <ele>772</ele>
        <time>2017-06-09T08:06:30Z</time>
      </trkpt>
      <trkpt lat="44.07554" lon="6.85852">
        <ele>772</ele>
        <time>2017-06-09T08:06:30Z</time>
      </trkpt>
      <trkpt lat="44.07551" lon="6.85861">
        <ele>772</ele>
        <time>2017-06-09T08:06:52Z</time>
      </trkpt>
      <trkpt lat="44.07551" lon="6.85863">
        <ele>772</ele>
        <time>2017-06-09T08:06:52Z</time>
      </trkpt>
      <trkpt lat="44.07549" lon="6.85864">
        <ele>772</ele>
        <time>2017-06-09T08:06:52Z</time>
      </trkpt>
      <trkpt lat="44.07546" lon="6.85868">
        <ele>772</ele>
        <time>2017-06-09T08:06:52Z</time>
      </trkpt>
      <trkpt lat="44.07542" lon="6.8587">
        <ele>772</ele>
        <time>2017-06-09T08:06:52Z</time>
      </trkpt>
      <trkpt lat="44.07535" lon="6.8587">
        <ele>772</ele>
        <time>2017-06-09T08:07:12Z</time>
      </trkpt>
      <trkpt lat="44.07534" lon="6.8587">
        <ele>772</ele>
        <time>2017-06-09T08:07:12Z</time>
      </trkpt>
      <trkpt lat="44.0753" lon="6.85866">
        <ele>772</ele>
        <time>2017-06-09T08:07:12Z</time>
      </trkpt>
      <trkpt lat="44.0753" lon="6.85862">
        <ele>772</ele>
        <time>2017-06-09T08:07:12Z</time>
      </trkpt>
      <trkpt lat="44.07529" lon="6.8586">
        <ele>772</ele>
        <time>2017-06-09T08:07:12Z</time>
      </trkpt>
      <trkpt lat="44.07527" lon="6.8586">
        <ele>772</ele>
        <time>2017-06-09T08:08:47Z</time>
      </trkpt>
      <trkpt lat="44.07526" lon="6.85864">
        <ele>772</ele>
        <time>2017-06-09T08:08:47Z</time>
      </trkpt>
      <trkpt lat="44.07524" lon="6.85864">
        <ele>772</ele>
        <time>2017-06-09T08:08:47Z</time>
      </trkpt>
      <trkpt lat="44.07524" lon="6.85871">
        <ele>772</ele>
        <time>2017-06-09T08:08:47Z</time>
      </trkpt>
      <trkpt lat="44.07517" lon="6.85873">
        <ele>772</ele>
        <time>2017-06-09T08:08:47Z</time>
      </trkpt>
      <trkpt lat="44.07517" lon="6.85875">
        <ele>772</ele>
        <time>2017-06-09T08:09:04Z</time>
      </trkpt>
      <trkpt lat="44.07507" lon="6.85872">
        <ele>778</ele>
        <time>2017-06-09T08:09:04Z</time>
      </trkpt>
      <trkpt lat="44.07501" lon="6.85875">
        <ele>778</ele>
        <time>2017-06-09T08:09:04Z</time>
      </trkpt>
      <trkpt lat="44.075" lon="6.85876">
        <ele>796</ele>
        <time>2017-06-09T08:09:04Z</time>
      </trkpt>
      <trkpt lat="44.07494" lon="6.85876">
        <ele>796</ele>
        <time>2017-06-09T08:09:34Z</time>
      </trkpt>
      <trkpt lat="44.07485" lon="6.85871">
        <ele>785</ele>
        <time>2017-06-09T08:09:34Z</time>
      </trkpt>
      <trkpt lat="44.0748" lon="6.85867">
        <ele>785</ele>
        <time>2017-06-09T08:09:34Z</time>
      </trkpt>
      <trkpt lat="44.07476" lon="6.85868">
        <ele>785</ele>
        <time>2017-06-09T08:09:34Z</time>
      </trkpt>
      <trkpt lat="44.07475" lon="6.8587">
        <ele>785</ele>
        <time>2017-06-09T08:09:48Z</time>
      </trkpt>
      <trkpt lat="44.07473" lon="6.85874">
        <ele>785</ele>
        <time>2017-06-09T08:09:48Z</time>
      </trkpt>
      <trkpt lat="44.07472" lon="6.85875">
        <ele>796</ele>
        <time>2017-06-09T08:09:48Z</time>
      </trkpt>
      <trkpt lat="44.07472" lon="6.85886">
        <ele>796</ele>
        <time>2017-06-09T08:09:48Z</time>
      </trkpt>
      <trkpt lat="44.07469" lon="6.85884">
        <ele>796</ele>
        <time>2017-06-09T08:10:05Z</time>
      </trkpt>
      <trkpt lat="44.07464" lon="6.85877">
        <ele>796</ele>
        <time>2017-06-09T08:10:05Z</time>
      </trkpt>
      <trkpt lat="44.07459" lon="6.85868">
        <ele>785</ele>
        <time>2017-06-09T08:10:06Z</time>
      </trkpt>
      <trkpt lat="44.07458" lon="6.85864">
        <ele>784</ele>
        <time>2017-06-09T08:10:06Z</time>
      </trkpt>
      <trkpt lat="44.07453" lon="6.85857">
        <ele>784</ele>
        <time>2017-06-09T08:10:21Z</time>
      </trkpt>
      <trkpt lat="44.07453" lon="6.85858">
        <ele>784</ele>
        <time>2017-06-09T08:10:21Z</time>
      </trkpt>
      <trkpt lat="44.07452" lon="6.85867">
        <ele>784</ele>
        <time>2017-06-09T08:10:21Z</time>
      </trkpt>
      <trkpt lat="44.07452" lon="6.85869">
        <ele>784</ele>
        <time>2017-06-09T08:10:22Z</time>
      </trkpt>
      <trkpt lat="44.07445" lon="6.85875">
        <ele>798</ele>
        <time>2017-06-09T08:10:54Z</time>
      </trkpt>
      <trkpt lat="44.07443" lon="6.85877">
        <ele>798</ele>
        <time>2017-06-09T08:10:54Z</time>
      </trkpt>
      <trkpt lat="44.07438" lon="6.85878">
        <ele>798</ele>
        <time>2017-06-09T08:10:55Z</time>
      </trkpt>
      <trkpt lat="44.07433" lon="6.85878">
        <ele>798</ele>
        <time>2017-06-09T08:10:55Z</time>
      </trkpt>
      <trkpt lat="44.07428" lon="6.85877">
        <ele>793</ele>
        <time>2017-06-09T08:10:55Z</time>
      </trkpt>
      <trkpt lat="44.07426" lon="6.85878">
        <ele>793</ele>
        <time>2017-06-09T08:11:08Z</time>
      </trkpt>
      <trkpt lat="44.07424" lon="6.8587">
        <ele>780</ele>
        <time>2017-06-09T08:11:08Z</time>
      </trkpt>
      <trkpt lat="44.07424" lon="6.8587">
        <ele>780</ele>
        <time>2017-06-09T08:11:08Z</time>
      </trkpt>
      <trkpt lat="44.07422" lon="6.85866">
        <ele>780</ele>
        <time>2017-06-09T08:11:08Z</time>
      </trkpt>
      <trkpt lat="44.07419" lon="6.85865">
        <ele>780</ele>
        <time>2017-06-09T08:11:25Z</time>
      </trkpt>
      <trkpt lat="44.07415" lon="6.85865">
        <ele>780</ele>
        <time>2017-06-09T08:11:25Z</time>
      </trkpt>
      <trkpt lat="44.07413" lon="6.85864">
        <ele>780</ele>
        <time>2017-06-09T08:11:25Z</time>
      </trkpt>
      <trkpt lat="44.07408" lon="6.85865">
        <ele>780</ele>
        <time>2017-06-09T08:11:25Z</time>
      </trkpt>
      <trkpt lat="44.07405" lon="6.85862">
        <ele>780</ele>
        <time>2017-06-09T08:11:42Z</time>
      </trkpt>
      <trkpt lat="44.07403" lon="6.85861">
        <ele>780</ele>
        <time>2017-06-09T08:11:42Z</time>
      </trkpt>
      <trkpt lat="44.07399" lon="6.85859">
        <ele>785</ele>
        <time>2017-06-09T08:11:42Z</time>
      </trkpt>
      <trkpt lat="44.07395" lon="6.85854">
        <ele>785</ele>
        <time>2017-06-09T08:11:42Z</time>
      </trkpt>
      <trkpt lat="44.07392" lon="6.8585">
        <ele>785</ele>
        <time>2017-06-09T08:11:56Z</time>
      </trkpt>
      <trkpt lat="44.07391" lon="6.85848">
        <ele>785</ele>
        <time>2017-06-09T08:11:56Z</time>
      </trkpt>
      <trkpt lat="44.07385" lon="6.85843">
        <ele>775</ele>
        <time>2017-06-09T08:11:56Z</time>
      </trkpt>
      <trkpt lat="44.07383" lon="6.85841">
        <ele>775</ele>
        <time>2017-06-09T08:11:56Z</time>
      </trkpt>
      <trkpt lat="44.07376" lon="6.85837">
        <ele>775</ele>
        <time>2017-06-09T08:12:12Z</time>
      </trkpt>
      <trkpt lat="44.07372" lon="6.85836">
        <ele>784</ele>
        <time>2017-06-09T08:12:12Z</time>
      </trkpt>
      <trkpt lat="44.07366" lon="6.85835">
        <ele>784</ele>
        <time>2017-06-09T08:12:12Z</time>
      </trkpt>
      <trkpt lat="44.07363" lon="6.85833">
        <ele>784</ele>
        <time>2017-06-09T08:12:12Z</time>
      </trkpt>
      <trkpt lat="44.07357" lon="6.85833">
        <ele>784</ele>
        <time>2017-06-09T08:12:33Z</time>
      </trkpt>
      <trkpt lat="44.07348" lon="6.85832">
        <ele>784</ele>
        <time>2017-06-09T08:12:33Z</time>
      </trkpt>
      <trkpt lat="44.07343" lon="6.85824">
        <ele>792</ele>
        <time>2017-06-09T08:12:33Z</time>
      </trkpt>
      <trkpt lat="44.07342" lon="6.85824">
        <ele>792</ele>
        <time>2017-06-09T08:12:33Z</time>
      </trkpt>
      <trkpt lat="44.07338" lon="6.85824">
        <ele>792</ele>
        <time>2017-06-09T08:12:55Z</time>
      </trkpt>
      <trkpt lat="44.07336" lon="6.85825">
        <ele>792</ele>
        <time>2017-06-09T08:12:55Z</time>
      </trkpt>
      <trkpt lat="44.07333" lon="6.85823">
        <ele>792</ele>
        <time>2017-06-09T08:12:55Z</time>
      </trkpt>
      <trkpt lat="44.07332" lon="6.85822">
        <ele>792</ele>
        <time>2017-06-09T08:12:56Z</time>
      </trkpt>
      <trkpt lat="44.07327" lon="6.85822">
        <ele>792</ele>
        <time>2017-06-09T08:12:56Z</time>
      </trkpt>
      <trkpt lat="44.07327" lon="6.85823">
        <ele>792</ele>
        <time>2017-06-09T08:13:12Z</time>
      </trkpt>
      <trkpt lat="44.07324" lon="6.85823">
        <ele>792</ele>
        <time>2017-06-09T08:13:12Z</time>
      </trkpt>
      <trkpt lat="44.07324" lon="6.85823">
        <ele>792</ele>
        <time>2017-06-09T08:13:12Z</time>
      </trkpt>
      <trkpt lat="44.0732" lon="6.85824">
        <ele>792</ele>
        <time>2017-06-09T08:13:12Z</time>
      </trkpt>
      <trkpt lat="44.07318" lon="6.85826">
        <ele>791</ele>
        <time>2017-06-09T08:13:12Z</time>
      </trkpt>
      <trkpt lat="44.0731" lon="6.85831">
        <ele>791</ele>
        <time>2017-06-09T08:13:31Z</time>
      </trkpt>
      <trkpt lat="44.07306" lon="6.85831">
        <ele>791</ele>
        <time>2017-06-09T08:13:31Z</time>
      </trkpt>
      <trkpt lat="44.07305" lon="6.8583">
        <ele>791</ele>
        <time>2017-06-09T08:13:31Z</time>
      </trkpt>
      <trkpt lat="44.07295" lon="6.8583">
        <ele>791</ele>
        <time>2017-06-09T08:13:31Z</time>
      </trkpt>
      <trkpt lat="44.07293" lon="6.85831">
        <ele>791</ele>
        <time>2017-06-09T08:13:47Z</time>
      </trkpt>
      <trkpt lat="44.07286" lon="6.8583">
        <ele>792</ele>
        <time>2017-06-09T08:13:47Z</time>
      </trkpt>
      <trkpt lat="44.07285" lon="6.85831">
        <ele>792</ele>
        <time>2017-06-09T08:13:47Z</time>
      </trkpt>
      <trkpt lat="44.07282" lon="6.85833">
        <ele>792</ele>
        <time>2017-06-09T08:13:47Z</time>
      </trkpt>
      <trkpt lat="44.07277" lon="6.85834">
        <ele>792</ele>
        <time>2017-06-09T08:14:08Z</time>
      </trkpt>
      <trkpt lat="44.07276" lon="6.85833">
        <ele>792</ele>
        <time>2017-06-09T08:14:08Z</time>
      </trkpt>
      <trkpt lat="44.07273" lon="6.85832">
        <ele>792</ele>
        <time>2017-06-09T08:14:08Z</time>
      </trkpt>
      <trkpt lat="44.07272" lon="6.85832">
        <ele>792</ele>
        <time>2017-06-09T08:14:08Z</time>
      </trkpt>
      <trkpt lat="44.0727" lon="6.85834">
        <ele>792</ele>
        <time>2017-06-09T08:14:08Z</time>
      </trkpt>
      <trkpt lat="44.07267" lon="6.85835">
        <ele>792</ele>
        <time>2017-06-09T08:14:27Z</time>
      </trkpt>
      <trkpt lat="44.0726" lon="6.85836">
        <ele>788</ele>
        <time>2017-06-09T08:14:27Z</time>
      </trkpt>
      <trkpt lat="44.07259" lon="6.85837">
        <ele>788</ele>
        <time>2017-06-09T08:14:28Z</time>
      </trkpt>
      <trkpt lat="44.07251" lon="6.85832">
        <ele>788</ele>
        <time>2017-06-09T08:14:28Z</time>
      </trkpt>
      <trkpt lat="44.07248" lon="6.85831">
        <ele>788</ele>
        <time>2017-06-09T08:14:43Z</time>
      </trkpt>
      <trkpt lat="44.07244" lon="6.85828">
        <ele>788</ele>
        <time>2017-06-09T08:14:43Z</time>
      </trkpt>
      <trkpt lat="44.07241" lon="6.85828">
        <ele>788</ele>
        <time>2017-06-09T08:14:43Z</time>
      </trkpt>
      <trkpt lat="44.07236" lon="6.85825">
        <ele>783</ele>
        <time>2017-06-09T08:14:43Z</time>
      </trkpt>
      <trkpt lat="44.07235" lon="6.85824">
        <ele>783</ele>
        <time>2017-06-09T08:14:59Z</time>
      </trkpt>
      <trkpt lat="44.07233" lon="6.85823">
        <ele>783</ele>
        <time>2017-06-09T08:14:59Z</time>
      </trkpt>
      <trkpt lat="44.07231" lon="6.85823">
        <ele>783</ele>
        <time>2017-06-09T08:14:59Z</time>
      </trkpt>
      <trkpt lat="44.07224" lon="6.85828">
        <ele>783</ele>
        <time>2017-06-09T08:14:59Z</time>
      </trkpt>
      <trkpt lat="44.07224" lon="6.85827">
        <ele>783</ele>
        <time>2017-06-09T08:15:19Z</time>
      </trkpt>
      <trkpt lat="44.07222" lon="6.85828">
        <ele>783</ele>
        <time>2017-06-09T08:15:19Z</time>
      </trkpt>
      <trkpt lat="44.07217" lon="6.85835">
        <ele>783</ele>
        <time>2017-06-09T08:15:19Z</time>
      </trkpt>
      <trkpt lat="44.07209" lon="6.85837">
        <ele>783</ele>
        <time>2017-06-09T08:15:19Z</time>
      </trkpt>
      <trkpt lat="44.07198" lon="6.85841">
        <ele>783</ele>
        <time>2017-06-09T08:15:54Z</time>
      </trkpt>
      <trkpt lat="44.07196" lon="6.85842">
        <ele>783</ele>
        <time>2017-06-09T08:15:54Z</time>
      </trkpt>
      <trkpt lat="44.07195" lon="6.85846">
        <ele>783</ele>
        <time>2017-06-09T08:15:55Z</time>
      </trkpt>
      <trkpt lat="44.07192" lon="6.85843">
        <ele>783</ele>
        <time>2017-06-09T08:15:55Z</time>
      </trkpt>
      <trkpt lat="44.07188" lon="6.85844">
        <ele>783</ele>
        <time>2017-06-09T08:15:56Z</time>
      </trkpt>
      <trkpt lat="44.07185" lon="6.85844">
        <ele>783</ele>
        <time>2017-06-09T08:16:19Z</time>
      </trkpt>
      <trkpt lat="44.07183" lon="6.85845">
        <ele>783</ele>
        <time>2017-06-09T08:16:19Z</time>
      </trkpt>
      <trkpt lat="44.0718" lon="6.85846">
        <ele>791</ele>
        <time>2017-06-09T08:16:19Z</time>
      </trkpt>
      <trkpt lat="44.07179" lon="6.85848">
        <ele>809</ele>
        <time>2017-06-09T08:16:20Z</time>
      </trkpt>
      <trkpt lat="44.07169" lon="6.85851">
        <ele>809</ele>
        <time>2017-06-09T08:16:20Z</time>
      </trkpt>
      <trkpt lat="44.07165" lon="6.8585">
        <ele>809</ele>
        <time>2017-06-09T08:16:44Z</time>
      </trkpt>
      <trkpt lat="44.0716" lon="6.8585">
        <ele>809</ele>
        <time>2017-06-09T08:16:44Z</time>
      </trkpt>
      <trkpt lat="44.07153" lon="6.85851">
        <ele>809</ele>
        <time>2017-06-09T08:16:44Z</time>
      </trkpt>
      <trkpt lat="44.07143" lon="6.85848">
        <ele>813</ele>
        <time>2017-06-09T08:16:44Z</time>
      </trkpt>
      <trkpt lat="44.07142" lon="6.85847">
        <ele>800</ele>
        <time>2017-06-09T08:17:04Z</time>
      </trkpt>
      <trkpt lat="44.07133" lon="6.85848">
        <ele>813</ele>
        <time>2017-06-09T08:17:04Z</time>
      </trkpt>
      <trkpt lat="44.07128" lon="6.8585">
        <ele>813</ele>
        <time>2017-06-09T08:17:04Z</time>
      </trkpt>
      <trkpt lat="44.07125" lon="6.85851">
        <ele>818</ele>
        <time>2017-06-09T08:17:04Z</time>
      </trkpt>
      <trkpt lat="44.07122" lon="6.8585">
        <ele>818</ele>
        <time>2017-06-09T08:17:37Z</time>
      </trkpt>
      <trkpt lat="44.07124" lon="6.8585">
        <ele>818</ele>
        <time>2017-06-09T08:17:37Z</time>
      </trkpt>
      <trkpt lat="44.07129" lon="6.85847">
        <ele>813</ele>
        <time>2017-06-09T08:17:37Z</time>
      </trkpt>
      <trkpt lat="44.07134" lon="6.85847">
        <ele>800</ele>
        <time>2017-06-09T08:17:37Z</time>
      </trkpt>
      <trkpt lat="44.07135" lon="6.85846">
        <ele>800</ele>
        <time>2017-06-09T08:17:37Z</time>
      </trkpt>
      <trkpt lat="44.07141" lon="6.85849">
        <ele>813</ele>
        <time>2017-06-09T08:17:59Z</time>
      </trkpt>
      <trkpt lat="44.07142" lon="6.8585">
        <ele>813</ele>
        <time>2017-06-09T08:17:59Z</time>
      </trkpt>
      <trkpt lat="44.07147" lon="6.85853">
        <ele>813</ele>
        <time>2017-06-09T08:17:59Z</time>
      </trkpt>
      <trkpt lat="44.07149" lon="6.85855">
        <ele>813</ele>
        <time>2017-06-09T08:17:59Z</time>
      </trkpt>
      <trkpt lat="44.07152" lon="6.85861">
        <ele>813</ele>
        <time>2017-06-09T08:17:59Z</time>
      </trkpt>
      <trkpt lat="44.07155" lon="6.85863">
        <ele>809</ele>
        <time>2017-06-09T08:18:16Z</time>
      </trkpt>
      <trkpt lat="44.07157" lon="6.85867">
        <ele>809</ele>
        <time>2017-06-09T08:18:16Z</time>
      </trkpt>
      <trkpt lat="44.0716" lon="6.85869">
        <ele>809</ele>
        <time>2017-06-09T08:18:16Z</time>
      </trkpt>
      <trkpt lat="44.07163" lon="6.85868">
        <ele>809</ele>
        <time>2017-06-09T08:18:16Z</time>
      </trkpt>
      <trkpt lat="44.07168" lon="6.85866">
        <ele>809</ele>
        <time>2017-06-09T08:18:16Z</time>
      </trkpt>
      <trkpt lat="44.07172" lon="6.85862">
        <ele>809</ele>
        <time>2017-06-09T08:18:33Z</time>
      </trkpt>
      <trkpt lat="44.07176" lon="6.85862">
        <ele>809</ele>
        <time>2017-06-09T08:18:33Z</time>
      </trkpt>
      <trkpt lat="44.07181" lon="6.8586">
        <ele>806</ele>
        <time>2017-06-09T08:18:34Z</time>
      </trkpt>
      <trkpt lat="44.07183" lon="6.85859">
        <ele>806</ele>
        <time>2017-06-09T08:18:35Z</time>
      </trkpt>
      <trkpt lat="44.07187" lon="6.85857">
        <ele>806</ele>
        <time>2017-06-09T08:19:00Z</time>
      </trkpt>
      <trkpt lat="44.07196" lon="6.85857">
        <ele>806</ele>
        <time>2017-06-09T08:19:00Z</time>
      </trkpt>
      <trkpt lat="44.07203" lon="6.85858">
        <ele>806</ele>
        <time>2017-06-09T08:19:00Z</time>
      </trkpt>
      <trkpt lat="44.07211" lon="6.85859">
        <ele>804</ele>
        <time>2017-06-09T08:19:00Z</time>
      </trkpt>
      <trkpt lat="44.07212" lon="6.85859">
        <ele>804</ele>
        <time>2017-06-09T08:19:19Z</time>
      </trkpt>
      <trkpt lat="44.07216" lon="6.85861">
        <ele>804</ele>
        <time>2017-06-09T08:19:19Z</time>
      </trkpt>
      <trkpt lat="44.0722" lon="6.85857">
        <ele>804</ele>
        <time>2017-06-09T08:19:19Z</time>
      </trkpt>
      <trkpt lat="44.07228" lon="6.85864">
        <ele>804</ele>
        <time>2017-06-09T08:19:19Z</time>
      </trkpt>
      <trkpt lat="44.07232" lon="6.85862">
        <ele>804</ele>
        <time>2017-06-09T08:19:50Z</time>
      </trkpt>
      <trkpt lat="44.07233" lon="6.85861">
        <ele>804</ele>
        <time>2017-06-09T08:19:50Z</time>
      </trkpt>
      <trkpt lat="44.07233" lon="6.85861">
        <ele>804</ele>
        <time>2017-06-09T08:19:50Z</time>
      </trkpt>
      <trkpt lat="44.07236" lon="6.85865">
        <ele>804</ele>
        <time>2017-06-09T08:19:50Z</time>
      </trkpt>
      <trkpt lat="44.0724" lon="6.85871">
        <ele>806</ele>
        <time>2017-06-09T08:19:50Z</time>
      </trkpt>
      <trkpt lat="44.07243" lon="6.85873">
        <ele>806</ele>
        <time>2017-06-09T08:20:04Z</time>
      </trkpt>
      <trkpt lat="44.07247" lon="6.85874">
        <ele>806</ele>
        <time>2017-06-09T08:20:04Z</time>
      </trkpt>
      <trkpt lat="44.07248" lon="6.85876">
        <ele>826</ele>
        <time>2017-06-09T08:20:05Z</time>
      </trkpt>
      <trkpt lat="44.07253" lon="6.85876">
        <ele>826</ele>
        <time>2017-06-09T08:20:06Z</time>
      </trkpt>
      <trkpt lat="44.07263" lon="6.85878">
        <ele>826</ele>
        <time>2017-06-09T08:20:22Z</time>
      </trkpt>
      <trkpt lat="44.07269" lon="6.85883">
        <ele>826</ele>
        <time>2017-06-09T08:20:22Z</time>
      </trkpt>
      <trkpt lat="44.07272" lon="6.85884">
        <ele>826</ele>
        <time>2017-06-09T08:20:22Z</time>
      </trkpt>
      <trkpt lat="44.07278" lon="6.85891">
        <ele>826</ele>
        <time>2017-06-09T08:20:22Z</time>
      </trkpt>
      <trkpt lat="44.07281" lon="6.85894">
        <ele>826</ele>
        <time>2017-06-09T08:20:38Z</time>
      </trkpt>
      <trkpt lat="44.07285" lon="6.85897">
        <ele>826</ele>
        <time>2017-06-09T08:20:38Z</time>
      </trkpt>
      <trkpt lat="44.07287" lon="6.859">
        <ele>826</ele>
        <time>2017-06-09T08:20:38Z</time>
      </trkpt>
      <trkpt lat="44.07291" lon="6.85902">
        <ele>826</ele>
        <time>2017-06-09T08:20:38Z</time>
      </trkpt>
      <trkpt lat="44.073" lon="6.85903">
        <ele>822</ele>
        <time>2017-06-09T08:20:54Z</time>
      </trkpt>
      <trkpt lat="44.07306" lon="6.85905">
        <ele>833</ele>
        <time>2017-06-09T08:20:54Z</time>
      </trkpt>
      <trkpt lat="44.07307" lon="6.85904">
        <ele>833</ele>
        <time>2017-06-09T08:20:54Z</time>
      </trkpt>
      <trkpt lat="44.07312" lon="6.85901">
        <ele>822</ele>
        <time>2017-06-09T08:20:54Z</time>
      </trkpt>
      <trkpt lat="44.07317" lon="6.85899">
        <ele>822</ele>
        <time>2017-06-09T08:21:12Z</time>
      </trkpt>
      <trkpt lat="44.07321" lon="6.85906">
        <ele>829</ele>
        <time>2017-06-09T08:21:12Z</time>
      </trkpt>
      <trkpt lat="44.07324" lon="6.85906">
        <ele>829</ele>
        <time>2017-06-09T08:21:12Z</time>
      </trkpt>
      <trkpt lat="44.07325" lon="6.85905">
        <ele>829</ele>
        <time>2017-06-09T08:21:12Z</time>
      </trkpt>
      <trkpt lat="44.07325" lon="6.85905">
        <ele>829</ele>
        <time>2017-06-09T08:21:12Z</time>
      </trkpt>
      <trkpt lat="44.0733" lon="6.8591">
        <ele>829</ele>
        <time>2017-06-09T08:21:31Z</time>
      </trkpt>
      <trkpt lat="44.07334" lon="6.85913">
        <ele>829</ele>
        <time>2017-06-09T08:21:31Z</time>
      </trkpt>
      <trkpt lat="44.07338" lon="6.85915">
        <ele>829</ele>
        <time>2017-06-09T08:21:32Z</time>
      </trkpt>
      <trkpt lat="44.07339" lon="6.85922">
        <ele>829</ele>
        <time>2017-06-09T08:21:32Z</time>
      </trkpt>
      <trkpt lat="44.0734" lon="6.85923">
        <ele>829</ele>
        <time>2017-06-09T08:21:47Z</time>
      </trkpt>
      <trkpt lat="44.07342" lon="6.85927">
        <ele>829</ele>
        <time>2017-06-09T08:21:47Z</time>
      </trkpt>
      <trkpt lat="44.07343" lon="6.85931">
        <ele>829</ele>
        <time>2017-06-09T08:21:47Z</time>
      </trkpt>
      <trkpt lat="44.07344" lon="6.85936">
        <ele>839</ele>
        <time>2017-06-09T08:21:47Z</time>
      </trkpt>
      <trkpt lat="44.07345" lon="6.85939">
        <ele>839</ele>
        <time>2017-06-09T08:22:01Z</time>
      </trkpt>
      <trkpt lat="44.07351" lon="6.85944">
        <ele>833</ele>
        <time>2017-06-09T08:22:01Z</time>
      </trkpt>
      <trkpt lat="44.07351" lon="6.85947">
        <ele>833</ele>
        <time>2017-06-09T08:22:01Z</time>
      </trkpt>
      <trkpt lat="44.07355" lon="6.85951">
        <ele>833</ele>
        <time>2017-06-09T08:22:01Z</time>
      </trkpt>
      <trkpt lat="44.07357" lon="6.85955">
        <ele>833</ele>
        <time>2017-06-09T08:22:20Z</time>
      </trkpt>
      <trkpt lat="44.07363" lon="6.85958">
        <ele>833</ele>
        <time>2017-06-09T08:22:20Z</time>
      </trkpt>
      <trkpt lat="44.07367" lon="6.85963">
        <ele>841</ele>
        <time>2017-06-09T08:22:20Z</time>
      </trkpt>
      <trkpt lat="44.07369" lon="6.85965">
        <ele>841</ele>
        <time>2017-06-09T08:22:20Z</time>
      </trkpt>
      <trkpt lat="44.07374" lon="6.8597">
        <ele>841</ele>
        <time>2017-06-09T08:22:36Z</time>
      </trkpt>
      <trkpt lat="44.07378" lon="6.85974">
        <ele>833</ele>
        <time>2017-06-09T08:22:36Z</time>
      </trkpt>
      <trkpt lat="44.07381" lon="6.85978">
        <ele>833</ele>
        <time>2017-06-09T08:22:36Z</time>
      </trkpt>
      <trkpt lat="44.07382" lon="6.85978">
        <ele>833</ele>
        <time>2017-06-09T08:22:36Z</time>
      </trkpt>
      <trkpt lat="44.07379" lon="6.85976">
        <ele>833</ele>
        <time>2017-06-09T08:22:55Z</time>
      </trkpt>
      <trkpt lat="44.07377" lon="6.85977">
        <ele>833</ele>
        <time>2017-06-09T08:22:55Z</time>
      </trkpt>
      <trkpt lat="44.07376" lon="6.85977">
        <ele>833</ele>
        <time>2017-06-09T08:22:55Z</time>
      </trkpt>
      <trkpt lat="44.07371" lon="6.85971">
        <ele>841</ele>
        <time>2017-06-09T08:22:55Z</time>
      </trkpt>
      <trkpt lat="44.07368" lon="6.85969">
        <ele>841</ele>
        <time>2017-06-09T08:23:08Z</time>
      </trkpt>
      <trkpt lat="44.07366" lon="6.85969">
        <ele>841</ele>
        <time>2017-06-09T08:23:08Z</time>
      </trkpt>
      <trkpt lat="44.0736" lon="6.85966">
        <ele>841</ele>
        <time>2017-06-09T08:23:08Z</time>
      </trkpt>
      <trkpt lat="44.07356" lon="6.85962">
        <ele>841</ele>
        <time>2017-06-09T08:23:08Z</time>
      </trkpt>
      <trkpt lat="44.07352" lon="6.8596">
        <ele>841</ele>
        <time>2017-06-09T08:23:24Z</time>
      </trkpt>
      <trkpt lat="44.07348" lon="6.8596">
        <ele>841</ele>
        <time>2017-06-09T08:23:24Z</time>
      </trkpt>
      <trkpt lat="44.07344" lon="6.85957">
        <ele>839</ele>
        <time>2017-06-09T08:23:24Z</time>
      </trkpt>
      <trkpt lat="44.07341" lon="6.85959">
        <ele>847</ele>
        <time>2017-06-09T08:23:24Z</time>
      </trkpt>
      <trkpt lat="44.07339" lon="6.85956">
        <ele>839</ele>
        <time>2017-06-09T08:23:40Z</time>
      </trkpt>
      <trkpt lat="44.07336" lon="6.85949">
        <ele>839</ele>
        <time>2017-06-09T08:23:40Z</time>
      </trkpt>
      <trkpt lat="44.07331" lon="6.8595">
        <ele>839</ele>
        <time>2017-06-09T08:23:40Z</time>
      </trkpt>
      <trkpt lat="44.0733" lon="6.85945">
        <ele>839</ele>
        <time>2017-06-09T08:23:40Z</time>
      </trkpt>
      <trkpt lat="44.07327" lon="6.85946">
        <ele>839</ele>
        <time>2017-06-09T08:23:57Z</time>
      </trkpt>
      <trkpt lat="44.07322" lon="6.85943">
        <ele>839</ele>
        <time>2017-06-09T08:23:58Z</time>
      </trkpt>
      <trkpt lat="44.07311" lon="6.85943">
        <ele>842</ele>
        <time>2017-06-09T08:23:58Z</time>
      </trkpt>
      <trkpt lat="44.07309" lon="6.85944">
        <ele>842</ele>
        <time>2017-06-09T08:23:58Z</time>
      </trkpt>
      <trkpt lat="44.07306" lon="6.85947">
        <ele>842</ele>
        <time>2017-06-09T08:24:12Z</time>
      </trkpt>
      <trkpt lat="44.07304" lon="6.85947">
        <ele>842</ele>
        <time>2017-06-09T08:24:12Z</time>
      </trkpt>
      <trkpt lat="44.073" lon="6.8595">
        <ele>842</ele>
        <time>2017-06-09T08:24:12Z</time>
      </trkpt>
      <trkpt lat="44.07295" lon="6.85954">
        <ele>842</ele>
        <time>2017-06-09T08:24:12Z</time>
      </trkpt>
      <trkpt lat="44.07293" lon="6.85952">
        <ele>842</ele>
        <time>2017-06-09T08:24:28Z</time>
      </trkpt>
      <trkpt lat="44.07288" lon="6.85949">
        <ele>848</ele>
        <time>2017-06-09T08:24:28Z</time>
      </trkpt>
      <trkpt lat="44.07282" lon="6.85946">
        <ele>848</ele>
        <time>2017-06-09T08:24:28Z</time>
      </trkpt>
      <trkpt lat="44.0728" lon="6.85946">
        <ele>848</ele>
        <time>2017-06-09T08:24:28Z</time>
      </trkpt>
      <trkpt lat="44.07276" lon="6.8594">
        <ele>848</ele>
        <time>2017-06-09T08:24:44Z</time>
      </trkpt>
      <trkpt lat="44.07271" lon="6.85938">
        <ele>848</ele>
        <time>2017-06-09T08:24:44Z</time>
      </trkpt>
      <trkpt lat="44.07266" lon="6.85937">
        <ele>848</ele>
        <time>2017-06-09T08:24:44Z</time>
      </trkpt>
      <trkpt lat="44.07262" lon="6.85934">
        <ele>859</ele>
        <time>2017-06-09T08:24:44Z</time>
      </trkpt>
      <trkpt lat="44.07254" lon="6.85927">
        <ele>844</ele>
        <time>2017-06-09T08:25:11Z</time>
      </trkpt>
      <trkpt lat="44.07252" lon="6.85926">
        <ele>844</ele>
        <time>2017-06-09T08:25:11Z</time>
      </trkpt>
      <trkpt lat="44.0725" lon="6.85926">
        <ele>844</ele>
        <time>2017-06-09T08:25:12Z</time>
      </trkpt>
      <trkpt lat="44.07249" lon="6.85928">
        <ele>844</ele>
        <time>2017-06-09T08:25:12Z</time>
      </trkpt>
      <trkpt lat="44.07246" lon="6.85927">
        <ele>844</ele>
        <time>2017-06-09T08:25:12Z</time>
      </trkpt>
      <trkpt lat="44.07243" lon="6.85929">
        <ele>844</ele>
        <time>2017-06-09T08:25:24Z</time>
      </trkpt>
      <trkpt lat="44.07238" lon="6.85926">
        <ele>844</ele>
        <time>2017-06-09T08:25:24Z</time>
      </trkpt>
      <trkpt lat="44.07235" lon="6.85928">
        <ele>846</ele>
        <time>2017-06-09T08:25:24Z</time>
      </trkpt>
      <trkpt lat="44.07231" lon="6.85925">
        <ele>846</ele>
        <time>2017-06-09T08:25:24Z</time>
      </trkpt>
      <trkpt lat="44.07227" lon="6.85923">
        <ele>846</ele>
        <time>2017-06-09T08:25:40Z</time>
      </trkpt>
      <trkpt lat="44.07224" lon="6.85925">
        <ele>846</ele>
        <time>2017-06-09T08:25:40Z</time>
      </trkpt>
      <trkpt lat="44.07218" lon="6.85922">
        <ele>846</ele>
        <time>2017-06-09T08:25:40Z</time>
      </trkpt>
      <trkpt lat="44.07215" lon="6.8592">
        <ele>846</ele>
        <time>2017-06-09T08:25:40Z</time>
      </trkpt>
      <trkpt lat="44.07211" lon="6.85922">
        <ele>846</ele>
        <time>2017-06-09T08:26:12Z</time>
      </trkpt>
      <trkpt lat="44.07208" lon="6.85924">
        <ele>846</ele>
        <time>2017-06-09T08:26:12Z</time>
      </trkpt>
      <trkpt lat="44.07204" lon="6.85923">
        <ele>848</ele>
        <time>2017-06-09T08:26:12Z</time>
      </trkpt>
      <trkpt lat="44.07203" lon="6.85923">
        <ele>848</ele>
        <time>2017-06-09T08:26:12Z</time>
      </trkpt>
      <trkpt lat="44.07195" lon="6.85921">
        <ele>848</ele>
        <time>2017-06-09T08:26:13Z</time>
      </trkpt>
      <trkpt lat="44.07194" lon="6.85919">
        <ele>848</ele>
        <time>2017-06-09T08:26:27Z</time>
      </trkpt>
      <trkpt lat="44.07187" lon="6.85919">
        <ele>848</ele>
        <time>2017-06-09T08:26:27Z</time>
      </trkpt>
      <trkpt lat="44.07186" lon="6.85921">
        <ele>848</ele>
        <time>2017-06-09T08:26:27Z</time>
      </trkpt>
      <trkpt lat="44.0718" lon="6.85921">
        <ele>847</ele>
        <time>2017-06-09T08:26:27Z</time>
      </trkpt>
      <trkpt lat="44.0718" lon="6.85921">
        <ele>847</ele>
        <time>2017-06-09T08:26:52Z</time>
      </trkpt>
      <trkpt lat="44.07175" lon="6.85925">
        <ele>847</ele>
        <time>2017-06-09T08:26:52Z</time>
      </trkpt>
      <trkpt lat="44.07168" lon="6.85931">
        <ele>868</ele>
        <time>2017-06-09T08:26:53Z</time>
      </trkpt>
      <trkpt lat="44.07163" lon="6.85927">
        <ele>847</ele>
        <time>2017-06-09T08:26:53Z</time>
      </trkpt>
      <trkpt lat="44.07156" lon="6.85924">
        <ele>847</ele>
        <time>2017-06-09T08:29:12Z</time>
      </trkpt>
      <trkpt lat="44.07155" lon="6.85924">
        <ele>847</ele>
        <time>2017-06-09T08:29:12Z</time>
      </trkpt>
      <trkpt lat="44.07155" lon="6.85922">
        <ele>847</ele>
        <time>2017-06-09T08:29:12Z</time>
      </trkpt>
      <trkpt lat="44.07155" lon="6.8592">
        <ele>847</ele>
        <time>2017-06-09T08:29:12Z</time>
      </trkpt>
      <trkpt lat="44.07155" lon="6.85919">
        <ele>847</ele>
        <time>2017-06-09T08:29:12Z</time>
      </trkpt>
      <trkpt lat="44.07153" lon="6.85929">
        <ele>847</ele>
        <time>2017-06-09T08:30:43Z</time>
      </trkpt>
      <trkpt lat="44.07154" lon="6.8593">
        <ele>847</ele>
        <time>2017-06-09T08:30:43Z</time>
      </trkpt>
      <trkpt lat="44.07155" lon="6.85935">
        <ele>868</ele>
        <time>2017-06-09T08:30:43Z</time>
      </trkpt>
      <trkpt lat="44.07155" lon="6.85935">
        <ele>868</ele>
        <time>2017-06-09T08:30:43Z</time>
      </trkpt>
      <trkpt lat="44.0716" lon="6.85935">
        <ele>868</ele>
        <time>2017-06-09T08:30:43Z</time>
      </trkpt>
      <trkpt lat="44.07158" lon="6.85931">
        <ele>868</ele>
        <time>2017-06-09T08:31:36Z</time>
      </trkpt>
      <trkpt lat="44.07156" lon="6.85929">
        <ele>847</ele>
        <time>2017-06-09T08:31:36Z</time>
      </trkpt>
      <trkpt lat="44.07148" lon="6.85918">
        <ele>847</ele>
        <time>2017-06-09T08:31:36Z</time>
      </trkpt>
      <trkpt lat="44.0714" lon="6.85911">
        <ele>847</ele>
        <time>2017-06-09T08:31:36Z</time>
      </trkpt>
      <trkpt lat="44.07132" lon="6.8591">
        <ele>847</ele>
        <time>2017-06-09T08:31:36Z</time>
      </trkpt>
      <trkpt lat="44.07132" lon="6.85909">
        <ele>847</ele>
        <time>2017-06-09T08:31:53Z</time>
      </trkpt>
      <trkpt lat="44.07128" lon="6.8591">
        <ele>847</ele>
        <time>2017-06-09T08:31:53Z</time>
      </trkpt>
      <trkpt lat="44.07121" lon="6.85909">
        <ele>846</ele>
        <time>2017-06-09T08:31:54Z</time>
      </trkpt>
      <trkpt lat="44.0712" lon="6.8591">
        <ele>846</ele>
        <time>2017-06-09T08:31:55Z</time>
      </trkpt>
      <trkpt lat="44.07115" lon="6.85912">
        <ele>846</ele>
        <time>2017-06-09T08:32:20Z</time>
      </trkpt>
      <trkpt lat="44.07115" lon="6.85914">
        <ele>846</ele>
        <time>2017-06-09T08:32:20Z</time>
      </trkpt>
      <trkpt lat="44.07115" lon="6.85916">
        <ele>846</ele>
        <time>2017-06-09T08:32:20Z</time>
      </trkpt>
      <trkpt lat="44.07115" lon="6.85916">
        <ele>846</ele>
        <time>2017-06-09T08:32:20Z</time>
      </trkpt>
      <trkpt lat="44.0711" lon="6.85917">
        <ele>846</ele>
        <time>2017-06-09T08:32:20Z</time>
      </trkpt>
      <trkpt lat="44.07107" lon="6.85922">
        <ele>846</ele>
        <time>2017-06-09T08:33:08Z</time>
      </trkpt>
      <trkpt lat="44.07105" lon="6.85921">
        <ele>846</ele>
        <time>2017-06-09T08:33:08Z</time>
      </trkpt>
      <trkpt lat="44.07105" lon="6.85921">
        <ele>846</ele>
        <time>2017-06-09T08:33:08Z</time>
      </trkpt>
      <trkpt lat="44.07105" lon="6.85922">
        <ele>846</ele>
        <time>2017-06-09T08:33:08Z</time>
      </trkpt>
      <trkpt lat="44.07103" lon="6.85922">
        <ele>846</ele>
        <time>2017-06-09T08:33:08Z</time>
      </trkpt>
      <trkpt lat="44.071" lon="6.85923">
        <ele>846</ele>
        <time>2017-06-09T08:33:39Z</time>
      </trkpt>
      <trkpt lat="44.071" lon="6.85923">
        <ele>846</ele>
        <time>2017-06-09T08:33:39Z</time>
      </trkpt>
      <trkpt lat="44.071" lon="6.85923">
        <ele>846</ele>
        <time>2017-06-09T08:33:39Z</time>
      </trkpt>
      <trkpt lat="44.07099" lon="6.85925">
        <ele>846</ele>
        <time>2017-06-09T08:33:40Z</time>
      </trkpt>
      <trkpt lat="44.07096" lon="6.85935">
        <ele>852</ele>
        <time>2017-06-09T08:33:40Z</time>
      </trkpt>
      <trkpt lat="44.07094" lon="6.85936">
        <ele>852</ele>
        <time>2017-06-09T08:33:59Z</time>
      </trkpt>
      <trkpt lat="44.07095" lon="6.85944">
        <ele>852</ele>
        <time>2017-06-09T08:33:59Z</time>
      </trkpt>
      <trkpt lat="44.07094" lon="6.85949">
        <ele>852</ele>
        <time>2017-06-09T08:33:59Z</time>
      </trkpt>
      <trkpt lat="44.07091" lon="6.85954">
        <ele>852</ele>
        <time>2017-06-09T08:33:59Z</time>
      </trkpt>
      <trkpt lat="44.07091" lon="6.85957">
        <ele>852</ele>
        <time>2017-06-09T08:34:12Z</time>
      </trkpt>
      <trkpt lat="44.07091" lon="6.85961">
        <ele>866</ele>
        <time>2017-06-09T08:34:12Z</time>
      </trkpt>
      <trkpt lat="44.07086" lon="6.85967">
        <ele>866</ele>
        <time>2017-06-09T08:34:12Z</time>
      </trkpt>
      <trkpt lat="44.07082" lon="6.85972">
        <ele>866</ele>
        <time>2017-06-09T08:34:12Z</time>
      </trkpt>
      <trkpt lat="44.0708" lon="6.85975">
        <ele>866</ele>
        <time>2017-06-09T08:34:28Z</time>
      </trkpt>
      <trkpt lat="44.07079" lon="6.8598">
        <ele>866</ele>
        <time>2017-06-09T08:34:28Z</time>
      </trkpt>
      <trkpt lat="44.07076" lon="6.85984">
        <ele>866</ele>
        <time>2017-06-09T08:34:28Z</time>
      </trkpt>
      <trkpt lat="44.07074" lon="6.85985">
        <ele>866</ele>
        <time>2017-06-09T08:34:28Z</time>
      </trkpt>
      <trkpt lat="44.07063" lon="6.85992">
        <ele>864</ele>
        <time>2017-06-09T08:34:59Z</time>
      </trkpt>
      <trkpt lat="44.07057" lon="6.85999">
        <ele>864</ele>
        <time>2017-06-09T08:34:59Z</time>
      </trkpt>
      <trkpt lat="44.07054" lon="6.86009">
        <ele>864</ele>
        <time>2017-06-09T08:35:00Z</time>
      </trkpt>
      <trkpt lat="44.07047" lon="6.86017">
        <ele>878</ele>
        <time>2017-06-09T08:35:00Z</time>
      </trkpt>
      <trkpt lat="44.07046" lon="6.86018">
        <ele>878</ele>
        <time>2017-06-09T08:35:13Z</time>
      </trkpt>
      <trkpt lat="44.07042" lon="6.86019">
        <ele>878</ele>
        <time>2017-06-09T08:35:13Z</time>
      </trkpt>
      <trkpt lat="44.07035" lon="6.8602">
        <ele>866</ele>
        <time>2017-06-09T08:35:13Z</time>
      </trkpt>
      <trkpt lat="44.07034" lon="6.86022">
        <ele>866</ele>
        <time>2017-06-09T08:35:13Z</time>
      </trkpt>
      <trkpt lat="44.07031" lon="6.86023">
        <ele>866</ele>
        <time>2017-06-09T08:35:46Z</time>
      </trkpt>
      <trkpt lat="44.07029" lon="6.86024">
        <ele>866</ele>
        <time>2017-06-09T08:35:47Z</time>
      </trkpt>
      <trkpt lat="44.0702" lon="6.86029">
        <ele>866</ele>
        <time>2017-06-09T08:35:47Z</time>
      </trkpt>
      <trkpt lat="44.0702" lon="6.86031">
        <ele>866</ele>
        <time>2017-06-09T08:35:48Z</time>
      </trkpt>
      <trkpt lat="44.07018" lon="6.8604">
        <ele>866</ele>
        <time>2017-06-09T08:35:48Z</time>
      </trkpt>
      <trkpt lat="44.07019" lon="6.86041">
        <ele>866</ele>
        <time>2017-06-09T08:36:12Z</time>
      </trkpt>
      <trkpt lat="44.0702" lon="6.8605">
        <ele>876</ele>
        <time>2017-06-09T08:36:12Z</time>
      </trkpt>
      <trkpt lat="44.07021" lon="6.86053">
        <ele>876</ele>
        <time>2017-06-09T08:36:12Z</time>
      </trkpt>
      <trkpt lat="44.0702" lon="6.86054">
        <ele>876</ele>
        <time>2017-06-09T08:36:13Z</time>
      </trkpt>
      <trkpt lat="44.07013" lon="6.8606">
        <ele>860</ele>
        <time>2017-06-09T08:36:14Z</time>
      </trkpt>
      <trkpt lat="44.07011" lon="6.86061">
        <ele>860</ele>
        <time>2017-06-09T08:36:24Z</time>
      </trkpt>
      <trkpt lat="44.07008" lon="6.86068">
        <ele>860</ele>
        <time>2017-06-09T08:36:24Z</time>
      </trkpt>
      <trkpt lat="44.07005" lon="6.86071">
        <ele>868</ele>
        <time>2017-06-09T08:36:24Z</time>
      </trkpt>
      <trkpt lat="44.07003" lon="6.86075">
        <ele>868</ele>
        <time>2017-06-09T08:36:24Z</time>
      </trkpt>
      <trkpt lat="44.07001" lon="6.8608">
        <ele>868</ele>
        <time>2017-06-09T08:36:43Z</time>
      </trkpt>
      <trkpt lat="44.06992" lon="6.86085">
        <ele>868</ele>
        <time>2017-06-09T08:36:43Z</time>
      </trkpt>
      <trkpt lat="44.06992" lon="6.86087">
        <ele>868</ele>
        <time>2017-06-09T08:36:43Z</time>
      </trkpt>
      <trkpt lat="44.0699" lon="6.86092">
        <ele>868</ele>
        <time>2017-06-09T08:36:43Z</time>
      </trkpt>
      <trkpt lat="44.0699" lon="6.86103">
        <ele>875</ele>
        <time>2017-06-09T08:37:04Z</time>
      </trkpt>
      <trkpt lat="44.06989" lon="6.86105">
        <ele>875</ele>
        <time>2017-06-09T08:37:04Z</time>
      </trkpt>
      <trkpt lat="44.06988" lon="6.86108">
        <ele>875</ele>
        <time>2017-06-09T08:37:04Z</time>
      </trkpt>
      <trkpt lat="44.06988" lon="6.86109">
        <ele>875</ele>
        <time>2017-06-09T08:37:04Z</time>
      </trkpt>
      <trkpt lat="44.06986" lon="6.86112">
        <ele>875</ele>
        <time>2017-06-09T08:37:04Z</time>
      </trkpt>
      <trkpt lat="44.06982" lon="6.86123">
        <ele>862</ele>
        <time>2017-06-09T08:37:36Z</time>
      </trkpt>
      <trkpt lat="44.06975" lon="6.86131">
        <ele>876</ele>
        <time>2017-06-09T08:37:36Z</time>
      </trkpt>
      <trkpt lat="44.06961" lon="6.86131">
        <ele>876</ele>
        <time>2017-06-09T08:37:36Z</time>
      </trkpt>
      <trkpt lat="44.06951" lon="6.86129">
        <ele>875</ele>
        <time>2017-06-09T08:37:36Z</time>
      </trkpt>
      <trkpt lat="44.0695" lon="6.86129">
        <ele>875</ele>
        <time>2017-06-09T08:38:00Z</time>
      </trkpt>
      <trkpt lat="44.06942" lon="6.86126">
        <ele>875</ele>
        <time>2017-06-09T08:38:00Z</time>
      </trkpt>
      <trkpt lat="44.06937" lon="6.86121">
        <ele>854</ele>
        <time>2017-06-09T08:38:00Z</time>
      </trkpt>
      <trkpt lat="44.06932" lon="6.86116">
        <ele>854</ele>
        <time>2017-06-09T08:38:00Z</time>
      </trkpt>
      <trkpt lat="44.06929" lon="6.86116">
        <ele>862</ele>
        <time>2017-06-09T08:38:16Z</time>
      </trkpt>
      <trkpt lat="44.06927" lon="6.8612">
        <ele>862</ele>
        <time>2017-06-09T08:38:16Z</time>
      </trkpt>
      <trkpt lat="44.06923" lon="6.86122">
        <ele>862</ele>
        <time>2017-06-09T08:38:16Z</time>
      </trkpt>
      <trkpt lat="44.0692" lon="6.86122">
        <ele>862</ele>
        <time>2017-06-09T08:38:16Z</time>
      </trkpt>
      <trkpt lat="44.06913" lon="6.86122">
        <ele>862</ele>
        <time>2017-06-09T08:38:33Z</time>
      </trkpt>
      <trkpt lat="44.06909" lon="6.86122">
        <ele>862</ele>
        <time>2017-06-09T08:38:33Z</time>
      </trkpt>
      <trkpt lat="44.069" lon="6.8612">
        <ele>866</ele>
        <time>2017-06-09T08:38:33Z</time>
      </trkpt>
      <trkpt lat="44.06899" lon="6.8612">
        <ele>866</ele>
        <time>2017-06-09T08:38:33Z</time>
      </trkpt>
      <trkpt lat="44.06891" lon="6.86119">
        <ele>866</ele>
        <time>2017-06-09T08:38:52Z</time>
      </trkpt>
      <trkpt lat="44.06889" lon="6.86118">
        <ele>866</ele>
        <time>2017-06-09T08:38:52Z</time>
      </trkpt>
      <trkpt lat="44.06887" lon="6.86118">
        <ele>866</ele>
        <time>2017-06-09T08:38:52Z</time>
      </trkpt>
      <trkpt lat="44.06886" lon="6.86117">
        <ele>866</ele>
        <time>2017-06-09T08:38:52Z</time>
      </trkpt>
      <trkpt lat="44.06881" lon="6.86116">
        <ele>866</ele>
        <time>2017-06-09T08:38:52Z</time>
      </trkpt>
      <trkpt lat="44.06872" lon="6.86117">
        <ele>857</ele>
        <time>2017-06-09T08:39:20Z</time>
      </trkpt>
      <trkpt lat="44.06871" lon="6.86118">
        <ele>857</ele>
        <time>2017-06-09T08:39:20Z</time>
      </trkpt>
      <trkpt lat="44.06869" lon="6.86119">
        <ele>857</ele>
        <time>2017-06-09T08:39:20Z</time>
      </trkpt>
      <trkpt lat="44.06868" lon="6.8612">
        <ele>857</ele>
        <time>2017-06-09T08:39:20Z</time>
      </trkpt>
      <trkpt lat="44.06866" lon="6.86121">
        <ele>857</ele>
        <time>2017-06-09T08:39:20Z</time>
      </trkpt>
      <trkpt lat="44.06856" lon="6.86124">
        <ele>857</ele>
        <time>2017-06-09T08:41:21Z</time>
      </trkpt>
      <trkpt lat="44.06857" lon="6.86134">
        <ele>872</ele>
        <time>2017-06-09T08:41:21Z</time>
      </trkpt>
      <trkpt lat="44.06854" lon="6.86135">
        <ele>872</ele>
        <time>2017-06-09T08:41:21Z</time>
      </trkpt>
      <trkpt lat="44.06854" lon="6.86139">
        <ele>872</ele>
        <time>2017-06-09T08:41:21Z</time>
      </trkpt>
      <trkpt lat="44.06851" lon="6.8614">
        <ele>872</ele>
        <time>2017-06-09T08:41:21Z</time>
      </trkpt>
      <trkpt lat="44.06849" lon="6.86142">
        <ele>872</ele>
        <time>2017-06-09T08:41:37Z</time>
      </trkpt>
      <trkpt lat="44.06848" lon="6.86145">
        <ele>872</ele>
        <time>2017-06-09T08:41:37Z</time>
      </trkpt>
      <trkpt lat="44.06842" lon="6.86156">
        <ele>868</ele>
        <time>2017-06-09T08:41:37Z</time>
      </trkpt>
      <trkpt lat="44.06844" lon="6.86158">
        <ele>868</ele>
        <time>2017-06-09T08:41:37Z</time>
      </trkpt>
      <trkpt lat="44.0684" lon="6.86165">
        <ele>868</ele>
        <time>2017-06-09T08:41:56Z</time>
      </trkpt>
      <trkpt lat="44.0684" lon="6.86169">
        <ele>868</ele>
        <time>2017-06-09T08:41:56Z</time>
      </trkpt>
      <trkpt lat="44.06837" lon="6.86173">
        <ele>868</ele>
        <time>2017-06-09T08:41:56Z</time>
      </trkpt>
      <trkpt lat="44.06837" lon="6.86177">
        <ele>868</ele>
        <time>2017-06-09T08:41:56Z</time>
      </trkpt>
      <trkpt lat="44.06835" lon="6.8618">
        <ele>868</ele>
        <time>2017-06-09T08:41:56Z</time>
      </trkpt>
      <trkpt lat="44.06833" lon="6.86185">
        <ele>882</ele>
        <time>2017-06-09T08:42:18Z</time>
      </trkpt>
      <trkpt lat="44.06832" lon="6.86185">
        <ele>882</ele>
        <time>2017-06-09T08:42:18Z</time>
      </trkpt>
      <trkpt lat="44.06831" lon="6.86184">
        <ele>882</ele>
        <time>2017-06-09T08:42:18Z</time>
      </trkpt>
      <trkpt lat="44.06825" lon="6.86187">
        <ele>882</ele>
        <time>2017-06-09T08:42:18Z</time>
      </trkpt>
      <trkpt lat="44.06823" lon="6.86188">
        <ele>882</ele>
        <time>2017-06-09T08:42:18Z</time>
      </trkpt>
      <trkpt lat="44.06821" lon="6.86191">
        <ele>882</ele>
        <time>2017-06-09T08:42:34Z</time>
      </trkpt>
      <trkpt lat="44.06819" lon="6.86197">
        <ele>867</ele>
        <time>2017-06-09T08:42:34Z</time>
      </trkpt>
      <trkpt lat="44.06815" lon="6.86201">
        <ele>867</ele>
        <time>2017-06-09T08:42:34Z</time>
      </trkpt>
      <trkpt lat="44.06814" lon="6.86207">
        <ele>867</ele>
        <time>2017-06-09T08:42:34Z</time>
      </trkpt>
      <trkpt lat="44.06808" lon="6.86211">
        <ele>880</ele>
        <time>2017-06-09T08:42:50Z</time>
      </trkpt>
      <trkpt lat="44.06804" lon="6.8622">
        <ele>880</ele>
        <time>2017-06-09T08:42:50Z</time>
      </trkpt>
      <trkpt lat="44.06802" lon="6.86222">
        <ele>880</ele>
        <time>2017-06-09T08:42:50Z</time>
      </trkpt>
      <trkpt lat="44.068" lon="6.86227">
        <ele>880</ele>
        <time>2017-06-09T08:42:50Z</time>
      </trkpt>
      <trkpt lat="44.06799" lon="6.8624">
        <ele>892</ele>
        <time>2017-06-09T08:43:14Z</time>
      </trkpt>
      <trkpt lat="44.068" lon="6.86242">
        <ele>892</ele>
        <time>2017-06-09T08:43:14Z</time>
      </trkpt>
      <trkpt lat="44.06799" lon="6.86243">
        <ele>892</ele>
        <time>2017-06-09T08:43:15Z</time>
      </trkpt>
      <trkpt lat="44.06798" lon="6.86246">
        <ele>892</ele>
        <time>2017-06-09T08:43:15Z</time>
      </trkpt>
      <trkpt lat="44.068" lon="6.86253">
        <ele>892</ele>
        <time>2017-06-09T08:43:16Z</time>
      </trkpt>
      <trkpt lat="44.06797" lon="6.86256">
        <ele>892</ele>
        <time>2017-06-09T08:43:39Z</time>
      </trkpt>
      <trkpt lat="44.06796" lon="6.86257">
        <ele>892</ele>
        <time>2017-06-09T08:43:39Z</time>
      </trkpt>
      <trkpt lat="44.06791" lon="6.86258">
        <ele>879</ele>
        <time>2017-06-09T08:43:39Z</time>
      </trkpt>
      <trkpt lat="44.0679" lon="6.86259">
        <ele>879</ele>
        <time>2017-06-09T08:43:39Z</time>
      </trkpt>
      <trkpt lat="44.06786" lon="6.86263">
        <ele>879</ele>
        <time>2017-06-09T08:43:39Z</time>
      </trkpt>
      <trkpt lat="44.06783" lon="6.86268">
        <ele>889</ele>
        <time>2017-06-09T08:44:12Z</time>
      </trkpt>
      <trkpt lat="44.06783" lon="6.86269">
        <ele>889</ele>
        <time>2017-06-09T08:44:12Z</time>
      </trkpt>
      <trkpt lat="44.0678" lon="6.86269">
        <ele>889</ele>
        <time>2017-06-09T08:44:12Z</time>
      </trkpt>
      <trkpt lat="44.0678" lon="6.86269">
        <ele>889</ele>
        <time>2017-06-09T08:44:12Z</time>
      </trkpt>
      <trkpt lat="44.06776" lon="6.86273">
        <ele>889</ele>
        <time>2017-06-09T08:44:12Z</time>
      </trkpt>
      <trkpt lat="44.06775" lon="6.86277">
        <ele>889</ele>
        <time>2017-06-09T08:44:52Z</time>
      </trkpt>
      <trkpt lat="44.06774" lon="6.86277">
        <ele>889</ele>
        <time>2017-06-09T08:44:52Z</time>
      </trkpt>
      <trkpt lat="44.06773" lon="6.86279">
        <ele>889</ele>
        <time>2017-06-09T08:44:52Z</time>
      </trkpt>
      <trkpt lat="44.06772" lon="6.86288">
        <ele>889</ele>
        <time>2017-06-09T08:44:52Z</time>
      </trkpt>
      <trkpt lat="44.06769" lon="6.86295">
        <ele>896</ele>
        <time>2017-06-09T08:44:52Z</time>
      </trkpt>
      <trkpt lat="44.06769" lon="6.86297">
        <ele>896</ele>
        <time>2017-06-09T08:45:12Z</time>
      </trkpt>
      <trkpt lat="44.06768" lon="6.86309">
        <ele>896</ele>
        <time>2017-06-09T08:45:12Z</time>
      </trkpt>
      <trkpt lat="44.06766" lon="6.86315">
        <ele>896</ele>
        <time>2017-06-09T08:45:13Z</time>
      </trkpt>
      <trkpt lat="44.06768" lon="6.86322">
        <ele>903</ele>
        <time>2017-06-09T08:45:14Z</time>
      </trkpt>
      <trkpt lat="44.06768" lon="6.86324">
        <ele>903</ele>
        <time>2017-06-09T08:45:24Z</time>
      </trkpt>
      <trkpt lat="44.06765" lon="6.86329">
        <ele>903</ele>
        <time>2017-06-09T08:45:24Z</time>
      </trkpt>
      <trkpt lat="44.06765" lon="6.86331">
        <ele>903</ele>
        <time>2017-06-09T08:45:24Z</time>
      </trkpt>
      <trkpt lat="44.06768" lon="6.86338">
        <ele>903</ele>
        <time>2017-06-09T08:45:24Z</time>
      </trkpt>
      <trkpt lat="44.06769" lon="6.86344">
        <ele>903</ele>
        <time>2017-06-09T08:45:40Z</time>
      </trkpt>
      <trkpt lat="44.06772" lon="6.8635">
        <ele>907</ele>
        <time>2017-06-09T08:45:40Z</time>
      </trkpt>
      <trkpt lat="44.06773" lon="6.86356">
        <ele>907</ele>
        <time>2017-06-09T08:45:40Z</time>
      </trkpt>
      <trkpt lat="44.06777" lon="6.86362">
        <ele>907</ele>
        <time>2017-06-09T08:45:40Z</time>
      </trkpt>
      <trkpt lat="44.06783" lon="6.86367">
        <ele>907</ele>
        <time>2017-06-09T08:45:57Z</time>
      </trkpt>
      <trkpt lat="44.06782" lon="6.86373">
        <ele>907</ele>
        <time>2017-06-09T08:45:57Z</time>
      </trkpt>
      <trkpt lat="44.0678" lon="6.86376">
        <ele>912</ele>
        <time>2017-06-09T08:45:57Z</time>
      </trkpt>
      <trkpt lat="44.06776" lon="6.86377">
        <ele>912</ele>
        <time>2017-06-09T08:45:57Z</time>
      </trkpt>
      <trkpt lat="44.06774" lon="6.86377">
        <ele>912</ele>
        <time>2017-06-09T08:46:15Z</time>
      </trkpt>
      <trkpt lat="44.06769" lon="6.86385">
        <ele>912</ele>
        <time>2017-06-09T08:46:15Z</time>
      </trkpt>
      <trkpt lat="44.06769" lon="6.86386">
        <ele>912</ele>
        <time>2017-06-09T08:46:15Z</time>
      </trkpt>
      <trkpt lat="44.06764" lon="6.86397">
        <ele>899</ele>
        <time>2017-06-09T08:46:15Z</time>
      </trkpt>
      <trkpt lat="44.06763" lon="6.86399">
        <ele>899</ele>
        <time>2017-06-09T08:46:28Z</time>
      </trkpt>
      <trkpt lat="44.06756" lon="6.86405">
        <ele>905</ele>
        <time>2017-06-09T08:46:28Z</time>
      </trkpt>
      <trkpt lat="44.06752" lon="6.86407">
        <ele>905</ele>
        <time>2017-06-09T08:46:28Z</time>
      </trkpt>
      <trkpt lat="44.06745" lon="6.8641">
        <ele>905</ele>
        <time>2017-06-09T08:46:28Z</time>
      </trkpt>
      <trkpt lat="44.06741" lon="6.8641">
        <ele>905</ele>
        <time>2017-06-09T08:46:45Z</time>
      </trkpt>
      <trkpt lat="44.06736" lon="6.86412">
        <ele>905</ele>
        <time>2017-06-09T08:46:45Z</time>
      </trkpt>
      <trkpt lat="44.06732" lon="6.86417">
        <ele>896</ele>
        <time>2017-06-09T08:46:45Z</time>
      </trkpt>
      <trkpt lat="44.0673" lon="6.86423">
        <ele>896</ele>
        <time>2017-06-09T08:46:46Z</time>
      </trkpt>
      <trkpt lat="44.06728" lon="6.86428">
        <ele>896</ele>
        <time>2017-06-09T08:47:01Z</time>
      </trkpt>
      <trkpt lat="44.06724" lon="6.86434">
        <ele>904</ele>
        <time>2017-06-09T08:47:01Z</time>
      </trkpt>
      <trkpt lat="44.06723" lon="6.86435">
        <ele>904</ele>
        <time>2017-06-09T08:47:01Z</time>
      </trkpt>
      <trkpt lat="44.06719" lon="6.86442">
        <ele>904</ele>
        <time>2017-06-09T08:47:01Z</time>
      </trkpt>
      <trkpt lat="44.06716" lon="6.86444">
        <ele>904</ele>
        <time>2017-06-09T08:47:27Z</time>
      </trkpt>
      <trkpt lat="44.06707" lon="6.86452">
        <ele>889</ele>
        <time>2017-06-09T08:47:27Z</time>
      </trkpt>
      <trkpt lat="44.06705" lon="6.86464">
        <ele>895</ele>
        <time>2017-06-09T08:47:27Z</time>
      </trkpt>
      <trkpt lat="44.06707" lon="6.86473">
        <ele>895</ele>
        <time>2017-06-09T08:47:27Z</time>
      </trkpt>
      <trkpt lat="44.06708" lon="6.86476">
        <ele>895</ele>
        <time>2017-06-09T08:47:43Z</time>
      </trkpt>
      <trkpt lat="44.0671" lon="6.8649">
        <ele>920</ele>
        <time>2017-06-09T08:47:43Z</time>
      </trkpt>
      <trkpt lat="44.06709" lon="6.86493">
        <ele>920</ele>
        <time>2017-06-09T08:47:43Z</time>
      </trkpt>
      <trkpt lat="44.0671" lon="6.86502">
        <ele>920</ele>
        <time>2017-06-09T08:47:43Z</time>
      </trkpt>
      <trkpt lat="44.0671" lon="6.86505">
        <ele>920</ele>
        <time>2017-06-09T08:47:59Z</time>
      </trkpt>
      <trkpt lat="44.06714" lon="6.86512">
        <ele>920</ele>
        <time>2017-06-09T08:47:59Z</time>
      </trkpt>
      <trkpt lat="44.06716" lon="6.86516">
        <ele>925</ele>
        <time>2017-06-09T08:47:59Z</time>
      </trkpt>
      <trkpt lat="44.06716" lon="6.86517">
        <ele>925</ele>
        <time>2017-06-09T08:47:59Z</time>
      </trkpt>
      <trkpt lat="44.06714" lon="6.86518">
        <ele>925</ele>
        <time>2017-06-09T08:48:49Z</time>
      </trkpt>
      <trkpt lat="44.06717" lon="6.86522">
        <ele>925</ele>
        <time>2017-06-09T08:48:50Z</time>
      </trkpt>
      <trkpt lat="44.06721" lon="6.86526">
        <ele>925</ele>
        <time>2017-06-09T08:48:50Z</time>
      </trkpt>
      <trkpt lat="44.06723" lon="6.8653">
        <ele>925</ele>
        <time>2017-06-09T08:48:51Z</time>
      </trkpt>
      <trkpt lat="44.06724" lon="6.86532">
        <ele>925</ele>
        <time>2017-06-09T08:48:51Z</time>
      </trkpt>
      <trkpt lat="44.06723" lon="6.86535">
        <ele>925</ele>
        <time>2017-06-09T08:49:04Z</time>
      </trkpt>
      <trkpt lat="44.06717" lon="6.86544">
        <ele>929</ele>
        <time>2017-06-09T08:49:04Z</time>
      </trkpt>
      <trkpt lat="44.06716" lon="6.86544">
        <ele>929</ele>
        <time>2017-06-09T08:49:04Z</time>
      </trkpt>
      <trkpt lat="44.06713" lon="6.86547">
        <ele>929</ele>
        <time>2017-06-09T08:49:04Z</time>
      </trkpt>
      <trkpt lat="44.06711" lon="6.86551">
        <ele>929</ele>
        <time>2017-06-09T08:49:28Z</time>
      </trkpt>
      <trkpt lat="44.06707" lon="6.86556">
        <ele>915</ele>
        <time>2017-06-09T08:49:28Z</time>
      </trkpt>
      <trkpt lat="44.06704" lon="6.86568">
        <ele>915</ele>
        <time>2017-06-09T08:49:28Z</time>
      </trkpt>
      <trkpt lat="44.06696" lon="6.86577">
        <ele>924</ele>
        <time>2017-06-09T08:49:28Z</time>
      </trkpt>
      <trkpt lat="44.06695" lon="6.86577">
        <ele>924</ele>
        <time>2017-06-09T08:49:43Z</time>
      </trkpt>
      <trkpt lat="44.06691" lon="6.86582">
        <ele>924</ele>
        <time>2017-06-09T08:49:43Z</time>
      </trkpt>
      <trkpt lat="44.06689" lon="6.86585">
        <ele>924</ele>
        <time>2017-06-09T08:49:43Z</time>
      </trkpt>
      <trkpt lat="44.06685" lon="6.86592">
        <ele>924</ele>
        <time>2017-06-09T08:49:44Z</time>
      </trkpt>
      <trkpt lat="44.06681" lon="6.86593">
        <ele>924</ele>
        <time>2017-06-09T08:49:59Z</time>
      </trkpt>
      <trkpt lat="44.06681" lon="6.86599">
        <ele>931</ele>
        <time>2017-06-09T08:49:59Z</time>
      </trkpt>
      <trkpt lat="44.06679" lon="6.86607">
        <ele>913</ele>
        <time>2017-06-09T08:49:59Z</time>
      </trkpt>
      <trkpt lat="44.06675" lon="6.86612">
        <ele>913</ele>
        <time>2017-06-09T08:49:59Z</time>
      </trkpt>
      <trkpt lat="44.06672" lon="6.86613">
        <ele>913</ele>
        <time>2017-06-09T08:50:12Z</time>
      </trkpt>
      <trkpt lat="44.06669" lon="6.86618">
        <ele>913</ele>
        <time>2017-06-09T08:50:13Z</time>
      </trkpt>
      <trkpt lat="44.06667" lon="6.86629">
        <ele>917</ele>
        <time>2017-06-09T08:50:13Z</time>
      </trkpt>
      <trkpt lat="44.06668" lon="6.8663">
        <ele>917</ele>
        <time>2017-06-09T08:50:13Z</time>
      </trkpt>
      <trkpt lat="44.06672" lon="6.86637">
        <ele>917</ele>
        <time>2017-06-09T08:50:28Z</time>
      </trkpt>
      <trkpt lat="44.06675" lon="6.8664">
        <ele>917</ele>
        <time>2017-06-09T08:50:28Z</time>
      </trkpt>
      <trkpt lat="44.06679" lon="6.86644">
        <ele>917</ele>
        <time>2017-06-09T08:50:28Z</time>
      </trkpt>
      <trkpt lat="44.06686" lon="6.86652">
        <ele>939</ele>
        <time>2017-06-09T08:50:28Z</time>
      </trkpt>
      <trkpt lat="44.06684" lon="6.86657">
        <ele>946</ele>
        <time>2017-06-09T08:50:46Z</time>
      </trkpt>
      <trkpt lat="44.06684" lon="6.86664">
        <ele>946</ele>
        <time>2017-06-09T08:50:46Z</time>
      </trkpt>
      <trkpt lat="44.06685" lon="6.86671">
        <ele>946</ele>
        <time>2017-06-09T08:50:46Z</time>
      </trkpt>
      <trkpt lat="44.06685" lon="6.86675">
        <ele>946</ele>
        <time>2017-06-09T08:50:46Z</time>
      </trkpt>
      <trkpt lat="44.06684" lon="6.86676">
        <ele>946</ele>
        <time>2017-06-09T08:51:01Z</time>
      </trkpt>
      <trkpt lat="44.06677" lon="6.86686">
        <ele>933</ele>
        <time>2017-06-09T08:51:01Z</time>
      </trkpt>
      <trkpt lat="44.06674" lon="6.86688">
        <ele>933</ele>
        <time>2017-06-09T08:51:01Z</time>
      </trkpt>
      <trkpt lat="44.0667" lon="6.86693">
        <ele>933</ele>
        <time>2017-06-09T08:51:01Z</time>
      </trkpt>
      <trkpt lat="44.06667" lon="6.86696">
        <ele>933</ele>
        <time>2017-06-09T08:51:20Z</time>
      </trkpt>
      <trkpt lat="44.06655" lon="6.86704">
        <ele>933</ele>
        <time>2017-06-09T08:51:20Z</time>
      </trkpt>
      <trkpt lat="44.06648" lon="6.86712">
        <ele>928</ele>
        <time>2017-06-09T08:51:20Z</time>
      </trkpt>
      <trkpt lat="44.06645" lon="6.86714">
        <ele>928</ele>
        <time>2017-06-09T08:51:20Z</time>
      </trkpt>
      <trkpt lat="44.06641" lon="6.86719">
        <ele>928</ele>
        <time>2017-06-09T08:51:36Z</time>
      </trkpt>
      <trkpt lat="44.06639" lon="6.86724">
        <ele>928</ele>
        <time>2017-06-09T08:51:36Z</time>
      </trkpt>
      <trkpt lat="44.06635" lon="6.86727">
        <ele>928</ele>
        <time>2017-06-09T08:51:36Z</time>
      </trkpt>
      <trkpt lat="44.06633" lon="6.86733">
        <ele>928</ele>
        <time>2017-06-09T08:51:36Z</time>
      </trkpt>
      <trkpt lat="44.0663" lon="6.8674">
        <ele>936</ele>
        <time>2017-06-09T08:51:54Z</time>
      </trkpt>
      <trkpt lat="44.06632" lon="6.86746">
        <ele>936</ele>
        <time>2017-06-09T08:51:54Z</time>
      </trkpt>
      <trkpt lat="44.06635" lon="6.86754">
        <ele>936</ele>
        <time>2017-06-09T08:51:54Z</time>
      </trkpt>
      <trkpt lat="44.06635" lon="6.86759">
        <ele>936</ele>
        <time>2017-06-09T08:51:55Z</time>
      </trkpt>
      <trkpt lat="44.06634" lon="6.86762">
        <ele>936</ele>
        <time>2017-06-09T08:52:12Z</time>
      </trkpt>
      <trkpt lat="44.06629" lon="6.86765">
        <ele>942</ele>
        <time>2017-06-09T08:52:12Z</time>
      </trkpt>
      <trkpt lat="44.06624" lon="6.86765">
        <ele>935</ele>
        <time>2017-06-09T08:52:12Z</time>
      </trkpt>
      <trkpt lat="44.06618" lon="6.86768">
        <ele>935</ele>
        <time>2017-06-09T08:52:12Z</time>
      </trkpt>
      <trkpt lat="44.06612" lon="6.86771">
        <ele>935</ele>
        <time>2017-06-09T08:54:12Z</time>
      </trkpt>
      <trkpt lat="44.06612" lon="6.86771">
        <ele>935</ele>
        <time>2017-06-09T08:54:12Z</time>
      </trkpt>
      <trkpt lat="44.06611" lon="6.86772">
        <ele>935</ele>
        <time>2017-06-09T08:54:12Z</time>
      </trkpt>
      <trkpt lat="44.0661" lon="6.8677">
        <ele>935</ele>
        <time>2017-06-09T08:54:12Z</time>
      </trkpt>
      <trkpt lat="44.06608" lon="6.86773">
        <ele>935</ele>
        <time>2017-06-09T08:54:12Z</time>
      </trkpt>
      <trkpt lat="44.06608" lon="6.86773">
        <ele>935</ele>
        <time>2017-06-09T08:54:28Z</time>
      </trkpt>
      <trkpt lat="44.06605" lon="6.86777">
        <ele>935</ele>
        <time>2017-06-09T08:54:28Z</time>
      </trkpt>
      <trkpt lat="44.06605" lon="6.86778">
        <ele>935</ele>
        <time>2017-06-09T08:54:28Z</time>
      </trkpt>
      <trkpt lat="44.06603" lon="6.8678">
        <ele>935</ele>
        <time>2017-06-09T08:54:28Z</time>
      </trkpt>
      <trkpt lat="44.066" lon="6.86783">
        <ele>935</ele>
        <time>2017-06-09T08:54:28Z</time>
      </trkpt>
      <trkpt lat="44.06599" lon="6.86785">
        <ele>935</ele>
        <time>2017-06-09T08:54:56Z</time>
      </trkpt>
      <trkpt lat="44.06591" lon="6.86791">
        <ele>933</ele>
        <time>2017-06-09T08:54:56Z</time>
      </trkpt>
      <trkpt lat="44.06581" lon="6.86792">
        <ele>939</ele>
        <time>2017-06-09T08:54:56Z</time>
      </trkpt>
      <trkpt lat="44.06568" lon="6.86795">
        <ele>943</ele>
        <time>2017-06-09T08:54:56Z</time>
      </trkpt>
      <trkpt lat="44.06566" lon="6.86795">
        <ele>943</ele>
        <time>2017-06-09T08:55:08Z</time>
      </trkpt>
      <trkpt lat="44.06563" lon="6.86798">
        <ele>943</ele>
        <time>2017-06-09T08:55:08Z</time>
      </trkpt>
      <trkpt lat="44.06559" lon="6.86797">
        <ele>943</ele>
        <time>2017-06-09T08:55:08Z</time>
      </trkpt>
      <trkpt lat="44.06552" lon="6.86795">
        <ele>943</ele>
        <time>2017-06-09T08:55:08Z</time>
      </trkpt>
      <trkpt lat="44.0655" lon="6.86797">
        <ele>943</ele>
        <time>2017-06-09T08:55:38Z</time>
      </trkpt>
      <trkpt lat="44.06547" lon="6.86792">
        <ele>943</ele>
        <time>2017-06-09T08:55:38Z</time>
      </trkpt>
      <trkpt lat="44.06551" lon="6.86788">
        <ele>941</ele>
        <time>2017-06-09T08:55:38Z</time>
      </trkpt>
      <trkpt lat="44.06558" lon="6.86792">
        <ele>943</ele>
        <time>2017-06-09T08:55:38Z</time>
      </trkpt>
      <trkpt lat="44.0656" lon="6.86791">
        <ele>941</ele>
        <time>2017-06-09T08:55:38Z</time>
      </trkpt>
      <trkpt lat="44.0656" lon="6.8679">
        <ele>941</ele>
        <time>2017-06-09T08:55:52Z</time>
      </trkpt>
      <trkpt lat="44.06561" lon="6.86784">
        <ele>941</ele>
        <time>2017-06-09T08:55:52Z</time>
      </trkpt>
      <trkpt lat="44.06559" lon="6.86776">
        <ele>941</ele>
        <time>2017-06-09T08:55:52Z</time>
      </trkpt>
      <trkpt lat="44.06559" lon="6.86774">
        <ele>941</ele>
        <time>2017-06-09T08:55:52Z</time>
      </trkpt>
      <trkpt lat="44.06558" lon="6.8677">
        <ele>941</ele>
        <time>2017-06-09T08:56:11Z</time>
      </trkpt>
      <trkpt lat="44.06555" lon="6.86765">
        <ele>941</ele>
        <time>2017-06-09T08:56:11Z</time>
      </trkpt>
      <trkpt lat="44.06559" lon="6.86761">
        <ele>940</ele>
        <time>2017-06-09T08:56:12Z</time>
      </trkpt>
      <trkpt lat="44.06556" lon="6.86754">
        <ele>940</ele>
        <time>2017-06-09T08:56:12Z</time>
      </trkpt>
      <trkpt lat="44.06552" lon="6.86751">
        <ele>940</ele>
        <time>2017-06-09T08:56:38Z</time>
      </trkpt>
      <trkpt lat="44.06552" lon="6.86751">
        <ele>940</ele>
        <time>2017-06-09T08:56:38Z</time>
      </trkpt>
      <trkpt lat="44.06551" lon="6.86749">
        <ele>940</ele>
        <time>2017-06-09T08:56:38Z</time>
      </trkpt>
      <trkpt lat="44.06551" lon="6.86747">
        <ele>940</ele>
        <time>2017-06-09T08:56:38Z</time>
      </trkpt>
      <trkpt lat="44.06548" lon="6.86742">
        <ele>940</ele>
        <time>2017-06-09T08:56:38Z</time>
      </trkpt>
      <trkpt lat="44.06544" lon="6.86742">
        <ele>940</ele>
        <time>2017-06-09T08:57:15Z</time>
      </trkpt>
      <trkpt lat="44.06544" lon="6.86742">
        <ele>940</ele>
        <time>2017-06-09T08:57:15Z</time>
      </trkpt>
      <trkpt lat="44.06544" lon="6.86742">
        <ele>940</ele>
        <time>2017-06-09T08:57:15Z</time>
      </trkpt>
      <trkpt lat="44.06543" lon="6.8674">
        <ele>940</ele>
        <time>2017-06-09T08:57:16Z</time>
      </trkpt>
      <trkpt lat="44.06538" lon="6.86736">
        <ele>950</ele>
        <time>2017-06-09T08:57:16Z</time>
      </trkpt>
      <trkpt lat="44.06538" lon="6.86733">
        <ele>950</ele>
        <time>2017-06-09T08:57:35Z</time>
      </trkpt>
      <trkpt lat="44.06533" lon="6.86727">
        <ele>950</ele>
        <time>2017-06-09T08:57:35Z</time>
      </trkpt>
      <trkpt lat="44.06533" lon="6.86726">
        <ele>950</ele>
        <time>2017-06-09T08:57:35Z</time>
      </trkpt>
      <trkpt lat="44.06529" lon="6.86725">
        <ele>950</ele>
        <time>2017-06-09T08:57:35Z</time>
      </trkpt>
      <trkpt lat="44.06527" lon="6.86723">
        <ele>950</ele>
        <time>2017-06-09T08:57:55Z</time>
      </trkpt>
      <trkpt lat="44.06524" lon="6.86724">
        <ele>950</ele>
        <time>2017-06-09T08:57:56Z</time>
      </trkpt>
      <trkpt lat="44.06523" lon="6.86724">
        <ele>950</ele>
        <time>2017-06-09T08:57:56Z</time>
      </trkpt>
      <trkpt lat="44.06522" lon="6.86723">
        <ele>950</ele>
        <time>2017-06-09T08:57:56Z</time>
      </trkpt>
      <trkpt lat="44.06517" lon="6.86723">
        <ele>950</ele>
        <time>2017-06-09T08:57:56Z</time>
      </trkpt>
      <trkpt lat="44.06509" lon="6.86721">
        <ele>961</ele>
        <time>2017-06-09T08:58:29Z</time>
      </trkpt>
      <trkpt lat="44.06508" lon="6.86718">
        <ele>961</ele>
        <time>2017-06-09T08:58:29Z</time>
      </trkpt>
      <trkpt lat="44.06507" lon="6.86716">
        <ele>961</ele>
        <time>2017-06-09T08:58:29Z</time>
      </trkpt>
      <trkpt lat="44.06506" lon="6.86714">
        <ele>961</ele>
        <time>2017-06-09T08:58:29Z</time>
      </trkpt>
      <trkpt lat="44.065" lon="6.86709">
        <ele>961</ele>
        <time>2017-06-09T08:58:29Z</time>
      </trkpt>
      <trkpt lat="44.06497" lon="6.86705">
        <ele>962</ele>
        <time>2017-06-09T08:58:49Z</time>
      </trkpt>
      <trkpt lat="44.06497" lon="6.86701">
        <ele>962</ele>
        <time>2017-06-09T08:58:49Z</time>
      </trkpt>
      <trkpt lat="44.06494" lon="6.867">
        <ele>962</ele>
        <time>2017-06-09T08:58:49Z</time>
      </trkpt>
      <trkpt lat="44.06493" lon="6.86701">
        <ele>962</ele>
        <time>2017-06-09T08:58:49Z</time>
      </trkpt>
      <trkpt lat="44.06486" lon="6.86698">
        <ele>974</ele>
        <time>2017-06-09T08:58:49Z</time>
      </trkpt>
      <trkpt lat="44.06484" lon="6.86698">
        <ele>974</ele>
        <time>2017-06-09T08:59:07Z</time>
      </trkpt>
      <trkpt lat="44.0648" lon="6.86695">
        <ele>974</ele>
        <time>2017-06-09T08:59:07Z</time>
      </trkpt>
      <trkpt lat="44.06479" lon="6.86693">
        <ele>974</ele>
        <time>2017-06-09T08:59:07Z</time>
      </trkpt>
      <trkpt lat="44.06475" lon="6.86689">
        <ele>974</ele>
        <time>2017-06-09T08:59:07Z</time>
      </trkpt>
      <trkpt lat="44.06472" lon="6.86688">
        <ele>974</ele>
        <time>2017-06-09T08:59:36Z</time>
      </trkpt>
      <trkpt lat="44.06469" lon="6.86688">
        <ele>974</ele>
        <time>2017-06-09T08:59:36Z</time>
      </trkpt>
      <trkpt lat="44.06467" lon="6.86688">
        <ele>974</ele>
        <time>2017-06-09T08:59:36Z</time>
      </trkpt>
      <trkpt lat="44.06462" lon="6.86688">
        <ele>974</ele>
        <time>2017-06-09T08:59:36Z</time>
      </trkpt>
      <trkpt lat="44.06458" lon="6.86687">
        <ele>985</ele>
        <time>2017-06-09T08:59:36Z</time>
      </trkpt>
      <trkpt lat="44.06457" lon="6.8668">
        <ele>986</ele>
        <time>2017-06-09T09:00:13Z</time>
      </trkpt>
      <trkpt lat="44.06457" lon="6.8668">
        <ele>986</ele>
        <time>2017-06-09T09:00:13Z</time>
      </trkpt>
      <trkpt lat="44.06457" lon="6.8668">
        <ele>986</ele>
        <time>2017-06-09T09:00:13Z</time>
      </trkpt>
      <trkpt lat="44.0646" lon="6.86676">
        <ele>974</ele>
        <time>2017-06-09T09:00:13Z</time>
      </trkpt>
      <trkpt lat="44.06463" lon="6.86673">
        <ele>974</ele>
        <time>2017-06-09T09:00:13Z</time>
      </trkpt>
      <trkpt lat="44.06464" lon="6.86665">
        <ele>974</ele>
        <time>2017-06-09T09:00:38Z</time>
      </trkpt>
      <trkpt lat="44.06465" lon="6.86662">
        <ele>974</ele>
        <time>2017-06-09T09:00:38Z</time>
      </trkpt>
      <trkpt lat="44.06467" lon="6.86659">
        <ele>974</ele>
        <time>2017-06-09T09:00:38Z</time>
      </trkpt>
      <trkpt lat="44.06466" lon="6.86656">
        <ele>974</ele>
        <time>2017-06-09T09:00:38Z</time>
      </trkpt>
      <trkpt lat="44.06467" lon="6.86653">
        <ele>975</ele>
        <time>2017-06-09T09:00:38Z</time>
      </trkpt>
      <trkpt lat="44.06467" lon="6.86651">
        <ele>975</ele>
        <time>2017-06-09T09:00:54Z</time>
      </trkpt>
      <trkpt lat="44.06475" lon="6.86646">
        <ele>975</ele>
        <time>2017-06-09T09:00:54Z</time>
      </trkpt>
      <trkpt lat="44.06475" lon="6.86643">
        <ele>975</ele>
        <time>2017-06-09T09:00:54Z</time>
      </trkpt>
      <trkpt lat="44.06475" lon="6.86639">
        <ele>975</ele>
        <time>2017-06-09T09:00:54Z</time>
      </trkpt>
      <trkpt lat="44.06474" lon="6.86635">
        <ele>975</ele>
        <time>2017-06-09T09:01:08Z</time>
      </trkpt>
      <trkpt lat="44.06475" lon="6.86631">
        <ele>975</ele>
        <time>2017-06-09T09:01:08Z</time>
      </trkpt>
      <trkpt lat="44.06475" lon="6.86629">
        <ele>975</ele>
        <time>2017-06-09T09:01:08Z</time>
      </trkpt>
      <trkpt lat="44.0648" lon="6.86621">
        <ele>978</ele>
        <time>2017-06-09T09:01:08Z</time>
      </trkpt>
      <trkpt lat="44.06479" lon="6.86615">
        <ele>978</ele>
        <time>2017-06-09T09:01:25Z</time>
      </trkpt>
      <trkpt lat="44.06477" lon="6.86609">
        <ele>978</ele>
        <time>2017-06-09T09:01:25Z</time>
      </trkpt>
      <trkpt lat="44.06478" lon="6.86604">
        <ele>978</ele>
        <time>2017-06-09T09:01:25Z</time>
      </trkpt>
      <trkpt lat="44.06481" lon="6.866">
        <ele>978</ele>
        <time>2017-06-09T09:01:26Z</time>
      </trkpt>
      <trkpt lat="44.06481" lon="6.86597">
        <ele>979</ele>
        <time>2017-06-09T09:01:46Z</time>
      </trkpt>
      <trkpt lat="44.06481" lon="6.86597">
        <ele>979</ele>
        <time>2017-06-09T09:01:46Z</time>
      </trkpt>
      <trkpt lat="44.0648" lon="6.86595">
        <ele>979</ele>
        <time>2017-06-09T09:01:46Z</time>
      </trkpt>
      <trkpt lat="44.0648" lon="6.86591">
        <ele>979</ele>
        <time>2017-06-09T09:01:46Z</time>
      </trkpt>
      <trkpt lat="44.06479" lon="6.86585">
        <ele>979</ele>
        <time>2017-06-09T09:01:46Z</time>
      </trkpt>
      <trkpt lat="44.06478" lon="6.86582">
        <ele>979</ele>
        <time>2017-06-09T09:02:01Z</time>
      </trkpt>
      <trkpt lat="44.06477" lon="6.86574">
        <ele>979</ele>
        <time>2017-06-09T09:02:01Z</time>
      </trkpt>
      <trkpt lat="44.06474" lon="6.86571">
        <ele>979</ele>
        <time>2017-06-09T09:02:01Z</time>
      </trkpt>
      <trkpt lat="44.06475" lon="6.86567">
        <ele>981</ele>
        <time>2017-06-09T09:02:01Z</time>
      </trkpt>
      <trkpt lat="44.06474" lon="6.86565">
        <ele>981</ele>
        <time>2017-06-09T09:02:18Z</time>
      </trkpt>
      <trkpt lat="44.06474" lon="6.86559">
        <ele>981</ele>
        <time>2017-06-09T09:02:18Z</time>
      </trkpt>
      <trkpt lat="44.06474" lon="6.86556">
        <ele>981</ele>
        <time>2017-06-09T09:02:18Z</time>
      </trkpt>
      <trkpt lat="44.06471" lon="6.86547">
        <ele>981</ele>
        <time>2017-06-09T09:02:18Z</time>
      </trkpt>
      <trkpt lat="44.06467" lon="6.86541">
        <ele>981</ele>
        <time>2017-06-09T09:02:36Z</time>
      </trkpt>
      <trkpt lat="44.06466" lon="6.86539">
        <ele>981</ele>
        <time>2017-06-09T09:02:36Z</time>
      </trkpt>
      <trkpt lat="44.06466" lon="6.86536">
        <ele>981</ele>
        <time>2017-06-09T09:02:36Z</time>
      </trkpt>
      <trkpt lat="44.06462" lon="6.86531">
        <ele>981</ele>
        <time>2017-06-09T09:02:36Z</time>
      </trkpt>
      <trkpt lat="44.06461" lon="6.86529">
        <ele>981</ele>
        <time>2017-06-09T09:02:36Z</time>
      </trkpt>
      <trkpt lat="44.0646" lon="6.86519">
        <ele>981</ele>
        <time>2017-06-09T09:03:01Z</time>
      </trkpt>
      <trkpt lat="44.06461" lon="6.86515">
        <ele>981</ele>
        <time>2017-06-09T09:03:01Z</time>
      </trkpt>
      <trkpt lat="44.06462" lon="6.86513">
        <ele>983</ele>
        <time>2017-06-09T09:03:01Z</time>
      </trkpt>
      <trkpt lat="44.0646" lon="6.86511">
        <ele>983</ele>
        <time>2017-06-09T09:03:01Z</time>
      </trkpt>
      <trkpt lat="44.06462" lon="6.86503">
        <ele>983</ele>
        <time>2017-06-09T09:03:01Z</time>
      </trkpt>
      <trkpt lat="44.06462" lon="6.86503">
        <ele>983</ele>
        <time>2017-06-09T09:03:24Z</time>
      </trkpt>
      <trkpt lat="44.06459" lon="6.86496">
        <ele>983</ele>
        <time>2017-06-09T09:03:24Z</time>
      </trkpt>
      <trkpt lat="44.06457" lon="6.86478">
        <ele>993</ele>
        <time>2017-06-09T09:03:24Z</time>
      </trkpt>
      <trkpt lat="44.06455" lon="6.86474">
        <ele>993</ele>
        <time>2017-06-09T09:03:24Z</time>
      </trkpt>
      <trkpt lat="44.06454" lon="6.86471">
        <ele>993</ele>
        <time>2017-06-09T09:03:47Z</time>
      </trkpt>
      <trkpt lat="44.06455" lon="6.86471">
        <ele>993</ele>
        <time>2017-06-09T09:03:47Z</time>
      </trkpt>
      <trkpt lat="44.06453" lon="6.86464">
        <ele>993</ele>
        <time>2017-06-09T09:03:47Z</time>
      </trkpt>
      <trkpt lat="44.0645" lon="6.86461">
        <ele>993</ele>
        <time>2017-06-09T09:03:47Z</time>
      </trkpt>
      <trkpt lat="44.06449" lon="6.86458">
        <ele>992</ele>
        <time>2017-06-09T09:03:47Z</time>
      </trkpt>
      <trkpt lat="44.06451" lon="6.86447">
        <ele>992</ele>
        <time>2017-06-09T09:04:40Z</time>
      </trkpt>
      <trkpt lat="44.0645" lon="6.86446">
        <ele>992</ele>
        <time>2017-06-09T09:04:40Z</time>
      </trkpt>
      <trkpt lat="44.0645" lon="6.86446">
        <ele>992</ele>
        <time>2017-06-09T09:04:40Z</time>
      </trkpt>
      <trkpt lat="44.06445" lon="6.86444">
        <ele>992</ele>
        <time>2017-06-09T09:04:41Z</time>
      </trkpt>
      <trkpt lat="44.06445" lon="6.86438">
        <ele>992</ele>
        <time>2017-06-09T09:04:41Z</time>
      </trkpt>
      <trkpt lat="44.06437" lon="6.86435">
        <ele>992</ele>
        <time>2017-06-09T09:05:10Z</time>
      </trkpt>
      <trkpt lat="44.06437" lon="6.86434">
        <ele>992</ele>
        <time>2017-06-09T09:05:10Z</time>
      </trkpt>
      <trkpt lat="44.06436" lon="6.86434">
        <ele>992</ele>
        <time>2017-06-09T09:05:10Z</time>
      </trkpt>
      <trkpt lat="44.06436" lon="6.86434">
        <ele>992</ele>
        <time>2017-06-09T09:05:10Z</time>
      </trkpt>
      <trkpt lat="44.0643" lon="6.8643">
        <ele>1006</ele>
        <time>2017-06-09T09:05:10Z</time>
      </trkpt>
      <trkpt lat="44.06428" lon="6.86424">
        <ele>1006</ele>
        <time>2017-06-09T09:05:28Z</time>
      </trkpt>
      <trkpt lat="44.06427" lon="6.86419">
        <ele>1006</ele>
        <time>2017-06-09T09:05:28Z</time>
      </trkpt>
      <trkpt lat="44.06426" lon="6.86419">
        <ele>1006</ele>
        <time>2017-06-09T09:05:28Z</time>
      </trkpt>
      <trkpt lat="44.06423" lon="6.86414">
        <ele>1006</ele>
        <time>2017-06-09T09:05:28Z</time>
      </trkpt>
      <trkpt lat="44.06419" lon="6.86409">
        <ele>1006</ele>
        <time>2017-06-09T09:05:28Z</time>
      </trkpt>
      <trkpt lat="44.06413" lon="6.86401">
        <ele>1004</ele>
        <time>2017-06-09T09:05:53Z</time>
      </trkpt>
      <trkpt lat="44.06413" lon="6.864">
        <ele>1004</ele>
        <time>2017-06-09T09:05:53Z</time>
      </trkpt>
      <trkpt lat="44.06413" lon="6.86396">
        <ele>1004</ele>
        <time>2017-06-09T09:05:54Z</time>
      </trkpt>
      <trkpt lat="44.06412" lon="6.86396">
        <ele>1004</ele>
        <time>2017-06-09T09:05:54Z</time>
      </trkpt>
      <trkpt lat="44.06409" lon="6.86396">
        <ele>1004</ele>
        <time>2017-06-09T09:05:55Z</time>
      </trkpt>
      <trkpt lat="44.06404" lon="6.86392">
        <ele>1004</ele>
        <time>2017-06-09T09:06:10Z</time>
      </trkpt>
      <trkpt lat="44.06399" lon="6.8639">
        <ele>1013</ele>
        <time>2017-06-09T09:06:10Z</time>
      </trkpt>
      <trkpt lat="44.06396" lon="6.86388">
        <ele>1013</ele>
        <time>2017-06-09T09:06:11Z</time>
      </trkpt>
      <trkpt lat="44.06394" lon="6.86382">
        <ele>1013</ele>
        <time>2017-06-09T09:06:11Z</time>
      </trkpt>
      <trkpt lat="44.0639" lon="6.86376">
        <ele>1013</ele>
        <time>2017-06-09T09:06:32Z</time>
      </trkpt>
      <trkpt lat="44.06389" lon="6.86375">
        <ele>1011</ele>
        <time>2017-06-09T09:06:32Z</time>
      </trkpt>
      <trkpt lat="44.06387" lon="6.86373">
        <ele>1011</ele>
        <time>2017-06-09T09:06:32Z</time>
      </trkpt>
      <trkpt lat="44.06385" lon="6.86373">
        <ele>1011</ele>
        <time>2017-06-09T09:06:32Z</time>
      </trkpt>
      <trkpt lat="44.06382" lon="6.86372">
        <ele>1011</ele>
        <time>2017-06-09T09:06:32Z</time>
      </trkpt>
      <trkpt lat="44.06379" lon="6.86371">
        <ele>1011</ele>
        <time>2017-06-09T09:06:54Z</time>
      </trkpt>
      <trkpt lat="44.06376" lon="6.8637">
        <ele>1011</ele>
        <time>2017-06-09T09:06:54Z</time>
      </trkpt>
      <trkpt lat="44.06372" lon="6.8637">
        <ele>1021</ele>
        <time>2017-06-09T09:06:54Z</time>
      </trkpt>
      <trkpt lat="44.06372" lon="6.86369">
        <ele>1021</ele>
        <time>2017-06-09T09:06:54Z</time>
      </trkpt>
      <trkpt lat="44.0637" lon="6.86368">
        <ele>1021</ele>
        <time>2017-06-09T09:06:54Z</time>
      </trkpt>
      <trkpt lat="44.06368" lon="6.86365">
        <ele>1021</ele>
        <time>2017-06-09T09:07:11Z</time>
      </trkpt>
      <trkpt lat="44.06369" lon="6.86362">
        <ele>1021</ele>
        <time>2017-06-09T09:07:12Z</time>
      </trkpt>
      <trkpt lat="44.06366" lon="6.86358">
        <ele>1021</ele>
        <time>2017-06-09T09:07:12Z</time>
      </trkpt>
      <trkpt lat="44.06363" lon="6.86349">
        <ele>1021</ele>
        <time>2017-06-09T09:07:12Z</time>
      </trkpt>
      <trkpt lat="44.06364" lon="6.86347">
        <ele>1019</ele>
        <time>2017-06-09T09:07:28Z</time>
      </trkpt>
      <trkpt lat="44.0636" lon="6.86341">
        <ele>1019</ele>
        <time>2017-06-09T09:07:28Z</time>
      </trkpt>
      <trkpt lat="44.0636" lon="6.86339">
        <ele>1019</ele>
        <time>2017-06-09T09:07:28Z</time>
      </trkpt>
      <trkpt lat="44.06358" lon="6.86336">
        <ele>1019</ele>
        <time>2017-06-09T09:07:28Z</time>
      </trkpt>
      <trkpt lat="44.06357" lon="6.86333">
        <ele>1019</ele>
        <time>2017-06-09T09:07:44Z</time>
      </trkpt>
      <trkpt lat="44.0635" lon="6.86322">
        <ele>1019</ele>
        <time>2017-06-09T09:07:44Z</time>
      </trkpt>
      <trkpt lat="44.06348" lon="6.8632">
        <ele>1019</ele>
        <time>2017-06-09T09:07:44Z</time>
      </trkpt>
      <trkpt lat="44.06348" lon="6.86317">
        <ele>1018</ele>
        <time>2017-06-09T09:07:44Z</time>
      </trkpt>
      <trkpt lat="44.06346" lon="6.86313">
        <ele>1028</ele>
        <time>2017-06-09T09:08:10Z</time>
      </trkpt>
      <trkpt lat="44.06343" lon="6.86311">
        <ele>1028</ele>
        <time>2017-06-09T09:08:10Z</time>
      </trkpt>
      <trkpt lat="44.0634" lon="6.86309">
        <ele>1028</ele>
        <time>2017-06-09T09:08:10Z</time>
      </trkpt>
      <trkpt lat="44.06339" lon="6.86309">
        <ele>1028</ele>
        <time>2017-06-09T09:08:10Z</time>
      </trkpt>
      <trkpt lat="44.06332" lon="6.86304">
        <ele>1028</ele>
        <time>2017-06-09T09:08:10Z</time>
      </trkpt>
      <trkpt lat="44.06332" lon="6.86304">
        <ele>1028</ele>
        <time>2017-06-09T09:08:28Z</time>
      </trkpt>
      <trkpt lat="44.06329" lon="6.863">
        <ele>1028</ele>
        <time>2017-06-09T09:08:28Z</time>
      </trkpt>
      <trkpt lat="44.06328" lon="6.86298">
        <ele>1028</ele>
        <time>2017-06-09T09:08:28Z</time>
      </trkpt>
      <trkpt lat="44.06328" lon="6.86298">
        <ele>1028</ele>
        <time>2017-06-09T09:08:28Z</time>
      </trkpt>
      <trkpt lat="44.06326" lon="6.86289">
        <ele>1026</ele>
        <time>2017-06-09T09:08:28Z</time>
      </trkpt>
      <trkpt lat="44.06326" lon="6.86286">
        <ele>1026</ele>
        <time>2017-06-09T09:08:50Z</time>
      </trkpt>
      <trkpt lat="44.06326" lon="6.86284">
        <ele>1026</ele>
        <time>2017-06-09T09:08:50Z</time>
      </trkpt>
      <trkpt lat="44.06329" lon="6.86275">
        <ele>1026</ele>
        <time>2017-06-09T09:08:50Z</time>
      </trkpt>
      <trkpt lat="44.06323" lon="6.86262">
        <ele>1024</ele>
        <time>2017-06-09T09:08:50Z</time>
      </trkpt>
      <trkpt lat="44.06322" lon="6.8626">
        <ele>1024</ele>
        <time>2017-06-09T09:09:12Z</time>
      </trkpt>
      <trkpt lat="44.06321" lon="6.86254">
        <ele>1024</ele>
        <time>2017-06-09T09:09:12Z</time>
      </trkpt>
      <trkpt lat="44.06321" lon="6.86245">
        <ele>1024</ele>
        <time>2017-06-09T09:09:12Z</time>
      </trkpt>
      <trkpt lat="44.06318" lon="6.86238">
        <ele>1034</ele>
        <time>2017-06-09T09:09:13Z</time>
      </trkpt>
      <trkpt lat="44.06318" lon="6.86237">
        <ele>1034</ele>
        <time>2017-06-09T09:09:25Z</time>
      </trkpt>
      <trkpt lat="44.06317" lon="6.86231">
        <ele>1031</ele>
        <time>2017-06-09T09:09:25Z</time>
      </trkpt>
      <trkpt lat="44.06316" lon="6.86226">
        <ele>1031</ele>
        <time>2017-06-09T09:09:25Z</time>
      </trkpt>
      <trkpt lat="44.0631" lon="6.86222">
        <ele>1031</ele>
        <time>2017-06-09T09:09:25Z</time>
      </trkpt>
      <trkpt lat="44.06306" lon="6.86218">
        <ele>1031</ele>
        <time>2017-06-09T09:10:32Z</time>
      </trkpt>
      <trkpt lat="44.06311" lon="6.86232">
        <ele>1031</ele>
        <time>2017-06-09T09:10:32Z</time>
      </trkpt>
      <trkpt lat="44.06307" lon="6.86236">
        <ele>1031</ele>
        <time>2017-06-09T09:10:32Z</time>
      </trkpt>
      <trkpt lat="44.06307" lon="6.86237">
        <ele>1034</ele>
        <time>2017-06-09T09:10:32Z</time>
      </trkpt>
      <trkpt lat="44.06303" lon="6.86241">
        <ele>1034</ele>
        <time>2017-06-09T09:10:32Z</time>
      </trkpt>
      <trkpt lat="44.06298" lon="6.86249">
        <ele>1034</ele>
        <time>2017-06-09T09:11:01Z</time>
      </trkpt>
      <trkpt lat="44.06296" lon="6.86245">
        <ele>1034</ele>
        <time>2017-06-09T09:11:01Z</time>
      </trkpt>
      <trkpt lat="44.06295" lon="6.86243">
        <ele>1034</ele>
        <time>2017-06-09T09:11:01Z</time>
      </trkpt>
      <trkpt lat="44.06295" lon="6.86244">
        <ele>1034</ele>
        <time>2017-06-09T09:11:01Z</time>
      </trkpt>
      <trkpt lat="44.06292" lon="6.86241">
        <ele>1034</ele>
        <time>2017-06-09T09:11:01Z</time>
      </trkpt>
      <trkpt lat="44.0629" lon="6.8624">
        <ele>1043</ele>
        <time>2017-06-09T09:11:27Z</time>
      </trkpt>
      <trkpt lat="44.06286" lon="6.8624">
        <ele>1043</ele>
        <time>2017-06-09T09:11:27Z</time>
      </trkpt>
      <trkpt lat="44.0628" lon="6.8624">
        <ele>1043</ele>
        <time>2017-06-09T09:11:27Z</time>
      </trkpt>
      <trkpt lat="44.06278" lon="6.86241">
        <ele>1043</ele>
        <time>2017-06-09T09:11:27Z</time>
      </trkpt>
      <trkpt lat="44.06278" lon="6.86241">
        <ele>1043</ele>
        <time>2017-06-09T09:11:51Z</time>
      </trkpt>
      <trkpt lat="44.06273" lon="6.86239">
        <ele>1043</ele>
        <time>2017-06-09T09:11:52Z</time>
      </trkpt>
      <trkpt lat="44.06265" lon="6.86236">
        <ele>1038</ele>
        <time>2017-06-09T09:11:52Z</time>
      </trkpt>
      <trkpt lat="44.06258" lon="6.86238">
        <ele>1048</ele>
        <time>2017-06-09T09:11:52Z</time>
      </trkpt>
      <trkpt lat="44.06256" lon="6.86236">
        <ele>1048</ele>
        <time>2017-06-09T09:12:04Z</time>
      </trkpt>
      <trkpt lat="44.06252" lon="6.86237">
        <ele>1048</ele>
        <time>2017-06-09T09:12:04Z</time>
      </trkpt>
      <trkpt lat="44.0625" lon="6.86237">
        <ele>1048</ele>
        <time>2017-06-09T09:12:04Z</time>
      </trkpt>
      <trkpt lat="44.06246" lon="6.86235">
        <ele>1040</ele>
        <time>2017-06-09T09:12:04Z</time>
      </trkpt>
      <trkpt lat="44.06241" lon="6.86237">
        <ele>1048</ele>
        <time>2017-06-09T09:12:31Z</time>
      </trkpt>
      <trkpt lat="44.06242" lon="6.86238">
        <ele>1048</ele>
        <time>2017-06-09T09:12:31Z</time>
      </trkpt>
      <trkpt lat="44.06238" lon="6.86242">
        <ele>1048</ele>
        <time>2017-06-09T09:12:32Z</time>
      </trkpt>
      <trkpt lat="44.06239" lon="6.86245">
        <ele>1048</ele>
        <time>2017-06-09T09:12:32Z</time>
      </trkpt>
      <trkpt lat="44.06232" lon="6.8625">
        <ele>1048</ele>
        <time>2017-06-09T09:12:33Z</time>
      </trkpt>
      <trkpt lat="44.06229" lon="6.86252">
        <ele>1048</ele>
        <time>2017-06-09T09:12:58Z</time>
      </trkpt>
      <trkpt lat="44.06227" lon="6.86252">
        <ele>1048</ele>
        <time>2017-06-09T09:12:58Z</time>
      </trkpt>
      <trkpt lat="44.06225" lon="6.86252">
        <ele>1048</ele>
        <time>2017-06-09T09:12:58Z</time>
      </trkpt>
      <trkpt lat="44.06224" lon="6.86253">
        <ele>1048</ele>
        <time>2017-06-09T09:12:58Z</time>
      </trkpt>
      <trkpt lat="44.06221" lon="6.86256">
        <ele>1048</ele>
        <time>2017-06-09T09:12:58Z</time>
      </trkpt>
      <trkpt lat="44.06217" lon="6.86257">
        <ele>1048</ele>
        <time>2017-06-09T09:13:13Z</time>
      </trkpt>
      <trkpt lat="44.06213" lon="6.86259">
        <ele>1048</ele>
        <time>2017-06-09T09:13:13Z</time>
      </trkpt>
      <trkpt lat="44.06204" lon="6.86266">
        <ele>1055</ele>
        <time>2017-06-09T09:13:14Z</time>
      </trkpt>
      <trkpt lat="44.06204" lon="6.86266">
        <ele>1055</ele>
        <time>2017-06-09T09:13:15Z</time>
      </trkpt>
      <trkpt lat="44.06203" lon="6.86269">
        <ele>1055</ele>
        <time>2017-06-09T09:13:32Z</time>
      </trkpt>
      <trkpt lat="44.06205" lon="6.86273">
        <ele>1055</ele>
        <time>2017-06-09T09:13:32Z</time>
      </trkpt>
      <trkpt lat="44.06203" lon="6.86275">
        <ele>1055</ele>
        <time>2017-06-09T09:13:32Z</time>
      </trkpt>
      <trkpt lat="44.062" lon="6.86279">
        <ele>1055</ele>
        <time>2017-06-09T09:13:32Z</time>
      </trkpt>
      <trkpt lat="44.06198" lon="6.86284">
        <ele>1055</ele>
        <time>2017-06-09T09:13:32Z</time>
      </trkpt>
      <trkpt lat="44.06201" lon="6.86292">
        <ele>1062</ele>
        <time>2017-06-09T09:14:12Z</time>
      </trkpt>
      <trkpt lat="44.06197" lon="6.86299">
        <ele>1062</ele>
        <time>2017-06-09T09:14:12Z</time>
      </trkpt>
      <trkpt lat="44.06197" lon="6.86305">
        <ele>1062</ele>
        <time>2017-06-09T09:14:12Z</time>
      </trkpt>
      <trkpt lat="44.06196" lon="6.86306">
        <ele>1062</ele>
        <time>2017-06-09T09:14:12Z</time>
      </trkpt>
      <trkpt lat="44.06193" lon="6.86308">
        <ele>1062</ele>
        <time>2017-06-09T09:14:12Z</time>
      </trkpt>
      <trkpt lat="44.06191" lon="6.8631">
        <ele>1062</ele>
        <time>2017-06-09T09:14:40Z</time>
      </trkpt>
      <trkpt lat="44.0619" lon="6.86314">
        <ele>1062</ele>
        <time>2017-06-09T09:14:40Z</time>
      </trkpt>
      <trkpt lat="44.06188" lon="6.86315">
        <ele>1062</ele>
        <time>2017-06-09T09:14:40Z</time>
      </trkpt>
      <trkpt lat="44.06186" lon="6.86315">
        <ele>1062</ele>
        <time>2017-06-09T09:14:40Z</time>
      </trkpt>
      <trkpt lat="44.06185" lon="6.86319">
        <ele>1062</ele>
        <time>2017-06-09T09:14:40Z</time>
      </trkpt>
      <trkpt lat="44.06179" lon="6.86323">
        <ele>1068</ele>
        <time>2017-06-09T09:15:00Z</time>
      </trkpt>
      <trkpt lat="44.06175" lon="6.86326">
        <ele>1068</ele>
        <time>2017-06-09T09:15:00Z</time>
      </trkpt>
      <trkpt lat="44.06173" lon="6.86326">
        <ele>1068</ele>
        <time>2017-06-09T09:15:00Z</time>
      </trkpt>
      <trkpt lat="44.06172" lon="6.8633">
        <ele>1068</ele>
        <time>2017-06-09T09:15:00Z</time>
      </trkpt>
      <trkpt lat="44.06171" lon="6.86331">
        <ele>1068</ele>
        <time>2017-06-09T09:15:00Z</time>
      </trkpt>
      <trkpt lat="44.06168" lon="6.86333">
        <ele>1068</ele>
        <time>2017-06-09T09:15:28Z</time>
      </trkpt>
      <trkpt lat="44.06167" lon="6.86335">
        <ele>1068</ele>
        <time>2017-06-09T09:15:28Z</time>
      </trkpt>
      <trkpt lat="44.06164" lon="6.86342">
        <ele>1068</ele>
        <time>2017-06-09T09:15:28Z</time>
      </trkpt>
      <trkpt lat="44.06164" lon="6.86342">
        <ele>1068</ele>
        <time>2017-06-09T09:15:28Z</time>
      </trkpt>
      <trkpt lat="44.06161" lon="6.86343">
        <ele>1068</ele>
        <time>2017-06-09T09:15:28Z</time>
      </trkpt>
      <trkpt lat="44.06157" lon="6.86347">
        <ele>1068</ele>
        <time>2017-06-09T09:15:44Z</time>
      </trkpt>
      <trkpt lat="44.06153" lon="6.86352">
        <ele>1077</ele>
        <time>2017-06-09T09:15:44Z</time>
      </trkpt>
      <trkpt lat="44.06148" lon="6.86355">
        <ele>1076</ele>
        <time>2017-06-09T09:15:44Z</time>
      </trkpt>
      <trkpt lat="44.06144" lon="6.8636">
        <ele>1076</ele>
        <time>2017-06-09T09:15:44Z</time>
      </trkpt>
      <trkpt lat="44.06144" lon="6.86366">
        <ele>1076</ele>
        <time>2017-06-09T09:16:11Z</time>
      </trkpt>
      <trkpt lat="44.0614" lon="6.86371">
        <ele>1076</ele>
        <time>2017-06-09T09:16:11Z</time>
      </trkpt>
      <trkpt lat="44.06136" lon="6.86372">
        <ele>1076</ele>
        <time>2017-06-09T09:16:12Z</time>
      </trkpt>
      <trkpt lat="44.06131" lon="6.86376">
        <ele>1086</ele>
        <time>2017-06-09T09:16:13Z</time>
      </trkpt>
      <trkpt lat="44.06129" lon="6.86377">
        <ele>1086</ele>
        <time>2017-06-09T09:16:30Z</time>
      </trkpt>
      <trkpt lat="44.06127" lon="6.86378">
        <ele>1086</ele>
        <time>2017-06-09T09:16:30Z</time>
      </trkpt>
      <trkpt lat="44.06124" lon="6.86377">
        <ele>1088</ele>
        <time>2017-06-09T09:16:30Z</time>
      </trkpt>
      <trkpt lat="44.06123" lon="6.86381">
        <ele>1088</ele>
        <time>2017-06-09T09:16:30Z</time>
      </trkpt>
      <trkpt lat="44.06119" lon="6.86382">
        <ele>1088</ele>
        <time>2017-06-09T09:16:30Z</time>
      </trkpt>
      <trkpt lat="44.06119" lon="6.86381">
        <ele>1088</ele>
        <time>2017-06-09T09:16:56Z</time>
      </trkpt>
      <trkpt lat="44.06115" lon="6.86382">
        <ele>1088</ele>
        <time>2017-06-09T09:16:56Z</time>
      </trkpt>
      <trkpt lat="44.06106" lon="6.86379">
        <ele>1088</ele>
        <time>2017-06-09T09:16:56Z</time>
      </trkpt>
      <trkpt lat="44.06096" lon="6.86373">
        <ele>1089</ele>
        <time>2017-06-09T09:16:56Z</time>
      </trkpt>
      <trkpt lat="44.06095" lon="6.86372">
        <ele>1089</ele>
        <time>2017-06-09T09:17:08Z</time>
      </trkpt>
      <trkpt lat="44.06093" lon="6.86367">
        <ele>1089</ele>
        <time>2017-06-09T09:17:08Z</time>
      </trkpt>
      <trkpt lat="44.06091" lon="6.86367">
        <ele>1089</ele>
        <time>2017-06-09T09:17:08Z</time>
      </trkpt>
      <trkpt lat="44.06088" lon="6.86361">
        <ele>1089</ele>
        <time>2017-06-09T09:17:08Z</time>
      </trkpt>
      <trkpt lat="44.06087" lon="6.86359">
        <ele>1089</ele>
        <time>2017-06-09T09:17:25Z</time>
      </trkpt>
      <trkpt lat="44.06086" lon="6.86357">
        <ele>1089</ele>
        <time>2017-06-09T09:17:25Z</time>
      </trkpt>
      <trkpt lat="44.06083" lon="6.86353">
        <ele>1089</ele>
        <time>2017-06-09T09:17:25Z</time>
      </trkpt>
      <trkpt lat="44.06079" lon="6.86346">
        <ele>1084</ele>
        <time>2017-06-09T09:17:25Z</time>
      </trkpt>
      <trkpt lat="44.06077" lon="6.86342">
        <ele>1084</ele>
        <time>2017-06-09T09:17:41Z</time>
      </trkpt>
      <trkpt lat="44.06075" lon="6.86341">
        <ele>1084</ele>
        <time>2017-06-09T09:17:42Z</time>
      </trkpt>
      <trkpt lat="44.06071" lon="6.86338">
        <ele>1084</ele>
        <time>2017-06-09T09:17:42Z</time>
      </trkpt>
      <trkpt lat="44.06068" lon="6.86335">
        <ele>1092</ele>
        <time>2017-06-09T09:17:42Z</time>
      </trkpt>
      <trkpt lat="44.06069" lon="6.86336">
        <ele>1092</ele>
        <time>2017-06-09T09:17:58Z</time>
      </trkpt>
      <trkpt lat="44.06067" lon="6.86334">
        <ele>1092</ele>
        <time>2017-06-09T09:17:58Z</time>
      </trkpt>
      <trkpt lat="44.06065" lon="6.86333">
        <ele>1092</ele>
        <time>2017-06-09T09:17:58Z</time>
      </trkpt>
      <trkpt lat="44.06061" lon="6.86331">
        <ele>1092</ele>
        <time>2017-06-09T09:17:58Z</time>
      </trkpt>
      <trkpt lat="44.0606" lon="6.86331">
        <ele>1092</ele>
        <time>2017-06-09T09:18:19Z</time>
      </trkpt>
      <trkpt lat="44.06058" lon="6.8633">
        <ele>1092</ele>
        <time>2017-06-09T09:18:19Z</time>
      </trkpt>
      <trkpt lat="44.06053" lon="6.86325">
        <ele>1092</ele>
        <time>2017-06-09T09:18:19Z</time>
      </trkpt>
      <trkpt lat="44.06053" lon="6.86325">
        <ele>1092</ele>
        <time>2017-06-09T09:18:19Z</time>
      </trkpt>
      <trkpt lat="44.06047" lon="6.86323">
        <ele>1092</ele>
        <time>2017-06-09T09:18:19Z</time>
      </trkpt>
      <trkpt lat="44.06047" lon="6.86322">
        <ele>1092</ele>
        <time>2017-06-09T09:18:32Z</time>
      </trkpt>
      <trkpt lat="44.06043" lon="6.86322">
        <ele>1092</ele>
        <time>2017-06-09T09:18:32Z</time>
      </trkpt>
      <trkpt lat="44.06039" lon="6.86322">
        <ele>1099</ele>
        <time>2017-06-09T09:18:32Z</time>
      </trkpt>
      <trkpt lat="44.06037" lon="6.86322">
        <ele>1099</ele>
        <time>2017-06-09T09:18:32Z</time>
      </trkpt>
      <trkpt lat="44.06033" lon="6.86323">
        <ele>1099</ele>
        <time>2017-06-09T09:18:58Z</time>
      </trkpt>
      <trkpt lat="44.06029" lon="6.86323">
        <ele>1099</ele>
        <time>2017-06-09T09:18:58Z</time>
      </trkpt>
      <trkpt lat="44.06025" lon="6.86322">
        <ele>1099</ele>
        <time>2017-06-09T09:18:59Z</time>
      </trkpt>
      <trkpt lat="44.06021" lon="6.86321">
        <ele>1099</ele>
        <time>2017-06-09T09:18:59Z</time>
      </trkpt>
      <trkpt lat="44.06022" lon="6.86319">
        <ele>1095</ele>
        <time>2017-06-09T09:19:20Z</time>
      </trkpt>
      <trkpt lat="44.0602" lon="6.86316">
        <ele>1095</ele>
        <time>2017-06-09T09:19:20Z</time>
      </trkpt>
      <trkpt lat="44.06013" lon="6.86312">
        <ele>1103</ele>
        <time>2017-06-09T09:19:20Z</time>
      </trkpt>
      <trkpt lat="44.06009" lon="6.86305">
        <ele>1103</ele>
        <time>2017-06-09T09:19:20Z</time>
      </trkpt>
      <trkpt lat="44.06008" lon="6.86305">
        <ele>1103</ele>
        <time>2017-06-09T09:19:37Z</time>
      </trkpt>
      <trkpt lat="44.06008" lon="6.86302">
        <ele>1103</ele>
        <time>2017-06-09T09:19:37Z</time>
      </trkpt>
      <trkpt lat="44.06006" lon="6.86301">
        <ele>1103</ele>
        <time>2017-06-09T09:19:37Z</time>
      </trkpt>
      <trkpt lat="44.06002" lon="6.86298">
        <ele>1103</ele>
        <time>2017-06-09T09:19:37Z</time>
      </trkpt>
      <trkpt lat="44.06001" lon="6.86296">
        <ele>1103</ele>
        <time>2017-06-09T09:19:37Z</time>
      </trkpt>
      <trkpt lat="44.05997" lon="6.86292">
        <ele>1103</ele>
        <time>2017-06-09T09:19:54Z</time>
      </trkpt>
      <trkpt lat="44.05995" lon="6.86289">
        <ele>1101</ele>
        <time>2017-06-09T09:19:54Z</time>
      </trkpt>
      <trkpt lat="44.05992" lon="6.86285">
        <ele>1101</ele>
        <time>2017-06-09T09:19:54Z</time>
      </trkpt>
      <trkpt lat="44.05989" lon="6.86284">
        <ele>1101</ele>
        <time>2017-06-09T09:19:54Z</time>
      </trkpt>
      <trkpt lat="44.05987" lon="6.8628">
        <ele>1101</ele>
        <time>2017-06-09T09:20:09Z</time>
      </trkpt>
      <trkpt lat="44.05985" lon="6.86275">
        <ele>1108</ele>
        <time>2017-06-09T09:20:09Z</time>
      </trkpt>
      <trkpt lat="44.0598" lon="6.86266">
        <ele>1108</ele>
        <time>2017-06-09T09:20:10Z</time>
      </trkpt>
      <trkpt lat="44.05978" lon="6.86265">
        <ele>1108</ele>
        <time>2017-06-09T09:20:10Z</time>
      </trkpt>
      <trkpt lat="44.05975" lon="6.86264">
        <ele>1108</ele>
        <time>2017-06-09T09:20:27Z</time>
      </trkpt>
      <trkpt lat="44.05971" lon="6.86258">
        <ele>1102</ele>
        <time>2017-06-09T09:20:27Z</time>
      </trkpt>
      <trkpt lat="44.0597" lon="6.86257">
        <ele>1102</ele>
        <time>2017-06-09T09:20:27Z</time>
      </trkpt>
      <trkpt lat="44.05966" lon="6.86248">
        <ele>1102</ele>
        <time>2017-06-09T09:20:27Z</time>
      </trkpt>
      <trkpt lat="44.05964" lon="6.86246">
        <ele>1102</ele>
        <time>2017-06-09T09:20:43Z</time>
      </trkpt>
      <trkpt lat="44.05956" lon="6.86239">
        <ele>1109</ele>
        <time>2017-06-09T09:20:43Z</time>
      </trkpt>
      <trkpt lat="44.05956" lon="6.86237">
        <ele>1109</ele>
        <time>2017-06-09T09:20:43Z</time>
      </trkpt>
      <trkpt lat="44.05953" lon="6.86239">
        <ele>1109</ele>
        <time>2017-06-09T09:20:43Z</time>
      </trkpt>
      <trkpt lat="44.05945" lon="6.86242">
        <ele>1109</ele>
        <time>2017-06-09T09:21:25Z</time>
      </trkpt>
      <trkpt lat="44.05944" lon="6.86243">
        <ele>1109</ele>
        <time>2017-06-09T09:21:25Z</time>
      </trkpt>
      <trkpt lat="44.05944" lon="6.86243">
        <ele>1109</ele>
        <time>2017-06-09T09:21:26Z</time>
      </trkpt>
      <trkpt lat="44.05944" lon="6.86243">
        <ele>1109</ele>
        <time>2017-06-09T09:21:27Z</time>
      </trkpt>
      <trkpt lat="44.05944" lon="6.86243">
        <ele>1109</ele>
        <time>2017-06-09T09:21:27Z</time>
      </trkpt>
      <trkpt lat="44.05934" lon="6.86249">
        <ele>1109</ele>
        <time>2017-06-09T09:23:00Z</time>
      </trkpt>
      <trkpt lat="44.05934" lon="6.86249">
        <ele>1109</ele>
        <time>2017-06-09T09:23:00Z</time>
      </trkpt>
      <trkpt lat="44.05934" lon="6.86249">
        <ele>1109</ele>
        <time>2017-06-09T09:23:00Z</time>
      </trkpt>
      <trkpt lat="44.05934" lon="6.86249">
        <ele>1109</ele>
        <time>2017-06-09T09:23:00Z</time>
      </trkpt>
      <trkpt lat="44.05933" lon="6.86254">
        <ele>1109</ele>
        <time>2017-06-09T09:23:00Z</time>
      </trkpt>
      <trkpt lat="44.0593" lon="6.86252">
        <ele>1116</ele>
        <time>2017-06-09T09:25:20Z</time>
      </trkpt>
      <trkpt lat="44.05929" lon="6.86244">
        <ele>1116</ele>
        <time>2017-06-09T09:25:20Z</time>
      </trkpt>
      <trkpt lat="44.05929" lon="6.86242">
        <ele>1116</ele>
        <time>2017-06-09T09:25:20Z</time>
      </trkpt>
      <trkpt lat="44.05928" lon="6.8624">
        <ele>1116</ele>
        <time>2017-06-09T09:25:20Z</time>
      </trkpt>
      <trkpt lat="44.05927" lon="6.86239">
        <ele>1116</ele>
        <time>2017-06-09T09:25:20Z</time>
      </trkpt>
      <trkpt lat="44.05921" lon="6.86246">
        <ele>1116</ele>
        <time>2017-06-09T09:30:31Z</time>
      </trkpt>
      <trkpt lat="44.05918" lon="6.86247">
        <ele>1116</ele>
        <time>2017-06-09T09:30:31Z</time>
      </trkpt>
      <trkpt lat="44.05914" lon="6.86247">
        <ele>1116</ele>
        <time>2017-06-09T09:30:31Z</time>
      </trkpt>
      <trkpt lat="44.05913" lon="6.86246">
        <ele>1116</ele>
        <time>2017-06-09T09:30:31Z</time>
      </trkpt>
      <trkpt lat="44.05909" lon="6.86248">
        <ele>1116</ele>
        <time>2017-06-09T09:30:31Z</time>
      </trkpt>
      <trkpt lat="44.05908" lon="6.86247">
        <ele>1116</ele>
        <time>2017-06-09T09:30:49Z</time>
      </trkpt>
      <trkpt lat="44.05907" lon="6.86249">
        <ele>1116</ele>
        <time>2017-06-09T09:30:50Z</time>
      </trkpt>
      <trkpt lat="44.05906" lon="6.86249">
        <ele>1116</ele>
        <time>2017-06-09T09:30:50Z</time>
      </trkpt>
      <trkpt lat="44.05902" lon="6.8625">
        <ele>1117</ele>
        <time>2017-06-09T09:30:50Z</time>
      </trkpt>
      <trkpt lat="44.05897" lon="6.8625">
        <ele>1117</ele>
        <time>2017-06-09T09:30:50Z</time>
      </trkpt>
      <trkpt lat="44.05895" lon="6.86251">
        <ele>1117</ele>
        <time>2017-06-09T09:31:08Z</time>
      </trkpt>
      <trkpt lat="44.05891" lon="6.86255">
        <ele>1117</ele>
        <time>2017-06-09T09:31:08Z</time>
      </trkpt>
      <trkpt lat="44.05888" lon="6.86256">
        <ele>1117</ele>
        <time>2017-06-09T09:31:08Z</time>
      </trkpt>
      <trkpt lat="44.05884" lon="6.86256">
        <ele>1117</ele>
        <time>2017-06-09T09:31:08Z</time>
      </trkpt>
      <trkpt lat="44.05884" lon="6.86258">
        <ele>1117</ele>
        <time>2017-06-09T09:31:36Z</time>
      </trkpt>
      <trkpt lat="44.0588" lon="6.8626">
        <ele>1117</ele>
        <time>2017-06-09T09:31:36Z</time>
      </trkpt>
      <trkpt lat="44.05881" lon="6.86261">
        <ele>1117</ele>
        <time>2017-06-09T09:31:36Z</time>
      </trkpt>
      <trkpt lat="44.05875" lon="6.86265">
        <ele>1127</ele>
        <time>2017-06-09T09:31:36Z</time>
      </trkpt>
      <trkpt lat="44.05871" lon="6.86275">
        <ele>1123</ele>
        <time>2017-06-09T09:32:20Z</time>
      </trkpt>
      <trkpt lat="44.05873" lon="6.86276">
        <ele>1123</ele>
        <time>2017-06-09T09:32:20Z</time>
      </trkpt>
      <trkpt lat="44.05875" lon="6.86283">
        <ele>1127</ele>
        <time>2017-06-09T09:32:20Z</time>
      </trkpt>
      <trkpt lat="44.05876" lon="6.86285">
        <ele>1127</ele>
        <time>2017-06-09T09:32:20Z</time>
      </trkpt>
      <trkpt lat="44.05876" lon="6.86286">
        <ele>1127</ele>
        <time>2017-06-09T09:32:20Z</time>
      </trkpt>
      <trkpt lat="44.05885" lon="6.86292">
        <ele>1137</ele>
        <time>2017-06-09T09:32:51Z</time>
      </trkpt>
      <trkpt lat="44.05887" lon="6.86293">
        <ele>1137</ele>
        <time>2017-06-09T09:32:51Z</time>
      </trkpt>
      <trkpt lat="44.05888" lon="6.86297">
        <ele>1137</ele>
        <time>2017-06-09T09:32:51Z</time>
      </trkpt>
      <trkpt lat="44.0589" lon="6.86297">
        <ele>1137</ele>
        <time>2017-06-09T09:32:51Z</time>
      </trkpt>
      <trkpt lat="44.05891" lon="6.86298">
        <ele>1137</ele>
        <time>2017-06-09T09:32:51Z</time>
      </trkpt>
      <trkpt lat="44.05891" lon="6.86298">
        <ele>1137</ele>
        <time>2017-06-09T09:33:04Z</time>
      </trkpt>
      <trkpt lat="44.05895" lon="6.8631">
        <ele>1137</ele>
        <time>2017-06-09T09:33:04Z</time>
      </trkpt>
      <trkpt lat="44.05894" lon="6.8631">
        <ele>1137</ele>
        <time>2017-06-09T09:33:04Z</time>
      </trkpt>
      <trkpt lat="44.05897" lon="6.86315">
        <ele>1137</ele>
        <time>2017-06-09T09:33:04Z</time>
      </trkpt>
      <trkpt lat="44.05898" lon="6.86319">
        <ele>1137</ele>
        <time>2017-06-09T09:33:28Z</time>
      </trkpt>
      <trkpt lat="44.05899" lon="6.86323">
        <ele>1144</ele>
        <time>2017-06-09T09:33:28Z</time>
      </trkpt>
      <trkpt lat="44.059" lon="6.86326">
        <ele>1144</ele>
        <time>2017-06-09T09:33:28Z</time>
      </trkpt>
      <trkpt lat="44.05902" lon="6.86333">
        <ele>1144</ele>
        <time>2017-06-09T09:33:28Z</time>
      </trkpt>
      <trkpt lat="44.05901" lon="6.86337">
        <ele>1144</ele>
        <time>2017-06-09T09:33:48Z</time>
      </trkpt>
      <trkpt lat="44.05898" lon="6.86337">
        <ele>1144</ele>
        <time>2017-06-09T09:33:48Z</time>
      </trkpt>
      <trkpt lat="44.05896" lon="6.86336">
        <ele>1144</ele>
        <time>2017-06-09T09:33:48Z</time>
      </trkpt>
      <trkpt lat="44.05892" lon="6.86339">
        <ele>1144</ele>
        <time>2017-06-09T09:33:48Z</time>
      </trkpt>
      <trkpt lat="44.05888" lon="6.86341">
        <ele>1144</ele>
        <time>2017-06-09T09:34:11Z</time>
      </trkpt>
      <trkpt lat="44.05887" lon="6.86339">
        <ele>1144</ele>
        <time>2017-06-09T09:34:11Z</time>
      </trkpt>
      <trkpt lat="44.05886" lon="6.86339">
        <ele>1144</ele>
        <time>2017-06-09T09:34:12Z</time>
      </trkpt>
      <trkpt lat="44.05883" lon="6.86342">
        <ele>1144</ele>
        <time>2017-06-09T09:34:13Z</time>
      </trkpt>
      <trkpt lat="44.0588" lon="6.86337">
        <ele>1144</ele>
        <time>2017-06-09T09:34:13Z</time>
      </trkpt>
      <trkpt lat="44.05878" lon="6.86334">
        <ele>1144</ele>
        <time>2017-06-09T09:34:29Z</time>
      </trkpt>
      <trkpt lat="44.05877" lon="6.86333">
        <ele>1144</ele>
        <time>2017-06-09T09:34:29Z</time>
      </trkpt>
      <trkpt lat="44.05875" lon="6.86333">
        <ele>1146</ele>
        <time>2017-06-09T09:34:29Z</time>
      </trkpt>
      <trkpt lat="44.05871" lon="6.8633">
        <ele>1146</ele>
        <time>2017-06-09T09:34:29Z</time>
      </trkpt>
      <trkpt lat="44.05869" lon="6.86329">
        <ele>1146</ele>
        <time>2017-06-09T09:34:29Z</time>
      </trkpt>
      <trkpt lat="44.05867" lon="6.86333">
        <ele>1146</ele>
        <time>2017-06-09T09:35:12Z</time>
      </trkpt>
      <trkpt lat="44.05866" lon="6.86333">
        <ele>1146</ele>
        <time>2017-06-09T09:35:12Z</time>
      </trkpt>
      <trkpt lat="44.05865" lon="6.86333">
        <ele>1146</ele>
        <time>2017-06-09T09:35:12Z</time>
      </trkpt>
      <trkpt lat="44.05861" lon="6.86335">
        <ele>1146</ele>
        <time>2017-06-09T09:35:12Z</time>
      </trkpt>
      <trkpt lat="44.0586" lon="6.86337">
        <ele>1146</ele>
        <time>2017-06-09T09:35:12Z</time>
      </trkpt>
      <trkpt lat="44.05859" lon="6.86338">
        <ele>1146</ele>
        <time>2017-06-09T09:35:59Z</time>
      </trkpt>
      <trkpt lat="44.05861" lon="6.86339">
        <ele>1146</ele>
        <time>2017-06-09T09:35:59Z</time>
      </trkpt>
      <trkpt lat="44.05864" lon="6.86345">
        <ele>1146</ele>
        <time>2017-06-09T09:35:59Z</time>
      </trkpt>
      <trkpt lat="44.05865" lon="6.86345">
        <ele>1146</ele>
        <time>2017-06-09T09:35:59Z</time>
      </trkpt>
      <trkpt lat="44.05864" lon="6.86349">
        <ele>1157</ele>
        <time>2017-06-09T09:35:59Z</time>
      </trkpt>
      <trkpt lat="44.05861" lon="6.86348">
        <ele>1157</ele>
        <time>2017-06-09T09:36:35Z</time>
      </trkpt>
      <trkpt lat="44.05855" lon="6.86345">
        <ele>1146</ele>
        <time>2017-06-09T09:36:35Z</time>
      </trkpt>
      <trkpt lat="44.05853" lon="6.86348">
        <ele>1157</ele>
        <time>2017-06-09T09:36:35Z</time>
      </trkpt>
      <trkpt lat="44.05849" lon="6.8635">
        <ele>1157</ele>
        <time>2017-06-09T09:36:35Z</time>
      </trkpt>
      <trkpt lat="44.05846" lon="6.86349">
        <ele>1158</ele>
        <time>2017-06-09T09:36:35Z</time>
      </trkpt>
      <trkpt lat="44.05845" lon="6.8635">
        <ele>1158</ele>
        <time>2017-06-09T09:36:52Z</time>
      </trkpt>
      <trkpt lat="44.05845" lon="6.86356">
        <ele>1158</ele>
        <time>2017-06-09T09:36:52Z</time>
      </trkpt>
      <trkpt lat="44.05846" lon="6.86357">
        <ele>1158</ele>
        <time>2017-06-09T09:36:52Z</time>
      </trkpt>
      <trkpt lat="44.0585" lon="6.8636">
        <ele>1157</ele>
        <time>2017-06-09T09:36:52Z</time>
      </trkpt>
      <trkpt lat="44.05851" lon="6.8636">
        <ele>1157</ele>
        <time>2017-06-09T09:36:52Z</time>
      </trkpt>
      <trkpt lat="44.05852" lon="6.8636">
        <ele>1157</ele>
        <time>2017-06-09T09:38:18Z</time>
      </trkpt>
      <trkpt lat="44.05851" lon="6.8636">
        <ele>1157</ele>
        <time>2017-06-09T09:38:18Z</time>
      </trkpt>
      <trkpt lat="44.05847" lon="6.8636">
        <ele>1157</ele>
        <time>2017-06-09T09:38:18Z</time>
      </trkpt>
      <trkpt lat="44.05846" lon="6.86361">
        <ele>1158</ele>
        <time>2017-06-09T09:38:18Z</time>
      </trkpt>
      <trkpt lat="44.05842" lon="6.86361">
        <ele>1158</ele>
        <time>2017-06-09T09:38:19Z</time>
      </trkpt>
      <trkpt lat="44.05831" lon="6.86371">
        <ele>1158</ele>
        <time>2017-06-09T09:39:12Z</time>
      </trkpt>
      <trkpt lat="44.0583" lon="6.86373">
        <ele>1158</ele>
        <time>2017-06-09T09:39:12Z</time>
      </trkpt>
      <trkpt lat="44.0583" lon="6.86373">
        <ele>1158</ele>
        <time>2017-06-09T09:39:12Z</time>
      </trkpt>
      <trkpt lat="44.05829" lon="6.86375">
        <ele>1158</ele>
        <time>2017-06-09T09:39:12Z</time>
      </trkpt>
      <trkpt lat="44.05828" lon="6.86376">
        <ele>1170</ele>
        <time>2017-06-09T09:39:12Z</time>
      </trkpt>
      <trkpt lat="44.05825" lon="6.86383">
        <ele>1170</ele>
        <time>2017-06-09T09:39:38Z</time>
      </trkpt>
      <trkpt lat="44.05824" lon="6.86384">
        <ele>1170</ele>
        <time>2017-06-09T09:39:38Z</time>
      </trkpt>
      <trkpt lat="44.05824" lon="6.86385">
        <ele>1170</ele>
        <time>2017-06-09T09:39:38Z</time>
      </trkpt>
      <trkpt lat="44.05821" lon="6.8639">
        <ele>1170</ele>
        <time>2017-06-09T09:39:38Z</time>
      </trkpt>
      <trkpt lat="44.05822" lon="6.86391">
        <ele>1170</ele>
        <time>2017-06-09T09:39:38Z</time>
      </trkpt>
      <trkpt lat="44.05822" lon="6.86391">
        <ele>1170</ele>
        <time>2017-06-09T09:40:02Z</time>
      </trkpt>
      <trkpt lat="44.05816" lon="6.86394">
        <ele>1172</ele>
        <time>2017-06-09T09:40:02Z</time>
      </trkpt>
      <trkpt lat="44.05813" lon="6.86397">
        <ele>1172</ele>
        <time>2017-06-09T09:40:02Z</time>
      </trkpt>
      <trkpt lat="44.0581" lon="6.86399">
        <ele>1172</ele>
        <time>2017-06-09T09:40:02Z</time>
      </trkpt>
      <trkpt lat="44.05812" lon="6.86408">
        <ele>1182</ele>
        <time>2017-06-09T09:40:51Z</time>
      </trkpt>
      <trkpt lat="44.05809" lon="6.86411">
        <ele>1182</ele>
        <time>2017-06-09T09:40:51Z</time>
      </trkpt>
      <trkpt lat="44.05807" lon="6.86412">
        <ele>1182</ele>
        <time>2017-06-09T09:40:52Z</time>
      </trkpt>
      <trkpt lat="44.05806" lon="6.86413">
        <ele>1182</ele>
        <time>2017-06-09T09:40:52Z</time>
      </trkpt>
      <trkpt lat="44.058" lon="6.86417">
        <ele>1182</ele>
        <time>2017-06-09T09:40:52Z</time>
      </trkpt>
      <trkpt lat="44.05793" lon="6.86417">
        <ele>1182</ele>
        <time>2017-06-09T09:41:22Z</time>
      </trkpt>
      <trkpt lat="44.05793" lon="6.8642">
        <ele>1182</ele>
        <time>2017-06-09T09:41:22Z</time>
      </trkpt>
      <trkpt lat="44.05792" lon="6.86422">
        <ele>1182</ele>
        <time>2017-06-09T09:41:22Z</time>
      </trkpt>
      <trkpt lat="44.05791" lon="6.86427">
        <ele>1184</ele>
        <time>2017-06-09T09:41:22Z</time>
      </trkpt>
      <trkpt lat="44.0579" lon="6.86429">
        <ele>1184</ele>
        <time>2017-06-09T09:41:22Z</time>
      </trkpt>
      <trkpt lat="44.05791" lon="6.86432">
        <ele>1195</ele>
        <time>2017-06-09T09:41:47Z</time>
      </trkpt>
      <trkpt lat="44.05791" lon="6.86432">
        <ele>1195</ele>
        <time>2017-06-09T09:41:47Z</time>
      </trkpt>
      <trkpt lat="44.05797" lon="6.86433">
        <ele>1191</ele>
        <time>2017-06-09T09:41:47Z</time>
      </trkpt>
      <trkpt lat="44.05798" lon="6.86434">
        <ele>1191</ele>
        <time>2017-06-09T09:41:47Z</time>
      </trkpt>
      <trkpt lat="44.05799" lon="6.86437">
        <ele>1191</ele>
        <time>2017-06-09T09:41:47Z</time>
      </trkpt>
      <trkpt lat="44.05799" lon="6.86438">
        <ele>1191</ele>
        <time>2017-06-09T09:42:07Z</time>
      </trkpt>
      <trkpt lat="44.05796" lon="6.86443">
        <ele>1191</ele>
        <time>2017-06-09T09:42:07Z</time>
      </trkpt>
      <trkpt lat="44.05795" lon="6.86443">
        <ele>1191</ele>
        <time>2017-06-09T09:42:07Z</time>
      </trkpt>
      <trkpt lat="44.05793" lon="6.86445">
        <ele>1191</ele>
        <time>2017-06-09T09:42:07Z</time>
      </trkpt>
      <trkpt lat="44.05788" lon="6.86447">
        <ele>1195</ele>
        <time>2017-06-09T09:42:07Z</time>
      </trkpt>
      <trkpt lat="44.05788" lon="6.86453">
        <ele>1195</ele>
        <time>2017-06-09T09:42:32Z</time>
      </trkpt>
      <trkpt lat="44.05787" lon="6.86454">
        <ele>1195</ele>
        <time>2017-06-09T09:42:32Z</time>
      </trkpt>
      <trkpt lat="44.05785" lon="6.86454">
        <ele>1195</ele>
        <time>2017-06-09T09:42:32Z</time>
      </trkpt>
      <trkpt lat="44.05781" lon="6.86457">
        <ele>1195</ele>
        <time>2017-06-09T09:42:33Z</time>
      </trkpt>
      <trkpt lat="44.05779" lon="6.86458">
        <ele>1195</ele>
        <time>2017-06-09T09:42:33Z</time>
      </trkpt>
      <trkpt lat="44.05776" lon="6.86457">
        <ele>1195</ele>
        <time>2017-06-09T09:42:49Z</time>
      </trkpt>
      <trkpt lat="44.05772" lon="6.86457">
        <ele>1195</ele>
        <time>2017-06-09T09:42:49Z</time>
      </trkpt>
      <trkpt lat="44.05767" lon="6.86458">
        <ele>1195</ele>
        <time>2017-06-09T09:42:49Z</time>
      </trkpt>
      <trkpt lat="44.05762" lon="6.86461">
        <ele>1202</ele>
        <time>2017-06-09T09:42:49Z</time>
      </trkpt>
      <trkpt lat="44.05761" lon="6.86462">
        <ele>1202</ele>
        <time>2017-06-09T09:43:04Z</time>
      </trkpt>
      <trkpt lat="44.05757" lon="6.86468">
        <ele>1202</ele>
        <time>2017-06-09T09:43:04Z</time>
      </trkpt>
      <trkpt lat="44.05754" lon="6.8647">
        <ele>1202</ele>
        <time>2017-06-09T09:43:04Z</time>
      </trkpt>
      <trkpt lat="44.05752" lon="6.86473">
        <ele>1202</ele>
        <time>2017-06-09T09:43:04Z</time>
      </trkpt>
      <trkpt lat="44.05746" lon="6.86472">
        <ele>1202</ele>
        <time>2017-06-09T09:43:31Z</time>
      </trkpt>
      <trkpt lat="44.05742" lon="6.86471">
        <ele>1202</ele>
        <time>2017-06-09T09:43:31Z</time>
      </trkpt>
      <trkpt lat="44.05742" lon="6.86471">
        <ele>1202</ele>
        <time>2017-06-09T09:43:31Z</time>
      </trkpt>
      <trkpt lat="44.05739" lon="6.86472">
        <ele>1202</ele>
        <time>2017-06-09T09:43:31Z</time>
      </trkpt>
      <trkpt lat="44.0573" lon="6.86473">
        <ele>1201</ele>
        <time>2017-06-09T09:43:31Z</time>
      </trkpt>
      <trkpt lat="44.05728" lon="6.86473">
        <ele>1201</ele>
        <time>2017-06-09T09:43:50Z</time>
      </trkpt>
      <trkpt lat="44.05727" lon="6.86471">
        <ele>1201</ele>
        <time>2017-06-09T09:43:50Z</time>
      </trkpt>
      <trkpt lat="44.05719" lon="6.86473">
        <ele>1201</ele>
        <time>2017-06-09T09:43:51Z</time>
      </trkpt>
      <trkpt lat="44.05717" lon="6.8647">
        <ele>1201</ele>
        <time>2017-06-09T09:43:52Z</time>
      </trkpt>
      <trkpt lat="44.05709" lon="6.86474">
        <ele>1201</ele>
        <time>2017-06-09T09:45:17Z</time>
      </trkpt>
      <trkpt lat="44.05708" lon="6.86473">
        <ele>1198</ele>
        <time>2017-06-09T09:45:17Z</time>
      </trkpt>
      <trkpt lat="44.05706" lon="6.86475">
        <ele>1198</ele>
        <time>2017-06-09T09:45:17Z</time>
      </trkpt>
      <trkpt lat="44.057" lon="6.86478">
        <ele>1198</ele>
        <time>2017-06-09T09:45:17Z</time>
      </trkpt>
      <trkpt lat="44.05698" lon="6.86478">
        <ele>1198</ele>
        <time>2017-06-09T09:45:17Z</time>
      </trkpt>
      <trkpt lat="44.05681" lon="6.86482">
        <ele>1198</ele>
        <time>2017-06-09T09:46:05Z</time>
      </trkpt>
      <trkpt lat="44.05678" lon="6.86484">
        <ele>1199</ele>
        <time>2017-06-09T09:46:05Z</time>
      </trkpt>
      <trkpt lat="44.05676" lon="6.86488">
        <ele>1211</ele>
        <time>2017-06-09T09:46:06Z</time>
      </trkpt>
      <trkpt lat="44.05675" lon="6.86488">
        <ele>1211</ele>
        <time>2017-06-09T09:46:07Z</time>
      </trkpt>
      <trkpt lat="44.05672" lon="6.86488">
        <ele>1211</ele>
        <time>2017-06-09T09:46:07Z</time>
      </trkpt>
      <trkpt lat="44.05673" lon="6.86488">
        <ele>1211</ele>
        <time>2017-06-09T09:46:54Z</time>
      </trkpt>
      <trkpt lat="44.05671" lon="6.86486">
        <ele>1211</ele>
        <time>2017-06-09T09:46:55Z</time>
      </trkpt>
      <trkpt lat="44.05669" lon="6.8649">
        <ele>1211</ele>
        <time>2017-06-09T09:46:55Z</time>
      </trkpt>
      <trkpt lat="44.05669" lon="6.86491">
        <ele>1211</ele>
        <time>2017-06-09T09:46:55Z</time>
      </trkpt>
      <trkpt lat="44.05662" lon="6.86492">
        <ele>1211</ele>
        <time>2017-06-09T09:46:56Z</time>
      </trkpt>
      <trkpt lat="44.05659" lon="6.86495">
        <ele>1211</ele>
        <time>2017-06-09T09:47:12Z</time>
      </trkpt>
      <trkpt lat="44.05654" lon="6.86496">
        <ele>1211</ele>
        <time>2017-06-09T09:47:12Z</time>
      </trkpt>
      <trkpt lat="44.05652" lon="6.86494">
        <ele>1214</ele>
        <time>2017-06-09T09:47:12Z</time>
      </trkpt>
      <trkpt lat="44.05648" lon="6.8649">
        <ele>1214</ele>
        <time>2017-06-09T09:47:12Z</time>
      </trkpt>
      <trkpt lat="44.05649" lon="6.86492">
        <ele>1214</ele>
        <time>2017-06-09T09:47:34Z</time>
      </trkpt>
      <trkpt lat="44.05649" lon="6.86493">
        <ele>1214</ele>
        <time>2017-06-09T09:47:34Z</time>
      </trkpt>
      <trkpt lat="44.05646" lon="6.86496">
        <ele>1214</ele>
        <time>2017-06-09T09:47:34Z</time>
      </trkpt>
      <trkpt lat="44.05643" lon="6.86498">
        <ele>1214</ele>
        <time>2017-06-09T09:47:34Z</time>
      </trkpt>
      <trkpt lat="44.05639" lon="6.86502">
        <ele>1214</ele>
        <time>2017-06-09T09:47:34Z</time>
      </trkpt>
      <trkpt lat="44.05636" lon="6.86505">
        <ele>1214</ele>
        <time>2017-06-09T09:47:51Z</time>
      </trkpt>
      <trkpt lat="44.05634" lon="6.86508">
        <ele>1214</ele>
        <time>2017-06-09T09:47:51Z</time>
      </trkpt>
      <trkpt lat="44.0563" lon="6.8651">
        <ele>1214</ele>
        <time>2017-06-09T09:47:51Z</time>
      </trkpt>
      <trkpt lat="44.05621" lon="6.86513">
        <ele>1212</ele>
        <time>2017-06-09T09:47:51Z</time>
      </trkpt>
      <trkpt lat="44.0562" lon="6.86513">
        <ele>1212</ele>
        <time>2017-06-09T09:48:04Z</time>
      </trkpt>
      <trkpt lat="44.0561" lon="6.86515">
        <ele>1221</ele>
        <time>2017-06-09T09:48:04Z</time>
      </trkpt>
      <trkpt lat="44.05607" lon="6.86516">
        <ele>1221</ele>
        <time>2017-06-09T09:48:04Z</time>
      </trkpt>
      <trkpt lat="44.05606" lon="6.86517">
        <ele>1221</ele>
        <time>2017-06-09T09:48:04Z</time>
      </trkpt>
      <trkpt lat="44.05603" lon="6.86522">
        <ele>1221</ele>
        <time>2017-06-09T09:48:23Z</time>
      </trkpt>
      <trkpt lat="44.05599" lon="6.86529">
        <ele>1221</ele>
        <time>2017-06-09T09:48:23Z</time>
      </trkpt>
      <trkpt lat="44.05599" lon="6.86534">
        <ele>1221</ele>
        <time>2017-06-09T09:48:23Z</time>
      </trkpt>
      <trkpt lat="44.05592" lon="6.86535">
        <ele>1221</ele>
        <time>2017-06-09T09:48:23Z</time>
      </trkpt>
      <trkpt lat="44.0559" lon="6.86536">
        <ele>1221</ele>
        <time>2017-06-09T09:48:39Z</time>
      </trkpt>
      <trkpt lat="44.05587" lon="6.86543">
        <ele>1232</ele>
        <time>2017-06-09T09:48:39Z</time>
      </trkpt>
      <trkpt lat="44.05584" lon="6.86544">
        <ele>1232</ele>
        <time>2017-06-09T09:48:39Z</time>
      </trkpt>
      <trkpt lat="44.05579" lon="6.86545">
        <ele>1232</ele>
        <time>2017-06-09T09:48:40Z</time>
      </trkpt>
      <trkpt lat="44.05577" lon="6.86544">
        <ele>1232</ele>
        <time>2017-06-09T09:49:02Z</time>
      </trkpt>
      <trkpt lat="44.05568" lon="6.86547">
        <ele>1232</ele>
        <time>2017-06-09T09:49:02Z</time>
      </trkpt>
      <trkpt lat="44.05559" lon="6.86551">
        <ele>1232</ele>
        <time>2017-06-09T09:49:02Z</time>
      </trkpt>
      <trkpt lat="44.05555" lon="6.86553">
        <ele>1232</ele>
        <time>2017-06-09T09:49:02Z</time>
      </trkpt>
      <trkpt lat="44.05549" lon="6.86552">
        <ele>1232</ele>
        <time>2017-06-09T09:49:24Z</time>
      </trkpt>
      <trkpt lat="44.05545" lon="6.86558">
        <ele>1232</ele>
        <time>2017-06-09T09:49:24Z</time>
      </trkpt>
      <trkpt lat="44.05536" lon="6.86557">
        <ele>1232</ele>
        <time>2017-06-09T09:49:24Z</time>
      </trkpt>
      <trkpt lat="44.05535" lon="6.86559">
        <ele>1232</ele>
        <time>2017-06-09T09:49:24Z</time>
      </trkpt>
      <trkpt lat="44.05531" lon="6.86564">
        <ele>1232</ele>
        <time>2017-06-09T09:49:40Z</time>
      </trkpt>
      <trkpt lat="44.05525" lon="6.86562">
        <ele>1232</ele>
        <time>2017-06-09T09:49:40Z</time>
      </trkpt>
      <trkpt lat="44.05524" lon="6.86559">
        <ele>1232</ele>
        <time>2017-06-09T09:49:40Z</time>
      </trkpt>
      <trkpt lat="44.05519" lon="6.86558">
        <ele>1232</ele>
        <time>2017-06-09T09:49:40Z</time>
      </trkpt>
      <trkpt lat="44.05513" lon="6.86556">
        <ele>1235</ele>
        <time>2017-06-09T09:49:57Z</time>
      </trkpt>
      <trkpt lat="44.05508" lon="6.86555">
        <ele>1235</ele>
        <time>2017-06-09T09:49:57Z</time>
      </trkpt>
      <trkpt lat="44.05503" lon="6.86554">
        <ele>1235</ele>
        <time>2017-06-09T09:49:57Z</time>
      </trkpt>
      <trkpt lat="44.05501" lon="6.86555">
        <ele>1235</ele>
        <time>2017-06-09T09:49:57Z</time>
      </trkpt>
      <trkpt lat="44.05497" lon="6.86556">
        <ele>1235</ele>
        <time>2017-06-09T09:50:24Z</time>
      </trkpt>
      <trkpt lat="44.05496" lon="6.86556">
        <ele>1235</ele>
        <time>2017-06-09T09:50:24Z</time>
      </trkpt>
      <trkpt lat="44.05491" lon="6.86555">
        <ele>1235</ele>
        <time>2017-06-09T09:50:24Z</time>
      </trkpt>
      <trkpt lat="44.05489" lon="6.86555">
        <ele>1235</ele>
        <time>2017-06-09T09:50:24Z</time>
      </trkpt>
      <trkpt lat="44.05485" lon="6.86554">
        <ele>1242</ele>
        <time>2017-06-09T09:50:24Z</time>
      </trkpt>
      <trkpt lat="44.05479" lon="6.86548">
        <ele>1242</ele>
        <time>2017-06-09T09:50:55Z</time>
      </trkpt>
      <trkpt lat="44.05478" lon="6.86546">
        <ele>1242</ele>
        <time>2017-06-09T09:50:56Z</time>
      </trkpt>
      <trkpt lat="44.05478" lon="6.86546">
        <ele>1242</ele>
        <time>2017-06-09T09:50:56Z</time>
      </trkpt>
      <trkpt lat="44.05476" lon="6.86546">
        <ele>1242</ele>
        <time>2017-06-09T09:50:57Z</time>
      </trkpt>
      <trkpt lat="44.05471" lon="6.86543">
        <ele>1242</ele>
        <time>2017-06-09T09:50:57Z</time>
      </trkpt>
      <trkpt lat="44.05468" lon="6.86544">
        <ele>1242</ele>
        <time>2017-06-09T09:51:23Z</time>
      </trkpt>
      <trkpt lat="44.05464" lon="6.86543">
        <ele>1242</ele>
        <time>2017-06-09T09:51:23Z</time>
      </trkpt>
      <trkpt lat="44.05462" lon="6.86544">
        <ele>1242</ele>
        <time>2017-06-09T09:51:23Z</time>
      </trkpt>
      <trkpt lat="44.05461" lon="6.86543">
        <ele>1242</ele>
        <time>2017-06-09T09:51:23Z</time>
      </trkpt>
      <trkpt lat="44.05457" lon="6.86541">
        <ele>1243</ele>
        <time>2017-06-09T09:51:24Z</time>
      </trkpt>
      <trkpt lat="44.05456" lon="6.8654">
        <ele>1243</ele>
        <time>2017-06-09T09:51:42Z</time>
      </trkpt>
      <trkpt lat="44.05454" lon="6.86539">
        <ele>1243</ele>
        <time>2017-06-09T09:51:42Z</time>
      </trkpt>
      <trkpt lat="44.05453" lon="6.86538">
        <ele>1243</ele>
        <time>2017-06-09T09:51:42Z</time>
      </trkpt>
      <trkpt lat="44.05448" lon="6.86536">
        <ele>1243</ele>
        <time>2017-06-09T09:51:42Z</time>
      </trkpt>
      <trkpt lat="44.05446" lon="6.86535">
        <ele>1243</ele>
        <time>2017-06-09T09:51:42Z</time>
      </trkpt>
      <trkpt lat="44.05444" lon="6.86526">
        <ele>1243</ele>
        <time>2017-06-09T09:52:05Z</time>
      </trkpt>
      <trkpt lat="44.05443" lon="6.86525">
        <ele>1243</ele>
        <time>2017-06-09T09:52:05Z</time>
      </trkpt>
      <trkpt lat="44.05442" lon="6.86523">
        <ele>1243</ele>
        <time>2017-06-09T09:52:05Z</time>
      </trkpt>
      <trkpt lat="44.05439" lon="6.86523">
        <ele>1243</ele>
        <time>2017-06-09T09:52:05Z</time>
      </trkpt>
      <trkpt lat="44.05435" lon="6.8652">
        <ele>1243</ele>
        <time>2017-06-09T09:52:06Z</time>
      </trkpt>
      <trkpt lat="44.0543" lon="6.86519">
        <ele>1245</ele>
        <time>2017-06-09T09:52:23Z</time>
      </trkpt>
      <trkpt lat="44.05426" lon="6.86515">
        <ele>1245</ele>
        <time>2017-06-09T09:52:23Z</time>
      </trkpt>
      <trkpt lat="44.05425" lon="6.86514">
        <ele>1246</ele>
        <time>2017-06-09T09:52:23Z</time>
      </trkpt>
      <trkpt lat="44.05421" lon="6.86511">
        <ele>1246</ele>
        <time>2017-06-09T09:52:23Z</time>
      </trkpt>
      <trkpt lat="44.05418" lon="6.86514">
        <ele>1245</ele>
        <time>2017-06-09T09:53:00Z</time>
      </trkpt>
      <trkpt lat="44.05417" lon="6.86516">
        <ele>1245</ele>
        <time>2017-06-09T09:53:00Z</time>
      </trkpt>
      <trkpt lat="44.05418" lon="6.86518">
        <ele>1245</ele>
        <time>2017-06-09T09:53:00Z</time>
      </trkpt>
      <trkpt lat="44.05417" lon="6.86519">
        <ele>1245</ele>
        <time>2017-06-09T09:53:00Z</time>
      </trkpt>
      <trkpt lat="44.05415" lon="6.86521">
        <ele>1245</ele>
        <time>2017-06-09T09:53:00Z</time>
      </trkpt>
      <trkpt lat="44.05421" lon="6.86528">
        <ele>1245</ele>
        <time>2017-06-09T09:56:16Z</time>
      </trkpt>
      <trkpt lat="44.05423" lon="6.8653">
        <ele>1245</ele>
        <time>2017-06-09T09:56:16Z</time>
      </trkpt>
      <trkpt lat="44.0542" lon="6.86537">
        <ele>1245</ele>
        <time>2017-06-09T09:56:16Z</time>
      </trkpt>
      <trkpt lat="44.0542" lon="6.8654">
        <ele>1245</ele>
        <time>2017-06-09T09:56:16Z</time>
      </trkpt>
      <trkpt lat="44.05421" lon="6.86546">
        <ele>1253</ele>
        <time>2017-06-09T09:56:16Z</time>
      </trkpt>
      <trkpt lat="44.05418" lon="6.86556">
        <ele>1253</ele>
        <time>2017-06-09T09:56:49Z</time>
      </trkpt>
      <trkpt lat="44.05415" lon="6.86563">
        <ele>1253</ele>
        <time>2017-06-09T09:56:49Z</time>
      </trkpt>
      <trkpt lat="44.05415" lon="6.86564">
        <ele>1253</ele>
        <time>2017-06-09T09:56:50Z</time>
      </trkpt>
      <trkpt lat="44.05415" lon="6.86569">
        <ele>1253</ele>
        <time>2017-06-09T09:56:50Z</time>
      </trkpt>
      <trkpt lat="44.05414" lon="6.86572">
        <ele>1261</ele>
        <time>2017-06-09T09:56:51Z</time>
      </trkpt>
      <trkpt lat="44.05415" lon="6.86579">
        <ele>1261</ele>
        <time>2017-06-09T09:57:18Z</time>
      </trkpt>
      <trkpt lat="44.05415" lon="6.86583">
        <ele>1261</ele>
        <time>2017-06-09T09:57:18Z</time>
      </trkpt>
      <trkpt lat="44.05415" lon="6.86584">
        <ele>1261</ele>
        <time>2017-06-09T09:57:18Z</time>
      </trkpt>
      <trkpt lat="44.05415" lon="6.86587">
        <ele>1261</ele>
        <time>2017-06-09T09:57:19Z</time>
      </trkpt>
      <trkpt lat="44.05414" lon="6.86593">
        <ele>1261</ele>
        <time>2017-06-09T09:57:19Z</time>
      </trkpt>
      <trkpt lat="44.05413" lon="6.86594">
        <ele>1261</ele>
        <time>2017-06-09T09:57:44Z</time>
      </trkpt>
      <trkpt lat="44.05412" lon="6.86605">
        <ele>1269</ele>
        <time>2017-06-09T09:57:44Z</time>
      </trkpt>
      <trkpt lat="44.05411" lon="6.8661">
        <ele>1269</ele>
        <time>2017-06-09T09:57:44Z</time>
      </trkpt>
      <trkpt lat="44.05416" lon="6.86615">
        <ele>1269</ele>
        <time>2017-06-09T09:57:44Z</time>
      </trkpt>
      <trkpt lat="44.05415" lon="6.8662">
        <ele>1269</ele>
        <time>2017-06-09T09:58:04Z</time>
      </trkpt>
      <trkpt lat="44.05415" lon="6.8662">
        <ele>1269</ele>
        <time>2017-06-09T09:58:04Z</time>
      </trkpt>
      <trkpt lat="44.05416" lon="6.86624">
        <ele>1269</ele>
        <time>2017-06-09T09:58:05Z</time>
      </trkpt>
      <trkpt lat="44.05416" lon="6.86625">
        <ele>1269</ele>
        <time>2017-06-09T09:58:05Z</time>
      </trkpt>
      <trkpt lat="44.05415" lon="6.8663">
        <ele>1274</ele>
        <time>2017-06-09T09:58:06Z</time>
      </trkpt>
      <trkpt lat="44.05416" lon="6.86633">
        <ele>1274</ele>
        <time>2017-06-09T09:58:33Z</time>
      </trkpt>
      <trkpt lat="44.05417" lon="6.86627">
        <ele>1274</ele>
        <time>2017-06-09T09:58:33Z</time>
      </trkpt>
      <trkpt lat="44.05418" lon="6.86628">
        <ele>1274</ele>
        <time>2017-06-09T09:58:33Z</time>
      </trkpt>
      <trkpt lat="44.0542" lon="6.86624">
        <ele>1269</ele>
        <time>2017-06-09T09:58:33Z</time>
      </trkpt>
      <trkpt lat="44.05422" lon="6.8662">
        <ele>1269</ele>
        <time>2017-06-09T09:58:33Z</time>
      </trkpt>
      <trkpt lat="44.05424" lon="6.86621">
        <ele>1269</ele>
        <time>2017-06-09T09:59:21Z</time>
      </trkpt>
      <trkpt lat="44.05426" lon="6.86622">
        <ele>1269</ele>
        <time>2017-06-09T09:59:21Z</time>
      </trkpt>
      <trkpt lat="44.05426" lon="6.86624">
        <ele>1269</ele>
        <time>2017-06-09T09:59:21Z</time>
      </trkpt>
      <trkpt lat="44.05429" lon="6.86628">
        <ele>1274</ele>
        <time>2017-06-09T09:59:21Z</time>
      </trkpt>
      <trkpt lat="44.0543" lon="6.86635">
        <ele>1274</ele>
        <time>2017-06-09T09:59:21Z</time>
      </trkpt>
      <trkpt lat="44.0543" lon="6.86636">
        <ele>1274</ele>
        <time>2017-06-09T09:59:47Z</time>
      </trkpt>
      <trkpt lat="44.05431" lon="6.8664">
        <ele>1278</ele>
        <time>2017-06-09T09:59:47Z</time>
      </trkpt>
      <trkpt lat="44.05433" lon="6.86645">
        <ele>1278</ele>
        <time>2017-06-09T09:59:47Z</time>
      </trkpt>
      <trkpt lat="44.05434" lon="6.86645">
        <ele>1278</ele>
        <time>2017-06-09T09:59:47Z</time>
      </trkpt>
      <trkpt lat="44.05432" lon="6.8665">
        <ele>1278</ele>
        <time>2017-06-09T09:59:47Z</time>
      </trkpt>
      <trkpt lat="44.05431" lon="6.86655">
        <ele>1283</ele>
        <time>2017-06-09T10:00:08Z</time>
      </trkpt>
      <trkpt lat="44.0543" lon="6.86657">
        <ele>1278</ele>
        <time>2017-06-09T10:00:08Z</time>
      </trkpt>
      <trkpt lat="44.0543" lon="6.86657">
        <ele>1278</ele>
        <time>2017-06-09T10:00:08Z</time>
      </trkpt>
      <trkpt lat="44.0543" lon="6.86664">
        <ele>1278</ele>
        <time>2017-06-09T10:00:08Z</time>
      </trkpt>
      <trkpt lat="44.05432" lon="6.86667">
        <ele>1283</ele>
        <time>2017-06-09T10:00:08Z</time>
      </trkpt>
      <trkpt lat="44.05435" lon="6.86676">
        <ele>1283</ele>
        <time>2017-06-09T10:00:35Z</time>
      </trkpt>
      <trkpt lat="44.05435" lon="6.86676">
        <ele>1283</ele>
        <time>2017-06-09T10:00:35Z</time>
      </trkpt>
      <trkpt lat="44.05435" lon="6.86677">
        <ele>1283</ele>
        <time>2017-06-09T10:00:35Z</time>
      </trkpt>
      <trkpt lat="44.05435" lon="6.86682">
        <ele>1288</ele>
        <time>2017-06-09T10:00:35Z</time>
      </trkpt>
      <trkpt lat="44.05439" lon="6.8669">
        <ele>1288</ele>
        <time>2017-06-09T10:00:35Z</time>
      </trkpt>
      <trkpt lat="44.0544" lon="6.86692">
        <ele>1288</ele>
        <time>2017-06-09T10:00:50Z</time>
      </trkpt>
      <trkpt lat="44.0544" lon="6.86701">
        <ele>1288</ele>
        <time>2017-06-09T10:00:51Z</time>
      </trkpt>
      <trkpt lat="44.05441" lon="6.86702">
        <ele>1288</ele>
        <time>2017-06-09T10:00:51Z</time>
      </trkpt>
      <trkpt lat="44.05441" lon="6.86705">
        <ele>1288</ele>
        <time>2017-06-09T10:00:52Z</time>
      </trkpt>
      <trkpt lat="44.0544" lon="6.86706">
        <ele>1288</ele>
        <time>2017-06-09T10:01:08Z</time>
      </trkpt>
      <trkpt lat="44.0544" lon="6.8671">
        <ele>1292</ele>
        <time>2017-06-09T10:01:08Z</time>
      </trkpt>
      <trkpt lat="44.0544" lon="6.86713">
        <ele>1292</ele>
        <time>2017-06-09T10:01:08Z</time>
      </trkpt>
      <trkpt lat="44.05441" lon="6.86715">
        <ele>1292</ele>
        <time>2017-06-09T10:01:08Z</time>
      </trkpt>
      <trkpt lat="44.05443" lon="6.86721">
        <ele>1292</ele>
        <time>2017-06-09T10:01:08Z</time>
      </trkpt>
      <trkpt lat="44.05441" lon="6.86731">
        <ele>1292</ele>
        <time>2017-06-09T10:01:39Z</time>
      </trkpt>
      <trkpt lat="44.05441" lon="6.86733">
        <ele>1292</ele>
        <time>2017-06-09T10:01:39Z</time>
      </trkpt>
      <trkpt lat="44.05442" lon="6.86734">
        <ele>1292</ele>
        <time>2017-06-09T10:01:39Z</time>
      </trkpt>
      <trkpt lat="44.05443" lon="6.86735">
        <ele>1292</ele>
        <time>2017-06-09T10:01:39Z</time>
      </trkpt>
      <trkpt lat="44.05444" lon="6.86735">
        <ele>1292</ele>
        <time>2017-06-09T10:01:39Z</time>
      </trkpt>
      <trkpt lat="44.05447" lon="6.86738">
        <ele>1296</ele>
        <time>2017-06-09T10:02:04Z</time>
      </trkpt>
      <trkpt lat="44.05448" lon="6.86741">
        <ele>1296</ele>
        <time>2017-06-09T10:02:04Z</time>
      </trkpt>
      <trkpt lat="44.05449" lon="6.86742">
        <ele>1296</ele>
        <time>2017-06-09T10:02:04Z</time>
      </trkpt>
      <trkpt lat="44.05448" lon="6.86744">
        <ele>1296</ele>
        <time>2017-06-09T10:02:04Z</time>
      </trkpt>
      <trkpt lat="44.05446" lon="6.86752">
        <ele>1296</ele>
        <time>2017-06-09T10:02:05Z</time>
      </trkpt>
      <trkpt lat="44.05447" lon="6.86764">
        <ele>1301</ele>
        <time>2017-06-09T10:02:42Z</time>
      </trkpt>
      <trkpt lat="44.05447" lon="6.86765">
        <ele>1301</ele>
        <time>2017-06-09T10:02:42Z</time>
      </trkpt>
      <trkpt lat="44.05447" lon="6.86769">
        <ele>1301</ele>
        <time>2017-06-09T10:02:42Z</time>
      </trkpt>
      <trkpt lat="44.05447" lon="6.8677">
        <ele>1301</ele>
        <time>2017-06-09T10:02:42Z</time>
      </trkpt>
      <trkpt lat="44.05448" lon="6.8677">
        <ele>1301</ele>
        <time>2017-06-09T10:02:42Z</time>
      </trkpt>
      <trkpt lat="44.05448" lon="6.86773">
        <ele>1301</ele>
        <time>2017-06-09T10:03:12Z</time>
      </trkpt>
      <trkpt lat="44.05448" lon="6.86774">
        <ele>1301</ele>
        <time>2017-06-09T10:03:12Z</time>
      </trkpt>
      <trkpt lat="44.05449" lon="6.86778">
        <ele>1301</ele>
        <time>2017-06-09T10:03:12Z</time>
      </trkpt>
      <trkpt lat="44.05451" lon="6.86782">
        <ele>1301</ele>
        <time>2017-06-09T10:03:12Z</time>
      </trkpt>
      <trkpt lat="44.05449" lon="6.86786">
        <ele>1301</ele>
        <time>2017-06-09T10:03:12Z</time>
      </trkpt>
      <trkpt lat="44.05448" lon="6.86792">
        <ele>1305</ele>
        <time>2017-06-09T10:03:29Z</time>
      </trkpt>
      <trkpt lat="44.05446" lon="6.86797">
        <ele>1305</ele>
        <time>2017-06-09T10:03:30Z</time>
      </trkpt>
      <trkpt lat="44.05445" lon="6.86799">
        <ele>1305</ele>
        <time>2017-06-09T10:03:31Z</time>
      </trkpt>
      <trkpt lat="44.05446" lon="6.86804">
        <ele>1305</ele>
        <time>2017-06-09T10:03:32Z</time>
      </trkpt>
      <trkpt lat="44.05442" lon="6.86814">
        <ele>1305</ele>
        <time>2017-06-09T10:04:32Z</time>
      </trkpt>
      <trkpt lat="44.0544" lon="6.86815">
        <ele>1305</ele>
        <time>2017-06-09T10:04:32Z</time>
      </trkpt>
      <trkpt lat="44.05439" lon="6.86815">
        <ele>1305</ele>
        <time>2017-06-09T10:04:32Z</time>
      </trkpt>
      <trkpt lat="44.05436" lon="6.86817">
        <ele>1305</ele>
        <time>2017-06-09T10:04:32Z</time>
      </trkpt>
      <trkpt lat="44.05434" lon="6.8682">
        <ele>1310</ele>
        <time>2017-06-09T10:04:32Z</time>
      </trkpt>
      <trkpt lat="44.05434" lon="6.86821">
        <ele>1310</ele>
        <time>2017-06-09T10:04:50Z</time>
      </trkpt>
      <trkpt lat="44.05433" lon="6.86823">
        <ele>1310</ele>
        <time>2017-06-09T10:04:51Z</time>
      </trkpt>
      <trkpt lat="44.0543" lon="6.86828">
        <ele>1306</ele>
        <time>2017-06-09T10:04:51Z</time>
      </trkpt>
      <trkpt lat="44.05426" lon="6.8683">
        <ele>1306</ele>
        <time>2017-06-09T10:04:52Z</time>
      </trkpt>
      <trkpt lat="44.05423" lon="6.86833">
        <ele>1306</ele>
        <time>2017-06-09T10:05:04Z</time>
      </trkpt>
      <trkpt lat="44.05417" lon="6.86837">
        <ele>1306</ele>
        <time>2017-06-09T10:05:04Z</time>
      </trkpt>
      <trkpt lat="44.05416" lon="6.86838">
        <ele>1306</ele>
        <time>2017-06-09T10:05:04Z</time>
      </trkpt>
      <trkpt lat="44.05412" lon="6.8684">
        <ele>1306</ele>
        <time>2017-06-09T10:05:04Z</time>
      </trkpt>
      <trkpt lat="44.05405" lon="6.86847">
        <ele>1306</ele>
        <time>2017-06-09T10:05:24Z</time>
      </trkpt>
      <trkpt lat="44.05404" lon="6.86848">
        <ele>1313</ele>
        <time>2017-06-09T10:05:24Z</time>
      </trkpt>
      <trkpt lat="44.054" lon="6.8685">
        <ele>1311</ele>
        <time>2017-06-09T10:05:24Z</time>
      </trkpt>
      <trkpt lat="44.05399" lon="6.8685">
        <ele>1311</ele>
        <time>2017-06-09T10:05:24Z</time>
      </trkpt>
      <trkpt lat="44.05397" lon="6.86854">
        <ele>1311</ele>
        <time>2017-06-09T10:05:24Z</time>
      </trkpt>
      <trkpt lat="44.05394" lon="6.86855">
        <ele>1311</ele>
        <time>2017-06-09T10:05:40Z</time>
      </trkpt>
      <trkpt lat="44.0539" lon="6.86858">
        <ele>1311</ele>
        <time>2017-06-09T10:05:40Z</time>
      </trkpt>
      <trkpt lat="44.05388" lon="6.8686">
        <ele>1311</ele>
        <time>2017-06-09T10:05:40Z</time>
      </trkpt>
      <trkpt lat="44.05385" lon="6.86862">
        <ele>1311</ele>
        <time>2017-06-09T10:05:40Z</time>
      </trkpt>
      <trkpt lat="44.05381" lon="6.86863">
        <ele>1311</ele>
        <time>2017-06-09T10:05:58Z</time>
      </trkpt>
      <trkpt lat="44.05378" lon="6.86865">
        <ele>1311</ele>
        <time>2017-06-09T10:05:59Z</time>
      </trkpt>
      <trkpt lat="44.05374" lon="6.86867">
        <ele>1308</ele>
        <time>2017-06-09T10:05:59Z</time>
      </trkpt>
      <trkpt lat="44.05372" lon="6.86869">
        <ele>1308</ele>
        <time>2017-06-09T10:05:59Z</time>
      </trkpt>
      <trkpt lat="44.05364" lon="6.86874">
        <ele>1308</ele>
        <time>2017-06-09T10:06:32Z</time>
      </trkpt>
      <trkpt lat="44.05362" lon="6.86878">
        <ele>1317</ele>
        <time>2017-06-09T10:06:32Z</time>
      </trkpt>
      <trkpt lat="44.05362" lon="6.86878">
        <ele>1317</ele>
        <time>2017-06-09T10:06:32Z</time>
      </trkpt>
      <trkpt lat="44.0536" lon="6.8688">
        <ele>1317</ele>
        <time>2017-06-09T10:06:32Z</time>
      </trkpt>
      <trkpt lat="44.05359" lon="6.86884">
        <ele>1317</ele>
        <time>2017-06-09T10:06:32Z</time>
      </trkpt>
      <trkpt lat="44.05357" lon="6.86885">
        <ele>1317</ele>
        <time>2017-06-09T10:06:51Z</time>
      </trkpt>
      <trkpt lat="44.05356" lon="6.86888">
        <ele>1317</ele>
        <time>2017-06-09T10:06:51Z</time>
      </trkpt>
      <trkpt lat="44.05354" lon="6.86891">
        <ele>1317</ele>
        <time>2017-06-09T10:06:51Z</time>
      </trkpt>
      <trkpt lat="44.05351" lon="6.86896">
        <ele>1317</ele>
        <time>2017-06-09T10:06:51Z</time>
      </trkpt>
      <trkpt lat="44.05351" lon="6.86897">
        <ele>1317</ele>
        <time>2017-06-09T10:07:07Z</time>
      </trkpt>
      <trkpt lat="44.05351" lon="6.869">
        <ele>1317</ele>
        <time>2017-06-09T10:07:07Z</time>
      </trkpt>
      <trkpt lat="44.05349" lon="6.86903">
        <ele>1317</ele>
        <time>2017-06-09T10:07:07Z</time>
      </trkpt>
      <trkpt lat="44.05344" lon="6.86906">
        <ele>1323</ele>
        <time>2017-06-09T10:07:07Z</time>
      </trkpt>
      <trkpt lat="44.05343" lon="6.86907">
        <ele>1323</ele>
        <time>2017-06-09T10:07:25Z</time>
      </trkpt>
      <trkpt lat="44.0534" lon="6.86912">
        <ele>1323</ele>
        <time>2017-06-09T10:07:25Z</time>
      </trkpt>
      <trkpt lat="44.05339" lon="6.86913">
        <ele>1323</ele>
        <time>2017-06-09T10:07:25Z</time>
      </trkpt>
      <trkpt lat="44.05336" lon="6.86915">
        <ele>1323</ele>
        <time>2017-06-09T10:07:25Z</time>
      </trkpt>
      <trkpt lat="44.05335" lon="6.86918">
        <ele>1323</ele>
        <time>2017-06-09T10:07:25Z</time>
      </trkpt>
      <trkpt lat="44.05333" lon="6.86918">
        <ele>1323</ele>
        <time>2017-06-09T10:07:40Z</time>
      </trkpt>
      <trkpt lat="44.05331" lon="6.86919">
        <ele>1323</ele>
        <time>2017-06-09T10:07:40Z</time>
      </trkpt>
      <trkpt lat="44.05329" lon="6.86921">
        <ele>1323</ele>
        <time>2017-06-09T10:07:40Z</time>
      </trkpt>
      <trkpt lat="44.05323" lon="6.86925">
        <ele>1323</ele>
        <time>2017-06-09T10:07:40Z</time>
      </trkpt>
      <trkpt lat="44.0532" lon="6.86926">
        <ele>1323</ele>
        <time>2017-06-09T10:07:58Z</time>
      </trkpt>
      <trkpt lat="44.05317" lon="6.86933">
        <ele>1329</ele>
        <time>2017-06-09T10:07:58Z</time>
      </trkpt>
      <trkpt lat="44.05317" lon="6.86937">
        <ele>1329</ele>
        <time>2017-06-09T10:07:58Z</time>
      </trkpt>
      <trkpt lat="44.05316" lon="6.8694">
        <ele>1329</ele>
        <time>2017-06-09T10:07:58Z</time>
      </trkpt>
      <trkpt lat="44.05314" lon="6.86941">
        <ele>1329</ele>
        <time>2017-06-09T10:08:15Z</time>
      </trkpt>
      <trkpt lat="44.05311" lon="6.86946">
        <ele>1329</ele>
        <time>2017-06-09T10:08:15Z</time>
      </trkpt>
      <trkpt lat="44.05309" lon="6.86946">
        <ele>1329</ele>
        <time>2017-06-09T10:08:15Z</time>
      </trkpt>
      <trkpt lat="44.05305" lon="6.86948">
        <ele>1329</ele>
        <time>2017-06-09T10:08:15Z</time>
      </trkpt>
      <trkpt lat="44.05304" lon="6.86948">
        <ele>1329</ele>
        <time>2017-06-09T10:08:28Z</time>
      </trkpt>
      <trkpt lat="44.05302" lon="6.86951">
        <ele>1329</ele>
        <time>2017-06-09T10:08:28Z</time>
      </trkpt>
      <trkpt lat="44.05298" lon="6.86952">
        <ele>1329</ele>
        <time>2017-06-09T10:08:28Z</time>
      </trkpt>
      <trkpt lat="44.05293" lon="6.86951">
        <ele>1329</ele>
        <time>2017-06-09T10:08:28Z</time>
      </trkpt>
      <trkpt lat="44.05291" lon="6.86952">
        <ele>1325</ele>
        <time>2017-06-09T10:08:44Z</time>
      </trkpt>
      <trkpt lat="44.05288" lon="6.86953">
        <ele>1325</ele>
        <time>2017-06-09T10:08:44Z</time>
      </trkpt>
      <trkpt lat="44.05285" lon="6.86953">
        <ele>1325</ele>
        <time>2017-06-09T10:08:44Z</time>
      </trkpt>
      <trkpt lat="44.05281" lon="6.86954">
        <ele>1325</ele>
        <time>2017-06-09T10:08:44Z</time>
      </trkpt>
      <trkpt lat="44.05277" lon="6.86957">
        <ele>1325</ele>
        <time>2017-06-09T10:09:01Z</time>
      </trkpt>
      <trkpt lat="44.05274" lon="6.86961">
        <ele>1336</ele>
        <time>2017-06-09T10:09:01Z</time>
      </trkpt>
      <trkpt lat="44.05272" lon="6.86965">
        <ele>1336</ele>
        <time>2017-06-09T10:09:01Z</time>
      </trkpt>
      <trkpt lat="44.0527" lon="6.86967">
        <ele>1336</ele>
        <time>2017-06-09T10:09:01Z</time>
      </trkpt>
      <trkpt lat="44.05268" lon="6.86968">
        <ele>1336</ele>
        <time>2017-06-09T10:09:21Z</time>
      </trkpt>
      <trkpt lat="44.05265" lon="6.86974">
        <ele>1336</ele>
        <time>2017-06-09T10:09:21Z</time>
      </trkpt>
      <trkpt lat="44.05264" lon="6.86975">
        <ele>1336</ele>
        <time>2017-06-09T10:09:21Z</time>
      </trkpt>
      <trkpt lat="44.05261" lon="6.86976">
        <ele>1332</ele>
        <time>2017-06-09T10:09:22Z</time>
      </trkpt>
      <trkpt lat="44.05259" lon="6.86978">
        <ele>1332</ele>
        <time>2017-06-09T10:09:22Z</time>
      </trkpt>
      <trkpt lat="44.05257" lon="6.86979">
        <ele>1332</ele>
        <time>2017-06-09T10:09:40Z</time>
      </trkpt>
      <trkpt lat="44.05254" lon="6.86983">
        <ele>1332</ele>
        <time>2017-06-09T10:09:40Z</time>
      </trkpt>
      <trkpt lat="44.05252" lon="6.86986">
        <ele>1332</ele>
        <time>2017-06-09T10:09:40Z</time>
      </trkpt>
      <trkpt lat="44.05252" lon="6.86988">
        <ele>1342</ele>
        <time>2017-06-09T10:09:40Z</time>
      </trkpt>
      <trkpt lat="44.05249" lon="6.86988">
        <ele>1342</ele>
        <time>2017-06-09T10:09:40Z</time>
      </trkpt>
      <trkpt lat="44.05245" lon="6.8699">
        <ele>1342</ele>
        <time>2017-06-09T10:09:57Z</time>
      </trkpt>
      <trkpt lat="44.05242" lon="6.86994">
        <ele>1342</ele>
        <time>2017-06-09T10:09:57Z</time>
      </trkpt>
      <trkpt lat="44.05236" lon="6.86999">
        <ele>1341</ele>
        <time>2017-06-09T10:09:57Z</time>
      </trkpt>
      <trkpt lat="44.05236" lon="6.87">
        <ele>1341</ele>
        <time>2017-06-09T10:09:58Z</time>
      </trkpt>
      <trkpt lat="44.0523" lon="6.87004">
        <ele>1341</ele>
        <time>2017-06-09T10:10:23Z</time>
      </trkpt>
      <trkpt lat="44.05227" lon="6.87007">
        <ele>1341</ele>
        <time>2017-06-09T10:10:23Z</time>
      </trkpt>
      <trkpt lat="44.05225" lon="6.87008">
        <ele>1341</ele>
        <time>2017-06-09T10:10:24Z</time>
      </trkpt>
      <trkpt lat="44.05224" lon="6.87008">
        <ele>1341</ele>
        <time>2017-06-09T10:10:24Z</time>
      </trkpt>
      <trkpt lat="44.0522" lon="6.8701">
        <ele>1341</ele>
        <time>2017-06-09T10:10:24Z</time>
      </trkpt>
      <trkpt lat="44.0522" lon="6.8701">
        <ele>1341</ele>
        <time>2017-06-09T10:10:40Z</time>
      </trkpt>
      <trkpt lat="44.05219" lon="6.87012">
        <ele>1341</ele>
        <time>2017-06-09T10:10:40Z</time>
      </trkpt>
      <trkpt lat="44.05217" lon="6.87014">
        <ele>1341</ele>
        <time>2017-06-09T10:10:40Z</time>
      </trkpt>
      <trkpt lat="44.05213" lon="6.87015">
        <ele>1349</ele>
        <time>2017-06-09T10:10:40Z</time>
      </trkpt>
      <trkpt lat="44.05212" lon="6.87017">
        <ele>1349</ele>
        <time>2017-06-09T10:10:40Z</time>
      </trkpt>
      <trkpt lat="44.05204" lon="6.87024">
        <ele>1347</ele>
        <time>2017-06-09T10:11:09Z</time>
      </trkpt>
      <trkpt lat="44.05202" lon="6.87024">
        <ele>1347</ele>
        <time>2017-06-09T10:11:09Z</time>
      </trkpt>
      <trkpt lat="44.05202" lon="6.87025">
        <ele>1347</ele>
        <time>2017-06-09T10:11:09Z</time>
      </trkpt>
      <trkpt lat="44.05201" lon="6.87024">
        <ele>1347</ele>
        <time>2017-06-09T10:11:09Z</time>
      </trkpt>
      <trkpt lat="44.05199" lon="6.87026">
        <ele>1347</ele>
        <time>2017-06-09T10:11:09Z</time>
      </trkpt>
      <trkpt lat="44.05199" lon="6.87028">
        <ele>1347</ele>
        <time>2017-06-09T10:12:40Z</time>
      </trkpt>
      <trkpt lat="44.05194" lon="6.8703">
        <ele>1347</ele>
        <time>2017-06-09T10:12:40Z</time>
      </trkpt>
      <trkpt lat="44.05192" lon="6.8703">
        <ele>1347</ele>
        <time>2017-06-09T10:12:40Z</time>
      </trkpt>
      <trkpt lat="44.0519" lon="6.87032">
        <ele>1347</ele>
        <time>2017-06-09T10:12:40Z</time>
      </trkpt>
      <trkpt lat="44.05187" lon="6.87031">
        <ele>1347</ele>
        <time>2017-06-09T10:12:40Z</time>
      </trkpt>
      <trkpt lat="44.05185" lon="6.8703">
        <ele>1347</ele>
        <time>2017-06-09T10:13:00Z</time>
      </trkpt>
      <trkpt lat="44.05184" lon="6.87031">
        <ele>1347</ele>
        <time>2017-06-09T10:13:00Z</time>
      </trkpt>
      <trkpt lat="44.0518" lon="6.87034">
        <ele>1345</ele>
        <time>2017-06-09T10:13:00Z</time>
      </trkpt>
      <trkpt lat="44.05177" lon="6.87034">
        <ele>1345</ele>
        <time>2017-06-09T10:13:00Z</time>
      </trkpt>
      <trkpt lat="44.05176" lon="6.87033">
        <ele>1345</ele>
        <time>2017-06-09T10:13:00Z</time>
      </trkpt>
      <trkpt lat="44.05172" lon="6.87039">
        <ele>1345</ele>
        <time>2017-06-09T10:13:18Z</time>
      </trkpt>
      <trkpt lat="44.05168" lon="6.8704">
        <ele>1345</ele>
        <time>2017-06-09T10:13:18Z</time>
      </trkpt>
      <trkpt lat="44.05168" lon="6.87041">
        <ele>1345</ele>
        <time>2017-06-09T10:13:18Z</time>
      </trkpt>
      <trkpt lat="44.05163" lon="6.87047">
        <ele>1351</ele>
        <time>2017-06-09T10:13:18Z</time>
      </trkpt>
      <trkpt lat="44.05161" lon="6.87049">
        <ele>1351</ele>
        <time>2017-06-09T10:13:44Z</time>
      </trkpt>
      <trkpt lat="44.05161" lon="6.8705">
        <ele>1351</ele>
        <time>2017-06-09T10:13:45Z</time>
      </trkpt>
      <trkpt lat="44.05158" lon="6.87057">
        <ele>1351</ele>
        <time>2017-06-09T10:13:45Z</time>
      </trkpt>
      <trkpt lat="44.05159" lon="6.87058">
        <ele>1351</ele>
        <time>2017-06-09T10:13:45Z</time>
      </trkpt>
      <trkpt lat="44.05159" lon="6.8706">
        <ele>1351</ele>
        <time>2017-06-09T10:13:45Z</time>
      </trkpt>
      <trkpt lat="44.05158" lon="6.87065">
        <ele>1351</ele>
        <time>2017-06-09T10:14:39Z</time>
      </trkpt>
      <trkpt lat="44.05158" lon="6.87065">
        <ele>1351</ele>
        <time>2017-06-09T10:14:39Z</time>
      </trkpt>
      <trkpt lat="44.05159" lon="6.87072">
        <ele>1360</ele>
        <time>2017-06-09T10:14:39Z</time>
      </trkpt>
      <trkpt lat="44.05158" lon="6.87072">
        <ele>1360</ele>
        <time>2017-06-09T10:14:39Z</time>
      </trkpt>
      <trkpt lat="44.05156" lon="6.87078">
        <ele>1360</ele>
        <time>2017-06-09T10:14:39Z</time>
      </trkpt>
      <trkpt lat="44.05155" lon="6.87078">
        <ele>1360</ele>
        <time>2017-06-09T10:14:54Z</time>
      </trkpt>
      <trkpt lat="44.05152" lon="6.87083">
        <ele>1352</ele>
        <time>2017-06-09T10:14:54Z</time>
      </trkpt>
      <trkpt lat="44.05149" lon="6.87087">
        <ele>1352</ele>
        <time>2017-06-09T10:14:54Z</time>
      </trkpt>
      <trkpt lat="44.05148" lon="6.87091">
        <ele>1352</ele>
        <time>2017-06-09T10:14:54Z</time>
      </trkpt>
      <trkpt lat="44.05146" lon="6.87099">
        <ele>1359</ele>
        <time>2017-06-09T10:15:26Z</time>
      </trkpt>
      <trkpt lat="44.05145" lon="6.87102">
        <ele>1359</ele>
        <time>2017-06-09T10:15:26Z</time>
      </trkpt>
      <trkpt lat="44.05142" lon="6.87104">
        <ele>1359</ele>
        <time>2017-06-09T10:15:26Z</time>
      </trkpt>
      <trkpt lat="44.05144" lon="6.87108">
        <ele>1359</ele>
        <time>2017-06-09T10:15:26Z</time>
      </trkpt>
      <trkpt lat="44.05145" lon="6.87109">
        <ele>1359</ele>
        <time>2017-06-09T10:15:26Z</time>
      </trkpt>
      <trkpt lat="44.05145" lon="6.87107">
        <ele>1359</ele>
        <time>2017-06-09T10:17:19Z</time>
      </trkpt>
      <trkpt lat="44.05146" lon="6.87105">
        <ele>1359</ele>
        <time>2017-06-09T10:17:19Z</time>
      </trkpt>
      <trkpt lat="44.05149" lon="6.87099">
        <ele>1359</ele>
        <time>2017-06-09T10:17:20Z</time>
      </trkpt>
      <trkpt lat="44.05151" lon="6.871">
        <ele>1359</ele>
        <time>2017-06-09T10:17:20Z</time>
      </trkpt>
      <trkpt lat="44.05151" lon="6.87094">
        <ele>1352</ele>
        <time>2017-06-09T10:17:20Z</time>
      </trkpt>
      <trkpt lat="44.05155" lon="6.87087">
        <ele>1360</ele>
        <time>2017-06-09T10:17:44Z</time>
      </trkpt>
      <trkpt lat="44.05156" lon="6.87087">
        <ele>1360</ele>
        <time>2017-06-09T10:17:44Z</time>
      </trkpt>
      <trkpt lat="44.05158" lon="6.87085">
        <ele>1360</ele>
        <time>2017-06-09T10:17:44Z</time>
      </trkpt>
      <trkpt lat="44.05158" lon="6.87084">
        <ele>1360</ele>
        <time>2017-06-09T10:17:44Z</time>
      </trkpt>
      <trkpt lat="44.05159" lon="6.87079">
        <ele>1360</ele>
        <time>2017-06-09T10:17:44Z</time>
      </trkpt>
      <trkpt lat="44.05158" lon="6.87077">
        <ele>1360</ele>
        <time>2017-06-09T10:18:04Z</time>
      </trkpt>
      <trkpt lat="44.05155" lon="6.8707">
        <ele>1360</ele>
        <time>2017-06-09T10:18:04Z</time>
      </trkpt>
      <trkpt lat="44.05153" lon="6.8707">
        <ele>1352</ele>
        <time>2017-06-09T10:18:04Z</time>
      </trkpt>
      <trkpt lat="44.05152" lon="6.87072">
        <ele>1352</ele>
        <time>2017-06-09T10:18:04Z</time>
      </trkpt>
      <trkpt lat="44.0515" lon="6.87073">
        <ele>1352</ele>
        <time>2017-06-09T10:18:04Z</time>
      </trkpt>
      <trkpt lat="44.05147" lon="6.87075">
        <ele>1352</ele>
        <time>2017-06-09T10:18:22Z</time>
      </trkpt>
      <trkpt lat="44.05146" lon="6.87078">
        <ele>1352</ele>
        <time>2017-06-09T10:18:22Z</time>
      </trkpt>
      <trkpt lat="44.05144" lon="6.87081">
        <ele>1352</ele>
        <time>2017-06-09T10:18:22Z</time>
      </trkpt>
      <trkpt lat="44.0514" lon="6.87085">
        <ele>1352</ele>
        <time>2017-06-09T10:18:22Z</time>
      </trkpt>
      <trkpt lat="44.05139" lon="6.87086">
        <ele>1352</ele>
        <time>2017-06-09T10:18:40Z</time>
      </trkpt>
      <trkpt lat="44.05131" lon="6.87098">
        <ele>1359</ele>
        <time>2017-06-09T10:18:40Z</time>
      </trkpt>
      <trkpt lat="44.0513" lon="6.871">
        <ele>1359</ele>
        <time>2017-06-09T10:18:40Z</time>
      </trkpt>
      <trkpt lat="44.05127" lon="6.87102">
        <ele>1359</ele>
        <time>2017-06-09T10:18:40Z</time>
      </trkpt>
      <trkpt lat="44.05123" lon="6.87106">
        <ele>1346</ele>
        <time>2017-06-09T10:19:06Z</time>
      </trkpt>
      <trkpt lat="44.05121" lon="6.87104">
        <ele>1346</ele>
        <time>2017-06-09T10:19:06Z</time>
      </trkpt>
      <trkpt lat="44.05121" lon="6.87109">
        <ele>1346</ele>
        <time>2017-06-09T10:19:07Z</time>
      </trkpt>
      <trkpt lat="44.05119" lon="6.8711">
        <ele>1346</ele>
        <time>2017-06-09T10:19:07Z</time>
      </trkpt>
      <trkpt lat="44.05117" lon="6.87112">
        <ele>1346</ele>
        <time>2017-06-09T10:19:07Z</time>
      </trkpt>
      <trkpt lat="44.05113" lon="6.87117">
        <ele>1346</ele>
        <time>2017-06-09T10:20:00Z</time>
      </trkpt>
      <trkpt lat="44.05113" lon="6.8712">
        <ele>1346</ele>
        <time>2017-06-09T10:20:00Z</time>
      </trkpt>
      <trkpt lat="44.05114" lon="6.87121">
        <ele>1346</ele>
        <time>2017-06-09T10:20:00Z</time>
      </trkpt>
      <trkpt lat="44.05112" lon="6.87121">
        <ele>1346</ele>
        <time>2017-06-09T10:20:00Z</time>
      </trkpt>
      <trkpt lat="44.05111" lon="6.87123">
        <ele>1346</ele>
        <time>2017-06-09T10:20:00Z</time>
      </trkpt>
      <trkpt lat="44.05107" lon="6.87125">
        <ele>1346</ele>
        <time>2017-06-09T10:20:52Z</time>
      </trkpt>
      <trkpt lat="44.05106" lon="6.87124">
        <ele>1346</ele>
        <time>2017-06-09T10:20:52Z</time>
      </trkpt>
      <trkpt lat="44.05106" lon="6.87122">
        <ele>1346</ele>
        <time>2017-06-09T10:20:52Z</time>
      </trkpt>
      <trkpt lat="44.05105" lon="6.87118">
        <ele>1346</ele>
        <time>2017-06-09T10:20:52Z</time>
      </trkpt>
      <trkpt lat="44.05104" lon="6.87116">
        <ele>1346</ele>
        <time>2017-06-09T10:20:52Z</time>
      </trkpt>
      <trkpt lat="44.05103" lon="6.87109">
        <ele>1346</ele>
        <time>2017-06-09T10:21:37Z</time>
      </trkpt>
      <trkpt lat="44.05104" lon="6.87109">
        <ele>1346</ele>
        <time>2017-06-09T10:21:37Z</time>
      </trkpt>
      <trkpt lat="44.05104" lon="6.87109">
        <ele>1346</ele>
        <time>2017-06-09T10:21:37Z</time>
      </trkpt>
      <trkpt lat="44.05106" lon="6.87106">
        <ele>1346</ele>
        <time>2017-06-09T10:21:37Z</time>
      </trkpt>
      <trkpt lat="44.05109" lon="6.871">
        <ele>1346</ele>
        <time>2017-06-09T10:21:37Z</time>
      </trkpt>
      <trkpt lat="44.05104" lon="6.87105">
        <ele>1346</ele>
        <time>2017-06-09T10:26:29Z</time>
      </trkpt>
      <trkpt lat="44.05104" lon="6.87105">
        <ele>1346</ele>
        <time>2017-06-09T10:26:29Z</time>
      </trkpt>
      <trkpt lat="44.05104" lon="6.87105">
        <ele>1346</ele>
        <time>2017-06-09T10:26:29Z</time>
      </trkpt>
      <trkpt lat="44.05103" lon="6.87106">
        <ele>1346</ele>
        <time>2017-06-09T10:26:29Z</time>
      </trkpt>
      <trkpt lat="44.05105" lon="6.87109">
        <ele>1346</ele>
        <time>2017-06-09T10:26:29Z</time>
      </trkpt>
      <trkpt lat="44.05103" lon="6.87102">
        <ele>1346</ele>
        <time>2017-06-09T10:35:54Z</time>
      </trkpt>
      <trkpt lat="44.05102" lon="6.871">
        <ele>1346</ele>
        <time>2017-06-09T10:35:54Z</time>
      </trkpt>
      <trkpt lat="44.05101" lon="6.871">
        <ele>1346</ele>
        <time>2017-06-09T10:35:54Z</time>
      </trkpt>
      <trkpt lat="44.051" lon="6.87099">
        <ele>1346</ele>
        <time>2017-06-09T10:35:54Z</time>
      </trkpt>
      <trkpt lat="44.051" lon="6.87098">
        <ele>1346</ele>
        <time>2017-06-09T10:35:54Z</time>
      </trkpt>
      <trkpt lat="44.05106" lon="6.87105">
        <ele>1346</ele>
        <time>2017-06-09T10:39:56Z</time>
      </trkpt>
      <trkpt lat="44.05106" lon="6.87107">
        <ele>1346</ele>
        <time>2017-06-09T10:39:56Z</time>
      </trkpt>
      <trkpt lat="44.05105" lon="6.8711">
        <ele>1346</ele>
        <time>2017-06-09T10:39:56Z</time>
      </trkpt>
      <trkpt lat="44.05107" lon="6.87109">
        <ele>1346</ele>
        <time>2017-06-09T10:39:56Z</time>
      </trkpt>
      <trkpt lat="44.05099" lon="6.87113">
        <ele>1346</ele>
        <time>2017-06-09T10:39:56Z</time>
      </trkpt>
      <trkpt lat="44.05106" lon="6.87115">
        <ele>1346</ele>
        <time>2017-06-09T10:40:32Z</time>
      </trkpt>
      <trkpt lat="44.05105" lon="6.8712">
        <ele>1346</ele>
        <time>2017-06-09T10:40:32Z</time>
      </trkpt>
      <trkpt lat="44.05107" lon="6.87118">
        <ele>1346</ele>
        <time>2017-06-09T10:40:32Z</time>
      </trkpt>
      <trkpt lat="44.05103" lon="6.87124">
        <ele>1346</ele>
        <time>2017-06-09T10:40:32Z</time>
      </trkpt>
      <trkpt lat="44.05101" lon="6.87127">
        <ele>1352</ele>
        <time>2017-06-09T10:40:32Z</time>
      </trkpt>
      <trkpt lat="44.05094" lon="6.87141">
        <ele>1339</ele>
        <time>2017-06-09T10:41:04Z</time>
      </trkpt>
      <trkpt lat="44.05088" lon="6.87146">
        <ele>1339</ele>
        <time>2017-06-09T10:41:04Z</time>
      </trkpt>
      <trkpt lat="44.05084" lon="6.87154">
        <ele>1345</ele>
        <time>2017-06-09T10:41:04Z</time>
      </trkpt>
      <trkpt lat="44.05082" lon="6.87158">
        <ele>1345</ele>
        <time>2017-06-09T10:41:04Z</time>
      </trkpt>
      <trkpt lat="44.05081" lon="6.87161">
        <ele>1345</ele>
        <time>2017-06-09T10:41:04Z</time>
      </trkpt>
      <trkpt lat="44.0508" lon="6.87173">
        <ele>1345</ele>
        <time>2017-06-09T10:41:36Z</time>
      </trkpt>
      <trkpt lat="44.05079" lon="6.87173">
        <ele>1345</ele>
        <time>2017-06-09T10:41:36Z</time>
      </trkpt>
      <trkpt lat="44.05079" lon="6.87174">
        <ele>1345</ele>
        <time>2017-06-09T10:41:36Z</time>
      </trkpt>
      <trkpt lat="44.05081" lon="6.87177">
        <ele>1345</ele>
        <time>2017-06-09T10:41:36Z</time>
      </trkpt>
      <trkpt lat="44.05079" lon="6.87182">
        <ele>1349</ele>
        <time>2017-06-09T10:41:36Z</time>
      </trkpt>
      <trkpt lat="44.05077" lon="6.87185">
        <ele>1349</ele>
        <time>2017-06-09T10:41:52Z</time>
      </trkpt>
      <trkpt lat="44.05079" lon="6.87197">
        <ele>1349</ele>
        <time>2017-06-09T10:41:52Z</time>
      </trkpt>
      <trkpt lat="44.05077" lon="6.872">
        <ele>1349</ele>
        <time>2017-06-09T10:41:52Z</time>
      </trkpt>
      <trkpt lat="44.05077" lon="6.87209">
        <ele>1351</ele>
        <time>2017-06-09T10:41:52Z</time>
      </trkpt>
      <trkpt lat="44.0508" lon="6.8722">
        <ele>1351</ele>
        <time>2017-06-09T10:44:04Z</time>
      </trkpt>
      <trkpt lat="44.0508" lon="6.87223">
        <ele>1351</ele>
        <time>2017-06-09T10:44:04Z</time>
      </trkpt>
      <trkpt lat="44.0508" lon="6.87225">
        <ele>1351</ele>
        <time>2017-06-09T10:44:04Z</time>
      </trkpt>
      <trkpt lat="44.05079" lon="6.87228">
        <ele>1351</ele>
        <time>2017-06-09T10:44:04Z</time>
      </trkpt>
      <trkpt lat="44.05079" lon="6.87229">
        <ele>1351</ele>
        <time>2017-06-09T10:44:04Z</time>
      </trkpt>
      <trkpt lat="44.05075" lon="6.87232">
        <ele>1351</ele>
        <time>2017-06-09T10:45:02Z</time>
      </trkpt>
      <trkpt lat="44.05072" lon="6.87236">
        <ele>1354</ele>
        <time>2017-06-09T10:45:02Z</time>
      </trkpt>
      <trkpt lat="44.0507" lon="6.87244">
        <ele>1354</ele>
        <time>2017-06-09T10:45:02Z</time>
      </trkpt>
      <trkpt lat="44.05069" lon="6.87252">
        <ele>1336</ele>
        <time>2017-06-09T10:45:02Z</time>
      </trkpt>
      <trkpt lat="44.05068" lon="6.87255">
        <ele>1336</ele>
        <time>2017-06-09T10:45:02Z</time>
      </trkpt>
      <trkpt lat="44.05068" lon="6.87255">
        <ele>1336</ele>
        <time>2017-06-09T10:45:24Z</time>
      </trkpt>
      <trkpt lat="44.05068" lon="6.87262">
        <ele>1336</ele>
        <time>2017-06-09T10:45:24Z</time>
      </trkpt>
      <trkpt lat="44.05066" lon="6.87272">
        <ele>1340</ele>
        <time>2017-06-09T10:45:24Z</time>
      </trkpt>
      <trkpt lat="44.05066" lon="6.87275">
        <ele>1340</ele>
        <time>2017-06-09T10:45:24Z</time>
      </trkpt>
      <trkpt lat="44.05063" lon="6.87285">
        <ele>1340</ele>
        <time>2017-06-09T10:45:42Z</time>
      </trkpt>
      <trkpt lat="44.05062" lon="6.87292">
        <ele>1345</ele>
        <time>2017-06-09T10:45:42Z</time>
      </trkpt>
      <trkpt lat="44.0506" lon="6.87296">
        <ele>1345</ele>
        <time>2017-06-09T10:45:42Z</time>
      </trkpt>
      <trkpt lat="44.0506" lon="6.87299">
        <ele>1345</ele>
        <time>2017-06-09T10:45:42Z</time>
      </trkpt>
      <trkpt lat="44.05059" lon="6.87303">
        <ele>1345</ele>
        <time>2017-06-09T10:46:20Z</time>
      </trkpt>
      <trkpt lat="44.05057" lon="6.87305">
        <ele>1345</ele>
        <time>2017-06-09T10:46:20Z</time>
      </trkpt>
      <trkpt lat="44.05057" lon="6.87306">
        <ele>1345</ele>
        <time>2017-06-09T10:46:20Z</time>
      </trkpt>
      <trkpt lat="44.05056" lon="6.87309">
        <ele>1345</ele>
        <time>2017-06-09T10:46:20Z</time>
      </trkpt>
      <trkpt lat="44.05052" lon="6.87314">
        <ele>1345</ele>
        <time>2017-06-09T10:46:20Z</time>
      </trkpt>
      <trkpt lat="44.05053" lon="6.87307">
        <ele>1345</ele>
        <time>2017-06-09T10:46:51Z</time>
      </trkpt>
      <trkpt lat="44.05053" lon="6.87306">
        <ele>1345</ele>
        <time>2017-06-09T10:46:51Z</time>
      </trkpt>
      <trkpt lat="44.05052" lon="6.87304">
        <ele>1345</ele>
        <time>2017-06-09T10:46:51Z</time>
      </trkpt>
      <trkpt lat="44.05052" lon="6.87302">
        <ele>1345</ele>
        <time>2017-06-09T10:46:51Z</time>
      </trkpt>
      <trkpt lat="44.05049" lon="6.87299">
        <ele>1345</ele>
        <time>2017-06-09T10:46:51Z</time>
      </trkpt>
      <trkpt lat="44.05048" lon="6.87298">
        <ele>1345</ele>
        <time>2017-06-09T10:47:04Z</time>
      </trkpt>
      <trkpt lat="44.05046" lon="6.87292">
        <ele>1345</ele>
        <time>2017-06-09T10:47:04Z</time>
      </trkpt>
      <trkpt lat="44.05045" lon="6.87288">
        <ele>1340</ele>
        <time>2017-06-09T10:47:04Z</time>
      </trkpt>
      <trkpt lat="44.05041" lon="6.87283">
        <ele>1320</ele>
        <time>2017-06-09T10:47:04Z</time>
      </trkpt>
      <trkpt lat="44.0504" lon="6.87275">
        <ele>1320</ele>
        <time>2017-06-09T10:47:37Z</time>
      </trkpt>
      <trkpt lat="44.05039" lon="6.87274">
        <ele>1320</ele>
        <time>2017-06-09T10:47:37Z</time>
      </trkpt>
      <trkpt lat="44.05039" lon="6.87273">
        <ele>1320</ele>
        <time>2017-06-09T10:47:37Z</time>
      </trkpt>
      <trkpt lat="44.05038" lon="6.87268">
        <ele>1320</ele>
        <time>2017-06-09T10:47:37Z</time>
      </trkpt>
      <trkpt lat="44.05038" lon="6.87266">
        <ele>1320</ele>
        <time>2017-06-09T10:47:37Z</time>
      </trkpt>
      <trkpt lat="44.05034" lon="6.87257">
        <ele>1315</ele>
        <time>2017-06-09T10:48:04Z</time>
      </trkpt>
      <trkpt lat="44.05036" lon="6.87254">
        <ele>1315</ele>
        <time>2017-06-09T10:48:04Z</time>
      </trkpt>
      <trkpt lat="44.05036" lon="6.87253">
        <ele>1315</ele>
        <time>2017-06-09T10:48:04Z</time>
      </trkpt>
      <trkpt lat="44.05035" lon="6.87251">
        <ele>1315</ele>
        <time>2017-06-09T10:48:04Z</time>
      </trkpt>
      <trkpt lat="44.05035" lon="6.87249">
        <ele>1315</ele>
        <time>2017-06-09T10:48:04Z</time>
      </trkpt>
      <trkpt lat="44.05034" lon="6.87253">
        <ele>1315</ele>
        <time>2017-06-09T10:48:31Z</time>
      </trkpt>
      <trkpt lat="44.05033" lon="6.87253">
        <ele>1315</ele>
        <time>2017-06-09T10:48:31Z</time>
      </trkpt>
      <trkpt lat="44.05031" lon="6.87255">
        <ele>1315</ele>
        <time>2017-06-09T10:48:31Z</time>
      </trkpt>
      <trkpt lat="44.05029" lon="6.87259">
        <ele>1315</ele>
        <time>2017-06-09T10:48:31Z</time>
      </trkpt>
      <trkpt lat="44.05025" lon="6.87261">
        <ele>1315</ele>
        <time>2017-06-09T10:48:32Z</time>
      </trkpt>
      <trkpt lat="44.05024" lon="6.87262">
        <ele>1315</ele>
        <time>2017-06-09T10:48:46Z</time>
      </trkpt>
      <trkpt lat="44.0502" lon="6.87272">
        <ele>1320</ele>
        <time>2017-06-09T10:48:46Z</time>
      </trkpt>
      <trkpt lat="44.0502" lon="6.87275">
        <ele>1320</ele>
        <time>2017-06-09T10:48:47Z</time>
      </trkpt>
      <trkpt lat="44.0502" lon="6.87276">
        <ele>1320</ele>
        <time>2017-06-09T10:48:47Z</time>
      </trkpt>
      <trkpt lat="44.05019" lon="6.87275">
        <ele>1320</ele>
        <time>2017-06-09T10:49:24Z</time>
      </trkpt>
      <trkpt lat="44.05017" lon="6.87274">
        <ele>1320</ele>
        <time>2017-06-09T10:49:24Z</time>
      </trkpt>
      <trkpt lat="44.05013" lon="6.87261">
        <ele>1296</ele>
        <time>2017-06-09T10:49:24Z</time>
      </trkpt>
      <trkpt lat="44.05014" lon="6.87252">
        <ele>1296</ele>
        <time>2017-06-09T10:49:24Z</time>
      </trkpt>
      <trkpt lat="44.05012" lon="6.87248">
        <ele>1296</ele>
        <time>2017-06-09T10:49:24Z</time>
      </trkpt>
      <trkpt lat="44.05015" lon="6.87244">
        <ele>1315</ele>
        <time>2017-06-09T10:49:41Z</time>
      </trkpt>
      <trkpt lat="44.05015" lon="6.87242">
        <ele>1315</ele>
        <time>2017-06-09T10:49:41Z</time>
      </trkpt>
      <trkpt lat="44.0502" lon="6.87236">
        <ele>1312</ele>
        <time>2017-06-09T10:49:41Z</time>
      </trkpt>
      <trkpt lat="44.05022" lon="6.87235">
        <ele>1312</ele>
        <time>2017-06-09T10:49:41Z</time>
      </trkpt>
      <trkpt lat="44.05023" lon="6.87235">
        <ele>1312</ele>
        <time>2017-06-09T10:49:58Z</time>
      </trkpt>
      <trkpt lat="44.05026" lon="6.87232">
        <ele>1312</ele>
        <time>2017-06-09T10:49:58Z</time>
      </trkpt>
      <trkpt lat="44.05026" lon="6.87227">
        <ele>1312</ele>
        <time>2017-06-09T10:49:59Z</time>
      </trkpt>
      <trkpt lat="44.05027" lon="6.87223">
        <ele>1312</ele>
        <time>2017-06-09T10:49:59Z</time>
      </trkpt>
      <trkpt lat="44.05026" lon="6.87218">
        <ele>1312</ele>
        <time>2017-06-09T10:50:24Z</time>
      </trkpt>
      <trkpt lat="44.05028" lon="6.87215">
        <ele>1312</ele>
        <time>2017-06-09T10:50:24Z</time>
      </trkpt>
      <trkpt lat="44.05028" lon="6.87215">
        <ele>1312</ele>
        <time>2017-06-09T10:50:24Z</time>
      </trkpt>
      <trkpt lat="44.05027" lon="6.87209">
        <ele>1312</ele>
        <time>2017-06-09T10:50:24Z</time>
      </trkpt>
      <trkpt lat="44.05026" lon="6.87205">
        <ele>1310</ele>
        <time>2017-06-09T10:50:24Z</time>
      </trkpt>
      <trkpt lat="44.0502" lon="6.87199">
        <ele>1310</ele>
        <time>2017-06-09T10:51:00Z</time>
      </trkpt>
      <trkpt lat="44.0502" lon="6.87195">
        <ele>1310</ele>
        <time>2017-06-09T10:51:00Z</time>
      </trkpt>
      <trkpt lat="44.05021" lon="6.87194">
        <ele>1310</ele>
        <time>2017-06-09T10:51:00Z</time>
      </trkpt>
      <trkpt lat="44.0502" lon="6.8719">
        <ele>1310</ele>
        <time>2017-06-09T10:51:00Z</time>
      </trkpt>
      <trkpt lat="44.05019" lon="6.87187">
        <ele>1310</ele>
        <time>2017-06-09T10:51:00Z</time>
      </trkpt>
      <trkpt lat="44.05019" lon="6.87185">
        <ele>1310</ele>
        <time>2017-06-09T10:51:33Z</time>
      </trkpt>
      <trkpt lat="44.0502" lon="6.8719">
        <ele>1310</ele>
        <time>2017-06-09T10:51:33Z</time>
      </trkpt>
      <trkpt lat="44.05019" lon="6.87195">
        <ele>1310</ele>
        <time>2017-06-09T10:51:34Z</time>
      </trkpt>
      <trkpt lat="44.05018" lon="6.87199">
        <ele>1310</ele>
        <time>2017-06-09T10:51:34Z</time>
      </trkpt>
      <trkpt lat="44.05015" lon="6.87208">
        <ele>1310</ele>
        <time>2017-06-09T10:51:34Z</time>
      </trkpt>
      <trkpt lat="44.05017" lon="6.87208">
        <ele>1310</ele>
        <time>2017-06-09T10:52:22Z</time>
      </trkpt>
      <trkpt lat="44.05015" lon="6.87205">
        <ele>1310</ele>
        <time>2017-06-09T10:52:22Z</time>
      </trkpt>
      <trkpt lat="44.05013" lon="6.87197">
        <ele>1290</ele>
        <time>2017-06-09T10:52:22Z</time>
      </trkpt>
      <trkpt lat="44.05013" lon="6.87195">
        <ele>1290</ele>
        <time>2017-06-09T10:52:22Z</time>
      </trkpt>
      <trkpt lat="44.05012" lon="6.87189">
        <ele>1290</ele>
        <time>2017-06-09T10:52:22Z</time>
      </trkpt>
      <trkpt lat="44.05007" lon="6.8718">
        <ele>1285</ele>
        <time>2017-06-09T10:53:12Z</time>
      </trkpt>
      <trkpt lat="44.05006" lon="6.87182">
        <ele>1290</ele>
        <time>2017-06-09T10:53:12Z</time>
      </trkpt>
      <trkpt lat="44.04998" lon="6.87198">
        <ele>1290</ele>
        <time>2017-06-09T10:53:13Z</time>
      </trkpt>
      <trkpt lat="44.04995" lon="6.87202">
        <ele>1290</ele>
        <time>2017-06-09T10:53:14Z</time>
      </trkpt>
      <trkpt lat="44.04997" lon="6.87209">
        <ele>1294</ele>
        <time>2017-06-09T10:53:14Z</time>
      </trkpt>
      <trkpt lat="44.04995" lon="6.87212">
        <ele>1294</ele>
        <time>2017-06-09T10:53:24Z</time>
      </trkpt>
      <trkpt lat="44.04996" lon="6.87207">
        <ele>1290</ele>
        <time>2017-06-09T10:53:24Z</time>
      </trkpt>
      <trkpt lat="44.04994" lon="6.872">
        <ele>1290</ele>
        <time>2017-06-09T10:53:24Z</time>
      </trkpt>
      <trkpt lat="44.04994" lon="6.87199">
        <ele>1290</ele>
        <time>2017-06-09T10:53:24Z</time>
      </trkpt>
      <trkpt lat="44.0499" lon="6.87186">
        <ele>1290</ele>
        <time>2017-06-09T10:54:33Z</time>
      </trkpt>
      <trkpt lat="44.04991" lon="6.87183">
        <ele>1290</ele>
        <time>2017-06-09T10:54:33Z</time>
      </trkpt>
      <trkpt lat="44.04992" lon="6.87178">
        <ele>1285</ele>
        <time>2017-06-09T10:54:33Z</time>
      </trkpt>
      <trkpt lat="44.04993" lon="6.87176">
        <ele>1285</ele>
        <time>2017-06-09T10:54:33Z</time>
      </trkpt>
      <trkpt lat="44.04992" lon="6.87172">
        <ele>1285</ele>
        <time>2017-06-09T10:54:33Z</time>
      </trkpt>
      <trkpt lat="44.04992" lon="6.87164">
        <ele>1285</ele>
        <time>2017-06-09T10:54:59Z</time>
      </trkpt>
      <trkpt lat="44.04991" lon="6.87162">
        <ele>1285</ele>
        <time>2017-06-09T10:54:59Z</time>
      </trkpt>
      <trkpt lat="44.04985" lon="6.87166">
        <ele>1265</ele>
        <time>2017-06-09T10:54:59Z</time>
      </trkpt>
      <trkpt lat="44.04984" lon="6.87166">
        <ele>1265</ele>
        <time>2017-06-09T10:54:59Z</time>
      </trkpt>
      <trkpt lat="44.04983" lon="6.8717">
        <ele>1265</ele>
        <time>2017-06-09T10:54:59Z</time>
      </trkpt>
      <trkpt lat="44.04982" lon="6.8717">
        <ele>1265</ele>
        <time>2017-06-09T10:55:20Z</time>
      </trkpt>
      <trkpt lat="44.04982" lon="6.87174">
        <ele>1265</ele>
        <time>2017-06-09T10:55:20Z</time>
      </trkpt>
      <trkpt lat="44.04977" lon="6.87183">
        <ele>1271</ele>
        <time>2017-06-09T10:55:20Z</time>
      </trkpt>
      <trkpt lat="44.04976" lon="6.87184">
        <ele>1271</ele>
        <time>2017-06-09T10:55:20Z</time>
      </trkpt>
      <trkpt lat="44.04974" lon="6.87185">
        <ele>1271</ele>
        <time>2017-06-09T10:56:11Z</time>
      </trkpt>
      <trkpt lat="44.04973" lon="6.87179">
        <ele>1265</ele>
        <time>2017-06-09T10:56:11Z</time>
      </trkpt>
      <trkpt lat="44.04973" lon="6.87177">
        <ele>1265</ele>
        <time>2017-06-09T10:56:11Z</time>
      </trkpt>
      <trkpt lat="44.04974" lon="6.87176">
        <ele>1265</ele>
        <time>2017-06-09T10:56:11Z</time>
      </trkpt>
      <trkpt lat="44.04976" lon="6.87165">
        <ele>1265</ele>
        <time>2017-06-09T10:56:11Z</time>
      </trkpt>
      <trkpt lat="44.04976" lon="6.87164">
        <ele>1265</ele>
        <time>2017-06-09T10:56:26Z</time>
      </trkpt>
      <trkpt lat="44.04973" lon="6.87154">
        <ele>1265</ele>
        <time>2017-06-09T10:56:26Z</time>
      </trkpt>
      <trkpt lat="44.04973" lon="6.87151">
        <ele>1261</ele>
        <time>2017-06-09T10:56:26Z</time>
      </trkpt>
      <trkpt lat="44.04974" lon="6.87145">
        <ele>1261</ele>
        <time>2017-06-09T10:56:26Z</time>
      </trkpt>
      <trkpt lat="44.04973" lon="6.87147">
        <ele>1261</ele>
        <time>2017-06-09T10:56:43Z</time>
      </trkpt>
      <trkpt lat="44.04972" lon="6.87152">
        <ele>1261</ele>
        <time>2017-06-09T10:56:43Z</time>
      </trkpt>
      <trkpt lat="44.04969" lon="6.87153">
        <ele>1261</ele>
        <time>2017-06-09T10:56:43Z</time>
      </trkpt>
      <trkpt lat="44.04962" lon="6.87162">
        <ele>1265</ele>
        <time>2017-06-09T10:56:43Z</time>
      </trkpt>
      <trkpt lat="44.04962" lon="6.87165">
        <ele>1265</ele>
        <time>2017-06-09T10:56:58Z</time>
      </trkpt>
      <trkpt lat="44.04959" lon="6.87169">
        <ele>1265</ele>
        <time>2017-06-09T10:56:58Z</time>
      </trkpt>
      <trkpt lat="44.04957" lon="6.87174">
        <ele>1249</ele>
        <time>2017-06-09T10:56:58Z</time>
      </trkpt>
      <trkpt lat="44.04958" lon="6.87177">
        <ele>1249</ele>
        <time>2017-06-09T10:56:58Z</time>
      </trkpt>
      <trkpt lat="44.04956" lon="6.87178">
        <ele>1249</ele>
        <time>2017-06-09T10:57:15Z</time>
      </trkpt>
      <trkpt lat="44.04954" lon="6.87185">
        <ele>1253</ele>
        <time>2017-06-09T10:57:15Z</time>
      </trkpt>
      <trkpt lat="44.04951" lon="6.87193">
        <ele>1253</ele>
        <time>2017-06-09T10:57:15Z</time>
      </trkpt>
      <trkpt lat="44.04948" lon="6.87195">
        <ele>1253</ele>
        <time>2017-06-09T10:57:15Z</time>
      </trkpt>
      <trkpt lat="44.04949" lon="6.87194">
        <ele>1253</ele>
        <time>2017-06-09T10:58:24Z</time>
      </trkpt>
      <trkpt lat="44.04944" lon="6.87188">
        <ele>1253</ele>
        <time>2017-06-09T10:58:24Z</time>
      </trkpt>
      <trkpt lat="44.0494" lon="6.87191">
        <ele>1253</ele>
        <time>2017-06-09T10:58:24Z</time>
      </trkpt>
      <trkpt lat="44.04939" lon="6.87192">
        <ele>1253</ele>
        <time>2017-06-09T10:58:24Z</time>
      </trkpt>
      <trkpt lat="44.04938" lon="6.87194">
        <ele>1253</ele>
        <time>2017-06-09T10:58:24Z</time>
      </trkpt>
      <trkpt lat="44.04935" lon="6.87208">
        <ele>1253</ele>
        <time>2017-06-09T10:59:33Z</time>
      </trkpt>
      <trkpt lat="44.04934" lon="6.8722">
        <ele>1256</ele>
        <time>2017-06-09T10:59:33Z</time>
      </trkpt>
      <trkpt lat="44.04931" lon="6.87225">
        <ele>1256</ele>
        <time>2017-06-09T10:59:34Z</time>
      </trkpt>
      <trkpt lat="44.04928" lon="6.87235">
        <ele>1243</ele>
        <time>2017-06-09T10:59:34Z</time>
      </trkpt>
      <trkpt lat="44.04927" lon="6.87238">
        <ele>1248</ele>
        <time>2017-06-09T10:59:34Z</time>
      </trkpt>
      <trkpt lat="44.04924" lon="6.87237">
        <ele>1248</ele>
        <time>2017-06-09T10:59:59Z</time>
      </trkpt>
      <trkpt lat="44.0492" lon="6.87228">
        <ele>1243</ele>
        <time>2017-06-09T10:59:59Z</time>
      </trkpt>
      <trkpt lat="44.04922" lon="6.87222">
        <ele>1243</ele>
        <time>2017-06-09T10:59:59Z</time>
      </trkpt>
      <trkpt lat="44.0492" lon="6.87214">
        <ele>1243</ele>
        <time>2017-06-09T10:59:59Z</time>
      </trkpt>
      <trkpt lat="44.04916" lon="6.87208">
        <ele>1239</ele>
        <time>2017-06-09T11:03:39Z</time>
      </trkpt>
      <trkpt lat="44.04916" lon="6.87208">
        <ele>1239</ele>
        <time>2017-06-09T11:03:39Z</time>
      </trkpt>
      <trkpt lat="44.04915" lon="6.87209">
        <ele>1243</ele>
        <time>2017-06-09T11:03:40Z</time>
      </trkpt>
      <trkpt lat="44.04915" lon="6.87203">
        <ele>1239</ele>
        <time>2017-06-09T11:03:40Z</time>
      </trkpt>
      <trkpt lat="44.04913" lon="6.872">
        <ele>1239</ele>
        <time>2017-06-09T11:03:40Z</time>
      </trkpt>
      <trkpt lat="44.04913" lon="6.87201">
        <ele>1239</ele>
        <time>2017-06-09T11:03:54Z</time>
      </trkpt>
      <trkpt lat="44.04914" lon="6.87198">
        <ele>1239</ele>
        <time>2017-06-09T11:03:54Z</time>
      </trkpt>
      <trkpt lat="44.04915" lon="6.87193">
        <ele>1239</ele>
        <time>2017-06-09T11:03:54Z</time>
      </trkpt>
      <trkpt lat="44.04917" lon="6.87185">
        <ele>1239</ele>
        <time>2017-06-09T11:03:54Z</time>
      </trkpt>
      <trkpt lat="44.04918" lon="6.8718">
        <ele>1234</ele>
        <time>2017-06-09T11:04:12Z</time>
      </trkpt>
      <trkpt lat="44.04918" lon="6.87178">
        <ele>1234</ele>
        <time>2017-06-09T11:04:12Z</time>
      </trkpt>
      <trkpt lat="44.04918" lon="6.87174">
        <ele>1234</ele>
        <time>2017-06-09T11:04:12Z</time>
      </trkpt>
      <trkpt lat="44.0492" lon="6.87167">
        <ele>1234</ele>
        <time>2017-06-09T11:04:13Z</time>
      </trkpt>
      <trkpt lat="44.04917" lon="6.87165">
        <ele>1234</ele>
        <time>2017-06-09T11:04:39Z</time>
      </trkpt>
      <trkpt lat="44.04917" lon="6.87165">
        <ele>1234</ele>
        <time>2017-06-09T11:04:39Z</time>
      </trkpt>
      <trkpt lat="44.04917" lon="6.87159">
        <ele>1234</ele>
        <time>2017-06-09T11:04:39Z</time>
      </trkpt>
      <trkpt lat="44.04916" lon="6.87157">
        <ele>1234</ele>
        <time>2017-06-09T11:04:39Z</time>
      </trkpt>
      <trkpt lat="44.04913" lon="6.87155">
        <ele>1234</ele>
        <time>2017-06-09T11:04:39Z</time>
      </trkpt>
      <trkpt lat="44.04912" lon="6.87154">
        <ele>1234</ele>
        <time>2017-06-09T11:04:55Z</time>
      </trkpt>
      <trkpt lat="44.04913" lon="6.87148">
        <ele>1229</ele>
        <time>2017-06-09T11:04:55Z</time>
      </trkpt>
      <trkpt lat="44.04912" lon="6.87144">
        <ele>1229</ele>
        <time>2017-06-09T11:04:55Z</time>
      </trkpt>
      <trkpt lat="44.04911" lon="6.87136">
        <ele>1229</ele>
        <time>2017-06-09T11:04:55Z</time>
      </trkpt>
      <trkpt lat="44.04911" lon="6.87134">
        <ele>1229</ele>
        <time>2017-06-09T11:05:11Z</time>
      </trkpt>
      <trkpt lat="44.04911" lon="6.87131">
        <ele>1229</ele>
        <time>2017-06-09T11:05:11Z</time>
      </trkpt>
      <trkpt lat="44.0491" lon="6.87125">
        <ele>1224</ele>
        <time>2017-06-09T11:05:11Z</time>
      </trkpt>
      <trkpt lat="44.0491" lon="6.87116">
        <ele>1224</ele>
        <time>2017-06-09T11:05:11Z</time>
      </trkpt>
      <trkpt lat="44.0491" lon="6.87115">
        <ele>1224</ele>
        <time>2017-06-09T11:05:24Z</time>
      </trkpt>
      <trkpt lat="44.0491" lon="6.87107">
        <ele>1224</ele>
        <time>2017-06-09T11:05:24Z</time>
      </trkpt>
      <trkpt lat="44.0491" lon="6.87106">
        <ele>1224</ele>
        <time>2017-06-09T11:05:24Z</time>
      </trkpt>
      <trkpt lat="44.04911" lon="6.871">
        <ele>1224</ele>
        <time>2017-06-09T11:05:24Z</time>
      </trkpt>
      <trkpt lat="44.0491" lon="6.87097">
        <ele>1220</ele>
        <time>2017-06-09T11:05:40Z</time>
      </trkpt>
      <trkpt lat="44.04906" lon="6.87094">
        <ele>1220</ele>
        <time>2017-06-09T11:05:40Z</time>
      </trkpt>
      <trkpt lat="44.04901" lon="6.87092">
        <ele>1208</ele>
        <time>2017-06-09T11:05:40Z</time>
      </trkpt>
      <trkpt lat="44.049" lon="6.87091">
        <ele>1208</ele>
        <time>2017-06-09T11:05:40Z</time>
      </trkpt>
      <trkpt lat="44.04894" lon="6.87091">
        <ele>1208</ele>
        <time>2017-06-09T11:06:11Z</time>
      </trkpt>
      <trkpt lat="44.04894" lon="6.87089">
        <ele>1208</ele>
        <time>2017-06-09T11:06:11Z</time>
      </trkpt>
      <trkpt lat="44.04891" lon="6.87092">
        <ele>1208</ele>
        <time>2017-06-09T11:06:11Z</time>
      </trkpt>
      <trkpt lat="44.04891" lon="6.87093">
        <ele>1208</ele>
        <time>2017-06-09T11:06:12Z</time>
      </trkpt>
      <trkpt lat="44.04887" lon="6.87095">
        <ele>1208</ele>
        <time>2017-06-09T11:06:12Z</time>
      </trkpt>
      <trkpt lat="44.04884" lon="6.87094">
        <ele>1208</ele>
        <time>2017-06-09T11:06:33Z</time>
      </trkpt>
      <trkpt lat="44.04881" lon="6.87094">
        <ele>1208</ele>
        <time>2017-06-09T11:06:33Z</time>
      </trkpt>
      <trkpt lat="44.0488" lon="6.87092">
        <ele>1208</ele>
        <time>2017-06-09T11:06:33Z</time>
      </trkpt>
      <trkpt lat="44.0488" lon="6.87092">
        <ele>1208</ele>
        <time>2017-06-09T11:06:33Z</time>
      </trkpt>
      <trkpt lat="44.04878" lon="6.87097">
        <ele>1208</ele>
        <time>2017-06-09T11:06:34Z</time>
      </trkpt>
      <trkpt lat="44.04872" lon="6.87104">
        <ele>1201</ele>
        <time>2017-06-09T11:06:50Z</time>
      </trkpt>
      <trkpt lat="44.0487" lon="6.87107">
        <ele>1201</ele>
        <time>2017-06-09T11:06:51Z</time>
      </trkpt>
      <trkpt lat="44.0487" lon="6.87109">
        <ele>1201</ele>
        <time>2017-06-09T11:06:51Z</time>
      </trkpt>
      <trkpt lat="44.04865" lon="6.87117">
        <ele>1201</ele>
        <time>2017-06-09T11:06:51Z</time>
      </trkpt>
      <trkpt lat="44.04864" lon="6.87116">
        <ele>1201</ele>
        <time>2017-06-09T11:07:04Z</time>
      </trkpt>
      <trkpt lat="44.04859" lon="6.87124">
        <ele>1201</ele>
        <time>2017-06-09T11:07:04Z</time>
      </trkpt>
      <trkpt lat="44.04859" lon="6.87124">
        <ele>1201</ele>
        <time>2017-06-09T11:07:05Z</time>
      </trkpt>
      <trkpt lat="44.04857" lon="6.87125">
        <ele>1204</ele>
        <time>2017-06-09T11:07:05Z</time>
      </trkpt>
      <trkpt lat="44.04836" lon="6.87147">
        <ele>1190</ele>
        <time>2017-06-09T11:08:00Z</time>
      </trkpt>
      <trkpt lat="44.04833" lon="6.87148">
        <ele>1190</ele>
        <time>2017-06-09T11:08:00Z</time>
      </trkpt>
      <trkpt lat="44.04827" lon="6.87144">
        <ele>1190</ele>
        <time>2017-06-09T11:08:00Z</time>
      </trkpt>
      <trkpt lat="44.04827" lon="6.87145">
        <ele>1190</ele>
        <time>2017-06-09T11:08:00Z</time>
      </trkpt>
      <trkpt lat="44.04826" lon="6.87149">
        <ele>1190</ele>
        <time>2017-06-09T11:08:00Z</time>
      </trkpt>
      <trkpt lat="44.04827" lon="6.87148">
        <ele>1190</ele>
        <time>2017-06-09T11:08:17Z</time>
      </trkpt>
      <trkpt lat="44.04831" lon="6.87152">
        <ele>1190</ele>
        <time>2017-06-09T11:08:17Z</time>
      </trkpt>
      <trkpt lat="44.04831" lon="6.87159">
        <ele>1189</ele>
        <time>2017-06-09T11:08:18Z</time>
      </trkpt>
      <trkpt lat="44.04831" lon="6.8716">
        <ele>1189</ele>
        <time>2017-06-09T11:08:18Z</time>
      </trkpt>
      <trkpt lat="44.04834" lon="6.87162">
        <ele>1189</ele>
        <time>2017-06-09T11:08:44Z</time>
      </trkpt>
      <trkpt lat="44.04831" lon="6.87175">
        <ele>1189</ele>
        <time>2017-06-09T11:08:44Z</time>
      </trkpt>
      <trkpt lat="44.04828" lon="6.87185">
        <ele>1191</ele>
        <time>2017-06-09T11:08:44Z</time>
      </trkpt>
      <trkpt lat="44.04827" lon="6.87195">
        <ele>1191</ele>
        <time>2017-06-09T11:08:44Z</time>
      </trkpt>
      <trkpt lat="44.04821" lon="6.87222">
        <ele>1196</ele>
        <time>2017-06-09T11:09:38Z</time>
      </trkpt>
      <trkpt lat="44.04823" lon="6.87227">
        <ele>1196</ele>
        <time>2017-06-09T11:09:38Z</time>
      </trkpt>
      <trkpt lat="44.04824" lon="6.87229">
        <ele>1196</ele>
        <time>2017-06-09T11:09:39Z</time>
      </trkpt>
      <trkpt lat="44.04824" lon="6.87231">
        <ele>1196</ele>
        <time>2017-06-09T11:09:39Z</time>
      </trkpt>
      <trkpt lat="44.04822" lon="6.87232">
        <ele>1196</ele>
        <time>2017-06-09T11:09:40Z</time>
      </trkpt>
      <trkpt lat="44.0482" lon="6.87234">
        <ele>1196</ele>
        <time>2017-06-09T11:09:55Z</time>
      </trkpt>
      <trkpt lat="44.04818" lon="6.87241">
        <ele>1190</ele>
        <time>2017-06-09T11:09:55Z</time>
      </trkpt>
      <trkpt lat="44.04817" lon="6.87243">
        <ele>1190</ele>
        <time>2017-06-09T11:09:55Z</time>
      </trkpt>
      <trkpt lat="44.04818" lon="6.87251">
        <ele>1190</ele>
        <time>2017-06-09T11:09:55Z</time>
      </trkpt>
      <trkpt lat="44.04817" lon="6.87248">
        <ele>1190</ele>
        <time>2017-06-09T11:10:11Z</time>
      </trkpt>
      <trkpt lat="44.04814" lon="6.87251">
        <ele>1190</ele>
        <time>2017-06-09T11:10:11Z</time>
      </trkpt>
      <trkpt lat="44.04809" lon="6.87252">
        <ele>1190</ele>
        <time>2017-06-09T11:10:11Z</time>
      </trkpt>
      <trkpt lat="44.04804" lon="6.87252">
        <ele>1190</ele>
        <time>2017-06-09T11:10:11Z</time>
      </trkpt>
      <trkpt lat="44.04803" lon="6.87253">
        <ele>1190</ele>
        <time>2017-06-09T11:10:27Z</time>
      </trkpt>
      <trkpt lat="44.04798" lon="6.87256">
        <ele>1190</ele>
        <time>2017-06-09T11:10:27Z</time>
      </trkpt>
      <trkpt lat="44.04797" lon="6.87258">
        <ele>1190</ele>
        <time>2017-06-09T11:10:27Z</time>
      </trkpt>
      <trkpt lat="44.04793" lon="6.87265">
        <ele>1197</ele>
        <time>2017-06-09T11:10:27Z</time>
      </trkpt>
      <trkpt lat="44.04793" lon="6.87266">
        <ele>1197</ele>
        <time>2017-06-09T11:10:43Z</time>
      </trkpt>
      <trkpt lat="44.04787" lon="6.87272">
        <ele>1182</ele>
        <time>2017-06-09T11:10:43Z</time>
      </trkpt>
      <trkpt lat="44.04786" lon="6.87276">
        <ele>1182</ele>
        <time>2017-06-09T11:10:44Z</time>
      </trkpt>
      <trkpt lat="44.04781" lon="6.87278">
        <ele>1182</ele>
        <time>2017-06-09T11:10:44Z</time>
      </trkpt>
      <trkpt lat="44.0478" lon="6.87278">
        <ele>1182</ele>
        <time>2017-06-09T11:11:00Z</time>
      </trkpt>
      <trkpt lat="44.04776" lon="6.8728">
        <ele>1182</ele>
        <time>2017-06-09T11:11:00Z</time>
      </trkpt>
      <trkpt lat="44.04775" lon="6.87282">
        <ele>1182</ele>
        <time>2017-06-09T11:11:00Z</time>
      </trkpt>
      <trkpt lat="44.04772" lon="6.87283">
        <ele>1182</ele>
        <time>2017-06-09T11:11:00Z</time>
      </trkpt>
      <trkpt lat="44.04769" lon="6.87281">
        <ele>1182</ele>
        <time>2017-06-09T11:11:00Z</time>
      </trkpt>
      <trkpt lat="44.04763" lon="6.87283">
        <ele>1167</ele>
        <time>2017-06-09T11:11:28Z</time>
      </trkpt>
      <trkpt lat="44.04764" lon="6.87286">
        <ele>1167</ele>
        <time>2017-06-09T11:11:28Z</time>
      </trkpt>
      <trkpt lat="44.04761" lon="6.87289">
        <ele>1167</ele>
        <time>2017-06-09T11:11:28Z</time>
      </trkpt>
      <trkpt lat="44.0476" lon="6.87292">
        <ele>1174</ele>
        <time>2017-06-09T11:11:29Z</time>
      </trkpt>
      <trkpt lat="44.04757" lon="6.87291">
        <ele>1167</ele>
        <time>2017-06-09T11:11:29Z</time>
      </trkpt>
      <trkpt lat="44.0475" lon="6.87294">
        <ele>1174</ele>
        <time>2017-06-09T11:12:00Z</time>
      </trkpt>
      <trkpt lat="44.04748" lon="6.87293">
        <ele>1174</ele>
        <time>2017-06-09T11:12:00Z</time>
      </trkpt>
      <trkpt lat="44.04748" lon="6.87297">
        <ele>1174</ele>
        <time>2017-06-09T11:12:00Z</time>
      </trkpt>
      <trkpt lat="44.04746" lon="6.87301">
        <ele>1174</ele>
        <time>2017-06-09T11:12:00Z</time>
      </trkpt>
      <trkpt lat="44.04746" lon="6.87302">
        <ele>1174</ele>
        <time>2017-06-09T11:12:00Z</time>
      </trkpt>
      <trkpt lat="44.04743" lon="6.87311">
        <ele>1174</ele>
        <time>2017-06-09T11:12:19Z</time>
      </trkpt>
      <trkpt lat="44.04739" lon="6.8731">
        <ele>1174</ele>
        <time>2017-06-09T11:12:19Z</time>
      </trkpt>
      <trkpt lat="44.04737" lon="6.87316">
        <ele>1174</ele>
        <time>2017-06-09T11:12:19Z</time>
      </trkpt>
      <trkpt lat="44.04733" lon="6.87319">
        <ele>1163</ele>
        <time>2017-06-09T11:12:19Z</time>
      </trkpt>
      <trkpt lat="44.04728" lon="6.87323">
        <ele>1172</ele>
        <time>2017-06-09T11:14:27Z</time>
      </trkpt>
      <trkpt lat="44.04727" lon="6.87325">
        <ele>1172</ele>
        <time>2017-06-09T11:14:27Z</time>
      </trkpt>
      <trkpt lat="44.04728" lon="6.8733">
        <ele>1172</ele>
        <time>2017-06-09T11:14:27Z</time>
      </trkpt>
      <trkpt lat="44.04728" lon="6.87329">
        <ele>1172</ele>
        <time>2017-06-09T11:14:27Z</time>
      </trkpt>
      <trkpt lat="44.04723" lon="6.8733">
        <ele>1172</ele>
        <time>2017-06-09T11:14:27Z</time>
      </trkpt>
      <trkpt lat="44.04724" lon="6.87328">
        <ele>1172</ele>
        <time>2017-06-09T11:14:43Z</time>
      </trkpt>
      <trkpt lat="44.04715" lon="6.87326">
        <ele>1172</ele>
        <time>2017-06-09T11:14:43Z</time>
      </trkpt>
      <trkpt lat="44.04715" lon="6.87325">
        <ele>1172</ele>
        <time>2017-06-09T11:14:43Z</time>
      </trkpt>
      <trkpt lat="44.04711" lon="6.87326">
        <ele>1172</ele>
        <time>2017-06-09T11:14:43Z</time>
      </trkpt>
      <trkpt lat="44.04711" lon="6.87326">
        <ele>1172</ele>
        <time>2017-06-09T11:14:58Z</time>
      </trkpt>
      <trkpt lat="44.04703" lon="6.87326">
        <ele>1167</ele>
        <time>2017-06-09T11:14:58Z</time>
      </trkpt>
      <trkpt lat="44.04702" lon="6.87325">
        <ele>1167</ele>
        <time>2017-06-09T11:14:58Z</time>
      </trkpt>
      <trkpt lat="44.04702" lon="6.87323">
        <ele>1167</ele>
        <time>2017-06-09T11:14:58Z</time>
      </trkpt>
      <trkpt lat="44.04701" lon="6.87324">
        <ele>1167</ele>
        <time>2017-06-09T11:15:15Z</time>
      </trkpt>
      <trkpt lat="44.04699" lon="6.87322">
        <ele>1167</ele>
        <time>2017-06-09T11:15:15Z</time>
      </trkpt>
      <trkpt lat="44.04697" lon="6.87319">
        <ele>1157</ele>
        <time>2017-06-09T11:15:15Z</time>
      </trkpt>
      <trkpt lat="44.0469" lon="6.87318">
        <ele>1157</ele>
        <time>2017-06-09T11:15:15Z</time>
      </trkpt>
      <trkpt lat="44.04683" lon="6.87318">
        <ele>1157</ele>
        <time>2017-06-09T11:15:47Z</time>
      </trkpt>
      <trkpt lat="44.04683" lon="6.87317">
        <ele>1157</ele>
        <time>2017-06-09T11:15:47Z</time>
      </trkpt>
      <trkpt lat="44.0468" lon="6.87317">
        <ele>1152</ele>
        <time>2017-06-09T11:15:47Z</time>
      </trkpt>
      <trkpt lat="44.04679" lon="6.87318">
        <ele>1152</ele>
        <time>2017-06-09T11:15:47Z</time>
      </trkpt>
      <trkpt lat="44.04675" lon="6.87317">
        <ele>1152</ele>
        <time>2017-06-09T11:15:47Z</time>
      </trkpt>
      <trkpt lat="44.04674" lon="6.87318">
        <ele>1152</ele>
        <time>2017-06-09T11:16:01Z</time>
      </trkpt>
      <trkpt lat="44.04667" lon="6.87315">
        <ele>1152</ele>
        <time>2017-06-09T11:16:01Z</time>
      </trkpt>
      <trkpt lat="44.04664" lon="6.87315">
        <ele>1152</ele>
        <time>2017-06-09T11:16:01Z</time>
      </trkpt>
      <trkpt lat="44.04661" lon="6.87317">
        <ele>1152</ele>
        <time>2017-06-09T11:16:01Z</time>
      </trkpt>
      <trkpt lat="44.0466" lon="6.87316">
        <ele>1152</ele>
        <time>2017-06-09T11:16:20Z</time>
      </trkpt>
      <trkpt lat="44.04654" lon="6.8732">
        <ele>1161</ele>
        <time>2017-06-09T11:16:20Z</time>
      </trkpt>
      <trkpt lat="44.04649" lon="6.87319">
        <ele>1143</ele>
        <time>2017-06-09T11:16:20Z</time>
      </trkpt>
      <trkpt lat="44.04647" lon="6.87319">
        <ele>1143</ele>
        <time>2017-06-09T11:16:20Z</time>
      </trkpt>
      <trkpt lat="44.04642" lon="6.87313">
        <ele>1143</ele>
        <time>2017-06-09T11:17:36Z</time>
      </trkpt>
      <trkpt lat="44.04641" lon="6.87314">
        <ele>1143</ele>
        <time>2017-06-09T11:17:36Z</time>
      </trkpt>
      <trkpt lat="44.04637" lon="6.87316">
        <ele>1143</ele>
        <time>2017-06-09T11:17:37Z</time>
      </trkpt>
      <trkpt lat="44.04634" lon="6.87319">
        <ele>1143</ele>
        <time>2017-06-09T11:17:37Z</time>
      </trkpt>
      <trkpt lat="44.04629" lon="6.87329">
        <ele>1151</ele>
        <time>2017-06-09T11:17:37Z</time>
      </trkpt>
      <trkpt lat="44.04628" lon="6.87332">
        <ele>1151</ele>
        <time>2017-06-09T11:17:58Z</time>
      </trkpt>
      <trkpt lat="44.04628" lon="6.87335">
        <ele>1151</ele>
        <time>2017-06-09T11:17:58Z</time>
      </trkpt>
      <trkpt lat="44.04626" lon="6.87339">
        <ele>1151</ele>
        <time>2017-06-09T11:17:58Z</time>
      </trkpt>
      <trkpt lat="44.04624" lon="6.87338">
        <ele>1144</ele>
        <time>2017-06-09T11:17:58Z</time>
      </trkpt>
      <trkpt lat="44.0462" lon="6.87342">
        <ele>1144</ele>
        <time>2017-06-09T11:17:58Z</time>
      </trkpt>
      <trkpt lat="44.04618" lon="6.87342">
        <ele>1144</ele>
        <time>2017-06-09T11:18:19Z</time>
      </trkpt>
      <trkpt lat="44.04615" lon="6.87343">
        <ele>1144</ele>
        <time>2017-06-09T11:18:19Z</time>
      </trkpt>
      <trkpt lat="44.04613" lon="6.87345">
        <ele>1144</ele>
        <time>2017-06-09T11:18:19Z</time>
      </trkpt>
      <trkpt lat="44.04612" lon="6.87345">
        <ele>1144</ele>
        <time>2017-06-09T11:18:19Z</time>
      </trkpt>
      <trkpt lat="44.04606" lon="6.87348">
        <ele>1152</ele>
        <time>2017-06-09T11:18:19Z</time>
      </trkpt>
      <trkpt lat="44.04606" lon="6.87348">
        <ele>1152</ele>
        <time>2017-06-09T11:18:35Z</time>
      </trkpt>
      <trkpt lat="44.04599" lon="6.87353">
        <ele>1152</ele>
        <time>2017-06-09T11:18:35Z</time>
      </trkpt>
      <trkpt lat="44.04597" lon="6.87353">
        <ele>1145</ele>
        <time>2017-06-09T11:18:35Z</time>
      </trkpt>
      <trkpt lat="44.04593" lon="6.87355">
        <ele>1145</ele>
        <time>2017-06-09T11:18:35Z</time>
      </trkpt>
      <trkpt lat="44.04592" lon="6.87355">
        <ele>1145</ele>
        <time>2017-06-09T11:18:51Z</time>
      </trkpt>
      <trkpt lat="44.04584" lon="6.87358">
        <ele>1145</ele>
        <time>2017-06-09T11:18:51Z</time>
      </trkpt>
      <trkpt lat="44.04583" lon="6.87359">
        <ele>1145</ele>
        <time>2017-06-09T11:18:51Z</time>
      </trkpt>
      <trkpt lat="44.04579" lon="6.87359">
        <ele>1145</ele>
        <time>2017-06-09T11:18:51Z</time>
      </trkpt>
      <trkpt lat="44.0458" lon="6.87359">
        <ele>1145</ele>
        <time>2017-06-09T11:19:04Z</time>
      </trkpt>
      <trkpt lat="44.04575" lon="6.87368">
        <ele>1145</ele>
        <time>2017-06-09T11:19:04Z</time>
      </trkpt>
      <trkpt lat="44.04572" lon="6.8737">
        <ele>1145</ele>
        <time>2017-06-09T11:19:04Z</time>
      </trkpt>
      <trkpt lat="44.04568" lon="6.87375">
        <ele>1141</ele>
        <time>2017-06-09T11:19:04Z</time>
      </trkpt>
      <trkpt lat="44.04563" lon="6.87367">
        <ele>1137</ele>
        <time>2017-06-09T11:19:38Z</time>
      </trkpt>
      <trkpt lat="44.04563" lon="6.87365">
        <ele>1137</ele>
        <time>2017-06-09T11:19:38Z</time>
      </trkpt>
      <trkpt lat="44.0456" lon="6.87364">
        <ele>1137</ele>
        <time>2017-06-09T11:19:39Z</time>
      </trkpt>
      <trkpt lat="44.04558" lon="6.87365">
        <ele>1137</ele>
        <time>2017-06-09T11:19:39Z</time>
      </trkpt>
      <trkpt lat="44.04554" lon="6.87361">
        <ele>1137</ele>
        <time>2017-06-09T11:19:40Z</time>
      </trkpt>
      <trkpt lat="44.04552" lon="6.87358">
        <ele>1137</ele>
        <time>2017-06-09T11:20:04Z</time>
      </trkpt>
      <trkpt lat="44.04548" lon="6.87364">
        <ele>1137</ele>
        <time>2017-06-09T11:20:04Z</time>
      </trkpt>
      <trkpt lat="44.04546" lon="6.87365">
        <ele>1137</ele>
        <time>2017-06-09T11:20:04Z</time>
      </trkpt>
      <trkpt lat="44.04543" lon="6.87368">
        <ele>1137</ele>
        <time>2017-06-09T11:20:04Z</time>
      </trkpt>
      <trkpt lat="44.0454" lon="6.87376">
        <ele>1129</ele>
        <time>2017-06-09T11:20:04Z</time>
      </trkpt>
      <trkpt lat="44.04537" lon="6.8737">
        <ele>1128</ele>
        <time>2017-06-09T11:20:24Z</time>
      </trkpt>
      <trkpt lat="44.04535" lon="6.87372">
        <ele>1128</ele>
        <time>2017-06-09T11:20:24Z</time>
      </trkpt>
      <trkpt lat="44.04531" lon="6.87366">
        <ele>1128</ele>
        <time>2017-06-09T11:20:24Z</time>
      </trkpt>
      <trkpt lat="44.04531" lon="6.87368">
        <ele>1128</ele>
        <time>2017-06-09T11:20:24Z</time>
      </trkpt>
      <trkpt lat="44.04528" lon="6.87365">
        <ele>1128</ele>
        <time>2017-06-09T11:20:24Z</time>
      </trkpt>
      <trkpt lat="44.04528" lon="6.87361">
        <ele>1128</ele>
        <time>2017-06-09T11:20:46Z</time>
      </trkpt>
      <trkpt lat="44.04527" lon="6.87355">
        <ele>1128</ele>
        <time>2017-06-09T11:20:46Z</time>
      </trkpt>
      <trkpt lat="44.04529" lon="6.87354">
        <ele>1128</ele>
        <time>2017-06-09T11:20:46Z</time>
      </trkpt>
      <trkpt lat="44.04531" lon="6.87353">
        <ele>1128</ele>
        <time>2017-06-09T11:20:46Z</time>
      </trkpt>
      <trkpt lat="44.04528" lon="6.87345">
        <ele>1125</ele>
        <time>2017-06-09T11:20:47Z</time>
      </trkpt>
      <trkpt lat="44.04526" lon="6.8734">
        <ele>1125</ele>
        <time>2017-06-09T11:21:02Z</time>
      </trkpt>
      <trkpt lat="44.0452" lon="6.87335">
        <ele>1125</ele>
        <time>2017-06-09T11:21:02Z</time>
      </trkpt>
      <trkpt lat="44.04519" lon="6.87335">
        <ele>1125</ele>
        <time>2017-06-09T11:21:02Z</time>
      </trkpt>
      <trkpt lat="44.04515" lon="6.87335">
        <ele>1125</ele>
        <time>2017-06-09T11:21:02Z</time>
      </trkpt>
      <trkpt lat="44.04513" lon="6.87334">
        <ele>1122</ele>
        <time>2017-06-09T11:21:19Z</time>
      </trkpt>
      <trkpt lat="44.04508" lon="6.87328">
        <ele>1122</ele>
        <time>2017-06-09T11:21:19Z</time>
      </trkpt>
      <trkpt lat="44.04506" lon="6.87326">
        <ele>1122</ele>
        <time>2017-06-09T11:21:19Z</time>
      </trkpt>
      <trkpt lat="44.04497" lon="6.87321">
        <ele>1122</ele>
        <time>2017-06-09T11:21:20Z</time>
      </trkpt>
      <trkpt lat="44.04482" lon="6.87317">
        <ele>1114</ele>
        <time>2017-06-09T11:23:04Z</time>
      </trkpt>
      <trkpt lat="44.0448" lon="6.87313">
        <ele>1114</ele>
        <time>2017-06-09T11:23:04Z</time>
      </trkpt>
      <trkpt lat="44.04478" lon="6.87312">
        <ele>1114</ele>
        <time>2017-06-09T11:23:04Z</time>
      </trkpt>
      <trkpt lat="44.04477" lon="6.8731">
        <ele>1114</ele>
        <time>2017-06-09T11:23:04Z</time>
      </trkpt>
      <trkpt lat="44.04474" lon="6.87306">
        <ele>1114</ele>
        <time>2017-06-09T11:23:04Z</time>
      </trkpt>
      <trkpt lat="44.04476" lon="6.87306">
        <ele>1114</ele>
        <time>2017-06-09T11:23:28Z</time>
      </trkpt>
      <trkpt lat="44.04474" lon="6.87304">
        <ele>1114</ele>
        <time>2017-06-09T11:23:28Z</time>
      </trkpt>
      <trkpt lat="44.04469" lon="6.87297">
        <ele>1114</ele>
        <time>2017-06-09T11:23:28Z</time>
      </trkpt>
      <trkpt lat="44.04464" lon="6.87289">
        <ele>1110</ele>
        <time>2017-06-09T11:23:28Z</time>
      </trkpt>
      <trkpt lat="44.04463" lon="6.87286">
        <ele>1110</ele>
        <time>2017-06-09T11:23:45Z</time>
      </trkpt>
      <trkpt lat="44.04462" lon="6.8728">
        <ele>1110</ele>
        <time>2017-06-09T11:23:45Z</time>
      </trkpt>
      <trkpt lat="44.04461" lon="6.87279">
        <ele>1110</ele>
        <time>2017-06-09T11:23:46Z</time>
      </trkpt>
      <trkpt lat="44.04463" lon="6.87274">
        <ele>1110</ele>
        <time>2017-06-09T11:23:46Z</time>
      </trkpt>
      <trkpt lat="44.04463" lon="6.87273">
        <ele>1110</ele>
        <time>2017-06-09T11:23:47Z</time>
      </trkpt>
      <trkpt lat="44.04461" lon="6.87269">
        <ele>1110</ele>
        <time>2017-06-09T11:24:01Z</time>
      </trkpt>
      <trkpt lat="44.04457" lon="6.8726">
        <ele>1101</ele>
        <time>2017-06-09T11:24:01Z</time>
      </trkpt>
      <trkpt lat="44.04456" lon="6.87259">
        <ele>1101</ele>
        <time>2017-06-09T11:24:01Z</time>
      </trkpt>
      <trkpt lat="44.04453" lon="6.87253">
        <ele>1101</ele>
        <time>2017-06-09T11:24:01Z</time>
      </trkpt>
      <trkpt lat="44.04454" lon="6.87248">
        <ele>1101</ele>
        <time>2017-06-09T11:24:31Z</time>
      </trkpt>
      <trkpt lat="44.04449" lon="6.87255">
        <ele>1101</ele>
        <time>2017-06-09T11:24:31Z</time>
      </trkpt>
      <trkpt lat="44.04446" lon="6.87258">
        <ele>1101</ele>
        <time>2017-06-09T11:24:31Z</time>
      </trkpt>
      <trkpt lat="44.04443" lon="6.87258">
        <ele>1101</ele>
        <time>2017-06-09T11:24:32Z</time>
      </trkpt>
      <trkpt lat="44.0444" lon="6.87256">
        <ele>1101</ele>
        <time>2017-06-09T11:24:32Z</time>
      </trkpt>
      <trkpt lat="44.04439" lon="6.87255">
        <ele>1101</ele>
        <time>2017-06-09T11:24:46Z</time>
      </trkpt>
      <trkpt lat="44.04438" lon="6.87248">
        <ele>1101</ele>
        <time>2017-06-09T11:24:46Z</time>
      </trkpt>
      <trkpt lat="44.04438" lon="6.87243">
        <ele>1101</ele>
        <time>2017-06-09T11:24:46Z</time>
      </trkpt>
      <trkpt lat="44.04439" lon="6.87241">
        <ele>1101</ele>
        <time>2017-06-09T11:24:46Z</time>
      </trkpt>
      <trkpt lat="44.04438" lon="6.8724">
        <ele>1101</ele>
        <time>2017-06-09T11:25:01Z</time>
      </trkpt>
      <trkpt lat="44.04438" lon="6.87236">
        <ele>1101</ele>
        <time>2017-06-09T11:25:01Z</time>
      </trkpt>
      <trkpt lat="44.04439" lon="6.87235">
        <ele>1094</ele>
        <time>2017-06-09T11:25:01Z</time>
      </trkpt>
      <trkpt lat="44.04442" lon="6.87227">
        <ele>1094</ele>
        <time>2017-06-09T11:25:01Z</time>
      </trkpt>
      <trkpt lat="44.04443" lon="6.87225">
        <ele>1094</ele>
        <time>2017-06-09T11:25:19Z</time>
      </trkpt>
      <trkpt lat="44.04444" lon="6.87222">
        <ele>1094</ele>
        <time>2017-06-09T11:25:19Z</time>
      </trkpt>
      <trkpt lat="44.04446" lon="6.87222">
        <ele>1094</ele>
        <time>2017-06-09T11:25:19Z</time>
      </trkpt>
      <trkpt lat="44.04448" lon="6.87213">
        <ele>1094</ele>
        <time>2017-06-09T11:25:19Z</time>
      </trkpt>
      <trkpt lat="44.04449" lon="6.87212">
        <ele>1094</ele>
        <time>2017-06-09T11:26:46Z</time>
      </trkpt>
      <trkpt lat="44.04445" lon="6.87212">
        <ele>1094</ele>
        <time>2017-06-09T11:26:46Z</time>
      </trkpt>
      <trkpt lat="44.04442" lon="6.87215">
        <ele>1094</ele>
        <time>2017-06-09T11:26:46Z</time>
      </trkpt>
      <trkpt lat="44.0444" lon="6.87217">
        <ele>1094</ele>
        <time>2017-06-09T11:26:46Z</time>
      </trkpt>
      <trkpt lat="44.04439" lon="6.87221">
        <ele>1094</ele>
        <time>2017-06-09T11:26:46Z</time>
      </trkpt>
      <trkpt lat="44.04438" lon="6.87221">
        <ele>1094</ele>
        <time>2017-06-09T11:27:01Z</time>
      </trkpt>
      <trkpt lat="44.04432" lon="6.87216">
        <ele>1094</ele>
        <time>2017-06-09T11:27:01Z</time>
      </trkpt>
      <trkpt lat="44.0443" lon="6.87215">
        <ele>1089</ele>
        <time>2017-06-09T11:27:01Z</time>
      </trkpt>
      <trkpt lat="44.04427" lon="6.87219">
        <ele>1089</ele>
        <time>2017-06-09T11:27:01Z</time>
      </trkpt>
      <trkpt lat="44.04425" lon="6.87217">
        <ele>1089</ele>
        <time>2017-06-09T11:27:20Z</time>
      </trkpt>
      <trkpt lat="44.04422" lon="6.87211">
        <ele>1089</ele>
        <time>2017-06-09T11:27:20Z</time>
      </trkpt>
      <trkpt lat="44.04421" lon="6.87208">
        <ele>1084</ele>
        <time>2017-06-09T11:27:20Z</time>
      </trkpt>
      <trkpt lat="44.04423" lon="6.87204">
        <ele>1084</ele>
        <time>2017-06-09T11:27:20Z</time>
      </trkpt>
      <trkpt lat="44.04424" lon="6.87201">
        <ele>1084</ele>
        <time>2017-06-09T11:27:20Z</time>
      </trkpt>
      <trkpt lat="44.04423" lon="6.87197">
        <ele>1084</ele>
        <time>2017-06-09T11:28:04Z</time>
      </trkpt>
      <trkpt lat="44.04421" lon="6.87192">
        <ele>1084</ele>
        <time>2017-06-09T11:28:04Z</time>
      </trkpt>
      <trkpt lat="44.04418" lon="6.87193">
        <ele>1084</ele>
        <time>2017-06-09T11:28:04Z</time>
      </trkpt>
      <trkpt lat="44.04417" lon="6.87195">
        <ele>1084</ele>
        <time>2017-06-09T11:28:04Z</time>
      </trkpt>
      <trkpt lat="44.04415" lon="6.87196">
        <ele>1084</ele>
        <time>2017-06-09T11:28:04Z</time>
      </trkpt>
      <trkpt lat="44.04407" lon="6.87206">
        <ele>1084</ele>
        <time>2017-06-09T11:28:51Z</time>
      </trkpt>
      <trkpt lat="44.04407" lon="6.87207">
        <ele>1084</ele>
        <time>2017-06-09T11:28:51Z</time>
      </trkpt>
      <trkpt lat="44.04405" lon="6.87207">
        <ele>1084</ele>
        <time>2017-06-09T11:28:51Z</time>
      </trkpt>
      <trkpt lat="44.04404" lon="6.87208">
        <ele>1084</ele>
        <time>2017-06-09T11:28:51Z</time>
      </trkpt>
      <trkpt lat="44.04401" lon="6.8722">
        <ele>1078</ele>
        <time>2017-06-09T11:28:51Z</time>
      </trkpt>
      <trkpt lat="44.044" lon="6.8722">
        <ele>1078</ele>
        <time>2017-06-09T11:29:04Z</time>
      </trkpt>
      <trkpt lat="44.044" lon="6.87226">
        <ele>1078</ele>
        <time>2017-06-09T11:29:04Z</time>
      </trkpt>
      <trkpt lat="44.04398" lon="6.8723">
        <ele>1078</ele>
        <time>2017-06-09T11:29:04Z</time>
      </trkpt>
      <trkpt lat="44.04397" lon="6.87232">
        <ele>1078</ele>
        <time>2017-06-09T11:29:04Z</time>
      </trkpt>
      <trkpt lat="44.04398" lon="6.87239">
        <ele>1081</ele>
        <time>2017-06-09T11:29:24Z</time>
      </trkpt>
      <trkpt lat="44.04397" lon="6.8724">
        <ele>1081</ele>
        <time>2017-06-09T11:29:24Z</time>
      </trkpt>
      <trkpt lat="44.04396" lon="6.87249">
        <ele>1081</ele>
        <time>2017-06-09T11:29:24Z</time>
      </trkpt>
      <trkpt lat="44.04394" lon="6.87255">
        <ele>1081</ele>
        <time>2017-06-09T11:29:24Z</time>
      </trkpt>
      <trkpt lat="44.04394" lon="6.87258">
        <ele>1081</ele>
        <time>2017-06-09T11:29:40Z</time>
      </trkpt>
      <trkpt lat="44.0439" lon="6.87264">
        <ele>1081</ele>
        <time>2017-06-09T11:29:40Z</time>
      </trkpt>
      <trkpt lat="44.04387" lon="6.87265">
        <ele>1083</ele>
        <time>2017-06-09T11:29:40Z</time>
      </trkpt>
      <trkpt lat="44.04387" lon="6.87271">
        <ele>1083</ele>
        <time>2017-06-09T11:29:40Z</time>
      </trkpt>
      <trkpt lat="44.04382" lon="6.87275">
        <ele>1083</ele>
        <time>2017-06-09T11:30:11Z</time>
      </trkpt>
      <trkpt lat="44.04382" lon="6.87282">
        <ele>1083</ele>
        <time>2017-06-09T11:30:12Z</time>
      </trkpt>
      <trkpt lat="44.04382" lon="6.87282">
        <ele>1083</ele>
        <time>2017-06-09T11:30:12Z</time>
      </trkpt>
      <trkpt lat="44.04382" lon="6.87282">
        <ele>1083</ele>
        <time>2017-06-09T11:30:12Z</time>
      </trkpt>
      <trkpt lat="44.04379" lon="6.87286">
        <ele>1083</ele>
        <time>2017-06-09T11:30:13Z</time>
      </trkpt>
      <trkpt lat="44.04381" lon="6.8729">
        <ele>1083</ele>
        <time>2017-06-09T11:30:33Z</time>
      </trkpt>
      <trkpt lat="44.04381" lon="6.87292">
        <ele>1083</ele>
        <time>2017-06-09T11:30:33Z</time>
      </trkpt>
      <trkpt lat="44.04378" lon="6.87293">
        <ele>1085</ele>
        <time>2017-06-09T11:30:33Z</time>
      </trkpt>
      <trkpt lat="44.04378" lon="6.87298">
        <ele>1085</ele>
        <time>2017-06-09T11:30:34Z</time>
      </trkpt>
      <trkpt lat="44.04378" lon="6.87308">
        <ele>1085</ele>
        <time>2017-06-09T11:30:34Z</time>
      </trkpt>
      <trkpt lat="44.04377" lon="6.8731">
        <ele>1085</ele>
        <time>2017-06-09T11:31:00Z</time>
      </trkpt>
      <trkpt lat="44.04375" lon="6.87315">
        <ele>1085</ele>
        <time>2017-06-09T11:31:00Z</time>
      </trkpt>
      <trkpt lat="44.04372" lon="6.87326">
        <ele>1074</ele>
        <time>2017-06-09T11:31:00Z</time>
      </trkpt>
      <trkpt lat="44.04364" lon="6.87329">
        <ele>1074</ele>
        <time>2017-06-09T11:31:00Z</time>
      </trkpt>
      <trkpt lat="44.04364" lon="6.87329">
        <ele>1074</ele>
        <time>2017-06-09T11:31:20Z</time>
      </trkpt>
      <trkpt lat="44.04363" lon="6.8733">
        <ele>1074</ele>
        <time>2017-06-09T11:31:20Z</time>
      </trkpt>
      <trkpt lat="44.04357" lon="6.87336">
        <ele>1074</ele>
        <time>2017-06-09T11:31:20Z</time>
      </trkpt>
      <trkpt lat="44.04346" lon="6.87331">
        <ele>1068</ele>
        <time>2017-06-09T11:31:20Z</time>
      </trkpt>
      <trkpt lat="44.04345" lon="6.87331">
        <ele>1068</ele>
        <time>2017-06-09T11:31:54Z</time>
      </trkpt>
      <trkpt lat="44.04342" lon="6.87333">
        <ele>1068</ele>
        <time>2017-06-09T11:31:54Z</time>
      </trkpt>
      <trkpt lat="44.04343" lon="6.87338">
        <ele>1068</ele>
        <time>2017-06-09T11:31:54Z</time>
      </trkpt>
      <trkpt lat="44.04343" lon="6.87339">
        <ele>1068</ele>
        <time>2017-06-09T11:31:54Z</time>
      </trkpt>
      <trkpt lat="44.04341" lon="6.87344">
        <ele>1068</ele>
        <time>2017-06-09T11:31:54Z</time>
      </trkpt>
      <trkpt lat="44.04338" lon="6.87345">
        <ele>1068</ele>
        <time>2017-06-09T11:32:58Z</time>
      </trkpt>
      <trkpt lat="44.04338" lon="6.87338">
        <ele>1068</ele>
        <time>2017-06-09T11:32:58Z</time>
      </trkpt>
      <trkpt lat="44.04341" lon="6.87337">
        <ele>1068</ele>
        <time>2017-06-09T11:32:59Z</time>
      </trkpt>
      <trkpt lat="44.0434" lon="6.8733">
        <ele>1068</ele>
        <time>2017-06-09T11:32:59Z</time>
      </trkpt>
      <trkpt lat="44.04341" lon="6.87328">
        <ele>1068</ele>
        <time>2017-06-09T11:32:59Z</time>
      </trkpt>
      <trkpt lat="44.0434" lon="6.87325">
        <ele>1068</ele>
        <time>2017-06-09T11:33:20Z</time>
      </trkpt>
      <trkpt lat="44.04341" lon="6.87323">
        <ele>1068</ele>
        <time>2017-06-09T11:33:20Z</time>
      </trkpt>
      <trkpt lat="44.04341" lon="6.87322">
        <ele>1068</ele>
        <time>2017-06-09T11:33:20Z</time>
      </trkpt>
      <trkpt lat="44.04338" lon="6.87318">
        <ele>1066</ele>
        <time>2017-06-09T11:33:20Z</time>
      </trkpt>
      <trkpt lat="44.0434" lon="6.87304">
        <ele>1066</ele>
        <time>2017-06-09T11:33:20Z</time>
      </trkpt>
      <trkpt lat="44.04342" lon="6.87301">
        <ele>1066</ele>
        <time>2017-06-09T11:33:43Z</time>
      </trkpt>
      <trkpt lat="44.04341" lon="6.87294">
        <ele>1066</ele>
        <time>2017-06-09T11:33:43Z</time>
      </trkpt>
      <trkpt lat="44.04346" lon="6.87298">
        <ele>1066</ele>
        <time>2017-06-09T11:33:43Z</time>
      </trkpt>
      <trkpt lat="44.04347" lon="6.87297">
        <ele>1072</ele>
        <time>2017-06-09T11:33:43Z</time>
      </trkpt>
      <trkpt lat="44.04349" lon="6.87297">
        <ele>1072</ele>
        <time>2017-06-09T11:33:43Z</time>
      </trkpt>
      <trkpt lat="44.04345" lon="6.87298">
        <ele>1066</ele>
        <time>2017-06-09T11:34:40Z</time>
      </trkpt>
      <trkpt lat="44.04341" lon="6.87295">
        <ele>1066</ele>
        <time>2017-06-09T11:34:40Z</time>
      </trkpt>
      <trkpt lat="44.04337" lon="6.87296">
        <ele>1066</ele>
        <time>2017-06-09T11:34:40Z</time>
      </trkpt>
      <trkpt lat="44.04336" lon="6.87293">
        <ele>1066</ele>
        <time>2017-06-09T11:34:40Z</time>
      </trkpt>
      <trkpt lat="44.04334" lon="6.87292">
        <ele>1066</ele>
        <time>2017-06-09T11:34:40Z</time>
      </trkpt>
      <trkpt lat="44.04327" lon="6.87296">
        <ele>1066</ele>
        <time>2017-06-09T11:35:32Z</time>
      </trkpt>
      <trkpt lat="44.04326" lon="6.87298">
        <ele>1066</ele>
        <time>2017-06-09T11:35:32Z</time>
      </trkpt>
      <trkpt lat="44.04324" lon="6.873">
        <ele>1066</ele>
        <time>2017-06-09T11:35:32Z</time>
      </trkpt>
      <trkpt lat="44.04323" lon="6.87304">
        <ele>1066</ele>
        <time>2017-06-09T11:35:32Z</time>
      </trkpt>
      <trkpt lat="44.04326" lon="6.87309">
        <ele>1066</ele>
        <time>2017-06-09T11:35:32Z</time>
      </trkpt>
      <trkpt lat="44.04319" lon="6.87313">
        <ele>1067</ele>
        <time>2017-06-09T11:40:08Z</time>
      </trkpt>
      <trkpt lat="44.04316" lon="6.87311">
        <ele>1067</ele>
        <time>2017-06-09T11:40:08Z</time>
      </trkpt>
      <trkpt lat="44.04313" lon="6.87312">
        <ele>1067</ele>
        <time>2017-06-09T11:40:08Z</time>
      </trkpt>
      <trkpt lat="44.04313" lon="6.87312">
        <ele>1067</ele>
        <time>2017-06-09T11:40:08Z</time>
      </trkpt>
      <trkpt lat="44.04313" lon="6.87312">
        <ele>1067</ele>
        <time>2017-06-09T11:40:08Z</time>
      </trkpt>
      <trkpt lat="44.04318" lon="6.87308">
        <ele>1067</ele>
        <time>2017-06-09T11:50:32Z</time>
      </trkpt>
      <trkpt lat="44.0432" lon="6.8731">
        <ele>1066</ele>
        <time>2017-06-09T11:50:32Z</time>
      </trkpt>
      <trkpt lat="44.04321" lon="6.87313">
        <ele>1066</ele>
        <time>2017-06-09T11:50:32Z</time>
      </trkpt>
      <trkpt lat="44.04323" lon="6.87314">
        <ele>1066</ele>
        <time>2017-06-09T11:50:32Z</time>
      </trkpt>
      <trkpt lat="44.04323" lon="6.87314">
        <ele>1066</ele>
        <time>2017-06-09T11:50:32Z</time>
      </trkpt>
      <trkpt lat="44.0432" lon="6.87302">
        <ele>1066</ele>
        <time>2017-06-09T12:33:54Z</time>
      </trkpt>
      <trkpt lat="44.0432" lon="6.87302">
        <ele>1066</ele>
        <time>2017-06-09T12:33:54Z</time>
      </trkpt>
      <trkpt lat="44.04321" lon="6.87301">
        <ele>1066</ele>
        <time>2017-06-09T12:33:55Z</time>
      </trkpt>
      <trkpt lat="44.04321" lon="6.87298">
        <ele>1066</ele>
        <time>2017-06-09T12:33:56Z</time>
      </trkpt>
      <trkpt lat="44.04321" lon="6.87297">
        <ele>1066</ele>
        <time>2017-06-09T12:33:56Z</time>
      </trkpt>
      <trkpt lat="44.04321" lon="6.87289">
        <ele>1065</ele>
        <time>2017-06-09T12:34:54Z</time>
      </trkpt>
      <trkpt lat="44.04322" lon="6.87289">
        <ele>1065</ele>
        <time>2017-06-09T12:34:54Z</time>
      </trkpt>
      <trkpt lat="44.04324" lon="6.87285">
        <ele>1065</ele>
        <time>2017-06-09T12:34:54Z</time>
      </trkpt>
      <trkpt lat="44.04322" lon="6.87284">
        <ele>1065</ele>
        <time>2017-06-09T12:34:54Z</time>
      </trkpt>
      <trkpt lat="44.04324" lon="6.87284">
        <ele>1065</ele>
        <time>2017-06-09T12:34:54Z</time>
      </trkpt>
      <trkpt lat="44.04327" lon="6.87288">
        <ele>1065</ele>
        <time>2017-06-09T12:38:32Z</time>
      </trkpt>
      <trkpt lat="44.04329" lon="6.87287">
        <ele>1065</ele>
        <time>2017-06-09T12:38:32Z</time>
      </trkpt>
      <trkpt lat="44.0433" lon="6.87287">
        <ele>1065</ele>
        <time>2017-06-09T12:38:32Z</time>
      </trkpt>
      <trkpt lat="44.0433" lon="6.87288">
        <ele>1065</ele>
        <time>2017-06-09T12:38:32Z</time>
      </trkpt>
      <trkpt lat="44.04333" lon="6.87288">
        <ele>1065</ele>
        <time>2017-06-09T12:38:32Z</time>
      </trkpt>
      <trkpt lat="44.04334" lon="6.87286">
        <ele>1065</ele>
        <time>2017-06-09T12:38:50Z</time>
      </trkpt>
      <trkpt lat="44.04336" lon="6.87291">
        <ele>1065</ele>
        <time>2017-06-09T12:38:50Z</time>
      </trkpt>
      <trkpt lat="44.04339" lon="6.87294">
        <ele>1066</ele>
        <time>2017-06-09T12:38:50Z</time>
      </trkpt>
      <trkpt lat="44.04342" lon="6.87294">
        <ele>1066</ele>
        <time>2017-06-09T12:38:50Z</time>
      </trkpt>
      <trkpt lat="44.04343" lon="6.87292">
        <ele>1066</ele>
        <time>2017-06-09T12:39:10Z</time>
      </trkpt>
      <trkpt lat="44.04346" lon="6.87298">
        <ele>1066</ele>
        <time>2017-06-09T12:39:11Z</time>
      </trkpt>
      <trkpt lat="44.04345" lon="6.87299">
        <ele>1066</ele>
        <time>2017-06-09T12:39:12Z</time>
      </trkpt>
      <trkpt lat="44.04343" lon="6.87303">
        <ele>1066</ele>
        <time>2017-06-09T12:39:12Z</time>
      </trkpt>
      <trkpt lat="44.04344" lon="6.87311">
        <ele>1066</ele>
        <time>2017-06-09T12:39:13Z</time>
      </trkpt>
      <trkpt lat="44.04342" lon="6.87317">
        <ele>1066</ele>
        <time>2017-06-09T12:39:32Z</time>
      </trkpt>
      <trkpt lat="44.04341" lon="6.87319">
        <ele>1066</ele>
        <time>2017-06-09T12:39:32Z</time>
      </trkpt>
      <trkpt lat="44.04341" lon="6.87321">
        <ele>1068</ele>
        <time>2017-06-09T12:39:32Z</time>
      </trkpt>
      <trkpt lat="44.0434" lon="6.87324">
        <ele>1068</ele>
        <time>2017-06-09T12:39:32Z</time>
      </trkpt>
      <trkpt lat="44.0434" lon="6.87325">
        <ele>1068</ele>
        <time>2017-06-09T12:39:32Z</time>
      </trkpt>
      <trkpt lat="44.04339" lon="6.87331">
        <ele>1068</ele>
        <time>2017-06-09T12:40:03Z</time>
      </trkpt>
      <trkpt lat="44.04339" lon="6.87337">
        <ele>1068</ele>
        <time>2017-06-09T12:40:03Z</time>
      </trkpt>
      <trkpt lat="44.04339" lon="6.87338">
        <ele>1068</ele>
        <time>2017-06-09T12:40:03Z</time>
      </trkpt>
      <trkpt lat="44.0434" lon="6.8734">
        <ele>1068</ele>
        <time>2017-06-09T12:40:03Z</time>
      </trkpt>
      <trkpt lat="44.04341" lon="6.87342">
        <ele>1068</ele>
        <time>2017-06-09T12:40:03Z</time>
      </trkpt>
      <trkpt lat="44.0434" lon="6.87338">
        <ele>1068</ele>
        <time>2017-06-09T12:40:32Z</time>
      </trkpt>
      <trkpt lat="44.04339" lon="6.87334">
        <ele>1068</ele>
        <time>2017-06-09T12:40:32Z</time>
      </trkpt>
      <trkpt lat="44.04342" lon="6.8733">
        <ele>1068</ele>
        <time>2017-06-09T12:40:32Z</time>
      </trkpt>
      <trkpt lat="44.04344" lon="6.8733">
        <ele>1068</ele>
        <time>2017-06-09T12:40:32Z</time>
      </trkpt>
      <trkpt lat="44.04347" lon="6.87328">
        <ele>1068</ele>
        <time>2017-06-09T12:40:32Z</time>
      </trkpt>
      <trkpt lat="44.0435" lon="6.87328">
        <ele>1074</ele>
        <time>2017-06-09T12:40:52Z</time>
      </trkpt>
      <trkpt lat="44.04352" lon="6.87327">
        <ele>1074</ele>
        <time>2017-06-09T12:40:52Z</time>
      </trkpt>
      <trkpt lat="44.04354" lon="6.87323">
        <ele>1074</ele>
        <time>2017-06-09T12:40:52Z</time>
      </trkpt>
      <trkpt lat="44.04357" lon="6.87321">
        <ele>1074</ele>
        <time>2017-06-09T12:40:52Z</time>
      </trkpt>
      <trkpt lat="44.04358" lon="6.87319">
        <ele>1072</ele>
        <time>2017-06-09T12:40:52Z</time>
      </trkpt>
      <trkpt lat="44.04358" lon="6.87317">
        <ele>1072</ele>
        <time>2017-06-09T12:41:13Z</time>
      </trkpt>
      <trkpt lat="44.04361" lon="6.87315">
        <ele>1072</ele>
        <time>2017-06-09T12:41:14Z</time>
      </trkpt>
      <trkpt lat="44.04362" lon="6.87311">
        <ele>1072</ele>
        <time>2017-06-09T12:41:14Z</time>
      </trkpt>
      <trkpt lat="44.04363" lon="6.87307">
        <ele>1072</ele>
        <time>2017-06-09T12:41:14Z</time>
      </trkpt>
      <trkpt lat="44.04366" lon="6.87308">
        <ele>1072</ele>
        <time>2017-06-09T12:41:14Z</time>
      </trkpt>
      <trkpt lat="44.04367" lon="6.87302">
        <ele>1072</ele>
        <time>2017-06-09T12:41:36Z</time>
      </trkpt>
      <trkpt lat="44.04367" lon="6.87298">
        <ele>1072</ele>
        <time>2017-06-09T12:41:36Z</time>
      </trkpt>
      <trkpt lat="44.04369" lon="6.87294">
        <ele>1072</ele>
        <time>2017-06-09T12:41:36Z</time>
      </trkpt>
      <trkpt lat="44.04371" lon="6.87293">
        <ele>1072</ele>
        <time>2017-06-09T12:41:36Z</time>
      </trkpt>
      <trkpt lat="44.04372" lon="6.87294">
        <ele>1072</ele>
        <time>2017-06-09T12:41:36Z</time>
      </trkpt>
      <trkpt lat="44.04373" lon="6.87284">
        <ele>1071</ele>
        <time>2017-06-09T12:41:53Z</time>
      </trkpt>
      <trkpt lat="44.04373" lon="6.87276">
        <ele>1071</ele>
        <time>2017-06-09T12:41:53Z</time>
      </trkpt>
      <trkpt lat="44.04375" lon="6.87258">
        <ele>1081</ele>
        <time>2017-06-09T12:41:53Z</time>
      </trkpt>
      <trkpt lat="44.04375" lon="6.87258">
        <ele>1081</ele>
        <time>2017-06-09T12:41:53Z</time>
      </trkpt>
      <trkpt lat="44.04378" lon="6.87251">
        <ele>1081</ele>
        <time>2017-06-09T12:42:15Z</time>
      </trkpt>
      <trkpt lat="44.04379" lon="6.87248">
        <ele>1081</ele>
        <time>2017-06-09T12:42:15Z</time>
      </trkpt>
      <trkpt lat="44.04383" lon="6.87248">
        <ele>1081</ele>
        <time>2017-06-09T12:42:15Z</time>
      </trkpt>
      <trkpt lat="44.04385" lon="6.87249">
        <ele>1081</ele>
        <time>2017-06-09T12:42:15Z</time>
      </trkpt>
      <trkpt lat="44.04389" lon="6.87242">
        <ele>1081</ele>
        <time>2017-06-09T12:42:15Z</time>
      </trkpt>
      <trkpt lat="44.0439" lon="6.87241">
        <ele>1081</ele>
        <time>2017-06-09T12:42:29Z</time>
      </trkpt>
      <trkpt lat="44.04393" lon="6.87232">
        <ele>1078</ele>
        <time>2017-06-09T12:42:29Z</time>
      </trkpt>
      <trkpt lat="44.04393" lon="6.87232">
        <ele>1078</ele>
        <time>2017-06-09T12:42:29Z</time>
      </trkpt>
      <trkpt lat="44.04392" lon="6.87222">
        <ele>1078</ele>
        <time>2017-06-09T12:42:29Z</time>
      </trkpt>
      <trkpt lat="44.04395" lon="6.87224">
        <ele>1078</ele>
        <time>2017-06-09T12:42:48Z</time>
      </trkpt>
      <trkpt lat="44.04396" lon="6.8722">
        <ele>1078</ele>
        <time>2017-06-09T12:42:48Z</time>
      </trkpt>
      <trkpt lat="44.04398" lon="6.87216">
        <ele>1078</ele>
        <time>2017-06-09T12:42:48Z</time>
      </trkpt>
      <trkpt lat="44.04399" lon="6.87215">
        <ele>1078</ele>
        <time>2017-06-09T12:42:48Z</time>
      </trkpt>
      <trkpt lat="44.044" lon="6.87212">
        <ele>1078</ele>
        <time>2017-06-09T12:42:48Z</time>
      </trkpt>
      <trkpt lat="44.04403" lon="6.87209">
        <ele>1089</ele>
        <time>2017-06-09T12:43:06Z</time>
      </trkpt>
      <trkpt lat="44.04405" lon="6.87208">
        <ele>1084</ele>
        <time>2017-06-09T12:43:06Z</time>
      </trkpt>
      <trkpt lat="44.04406" lon="6.87206">
        <ele>1084</ele>
        <time>2017-06-09T12:43:06Z</time>
      </trkpt>
      <trkpt lat="44.04408" lon="6.87197">
        <ele>1084</ele>
        <time>2017-06-09T12:43:06Z</time>
      </trkpt>
      <trkpt lat="44.04408" lon="6.87197">
        <ele>1084</ele>
        <time>2017-06-09T12:43:22Z</time>
      </trkpt>
      <trkpt lat="44.0441" lon="6.87188">
        <ele>1084</ele>
        <time>2017-06-09T12:43:22Z</time>
      </trkpt>
      <trkpt lat="44.04413" lon="6.8719">
        <ele>1084</ele>
        <time>2017-06-09T12:43:22Z</time>
      </trkpt>
      <trkpt lat="44.04418" lon="6.8719">
        <ele>1084</ele>
        <time>2017-06-09T12:43:22Z</time>
      </trkpt>
      <trkpt lat="44.04421" lon="6.87188">
        <ele>1084</ele>
        <time>2017-06-09T12:44:16Z</time>
      </trkpt>
      <trkpt lat="44.04423" lon="6.87188">
        <ele>1084</ele>
        <time>2017-06-09T12:44:16Z</time>
      </trkpt>
      <trkpt lat="44.04423" lon="6.87187">
        <ele>1084</ele>
        <time>2017-06-09T12:44:16Z</time>
      </trkpt>
      <trkpt lat="44.04424" lon="6.87186">
        <ele>1084</ele>
        <time>2017-06-09T12:44:17Z</time>
      </trkpt>
      <trkpt lat="44.04429" lon="6.87184">
        <ele>1084</ele>
        <time>2017-06-09T12:44:17Z</time>
      </trkpt>
      <trkpt lat="44.04435" lon="6.87184">
        <ele>1088</ele>
        <time>2017-06-09T12:44:36Z</time>
      </trkpt>
      <trkpt lat="44.04439" lon="6.87183">
        <ele>1088</ele>
        <time>2017-06-09T12:44:36Z</time>
      </trkpt>
      <trkpt lat="44.04439" lon="6.87182">
        <ele>1088</ele>
        <time>2017-06-09T12:44:36Z</time>
      </trkpt>
      <trkpt lat="44.04439" lon="6.87184">
        <ele>1088</ele>
        <time>2017-06-09T12:44:36Z</time>
      </trkpt>
      <trkpt lat="44.04446" lon="6.8718">
        <ele>1082</ele>
        <time>2017-06-09T12:44:36Z</time>
      </trkpt>
      <trkpt lat="44.04458" lon="6.87179">
        <ele>1080</ele>
        <time>2017-06-09T12:45:28Z</time>
      </trkpt>
      <trkpt lat="44.0446" lon="6.87178">
        <ele>1080</ele>
        <time>2017-06-09T12:45:28Z</time>
      </trkpt>
      <trkpt lat="44.04468" lon="6.87184">
        <ele>1088</ele>
        <time>2017-06-09T12:45:28Z</time>
      </trkpt>
      <trkpt lat="44.04479" lon="6.8719">
        <ele>1088</ele>
        <time>2017-06-09T12:45:29Z</time>
      </trkpt>
      <trkpt lat="44.04488" lon="6.87195">
        <ele>1084</ele>
        <time>2017-06-09T12:45:29Z</time>
      </trkpt>
      <trkpt lat="44.0449" lon="6.87196">
        <ele>1084</ele>
        <time>2017-06-09T12:45:48Z</time>
      </trkpt>
      <trkpt lat="44.04491" lon="6.87197">
        <ele>1084</ele>
        <time>2017-06-09T12:45:48Z</time>
      </trkpt>
      <trkpt lat="44.04495" lon="6.87202">
        <ele>1084</ele>
        <time>2017-06-09T12:45:48Z</time>
      </trkpt>
      <trkpt lat="44.04497" lon="6.87204">
        <ele>1084</ele>
        <time>2017-06-09T12:45:48Z</time>
      </trkpt>
      <trkpt lat="44.04498" lon="6.87209">
        <ele>1094</ele>
        <time>2017-06-09T12:45:48Z</time>
      </trkpt>
      <trkpt lat="44.045" lon="6.87216">
        <ele>1094</ele>
        <time>2017-06-09T12:46:05Z</time>
      </trkpt>
      <trkpt lat="44.04503" lon="6.8722">
        <ele>1094</ele>
        <time>2017-06-09T12:46:06Z</time>
      </trkpt>
      <trkpt lat="44.04515" lon="6.87224">
        <ele>1094</ele>
        <time>2017-06-09T12:46:06Z</time>
      </trkpt>
      <trkpt lat="44.04519" lon="6.87222">
        <ele>1094</ele>
        <time>2017-06-09T12:46:06Z</time>
      </trkpt>
      <trkpt lat="44.0452" lon="6.87224">
        <ele>1094</ele>
        <time>2017-06-09T12:46:21Z</time>
      </trkpt>
      <trkpt lat="44.04525" lon="6.87229">
        <ele>1094</ele>
        <time>2017-06-09T12:46:21Z</time>
      </trkpt>
      <trkpt lat="44.04529" lon="6.87234">
        <ele>1094</ele>
        <time>2017-06-09T12:46:21Z</time>
      </trkpt>
      <trkpt lat="44.0453" lon="6.87236">
        <ele>1094</ele>
        <time>2017-06-09T12:46:21Z</time>
      </trkpt>
      <trkpt lat="44.04532" lon="6.87236">
        <ele>1094</ele>
        <time>2017-06-09T12:46:36Z</time>
      </trkpt>
      <trkpt lat="44.04541" lon="6.8723">
        <ele>1094</ele>
        <time>2017-06-09T12:46:36Z</time>
      </trkpt>
      <trkpt lat="44.04544" lon="6.87224">
        <ele>1098</ele>
        <time>2017-06-09T12:46:36Z</time>
      </trkpt>
      <trkpt lat="44.04545" lon="6.87222">
        <ele>1098</ele>
        <time>2017-06-09T12:46:36Z</time>
      </trkpt>
      <trkpt lat="44.04549" lon="6.8722">
        <ele>1098</ele>
        <time>2017-06-09T12:46:55Z</time>
      </trkpt>
      <trkpt lat="44.04555" lon="6.87215">
        <ele>1098</ele>
        <time>2017-06-09T12:46:55Z</time>
      </trkpt>
      <trkpt lat="44.04557" lon="6.87213">
        <ele>1098</ele>
        <time>2017-06-09T12:46:55Z</time>
      </trkpt>
      <trkpt lat="44.04563" lon="6.87215">
        <ele>1098</ele>
        <time>2017-06-09T12:46:55Z</time>
      </trkpt>
      <trkpt lat="44.04564" lon="6.87212">
        <ele>1098</ele>
        <time>2017-06-09T12:47:11Z</time>
      </trkpt>
      <trkpt lat="44.04568" lon="6.87208">
        <ele>1084</ele>
        <time>2017-06-09T12:47:12Z</time>
      </trkpt>
      <trkpt lat="44.04573" lon="6.87207">
        <ele>1090</ele>
        <time>2017-06-09T12:47:12Z</time>
      </trkpt>
      <trkpt lat="44.0458" lon="6.87205">
        <ele>1090</ele>
        <time>2017-06-09T12:47:12Z</time>
      </trkpt>
      <trkpt lat="44.0458" lon="6.87204">
        <ele>1090</ele>
        <time>2017-06-09T12:47:26Z</time>
      </trkpt>
      <trkpt lat="44.04583" lon="6.87201">
        <ele>1090</ele>
        <time>2017-06-09T12:47:26Z</time>
      </trkpt>
      <trkpt lat="44.04587" lon="6.87197">
        <ele>1090</ele>
        <time>2017-06-09T12:47:26Z</time>
      </trkpt>
      <trkpt lat="44.04592" lon="6.87194">
        <ele>1090</ele>
        <time>2017-06-09T12:47:26Z</time>
      </trkpt>
      <trkpt lat="44.04592" lon="6.87195">
        <ele>1090</ele>
        <time>2017-06-09T12:47:44Z</time>
      </trkpt>
      <trkpt lat="44.04596" lon="6.87196">
        <ele>1090</ele>
        <time>2017-06-09T12:47:44Z</time>
      </trkpt>
      <trkpt lat="44.04596" lon="6.87196">
        <ele>1090</ele>
        <time>2017-06-09T12:47:44Z</time>
      </trkpt>
      <trkpt lat="44.046" lon="6.87194">
        <ele>1094</ele>
        <time>2017-06-09T12:47:44Z</time>
      </trkpt>
      <trkpt lat="44.04604" lon="6.87195">
        <ele>1094</ele>
        <time>2017-06-09T12:47:44Z</time>
      </trkpt>
      <trkpt lat="44.04607" lon="6.87196">
        <ele>1094</ele>
        <time>2017-06-09T12:48:03Z</time>
      </trkpt>
      <trkpt lat="44.04608" lon="6.87195">
        <ele>1094</ele>
        <time>2017-06-09T12:48:03Z</time>
      </trkpt>
      <trkpt lat="44.04614" lon="6.87192">
        <ele>1094</ele>
        <time>2017-06-09T12:48:03Z</time>
      </trkpt>
      <trkpt lat="44.04622" lon="6.87193">
        <ele>1094</ele>
        <time>2017-06-09T12:48:03Z</time>
      </trkpt>
      <trkpt lat="44.04623" lon="6.87193">
        <ele>1094</ele>
        <time>2017-06-09T12:48:18Z</time>
      </trkpt>
      <trkpt lat="44.04628" lon="6.87195">
        <ele>1101</ele>
        <time>2017-06-09T12:48:18Z</time>
      </trkpt>
      <trkpt lat="44.04629" lon="6.87195">
        <ele>1101</ele>
        <time>2017-06-09T12:48:19Z</time>
      </trkpt>
      <trkpt lat="44.04635" lon="6.8719">
        <ele>1101</ele>
        <time>2017-06-09T12:48:19Z</time>
      </trkpt>
      <trkpt lat="44.04638" lon="6.87188">
        <ele>1101</ele>
        <time>2017-06-09T12:48:34Z</time>
      </trkpt>
      <trkpt lat="44.04644" lon="6.87184">
        <ele>1101</ele>
        <time>2017-06-09T12:48:34Z</time>
      </trkpt>
      <trkpt lat="44.04646" lon="6.87186">
        <ele>1101</ele>
        <time>2017-06-09T12:48:34Z</time>
      </trkpt>
      <trkpt lat="44.04648" lon="6.87181">
        <ele>1101</ele>
        <time>2017-06-09T12:48:34Z</time>
      </trkpt>
      <trkpt lat="44.04651" lon="6.87179">
        <ele>1097</ele>
        <time>2017-06-09T12:48:51Z</time>
      </trkpt>
      <trkpt lat="44.04655" lon="6.87175">
        <ele>1111</ele>
        <time>2017-06-09T12:48:51Z</time>
      </trkpt>
      <trkpt lat="44.04656" lon="6.87173">
        <ele>1111</ele>
        <time>2017-06-09T12:48:51Z</time>
      </trkpt>
      <trkpt lat="44.04657" lon="6.87168">
        <ele>1111</ele>
        <time>2017-06-09T12:48:51Z</time>
      </trkpt>
      <trkpt lat="44.04657" lon="6.87167">
        <ele>1111</ele>
        <time>2017-06-09T12:49:04Z</time>
      </trkpt>
      <trkpt lat="44.04653" lon="6.87159">
        <ele>1111</ele>
        <time>2017-06-09T12:49:04Z</time>
      </trkpt>
      <trkpt lat="44.04651" lon="6.87157">
        <ele>1097</ele>
        <time>2017-06-09T12:49:04Z</time>
      </trkpt>
      <trkpt lat="44.04651" lon="6.87152">
        <ele>1097</ele>
        <time>2017-06-09T12:49:04Z</time>
      </trkpt>
      <trkpt lat="44.04652" lon="6.87148">
        <ele>1097</ele>
        <time>2017-06-09T12:49:20Z</time>
      </trkpt>
      <trkpt lat="44.04649" lon="6.87143">
        <ele>1097</ele>
        <time>2017-06-09T12:49:20Z</time>
      </trkpt>
      <trkpt lat="44.04648" lon="6.87139">
        <ele>1097</ele>
        <time>2017-06-09T12:49:20Z</time>
      </trkpt>
      <trkpt lat="44.04644" lon="6.87134">
        <ele>1097</ele>
        <time>2017-06-09T12:49:20Z</time>
      </trkpt>
      <trkpt lat="44.0464" lon="6.87127">
        <ele>1097</ele>
        <time>2017-06-09T12:49:39Z</time>
      </trkpt>
      <trkpt lat="44.04635" lon="6.8712">
        <ele>1098</ele>
        <time>2017-06-09T12:49:39Z</time>
      </trkpt>
      <trkpt lat="44.04633" lon="6.8712">
        <ele>1098</ele>
        <time>2017-06-09T12:49:40Z</time>
      </trkpt>
      <trkpt lat="44.0463" lon="6.87111">
        <ele>1098</ele>
        <time>2017-06-09T12:49:40Z</time>
      </trkpt>
      <trkpt lat="44.04628" lon="6.87108">
        <ele>1098</ele>
        <time>2017-06-09T12:49:55Z</time>
      </trkpt>
      <trkpt lat="44.04621" lon="6.87103">
        <ele>1083</ele>
        <time>2017-06-09T12:49:55Z</time>
      </trkpt>
      <trkpt lat="44.0462" lon="6.87103">
        <ele>1083</ele>
        <time>2017-06-09T12:49:55Z</time>
      </trkpt>
      <trkpt lat="44.04616" lon="6.87099">
        <ele>1083</ele>
        <time>2017-06-09T12:49:55Z</time>
      </trkpt>
      <trkpt lat="44.04616" lon="6.87097">
        <ele>1085</ele>
        <time>2017-06-09T12:50:12Z</time>
      </trkpt>
      <trkpt lat="44.04615" lon="6.87089">
        <ele>1085</ele>
        <time>2017-06-09T12:50:12Z</time>
      </trkpt>
      <trkpt lat="44.04616" lon="6.87087">
        <ele>1085</ele>
        <time>2017-06-09T12:50:12Z</time>
      </trkpt>
      <trkpt lat="44.04615" lon="6.87074">
        <ele>1085</ele>
        <time>2017-06-09T12:50:12Z</time>
      </trkpt>
      <trkpt lat="44.04615" lon="6.8707">
        <ele>1085</ele>
        <time>2017-06-09T12:50:33Z</time>
      </trkpt>
      <trkpt lat="44.04614" lon="6.87068">
        <ele>1086</ele>
        <time>2017-06-09T12:50:33Z</time>
      </trkpt>
      <trkpt lat="44.04612" lon="6.87065">
        <ele>1086</ele>
        <time>2017-06-09T12:50:33Z</time>
      </trkpt>
      <trkpt lat="44.0461" lon="6.87058">
        <ele>1086</ele>
        <time>2017-06-09T12:50:33Z</time>
      </trkpt>
      <trkpt lat="44.04608" lon="6.87056">
        <ele>1086</ele>
        <time>2017-06-09T12:50:50Z</time>
      </trkpt>
      <trkpt lat="44.04605" lon="6.87053">
        <ele>1086</ele>
        <time>2017-06-09T12:50:50Z</time>
      </trkpt>
      <trkpt lat="44.04602" lon="6.87051">
        <ele>1086</ele>
        <time>2017-06-09T12:50:51Z</time>
      </trkpt>
      <trkpt lat="44.04601" lon="6.87047">
        <ele>1086</ele>
        <time>2017-06-09T12:50:51Z</time>
      </trkpt>
      <trkpt lat="44.046" lon="6.87045">
        <ele>1086</ele>
        <time>2017-06-09T12:51:04Z</time>
      </trkpt>
      <trkpt lat="44.04597" lon="6.87034">
        <ele>1086</ele>
        <time>2017-06-09T12:51:04Z</time>
      </trkpt>
      <trkpt lat="44.04597" lon="6.87032">
        <ele>1068</ele>
        <time>2017-06-09T12:51:05Z</time>
      </trkpt>
      <trkpt lat="44.04596" lon="6.87028">
        <ele>1068</ele>
        <time>2017-06-09T12:51:06Z</time>
      </trkpt>
      <trkpt lat="44.04598" lon="6.87018">
        <ele>1086</ele>
        <time>2017-06-09T12:51:32Z</time>
      </trkpt>
      <trkpt lat="44.04601" lon="6.87014">
        <ele>1086</ele>
        <time>2017-06-09T12:51:32Z</time>
      </trkpt>
      <trkpt lat="44.04604" lon="6.87016">
        <ele>1086</ele>
        <time>2017-06-09T12:51:32Z</time>
      </trkpt>
      <trkpt lat="44.04607" lon="6.87009">
        <ele>1082</ele>
        <time>2017-06-09T12:51:32Z</time>
      </trkpt>
      <trkpt lat="44.04606" lon="6.87005">
        <ele>1082</ele>
        <time>2017-06-09T12:51:32Z</time>
      </trkpt>
      <trkpt lat="44.04607" lon="6.87003">
        <ele>1082</ele>
        <time>2017-06-09T12:52:04Z</time>
      </trkpt>
      <trkpt lat="44.04609" lon="6.87002">
        <ele>1082</ele>
        <time>2017-06-09T12:52:04Z</time>
      </trkpt>
      <trkpt lat="44.04611" lon="6.87002">
        <ele>1082</ele>
        <time>2017-06-09T12:52:04Z</time>
      </trkpt>
      <trkpt lat="44.04615" lon="6.87">
        <ele>1082</ele>
        <time>2017-06-09T12:52:04Z</time>
      </trkpt>
      <trkpt lat="44.04617" lon="6.86997">
        <ele>1082</ele>
        <time>2017-06-09T12:52:04Z</time>
      </trkpt>
      <trkpt lat="44.04621" lon="6.86993">
        <ele>1082</ele>
        <time>2017-06-09T12:52:24Z</time>
      </trkpt>
      <trkpt lat="44.04624" lon="6.86992">
        <ele>1082</ele>
        <time>2017-06-09T12:52:24Z</time>
      </trkpt>
      <trkpt lat="44.04626" lon="6.86989">
        <ele>1102</ele>
        <time>2017-06-09T12:52:24Z</time>
      </trkpt>
      <trkpt lat="44.04629" lon="6.86988">
        <ele>1102</ele>
        <time>2017-06-09T12:52:24Z</time>
      </trkpt>
      <trkpt lat="44.0463" lon="6.86983">
        <ele>1090</ele>
        <time>2017-06-09T12:52:24Z</time>
      </trkpt>
      <trkpt lat="44.04633" lon="6.86981">
        <ele>1090</ele>
        <time>2017-06-09T12:52:40Z</time>
      </trkpt>
      <trkpt lat="44.04633" lon="6.86978">
        <ele>1090</ele>
        <time>2017-06-09T12:52:40Z</time>
      </trkpt>
      <trkpt lat="44.04633" lon="6.86971">
        <ele>1090</ele>
        <time>2017-06-09T12:52:40Z</time>
      </trkpt>
      <trkpt lat="44.04636" lon="6.86967">
        <ele>1090</ele>
        <time>2017-06-09T12:52:40Z</time>
      </trkpt>
      <trkpt lat="44.0464" lon="6.86957">
        <ele>1076</ele>
        <time>2017-06-09T12:53:12Z</time>
      </trkpt>
      <trkpt lat="44.04643" lon="6.86952">
        <ele>1076</ele>
        <time>2017-06-09T12:53:12Z</time>
      </trkpt>
      <trkpt lat="44.04644" lon="6.86951">
        <ele>1076</ele>
        <time>2017-06-09T12:53:12Z</time>
      </trkpt>
      <trkpt lat="44.04648" lon="6.86946">
        <ele>1076</ele>
        <time>2017-06-09T12:53:13Z</time>
      </trkpt>
      <trkpt lat="44.04653" lon="6.86945">
        <ele>1091</ele>
        <time>2017-06-09T12:53:13Z</time>
      </trkpt>
      <trkpt lat="44.04654" lon="6.86945">
        <ele>1091</ele>
        <time>2017-06-09T12:53:25Z</time>
      </trkpt>
      <trkpt lat="44.04657" lon="6.86948">
        <ele>1091</ele>
        <time>2017-06-09T12:53:26Z</time>
      </trkpt>
      <trkpt lat="44.0466" lon="6.86947">
        <ele>1091</ele>
        <time>2017-06-09T12:53:27Z</time>
      </trkpt>
      <trkpt lat="44.04664" lon="6.86948">
        <ele>1091</ele>
        <time>2017-06-09T12:53:27Z</time>
      </trkpt>
      <trkpt lat="44.04668" lon="6.86947">
        <ele>1091</ele>
        <time>2017-06-09T12:53:50Z</time>
      </trkpt>
      <trkpt lat="44.04668" lon="6.86949">
        <ele>1091</ele>
        <time>2017-06-09T12:53:50Z</time>
      </trkpt>
      <trkpt lat="44.04671" lon="6.86951">
        <ele>1091</ele>
        <time>2017-06-09T12:53:51Z</time>
      </trkpt>
      <trkpt lat="44.04671" lon="6.86952">
        <ele>1091</ele>
        <time>2017-06-09T12:53:51Z</time>
      </trkpt>
      <trkpt lat="44.04675" lon="6.86952">
        <ele>1091</ele>
        <time>2017-06-09T12:53:52Z</time>
      </trkpt>
      <trkpt lat="44.04676" lon="6.86953">
        <ele>1091</ele>
        <time>2017-06-09T12:54:04Z</time>
      </trkpt>
      <trkpt lat="44.04683" lon="6.86953">
        <ele>1103</ele>
        <time>2017-06-09T12:54:04Z</time>
      </trkpt>
      <trkpt lat="44.04686" lon="6.86956">
        <ele>1103</ele>
        <time>2017-06-09T12:54:04Z</time>
      </trkpt>
      <trkpt lat="44.04689" lon="6.86957">
        <ele>1103</ele>
        <time>2017-06-09T12:54:04Z</time>
      </trkpt>
      <trkpt lat="44.04694" lon="6.86954">
        <ele>1103</ele>
        <time>2017-06-09T12:54:31Z</time>
      </trkpt>
      <trkpt lat="44.04695" lon="6.86953">
        <ele>1103</ele>
        <time>2017-06-09T12:54:31Z</time>
      </trkpt>
      <trkpt lat="44.04697" lon="6.86953">
        <ele>1103</ele>
        <time>2017-06-09T12:54:32Z</time>
      </trkpt>
      <trkpt lat="44.04697" lon="6.86953">
        <ele>1103</ele>
        <time>2017-06-09T12:54:32Z</time>
      </trkpt>
      <trkpt lat="44.04701" lon="6.86946">
        <ele>1103</ele>
        <time>2017-06-09T12:54:33Z</time>
      </trkpt>
      <trkpt lat="44.04702" lon="6.86946">
        <ele>1103</ele>
        <time>2017-06-09T12:54:46Z</time>
      </trkpt>
      <trkpt lat="44.04703" lon="6.86943">
        <ele>1103</ele>
        <time>2017-06-09T12:54:46Z</time>
      </trkpt>
      <trkpt lat="44.04702" lon="6.86935">
        <ele>1103</ele>
        <time>2017-06-09T12:54:46Z</time>
      </trkpt>
      <trkpt lat="44.04698" lon="6.8693">
        <ele>1095</ele>
        <time>2017-06-09T12:54:46Z</time>
      </trkpt>
      <trkpt lat="44.04696" lon="6.86921">
        <ele>1095</ele>
        <time>2017-06-09T12:55:08Z</time>
      </trkpt>
      <trkpt lat="44.04694" lon="6.8692">
        <ele>1095</ele>
        <time>2017-06-09T12:55:08Z</time>
      </trkpt>
      <trkpt lat="44.04694" lon="6.86918">
        <ele>1095</ele>
        <time>2017-06-09T12:55:08Z</time>
      </trkpt>
      <trkpt lat="44.04694" lon="6.86915">
        <ele>1095</ele>
        <time>2017-06-09T12:55:08Z</time>
      </trkpt>
      <trkpt lat="44.04692" lon="6.86912">
        <ele>1095</ele>
        <time>2017-06-09T12:55:08Z</time>
      </trkpt>
      <trkpt lat="44.04692" lon="6.86908">
        <ele>1095</ele>
        <time>2017-06-09T12:55:24Z</time>
      </trkpt>
      <trkpt lat="44.04694" lon="6.869">
        <ele>1086</ele>
        <time>2017-06-09T12:55:24Z</time>
      </trkpt>
      <trkpt lat="44.04694" lon="6.86888">
        <ele>1086</ele>
        <time>2017-06-09T12:55:24Z</time>
      </trkpt>
      <trkpt lat="44.04696" lon="6.86885">
        <ele>1086</ele>
        <time>2017-06-09T12:55:24Z</time>
      </trkpt>
      <trkpt lat="44.04695" lon="6.86864">
        <ele>1080</ele>
        <time>2017-06-09T12:56:16Z</time>
      </trkpt>
      <trkpt lat="44.04698" lon="6.86856">
        <ele>1080</ele>
        <time>2017-06-09T12:56:16Z</time>
      </trkpt>
      <trkpt lat="44.04701" lon="6.86856">
        <ele>1080</ele>
        <time>2017-06-09T12:56:16Z</time>
      </trkpt>
      <trkpt lat="44.04704" lon="6.86853">
        <ele>1080</ele>
        <time>2017-06-09T12:56:16Z</time>
      </trkpt>
      <trkpt lat="44.04704" lon="6.86849">
        <ele>1080</ele>
        <time>2017-06-09T12:56:16Z</time>
      </trkpt>
      <trkpt lat="44.04708" lon="6.86849">
        <ele>1080</ele>
        <time>2017-06-09T12:56:35Z</time>
      </trkpt>
      <trkpt lat="44.0471" lon="6.86846">
        <ele>1090</ele>
        <time>2017-06-09T12:56:35Z</time>
      </trkpt>
      <trkpt lat="44.04711" lon="6.86846">
        <ele>1090</ele>
        <time>2017-06-09T12:56:35Z</time>
      </trkpt>
      <trkpt lat="44.04717" lon="6.86843">
        <ele>1090</ele>
        <time>2017-06-09T12:56:35Z</time>
      </trkpt>
      <trkpt lat="44.04717" lon="6.86844">
        <ele>1090</ele>
        <time>2017-06-09T12:56:51Z</time>
      </trkpt>
      <trkpt lat="44.04723" lon="6.86844">
        <ele>1090</ele>
        <time>2017-06-09T12:56:51Z</time>
      </trkpt>
      <trkpt lat="44.04724" lon="6.86843">
        <ele>1090</ele>
        <time>2017-06-09T12:56:51Z</time>
      </trkpt>
      <trkpt lat="44.04731" lon="6.86841">
        <ele>1090</ele>
        <time>2017-06-09T12:56:51Z</time>
      </trkpt>
      <trkpt lat="44.04732" lon="6.86842">
        <ele>1090</ele>
        <time>2017-06-09T12:57:04Z</time>
      </trkpt>
      <trkpt lat="44.04738" lon="6.86839">
        <ele>1102</ele>
        <time>2017-06-09T12:57:04Z</time>
      </trkpt>
      <trkpt lat="44.0474" lon="6.86836">
        <ele>1102</ele>
        <time>2017-06-09T12:57:04Z</time>
      </trkpt>
      <trkpt lat="44.04743" lon="6.86838">
        <ele>1102</ele>
        <time>2017-06-09T12:57:04Z</time>
      </trkpt>
      <trkpt lat="44.04747" lon="6.86839">
        <ele>1102</ele>
        <time>2017-06-09T12:57:20Z</time>
      </trkpt>
      <trkpt lat="44.04749" lon="6.86838">
        <ele>1102</ele>
        <time>2017-06-09T12:57:20Z</time>
      </trkpt>
      <trkpt lat="44.0475" lon="6.86834">
        <ele>1102</ele>
        <time>2017-06-09T12:57:20Z</time>
      </trkpt>
      <trkpt lat="44.04751" lon="6.86827">
        <ele>1102</ele>
        <time>2017-06-09T12:57:20Z</time>
      </trkpt>
      <trkpt lat="44.04753" lon="6.86825">
        <ele>1102</ele>
        <time>2017-06-09T12:57:39Z</time>
      </trkpt>
      <trkpt lat="44.04756" lon="6.86822">
        <ele>1102</ele>
        <time>2017-06-09T12:57:39Z</time>
      </trkpt>
      <trkpt lat="44.04758" lon="6.8682">
        <ele>1102</ele>
        <time>2017-06-09T12:57:40Z</time>
      </trkpt>
      <trkpt lat="44.04763" lon="6.86818">
        <ele>1091</ele>
        <time>2017-06-09T12:57:40Z</time>
      </trkpt>
      <trkpt lat="44.04765" lon="6.86814">
        <ele>1105</ele>
        <time>2017-06-09T12:57:54Z</time>
      </trkpt>
      <trkpt lat="44.0477" lon="6.86812">
        <ele>1105</ele>
        <time>2017-06-09T12:57:54Z</time>
      </trkpt>
      <trkpt lat="44.04774" lon="6.86809">
        <ele>1105</ele>
        <time>2017-06-09T12:57:54Z</time>
      </trkpt>
      <trkpt lat="44.04778" lon="6.868">
        <ele>1105</ele>
        <time>2017-06-09T12:57:54Z</time>
      </trkpt>
      <trkpt lat="44.04777" lon="6.86796">
        <ele>1105</ele>
        <time>2017-06-09T12:58:11Z</time>
      </trkpt>
      <trkpt lat="44.04778" lon="6.86788">
        <ele>1098</ele>
        <time>2017-06-09T12:58:11Z</time>
      </trkpt>
      <trkpt lat="44.04778" lon="6.86786">
        <ele>1098</ele>
        <time>2017-06-09T12:58:11Z</time>
      </trkpt>
      <trkpt lat="44.04779" lon="6.86778">
        <ele>1098</ele>
        <time>2017-06-09T12:58:11Z</time>
      </trkpt>
      <trkpt lat="44.04779" lon="6.86776">
        <ele>1098</ele>
        <time>2017-06-09T12:58:26Z</time>
      </trkpt>
      <trkpt lat="44.0478" lon="6.8677">
        <ele>1098</ele>
        <time>2017-06-09T12:58:26Z</time>
      </trkpt>
      <trkpt lat="44.04782" lon="6.86762">
        <ele>1095</ele>
        <time>2017-06-09T12:58:26Z</time>
      </trkpt>
      <trkpt lat="44.04783" lon="6.86759">
        <ele>1095</ele>
        <time>2017-06-09T12:58:26Z</time>
      </trkpt>
      <trkpt lat="44.04778" lon="6.86748">
        <ele>1095</ele>
        <time>2017-06-09T12:59:20Z</time>
      </trkpt>
      <trkpt lat="44.04774" lon="6.86741">
        <ele>1095</ele>
        <time>2017-06-09T12:59:20Z</time>
      </trkpt>
      <trkpt lat="44.04767" lon="6.8673">
        <ele>1095</ele>
        <time>2017-06-09T12:59:20Z</time>
      </trkpt>
      <trkpt lat="44.04765" lon="6.86729">
        <ele>1095</ele>
        <time>2017-06-09T12:59:20Z</time>
      </trkpt>
      <trkpt lat="44.04762" lon="6.86728">
        <ele>1082</ele>
        <time>2017-06-09T12:59:20Z</time>
      </trkpt>
      <trkpt lat="44.04761" lon="6.86725">
        <ele>1082</ele>
        <time>2017-06-09T12:59:36Z</time>
      </trkpt>
      <trkpt lat="44.04761" lon="6.86718">
        <ele>1082</ele>
        <time>2017-06-09T12:59:36Z</time>
      </trkpt>
      <trkpt lat="44.04762" lon="6.86712">
        <ele>1082</ele>
        <time>2017-06-09T12:59:36Z</time>
      </trkpt>
      <trkpt lat="44.04762" lon="6.86707">
        <ele>1082</ele>
        <time>2017-06-09T12:59:36Z</time>
      </trkpt>
      <trkpt lat="44.04765" lon="6.86701">
        <ele>1094</ele>
        <time>2017-06-09T12:59:55Z</time>
      </trkpt>
      <trkpt lat="44.04766" lon="6.86697">
        <ele>1094</ele>
        <time>2017-06-09T12:59:55Z</time>
      </trkpt>
      <trkpt lat="44.04767" lon="6.86694">
        <ele>1094</ele>
        <time>2017-06-09T12:59:55Z</time>
      </trkpt>
      <trkpt lat="44.04769" lon="6.86685">
        <ele>1094</ele>
        <time>2017-06-09T12:59:55Z</time>
      </trkpt>
      <trkpt lat="44.04769" lon="6.86684">
        <ele>1094</ele>
        <time>2017-06-09T13:00:08Z</time>
      </trkpt>
      <trkpt lat="44.04772" lon="6.86675">
        <ele>1092</ele>
        <time>2017-06-09T13:00:08Z</time>
      </trkpt>
      <trkpt lat="44.04775" lon="6.86673">
        <ele>1092</ele>
        <time>2017-06-09T13:00:08Z</time>
      </trkpt>
      <trkpt lat="44.04777" lon="6.86671">
        <ele>1092</ele>
        <time>2017-06-09T13:00:08Z</time>
      </trkpt>
      <trkpt lat="44.04781" lon="6.86664">
        <ele>1092</ele>
        <time>2017-06-09T13:00:24Z</time>
      </trkpt>
      <trkpt lat="44.04782" lon="6.86657">
        <ele>1092</ele>
        <time>2017-06-09T13:00:24Z</time>
      </trkpt>
      <trkpt lat="44.04786" lon="6.86655">
        <ele>1092</ele>
        <time>2017-06-09T13:00:24Z</time>
      </trkpt>
      <trkpt lat="44.04789" lon="6.86654">
        <ele>1092</ele>
        <time>2017-06-09T13:00:24Z</time>
      </trkpt>
      <trkpt lat="44.04792" lon="6.86648">
        <ele>1097</ele>
        <time>2017-06-09T13:00:43Z</time>
      </trkpt>
      <trkpt lat="44.04793" lon="6.86642">
        <ele>1097</ele>
        <time>2017-06-09T13:00:43Z</time>
      </trkpt>
      <trkpt lat="44.04795" lon="6.86635">
        <ele>1097</ele>
        <time>2017-06-09T13:00:43Z</time>
      </trkpt>
      <trkpt lat="44.04798" lon="6.86626">
        <ele>1097</ele>
        <time>2017-06-09T13:00:43Z</time>
      </trkpt>
      <trkpt lat="44.04799" lon="6.86626">
        <ele>1097</ele>
        <time>2017-06-09T13:00:57Z</time>
      </trkpt>
      <trkpt lat="44.04804" lon="6.86616">
        <ele>1088</ele>
        <time>2017-06-09T13:00:57Z</time>
      </trkpt>
      <trkpt lat="44.04805" lon="6.86614">
        <ele>1088</ele>
        <time>2017-06-09T13:00:57Z</time>
      </trkpt>
      <trkpt lat="44.04806" lon="6.86605">
        <ele>1088</ele>
        <time>2017-06-09T13:00:57Z</time>
      </trkpt>
      <trkpt lat="44.04807" lon="6.866">
        <ele>1088</ele>
        <time>2017-06-09T13:01:15Z</time>
      </trkpt>
      <trkpt lat="44.04812" lon="6.86597">
        <ele>1083</ele>
        <time>2017-06-09T13:01:15Z</time>
      </trkpt>
      <trkpt lat="44.04813" lon="6.86595">
        <ele>1083</ele>
        <time>2017-06-09T13:01:15Z</time>
      </trkpt>
      <trkpt lat="44.04818" lon="6.8659">
        <ele>1083</ele>
        <time>2017-06-09T13:01:15Z</time>
      </trkpt>
      <trkpt lat="44.04819" lon="6.86589">
        <ele>1083</ele>
        <time>2017-06-09T13:01:28Z</time>
      </trkpt>
      <trkpt lat="44.04822" lon="6.86585">
        <ele>1096</ele>
        <time>2017-06-09T13:01:28Z</time>
      </trkpt>
      <trkpt lat="44.04825" lon="6.8658">
        <ele>1096</ele>
        <time>2017-06-09T13:01:28Z</time>
      </trkpt>
      <trkpt lat="44.04827" lon="6.86574">
        <ele>1096</ele>
        <time>2017-06-09T13:01:28Z</time>
      </trkpt>
      <trkpt lat="44.04828" lon="6.86569">
        <ele>1090</ele>
        <time>2017-06-09T13:01:46Z</time>
      </trkpt>
      <trkpt lat="44.0483" lon="6.86565">
        <ele>1090</ele>
        <time>2017-06-09T13:01:46Z</time>
      </trkpt>
      <trkpt lat="44.04837" lon="6.86562">
        <ele>1090</ele>
        <time>2017-06-09T13:01:46Z</time>
      </trkpt>
      <trkpt lat="44.04841" lon="6.86559">
        <ele>1090</ele>
        <time>2017-06-09T13:01:47Z</time>
      </trkpt>
      <trkpt lat="44.04842" lon="6.86557">
        <ele>1090</ele>
        <time>2017-06-09T13:02:01Z</time>
      </trkpt>
      <trkpt lat="44.04848" lon="6.86551">
        <ele>1097</ele>
        <time>2017-06-09T13:02:01Z</time>
      </trkpt>
      <trkpt lat="44.0485" lon="6.8655">
        <ele>1097</ele>
        <time>2017-06-09T13:02:01Z</time>
      </trkpt>
      <trkpt lat="44.04854" lon="6.86547">
        <ele>1097</ele>
        <time>2017-06-09T13:02:01Z</time>
      </trkpt>
      <trkpt lat="44.04857" lon="6.86546">
        <ele>1097</ele>
        <time>2017-06-09T13:02:20Z</time>
      </trkpt>
      <trkpt lat="44.04865" lon="6.86541">
        <ele>1088</ele>
        <time>2017-06-09T13:02:20Z</time>
      </trkpt>
      <trkpt lat="44.04872" lon="6.8654">
        <ele>1088</ele>
        <time>2017-06-09T13:02:20Z</time>
      </trkpt>
      <trkpt lat="44.04874" lon="6.8654">
        <ele>1088</ele>
        <time>2017-06-09T13:02:20Z</time>
      </trkpt>
      <trkpt lat="44.04878" lon="6.8654">
        <ele>1088</ele>
        <time>2017-06-09T13:02:36Z</time>
      </trkpt>
      <trkpt lat="44.04882" lon="6.86538">
        <ele>1088</ele>
        <time>2017-06-09T13:02:36Z</time>
      </trkpt>
      <trkpt lat="44.04885" lon="6.86536">
        <ele>1088</ele>
        <time>2017-06-09T13:02:36Z</time>
      </trkpt>
      <trkpt lat="44.04887" lon="6.86536">
        <ele>1088</ele>
        <time>2017-06-09T13:02:36Z</time>
      </trkpt>
      <trkpt lat="44.0489" lon="6.86537">
        <ele>1088</ele>
        <time>2017-06-09T13:02:55Z</time>
      </trkpt>
      <trkpt lat="44.04897" lon="6.86535">
        <ele>1088</ele>
        <time>2017-06-09T13:02:55Z</time>
      </trkpt>
      <trkpt lat="44.04898" lon="6.86535">
        <ele>1088</ele>
        <time>2017-06-09T13:02:55Z</time>
      </trkpt>
      <trkpt lat="44.04905" lon="6.86535">
        <ele>1088</ele>
        <time>2017-06-09T13:02:55Z</time>
      </trkpt>
      <trkpt lat="44.04906" lon="6.86535">
        <ele>1088</ele>
        <time>2017-06-09T13:03:11Z</time>
      </trkpt>
      <trkpt lat="44.0491" lon="6.86536">
        <ele>1088</ele>
        <time>2017-06-09T13:03:11Z</time>
      </trkpt>
      <trkpt lat="44.04911" lon="6.86538">
        <ele>1088</ele>
        <time>2017-06-09T13:03:12Z</time>
      </trkpt>
      <trkpt lat="44.04915" lon="6.86537">
        <ele>1088</ele>
        <time>2017-06-09T13:03:12Z</time>
      </trkpt>
      <trkpt lat="44.04915" lon="6.86537">
        <ele>1088</ele>
        <time>2017-06-09T13:03:24Z</time>
      </trkpt>
      <trkpt lat="44.04919" lon="6.86531">
        <ele>1088</ele>
        <time>2017-06-09T13:03:24Z</time>
      </trkpt>
      <trkpt lat="44.04921" lon="6.86531">
        <ele>1088</ele>
        <time>2017-06-09T13:03:24Z</time>
      </trkpt>
      <trkpt lat="44.04925" lon="6.86531">
        <ele>1088</ele>
        <time>2017-06-09T13:03:24Z</time>
      </trkpt>
      <trkpt lat="44.0493" lon="6.86528">
        <ele>1088</ele>
        <time>2017-06-09T13:03:41Z</time>
      </trkpt>
      <trkpt lat="44.04937" lon="6.86523">
        <ele>1093</ele>
        <time>2017-06-09T13:03:41Z</time>
      </trkpt>
      <trkpt lat="44.04943" lon="6.86521">
        <ele>1093</ele>
        <time>2017-06-09T13:03:42Z</time>
      </trkpt>
      <trkpt lat="44.04945" lon="6.86521">
        <ele>1093</ele>
        <time>2017-06-09T13:03:42Z</time>
      </trkpt>
      <trkpt lat="44.04957" lon="6.86524">
        <ele>1093</ele>
        <time>2017-06-09T13:04:24Z</time>
      </trkpt>
      <trkpt lat="44.0496" lon="6.86524">
        <ele>1096</ele>
        <time>2017-06-09T13:04:24Z</time>
      </trkpt>
      <trkpt lat="44.04961" lon="6.86522">
        <ele>1096</ele>
        <time>2017-06-09T13:04:24Z</time>
      </trkpt>
      <trkpt lat="44.04964" lon="6.86522">
        <ele>1096</ele>
        <time>2017-06-09T13:04:24Z</time>
      </trkpt>
      <trkpt lat="44.04967" lon="6.86522">
        <ele>1096</ele>
        <time>2017-06-09T13:04:24Z</time>
      </trkpt>
      <trkpt lat="44.04973" lon="6.86518">
        <ele>1096</ele>
        <time>2017-06-09T13:05:42Z</time>
      </trkpt>
      <trkpt lat="44.04973" lon="6.86518">
        <ele>1096</ele>
        <time>2017-06-09T13:05:42Z</time>
      </trkpt>
      <trkpt lat="44.04976" lon="6.8652">
        <ele>1096</ele>
        <time>2017-06-09T13:05:42Z</time>
      </trkpt>
      <trkpt lat="44.04978" lon="6.86526">
        <ele>1096</ele>
        <time>2017-06-09T13:05:42Z</time>
      </trkpt>
      <trkpt lat="44.04984" lon="6.86525">
        <ele>1096</ele>
        <time>2017-06-09T13:05:42Z</time>
      </trkpt>
      <trkpt lat="44.04984" lon="6.86522">
        <ele>1096</ele>
        <time>2017-06-09T13:05:59Z</time>
      </trkpt>
      <trkpt lat="44.04994" lon="6.86521">
        <ele>1094</ele>
        <time>2017-06-09T13:05:59Z</time>
      </trkpt>
      <trkpt lat="44.04996" lon="6.8652">
        <ele>1094</ele>
        <time>2017-06-09T13:05:59Z</time>
      </trkpt>
      <trkpt lat="44.05004" lon="6.86519">
        <ele>1094</ele>
        <time>2017-06-09T13:05:59Z</time>
      </trkpt>
      <trkpt lat="44.05005" lon="6.86519">
        <ele>1094</ele>
        <time>2017-06-09T13:06:14Z</time>
      </trkpt>
      <trkpt lat="44.05009" lon="6.86521">
        <ele>1094</ele>
        <time>2017-06-09T13:06:14Z</time>
      </trkpt>
      <trkpt lat="44.05011" lon="6.86525">
        <ele>1094</ele>
        <time>2017-06-09T13:06:15Z</time>
      </trkpt>
      <trkpt lat="44.0501" lon="6.86531">
        <ele>1094</ele>
        <time>2017-06-09T13:06:15Z</time>
      </trkpt>
      <trkpt lat="44.0501" lon="6.86535">
        <ele>1094</ele>
        <time>2017-06-09T13:06:28Z</time>
      </trkpt>
      <trkpt lat="44.0501" lon="6.86545">
        <ele>1105</ele>
        <time>2017-06-09T13:06:28Z</time>
      </trkpt>
      <trkpt lat="44.0501" lon="6.86546">
        <ele>1105</ele>
        <time>2017-06-09T13:06:28Z</time>
      </trkpt>
      <trkpt lat="44.05015" lon="6.8655">
        <ele>1104</ele>
        <time>2017-06-09T13:06:28Z</time>
      </trkpt>
      <trkpt lat="44.05018" lon="6.86549">
        <ele>1104</ele>
        <time>2017-06-09T13:06:50Z</time>
      </trkpt>
      <trkpt lat="44.05019" lon="6.86545">
        <ele>1104</ele>
        <time>2017-06-09T13:06:50Z</time>
      </trkpt>
      <trkpt lat="44.05021" lon="6.86546">
        <ele>1104</ele>
        <time>2017-06-09T13:06:50Z</time>
      </trkpt>
      <trkpt lat="44.05024" lon="6.86545">
        <ele>1104</ele>
        <time>2017-06-09T13:06:50Z</time>
      </trkpt>
      <trkpt lat="44.05026" lon="6.86541">
        <ele>1092</ele>
        <time>2017-06-09T13:06:50Z</time>
      </trkpt>
      <trkpt lat="44.05032" lon="6.86534">
        <ele>1092</ele>
        <time>2017-06-09T13:07:28Z</time>
      </trkpt>
      <trkpt lat="44.05036" lon="6.86535">
        <ele>1092</ele>
        <time>2017-06-09T13:07:28Z</time>
      </trkpt>
      <trkpt lat="44.05038" lon="6.86531">
        <ele>1092</ele>
        <time>2017-06-09T13:07:28Z</time>
      </trkpt>
      <trkpt lat="44.05042" lon="6.8653">
        <ele>1092</ele>
        <time>2017-06-09T13:07:28Z</time>
      </trkpt>
      <trkpt lat="44.05042" lon="6.86528">
        <ele>1089</ele>
        <time>2017-06-09T13:07:28Z</time>
      </trkpt>
      <trkpt lat="44.05056" lon="6.86532">
        <ele>1089</ele>
        <time>2017-06-09T13:08:04Z</time>
      </trkpt>
      <trkpt lat="44.05065" lon="6.86534">
        <ele>1089</ele>
        <time>2017-06-09T13:08:04Z</time>
      </trkpt>
      <trkpt lat="44.05071" lon="6.86534">
        <ele>1090</ele>
        <time>2017-06-09T13:08:04Z</time>
      </trkpt>
      <trkpt lat="44.05073" lon="6.86536">
        <ele>1090</ele>
        <time>2017-06-09T13:08:04Z</time>
      </trkpt>
      <trkpt lat="44.05074" lon="6.86535">
        <ele>1090</ele>
        <time>2017-06-09T13:08:04Z</time>
      </trkpt>
      <trkpt lat="44.05083" lon="6.8654">
        <ele>1090</ele>
        <time>2017-06-09T13:08:21Z</time>
      </trkpt>
      <trkpt lat="44.05086" lon="6.86542">
        <ele>1101</ele>
        <time>2017-06-09T13:08:21Z</time>
      </trkpt>
      <trkpt lat="44.05092" lon="6.86548">
        <ele>1101</ele>
        <time>2017-06-09T13:08:21Z</time>
      </trkpt>
      <trkpt lat="44.05096" lon="6.86549">
        <ele>1101</ele>
        <time>2017-06-09T13:08:22Z</time>
      </trkpt>
      <trkpt lat="44.05102" lon="6.86551">
        <ele>1105</ele>
        <time>2017-06-09T13:08:38Z</time>
      </trkpt>
      <trkpt lat="44.05108" lon="6.86549">
        <ele>1105</ele>
        <time>2017-06-09T13:08:38Z</time>
      </trkpt>
      <trkpt lat="44.0511" lon="6.86547">
        <ele>1105</ele>
        <time>2017-06-09T13:08:39Z</time>
      </trkpt>
      <trkpt lat="44.05114" lon="6.86543">
        <ele>1105</ele>
        <time>2017-06-09T13:08:40Z</time>
      </trkpt>
      <trkpt lat="44.05115" lon="6.86544">
        <ele>1105</ele>
        <time>2017-06-09T13:08:55Z</time>
      </trkpt>
      <trkpt lat="44.05119" lon="6.86543">
        <ele>1105</ele>
        <time>2017-06-09T13:08:55Z</time>
      </trkpt>
      <trkpt lat="44.0512" lon="6.86538">
        <ele>1093</ele>
        <time>2017-06-09T13:08:55Z</time>
      </trkpt>
      <trkpt lat="44.05127" lon="6.86532">
        <ele>1100</ele>
        <time>2017-06-09T13:08:55Z</time>
      </trkpt>
      <trkpt lat="44.05128" lon="6.86532">
        <ele>1100</ele>
        <time>2017-06-09T13:09:08Z</time>
      </trkpt>
      <trkpt lat="44.05132" lon="6.86533">
        <ele>1100</ele>
        <time>2017-06-09T13:09:08Z</time>
      </trkpt>
      <trkpt lat="44.05133" lon="6.86532">
        <ele>1100</ele>
        <time>2017-06-09T13:09:08Z</time>
      </trkpt>
      <trkpt lat="44.05137" lon="6.86527">
        <ele>1100</ele>
        <time>2017-06-09T13:09:08Z</time>
      </trkpt>
      <trkpt lat="44.05139" lon="6.86522">
        <ele>1100</ele>
        <time>2017-06-09T13:09:24Z</time>
      </trkpt>
      <trkpt lat="44.05139" lon="6.86512">
        <ele>1090</ele>
        <time>2017-06-09T13:09:24Z</time>
      </trkpt>
      <trkpt lat="44.05142" lon="6.86506">
        <ele>1090</ele>
        <time>2017-06-09T13:09:24Z</time>
      </trkpt>
      <trkpt lat="44.05145" lon="6.86505">
        <ele>1090</ele>
        <time>2017-06-09T13:09:24Z</time>
      </trkpt>
      <trkpt lat="44.05149" lon="6.86498">
        <ele>1090</ele>
        <time>2017-06-09T13:09:47Z</time>
      </trkpt>
      <trkpt lat="44.05151" lon="6.86497">
        <ele>1090</ele>
        <time>2017-06-09T13:09:47Z</time>
      </trkpt>
      <trkpt lat="44.05154" lon="6.86497">
        <ele>1101</ele>
        <time>2017-06-09T13:09:48Z</time>
      </trkpt>
      <trkpt lat="44.05155" lon="6.86495">
        <ele>1101</ele>
        <time>2017-06-09T13:09:48Z</time>
      </trkpt>
      <trkpt lat="44.05159" lon="6.86488">
        <ele>1101</ele>
        <time>2017-06-09T13:09:49Z</time>
      </trkpt>
      <trkpt lat="44.05161" lon="6.86486">
        <ele>1101</ele>
        <time>2017-06-09T13:10:00Z</time>
      </trkpt>
      <trkpt lat="44.05168" lon="6.86485">
        <ele>1093</ele>
        <time>2017-06-09T13:10:00Z</time>
      </trkpt>
      <trkpt lat="44.05172" lon="6.86482">
        <ele>1093</ele>
        <time>2017-06-09T13:10:00Z</time>
      </trkpt>
      <trkpt lat="44.05173" lon="6.86478">
        <ele>1093</ele>
        <time>2017-06-09T13:10:00Z</time>
      </trkpt>
      <trkpt lat="44.05173" lon="6.86476">
        <ele>1093</ele>
        <time>2017-06-09T13:10:24Z</time>
      </trkpt>
      <trkpt lat="44.05175" lon="6.86472">
        <ele>1093</ele>
        <time>2017-06-09T13:10:24Z</time>
      </trkpt>
      <trkpt lat="44.05181" lon="6.86468">
        <ele>1106</ele>
        <time>2017-06-09T13:10:24Z</time>
      </trkpt>
      <trkpt lat="44.05182" lon="6.86466">
        <ele>1106</ele>
        <time>2017-06-09T13:10:24Z</time>
      </trkpt>
      <trkpt lat="44.05183" lon="6.86467">
        <ele>1106</ele>
        <time>2017-06-09T13:10:41Z</time>
      </trkpt>
      <trkpt lat="44.05184" lon="6.86464">
        <ele>1106</ele>
        <time>2017-06-09T13:10:41Z</time>
      </trkpt>
      <trkpt lat="44.05188" lon="6.86456">
        <ele>1102</ele>
        <time>2017-06-09T13:10:41Z</time>
      </trkpt>
      <trkpt lat="44.05189" lon="6.86453">
        <ele>1102</ele>
        <time>2017-06-09T13:10:41Z</time>
      </trkpt>
      <trkpt lat="44.05188" lon="6.86445">
        <ele>1102</ele>
        <time>2017-06-09T13:10:57Z</time>
      </trkpt>
      <trkpt lat="44.05187" lon="6.86439">
        <ele>1102</ele>
        <time>2017-06-09T13:10:58Z</time>
      </trkpt>
      <trkpt lat="44.05189" lon="6.86431">
        <ele>1102</ele>
        <time>2017-06-09T13:10:58Z</time>
      </trkpt>
      <trkpt lat="44.05192" lon="6.86425">
        <ele>1100</ele>
        <time>2017-06-09T13:10:58Z</time>
      </trkpt>
      <trkpt lat="44.05192" lon="6.86419">
        <ele>1100</ele>
        <time>2017-06-09T13:11:13Z</time>
      </trkpt>
      <trkpt lat="44.05194" lon="6.86412">
        <ele>1100</ele>
        <time>2017-06-09T13:11:13Z</time>
      </trkpt>
      <trkpt lat="44.05195" lon="6.86404">
        <ele>1100</ele>
        <time>2017-06-09T13:11:13Z</time>
      </trkpt>
      <trkpt lat="44.05195" lon="6.86402">
        <ele>1099</ele>
        <time>2017-06-09T13:11:13Z</time>
      </trkpt>
      <trkpt lat="44.05195" lon="6.86396">
        <ele>1099</ele>
        <time>2017-06-09T13:11:28Z</time>
      </trkpt>
      <trkpt lat="44.05196" lon="6.86392">
        <ele>1099</ele>
        <time>2017-06-09T13:11:28Z</time>
      </trkpt>
      <trkpt lat="44.05195" lon="6.86388">
        <ele>1099</ele>
        <time>2017-06-09T13:11:28Z</time>
      </trkpt>
      <trkpt lat="44.05195" lon="6.86379">
        <ele>1099</ele>
        <time>2017-06-09T13:11:28Z</time>
      </trkpt>
      <trkpt lat="44.05196" lon="6.86371">
        <ele>1098</ele>
        <time>2017-06-09T13:11:45Z</time>
      </trkpt>
      <trkpt lat="44.05198" lon="6.86366">
        <ele>1098</ele>
        <time>2017-06-09T13:11:45Z</time>
      </trkpt>
      <trkpt lat="44.05197" lon="6.86359">
        <ele>1098</ele>
        <time>2017-06-09T13:11:46Z</time>
      </trkpt>
      <trkpt lat="44.05197" lon="6.8635">
        <ele>1098</ele>
        <time>2017-06-09T13:11:46Z</time>
      </trkpt>
      <trkpt lat="44.05195" lon="6.86345">
        <ele>1098</ele>
        <time>2017-06-09T13:12:01Z</time>
      </trkpt>
      <trkpt lat="44.05194" lon="6.86333">
        <ele>1098</ele>
        <time>2017-06-09T13:12:01Z</time>
      </trkpt>
      <trkpt lat="44.05192" lon="6.8633">
        <ele>1098</ele>
        <time>2017-06-09T13:12:01Z</time>
      </trkpt>
      <trkpt lat="44.05191" lon="6.86324">
        <ele>1098</ele>
        <time>2017-06-09T13:12:01Z</time>
      </trkpt>
      <trkpt lat="44.05189" lon="6.86319">
        <ele>1100</ele>
        <time>2017-06-09T13:12:24Z</time>
      </trkpt>
      <trkpt lat="44.05188" lon="6.86307">
        <ele>1100</ele>
        <time>2017-06-09T13:12:24Z</time>
      </trkpt>
      <trkpt lat="44.05186" lon="6.86301">
        <ele>1100</ele>
        <time>2017-06-09T13:12:24Z</time>
      </trkpt>
      <trkpt lat="44.05187" lon="6.86297">
        <ele>1100</ele>
        <time>2017-06-09T13:12:24Z</time>
      </trkpt>
      <trkpt lat="44.05187" lon="6.86292">
        <ele>1100</ele>
        <time>2017-06-09T13:12:40Z</time>
      </trkpt>
      <trkpt lat="44.05188" lon="6.86287">
        <ele>1101</ele>
        <time>2017-06-09T13:12:40Z</time>
      </trkpt>
      <trkpt lat="44.05188" lon="6.86282">
        <ele>1101</ele>
        <time>2017-06-09T13:12:40Z</time>
      </trkpt>
      <trkpt lat="44.05187" lon="6.86277">
        <ele>1101</ele>
        <time>2017-06-09T13:12:40Z</time>
      </trkpt>
      <trkpt lat="44.05188" lon="6.86272">
        <ele>1101</ele>
        <time>2017-06-09T13:13:04Z</time>
      </trkpt>
      <trkpt lat="44.05187" lon="6.8626">
        <ele>1099</ele>
        <time>2017-06-09T13:13:04Z</time>
      </trkpt>
      <trkpt lat="44.05188" lon="6.86247">
        <ele>1099</ele>
        <time>2017-06-09T13:13:04Z</time>
      </trkpt>
      <trkpt lat="44.05188" lon="6.86241">
        <ele>1099</ele>
        <time>2017-06-09T13:13:05Z</time>
      </trkpt>
      <trkpt lat="44.0519" lon="6.86236">
        <ele>1095</ele>
        <time>2017-06-09T13:13:21Z</time>
      </trkpt>
      <trkpt lat="44.05191" lon="6.86233">
        <ele>1095</ele>
        <time>2017-06-09T13:13:21Z</time>
      </trkpt>
      <trkpt lat="44.05191" lon="6.86222">
        <ele>1095</ele>
        <time>2017-06-09T13:13:21Z</time>
      </trkpt>
      <trkpt lat="44.05192" lon="6.86219">
        <ele>1095</ele>
        <time>2017-06-09T13:13:21Z</time>
      </trkpt>
      <trkpt lat="44.05193" lon="6.86217">
        <ele>1095</ele>
        <time>2017-06-09T13:13:36Z</time>
      </trkpt>
      <trkpt lat="44.05193" lon="6.86209">
        <ele>1095</ele>
        <time>2017-06-09T13:13:36Z</time>
      </trkpt>
      <trkpt lat="44.05195" lon="6.86204">
        <ele>1091</ele>
        <time>2017-06-09T13:13:36Z</time>
      </trkpt>
      <trkpt lat="44.05196" lon="6.86195">
        <ele>1091</ele>
        <time>2017-06-09T13:13:36Z</time>
      </trkpt>
      <trkpt lat="44.05199" lon="6.8619">
        <ele>1091</ele>
        <time>2017-06-09T13:13:54Z</time>
      </trkpt>
      <trkpt lat="44.05199" lon="6.86188">
        <ele>1091</ele>
        <time>2017-06-09T13:13:54Z</time>
      </trkpt>
      <trkpt lat="44.05204" lon="6.86178">
        <ele>1085</ele>
        <time>2017-06-09T13:13:54Z</time>
      </trkpt>
      <trkpt lat="44.05206" lon="6.86176">
        <ele>1085</ele>
        <time>2017-06-09T13:13:54Z</time>
      </trkpt>
      <trkpt lat="44.05208" lon="6.86174">
        <ele>1085</ele>
        <time>2017-06-09T13:14:11Z</time>
      </trkpt>
      <trkpt lat="44.05211" lon="6.86172">
        <ele>1106</ele>
        <time>2017-06-09T13:14:11Z</time>
      </trkpt>
      <trkpt lat="44.05213" lon="6.86171">
        <ele>1106</ele>
        <time>2017-06-09T13:14:11Z</time>
      </trkpt>
      <trkpt lat="44.05214" lon="6.86163">
        <ele>1106</ele>
        <time>2017-06-09T13:14:11Z</time>
      </trkpt>
      <trkpt lat="44.05214" lon="6.86163">
        <ele>1106</ele>
        <time>2017-06-09T13:14:25Z</time>
      </trkpt>
      <trkpt lat="44.05216" lon="6.86153">
        <ele>1106</ele>
        <time>2017-06-09T13:14:25Z</time>
      </trkpt>
      <trkpt lat="44.05217" lon="6.86151">
        <ele>1105</ele>
        <time>2017-06-09T13:14:25Z</time>
      </trkpt>
      <trkpt lat="44.05217" lon="6.86143">
        <ele>1105</ele>
        <time>2017-06-09T13:14:25Z</time>
      </trkpt>
      <trkpt lat="44.05218" lon="6.86137">
        <ele>1105</ele>
        <time>2017-06-09T13:14:40Z</time>
      </trkpt>
      <trkpt lat="44.05219" lon="6.86132">
        <ele>1105</ele>
        <time>2017-06-09T13:14:40Z</time>
      </trkpt>
      <trkpt lat="44.0522" lon="6.86123">
        <ele>1105</ele>
        <time>2017-06-09T13:14:40Z</time>
      </trkpt>
      <trkpt lat="44.05221" lon="6.86118">
        <ele>1105</ele>
        <time>2017-06-09T13:14:40Z</time>
      </trkpt>
      <trkpt lat="44.05221" lon="6.86112">
        <ele>1105</ele>
        <time>2017-06-09T13:14:58Z</time>
      </trkpt>
      <trkpt lat="44.0522" lon="6.86101">
        <ele>1105</ele>
        <time>2017-06-09T13:14:58Z</time>
      </trkpt>
      <trkpt lat="44.0522" lon="6.86097">
        <ele>1100</ele>
        <time>2017-06-09T13:14:58Z</time>
      </trkpt>
      <trkpt lat="44.0522" lon="6.86092">
        <ele>1100</ele>
        <time>2017-06-09T13:14:58Z</time>
      </trkpt>
      <trkpt lat="44.05221" lon="6.86089">
        <ele>1100</ele>
        <time>2017-06-09T13:15:13Z</time>
      </trkpt>
      <trkpt lat="44.0522" lon="6.86084">
        <ele>1100</ele>
        <time>2017-06-09T13:15:13Z</time>
      </trkpt>
      <trkpt lat="44.05219" lon="6.86067">
        <ele>1097</ele>
        <time>2017-06-09T13:15:13Z</time>
      </trkpt>
      <trkpt lat="44.05221" lon="6.86066">
        <ele>1097</ele>
        <time>2017-06-09T13:15:13Z</time>
      </trkpt>
      <trkpt lat="44.05222" lon="6.86061">
        <ele>1097</ele>
        <time>2017-06-09T13:15:32Z</time>
      </trkpt>
      <trkpt lat="44.05222" lon="6.86057">
        <ele>1097</ele>
        <time>2017-06-09T13:15:32Z</time>
      </trkpt>
      <trkpt lat="44.05224" lon="6.86051">
        <ele>1097</ele>
        <time>2017-06-09T13:15:32Z</time>
      </trkpt>
      <trkpt lat="44.05226" lon="6.8605">
        <ele>1097</ele>
        <time>2017-06-09T13:15:32Z</time>
      </trkpt>
      <trkpt lat="44.05228" lon="6.86045">
        <ele>1097</ele>
        <time>2017-06-09T13:15:32Z</time>
      </trkpt>
      <trkpt lat="44.05229" lon="6.8604">
        <ele>1095</ele>
        <time>2017-06-09T13:15:49Z</time>
      </trkpt>
      <trkpt lat="44.05231" lon="6.86034">
        <ele>1095</ele>
        <time>2017-06-09T13:15:49Z</time>
      </trkpt>
      <trkpt lat="44.05232" lon="6.86029">
        <ele>1095</ele>
        <time>2017-06-09T13:15:49Z</time>
      </trkpt>
      <trkpt lat="44.05234" lon="6.86023">
        <ele>1095</ele>
        <time>2017-06-09T13:15:49Z</time>
      </trkpt>
      <trkpt lat="44.05235" lon="6.86018">
        <ele>1095</ele>
        <time>2017-06-09T13:16:04Z</time>
      </trkpt>
      <trkpt lat="44.05235" lon="6.86009">
        <ele>1092</ele>
        <time>2017-06-09T13:16:04Z</time>
      </trkpt>
      <trkpt lat="44.05236" lon="6.86006">
        <ele>1092</ele>
        <time>2017-06-09T13:16:04Z</time>
      </trkpt>
      <trkpt lat="44.05236" lon="6.86002">
        <ele>1092</ele>
        <time>2017-06-09T13:16:04Z</time>
      </trkpt>
      <trkpt lat="44.05236" lon="6.85996">
        <ele>1092</ele>
        <time>2017-06-09T13:16:23Z</time>
      </trkpt>
      <trkpt lat="44.05239" lon="6.85989">
        <ele>1112</ele>
        <time>2017-06-09T13:16:23Z</time>
      </trkpt>
      <trkpt lat="44.05241" lon="6.85986">
        <ele>1102</ele>
        <time>2017-06-09T13:16:23Z</time>
      </trkpt>
      <trkpt lat="44.05245" lon="6.85979">
        <ele>1102</ele>
        <time>2017-06-09T13:16:23Z</time>
      </trkpt>
      <trkpt lat="44.05245" lon="6.85976">
        <ele>1102</ele>
        <time>2017-06-09T13:16:36Z</time>
      </trkpt>
      <trkpt lat="44.0525" lon="6.85972">
        <ele>1102</ele>
        <time>2017-06-09T13:16:36Z</time>
      </trkpt>
      <trkpt lat="44.05251" lon="6.85967">
        <ele>1102</ele>
        <time>2017-06-09T13:16:36Z</time>
      </trkpt>
      <trkpt lat="44.05252" lon="6.85962">
        <ele>1102</ele>
        <time>2017-06-09T13:16:36Z</time>
      </trkpt>
      <trkpt lat="44.05253" lon="6.85959">
        <ele>1102</ele>
        <time>2017-06-09T13:16:55Z</time>
      </trkpt>
      <trkpt lat="44.05258" lon="6.85955">
        <ele>1090</ele>
        <time>2017-06-09T13:16:55Z</time>
      </trkpt>
      <trkpt lat="44.05261" lon="6.85954">
        <ele>1090</ele>
        <time>2017-06-09T13:16:55Z</time>
      </trkpt>
      <trkpt lat="44.05266" lon="6.85947">
        <ele>1107</ele>
        <time>2017-06-09T13:16:55Z</time>
      </trkpt>
      <trkpt lat="44.05267" lon="6.85946">
        <ele>1107</ele>
        <time>2017-06-09T13:17:08Z</time>
      </trkpt>
      <trkpt lat="44.05273" lon="6.85941">
        <ele>1107</ele>
        <time>2017-06-09T13:17:08Z</time>
      </trkpt>
      <trkpt lat="44.05275" lon="6.85939">
        <ele>1107</ele>
        <time>2017-06-09T13:17:08Z</time>
      </trkpt>
      <trkpt lat="44.05278" lon="6.85936">
        <ele>1107</ele>
        <time>2017-06-09T13:17:08Z</time>
      </trkpt>
      <trkpt lat="44.05287" lon="6.85932">
        <ele>1107</ele>
        <time>2017-06-09T13:17:25Z</time>
      </trkpt>
      <trkpt lat="44.05289" lon="6.85935">
        <ele>1107</ele>
        <time>2017-06-09T13:17:25Z</time>
      </trkpt>
      <trkpt lat="44.05297" lon="6.85931">
        <ele>1100</ele>
        <time>2017-06-09T13:17:26Z</time>
      </trkpt>
      <trkpt lat="44.05299" lon="6.8593">
        <ele>1100</ele>
        <time>2017-06-09T13:17:26Z</time>
      </trkpt>
      <trkpt lat="44.05303" lon="6.85929">
        <ele>1100</ele>
        <time>2017-06-09T13:17:45Z</time>
      </trkpt>
      <trkpt lat="44.05307" lon="6.8593">
        <ele>1100</ele>
        <time>2017-06-09T13:17:45Z</time>
      </trkpt>
      <trkpt lat="44.05309" lon="6.8593">
        <ele>1100</ele>
        <time>2017-06-09T13:17:45Z</time>
      </trkpt>
      <trkpt lat="44.05311" lon="6.85932">
        <ele>1119</ele>
        <time>2017-06-09T13:17:45Z</time>
      </trkpt>
      <trkpt lat="44.05315" lon="6.85934">
        <ele>1119</ele>
        <time>2017-06-09T13:17:45Z</time>
      </trkpt>
      <trkpt lat="44.05321" lon="6.85934">
        <ele>1116</ele>
        <time>2017-06-09T13:18:04Z</time>
      </trkpt>
      <trkpt lat="44.05327" lon="6.85937">
        <ele>1116</ele>
        <time>2017-06-09T13:18:04Z</time>
      </trkpt>
      <trkpt lat="44.05333" lon="6.85936">
        <ele>1116</ele>
        <time>2017-06-09T13:18:04Z</time>
      </trkpt>
      <trkpt lat="44.05336" lon="6.85934">
        <ele>1116</ele>
        <time>2017-06-09T13:18:04Z</time>
      </trkpt>
      <trkpt lat="44.05335" lon="6.85933">
        <ele>1116</ele>
        <time>2017-06-09T13:18:25Z</time>
      </trkpt>
      <trkpt lat="44.05337" lon="6.85934">
        <ele>1116</ele>
        <time>2017-06-09T13:18:25Z</time>
      </trkpt>
      <trkpt lat="44.05339" lon="6.85936">
        <ele>1116</ele>
        <time>2017-06-09T13:18:25Z</time>
      </trkpt>
      <trkpt lat="44.05341" lon="6.85941">
        <ele>1116</ele>
        <time>2017-06-09T13:18:25Z</time>
      </trkpt>
      <trkpt lat="44.05343" lon="6.85944">
        <ele>1116</ele>
        <time>2017-06-09T13:18:25Z</time>
      </trkpt>
      <trkpt lat="44.05344" lon="6.85944">
        <ele>1116</ele>
        <time>2017-06-09T13:18:43Z</time>
      </trkpt>
      <trkpt lat="44.05348" lon="6.85948">
        <ele>1100</ele>
        <time>2017-06-09T13:18:43Z</time>
      </trkpt>
      <trkpt lat="44.0535" lon="6.8595">
        <ele>1100</ele>
        <time>2017-06-09T13:18:44Z</time>
      </trkpt>
      <trkpt lat="44.05356" lon="6.85954">
        <ele>1100</ele>
        <time>2017-06-09T13:18:44Z</time>
      </trkpt>
      <trkpt lat="44.05358" lon="6.85956">
        <ele>1100</ele>
        <time>2017-06-09T13:18:58Z</time>
      </trkpt>
      <trkpt lat="44.05371" lon="6.85963">
        <ele>1114</ele>
        <time>2017-06-09T13:18:58Z</time>
      </trkpt>
      <trkpt lat="44.05372" lon="6.85965">
        <ele>1114</ele>
        <time>2017-06-09T13:18:58Z</time>
      </trkpt>
      <trkpt lat="44.05375" lon="6.85968">
        <ele>1103</ele>
        <time>2017-06-09T13:18:58Z</time>
      </trkpt>
      <trkpt lat="44.05375" lon="6.8597">
        <ele>1103</ele>
        <time>2017-06-09T13:19:13Z</time>
      </trkpt>
      <trkpt lat="44.05381" lon="6.85974">
        <ele>1103</ele>
        <time>2017-06-09T13:19:13Z</time>
      </trkpt>
      <trkpt lat="44.05386" lon="6.8598">
        <ele>1103</ele>
        <time>2017-06-09T13:19:13Z</time>
      </trkpt>
      <trkpt lat="44.05387" lon="6.85983">
        <ele>1103</ele>
        <time>2017-06-09T13:19:14Z</time>
      </trkpt>
      <trkpt lat="44.05386" lon="6.85987">
        <ele>1115</ele>
        <time>2017-06-09T13:19:28Z</time>
      </trkpt>
      <trkpt lat="44.0539" lon="6.8599">
        <ele>1115</ele>
        <time>2017-06-09T13:19:28Z</time>
      </trkpt>
      <trkpt lat="44.05393" lon="6.85991">
        <ele>1115</ele>
        <time>2017-06-09T13:19:28Z</time>
      </trkpt>
      <trkpt lat="44.05399" lon="6.85993">
        <ele>1115</ele>
        <time>2017-06-09T13:19:28Z</time>
      </trkpt>
      <trkpt lat="44.05405" lon="6.85994">
        <ele>1103</ele>
        <time>2017-06-09T13:19:46Z</time>
      </trkpt>
      <trkpt lat="44.0541" lon="6.86006">
        <ele>1103</ele>
        <time>2017-06-09T13:19:46Z</time>
      </trkpt>
      <trkpt lat="44.05412" lon="6.86008">
        <ele>1103</ele>
        <time>2017-06-09T13:19:46Z</time>
      </trkpt>
      <trkpt lat="44.05419" lon="6.86012">
        <ele>1103</ele>
        <time>2017-06-09T13:19:46Z</time>
      </trkpt>
      <trkpt lat="44.05422" lon="6.86015">
        <ele>1121</ele>
        <time>2017-06-09T13:20:00Z</time>
      </trkpt>
      <trkpt lat="44.05426" lon="6.86019">
        <ele>1121</ele>
        <time>2017-06-09T13:20:00Z</time>
      </trkpt>
      <trkpt lat="44.0543" lon="6.86021">
        <ele>1121</ele>
        <time>2017-06-09T13:20:00Z</time>
      </trkpt>
      <trkpt lat="44.05436" lon="6.86026">
        <ele>1115</ele>
        <time>2017-06-09T13:20:00Z</time>
      </trkpt>
      <trkpt lat="44.0544" lon="6.86029">
        <ele>1115</ele>
        <time>2017-06-09T13:20:21Z</time>
      </trkpt>
      <trkpt lat="44.05449" lon="6.86032">
        <ele>1115</ele>
        <time>2017-06-09T13:20:21Z</time>
      </trkpt>
      <trkpt lat="44.05457" lon="6.86029">
        <ele>1115</ele>
        <time>2017-06-09T13:20:21Z</time>
      </trkpt>
      <trkpt lat="44.05461" lon="6.86027">
        <ele>1106</ele>
        <time>2017-06-09T13:20:21Z</time>
      </trkpt>
      <trkpt lat="44.05465" lon="6.86028">
        <ele>1106</ele>
        <time>2017-06-09T13:20:43Z</time>
      </trkpt>
      <trkpt lat="44.05466" lon="6.86034">
        <ele>1106</ele>
        <time>2017-06-09T13:20:43Z</time>
      </trkpt>
      <trkpt lat="44.05469" lon="6.86034">
        <ele>1106</ele>
        <time>2017-06-09T13:20:44Z</time>
      </trkpt>
      <trkpt lat="44.0547" lon="6.86034">
        <ele>1106</ele>
        <time>2017-06-09T13:20:44Z</time>
      </trkpt>
      <trkpt lat="44.05477" lon="6.86036">
        <ele>1106</ele>
        <time>2017-06-09T13:20:44Z</time>
      </trkpt>
      <trkpt lat="44.05478" lon="6.86038">
        <ele>1106</ele>
        <time>2017-06-09T13:20:59Z</time>
      </trkpt>
      <trkpt lat="44.05486" lon="6.86044">
        <ele>1119</ele>
        <time>2017-06-09T13:20:59Z</time>
      </trkpt>
      <trkpt lat="44.05487" lon="6.86046">
        <ele>1108</ele>
        <time>2017-06-09T13:20:59Z</time>
      </trkpt>
      <trkpt lat="44.05491" lon="6.86051">
        <ele>1108</ele>
        <time>2017-06-09T13:20:59Z</time>
      </trkpt>
      <trkpt lat="44.05492" lon="6.86051">
        <ele>1108</ele>
        <time>2017-06-09T13:21:15Z</time>
      </trkpt>
      <trkpt lat="44.055" lon="6.86056">
        <ele>1108</ele>
        <time>2017-06-09T13:21:15Z</time>
      </trkpt>
      <trkpt lat="44.055" lon="6.86061">
        <ele>1108</ele>
        <time>2017-06-09T13:21:15Z</time>
      </trkpt>
      <trkpt lat="44.055" lon="6.86069">
        <ele>1108</ele>
        <time>2017-06-09T13:21:15Z</time>
      </trkpt>
      <trkpt lat="44.055" lon="6.8607">
        <ele>1119</ele>
        <time>2017-06-09T13:21:30Z</time>
      </trkpt>
      <trkpt lat="44.05506" lon="6.86076">
        <ele>1119</ele>
        <time>2017-06-09T13:21:30Z</time>
      </trkpt>
      <trkpt lat="44.05507" lon="6.86077">
        <ele>1119</ele>
        <time>2017-06-09T13:21:30Z</time>
      </trkpt>
      <trkpt lat="44.05507" lon="6.8608">
        <ele>1119</ele>
        <time>2017-06-09T13:21:30Z</time>
      </trkpt>
      <trkpt lat="44.05508" lon="6.86084">
        <ele>1119</ele>
        <time>2017-06-09T13:21:47Z</time>
      </trkpt>
      <trkpt lat="44.05514" lon="6.86091">
        <ele>1119</ele>
        <time>2017-06-09T13:21:47Z</time>
      </trkpt>
      <trkpt lat="44.05516" lon="6.86093">
        <ele>1098</ele>
        <time>2017-06-09T13:21:48Z</time>
      </trkpt>
      <trkpt lat="44.05521" lon="6.86105">
        <ele>1109</ele>
        <time>2017-06-09T13:21:48Z</time>
      </trkpt>
      <trkpt lat="44.05521" lon="6.86106">
        <ele>1109</ele>
        <time>2017-06-09T13:22:01Z</time>
      </trkpt>
      <trkpt lat="44.05524" lon="6.86114">
        <ele>1109</ele>
        <time>2017-06-09T13:22:01Z</time>
      </trkpt>
      <trkpt lat="44.05524" lon="6.86116">
        <ele>1109</ele>
        <time>2017-06-09T13:22:01Z</time>
      </trkpt>
      <trkpt lat="44.05523" lon="6.86121">
        <ele>1109</ele>
        <time>2017-06-09T13:22:01Z</time>
      </trkpt>
      <trkpt lat="44.05524" lon="6.86123">
        <ele>1109</ele>
        <time>2017-06-09T13:22:20Z</time>
      </trkpt>
      <trkpt lat="44.05524" lon="6.86124">
        <ele>1109</ele>
        <time>2017-06-09T13:22:20Z</time>
      </trkpt>
      <trkpt lat="44.05524" lon="6.86131">
        <ele>1121</ele>
        <time>2017-06-09T13:22:20Z</time>
      </trkpt>
      <trkpt lat="44.05521" lon="6.86138">
        <ele>1121</ele>
        <time>2017-06-09T13:22:20Z</time>
      </trkpt>
      <trkpt lat="44.05519" lon="6.86138">
        <ele>1121</ele>
        <time>2017-06-09T13:22:35Z</time>
      </trkpt>
      <trkpt lat="44.05519" lon="6.86142">
        <ele>1121</ele>
        <time>2017-06-09T13:22:35Z</time>
      </trkpt>
      <trkpt lat="44.05522" lon="6.86147">
        <ele>1121</ele>
        <time>2017-06-09T13:22:35Z</time>
      </trkpt>
      <trkpt lat="44.05526" lon="6.86152">
        <ele>1121</ele>
        <time>2017-06-09T13:22:35Z</time>
      </trkpt>
      <trkpt lat="44.05525" lon="6.86154">
        <ele>1130</ele>
        <time>2017-06-09T13:22:51Z</time>
      </trkpt>
      <trkpt lat="44.05532" lon="6.86161">
        <ele>1130</ele>
        <time>2017-06-09T13:22:51Z</time>
      </trkpt>
      <trkpt lat="44.05533" lon="6.86162">
        <ele>1130</ele>
        <time>2017-06-09T13:22:51Z</time>
      </trkpt>
      <trkpt lat="44.05535" lon="6.86166">
        <ele>1130</ele>
        <time>2017-06-09T13:22:51Z</time>
      </trkpt>
      <trkpt lat="44.0553" lon="6.86175">
        <ele>1130</ele>
        <time>2017-06-09T13:23:21Z</time>
      </trkpt>
      <trkpt lat="44.0553" lon="6.86178">
        <ele>1130</ele>
        <time>2017-06-09T13:23:21Z</time>
      </trkpt>
      <trkpt lat="44.05533" lon="6.86185">
        <ele>1135</ele>
        <time>2017-06-09T13:23:22Z</time>
      </trkpt>
      <trkpt lat="44.0553" lon="6.8619">
        <ele>1135</ele>
        <time>2017-06-09T13:23:22Z</time>
      </trkpt>
      <trkpt lat="44.05531" lon="6.86192">
        <ele>1135</ele>
        <time>2017-06-09T13:23:22Z</time>
      </trkpt>
      <trkpt lat="44.05533" lon="6.86197">
        <ele>1135</ele>
        <time>2017-06-09T13:23:48Z</time>
      </trkpt>
      <trkpt lat="44.05531" lon="6.86205">
        <ele>1135</ele>
        <time>2017-06-09T13:23:48Z</time>
      </trkpt>
      <trkpt lat="44.0553" lon="6.86211">
        <ele>1139</ele>
        <time>2017-06-09T13:23:48Z</time>
      </trkpt>
      <trkpt lat="44.05534" lon="6.86224">
        <ele>1139</ele>
        <time>2017-06-09T13:23:48Z</time>
      </trkpt>
      <trkpt lat="44.05534" lon="6.86225">
        <ele>1139</ele>
        <time>2017-06-09T13:24:00Z</time>
      </trkpt>
      <trkpt lat="44.05534" lon="6.86233">
        <ele>1139</ele>
        <time>2017-06-09T13:24:00Z</time>
      </trkpt>
      <trkpt lat="44.0553" lon="6.86236">
        <ele>1139</ele>
        <time>2017-06-09T13:24:00Z</time>
      </trkpt>
      <trkpt lat="44.05529" lon="6.8624">
        <ele>1140</ele>
        <time>2017-06-09T13:24:00Z</time>
      </trkpt>
      <trkpt lat="44.05531" lon="6.86243">
        <ele>1140</ele>
        <time>2017-06-09T13:24:18Z</time>
      </trkpt>
      <trkpt lat="44.05534" lon="6.86248">
        <ele>1140</ele>
        <time>2017-06-09T13:24:18Z</time>
      </trkpt>
      <trkpt lat="44.05536" lon="6.86254">
        <ele>1140</ele>
        <time>2017-06-09T13:24:18Z</time>
      </trkpt>
      <trkpt lat="44.05535" lon="6.86261">
        <ele>1140</ele>
        <time>2017-06-09T13:24:18Z</time>
      </trkpt>
      <trkpt lat="44.05536" lon="6.86265">
        <ele>1140</ele>
        <time>2017-06-09T13:24:35Z</time>
      </trkpt>
      <trkpt lat="44.05536" lon="6.86273">
        <ele>1140</ele>
        <time>2017-06-09T13:24:35Z</time>
      </trkpt>
      <trkpt lat="44.05536" lon="6.86276">
        <ele>1140</ele>
        <time>2017-06-09T13:24:36Z</time>
      </trkpt>
      <trkpt lat="44.05538" lon="6.86284">
        <ele>1140</ele>
        <time>2017-06-09T13:24:36Z</time>
      </trkpt>
      <trkpt lat="44.05537" lon="6.86285">
        <ele>1140</ele>
        <time>2017-06-09T13:24:50Z</time>
      </trkpt>
      <trkpt lat="44.05538" lon="6.8629">
        <ele>1140</ele>
        <time>2017-06-09T13:24:50Z</time>
      </trkpt>
      <trkpt lat="44.05544" lon="6.86294">
        <ele>1137</ele>
        <time>2017-06-09T13:24:50Z</time>
      </trkpt>
      <trkpt lat="44.05548" lon="6.86297">
        <ele>1137</ele>
        <time>2017-06-09T13:24:50Z</time>
      </trkpt>
      <trkpt lat="44.05549" lon="6.86298">
        <ele>1137</ele>
        <time>2017-06-09T13:25:05Z</time>
      </trkpt>
      <trkpt lat="44.05554" lon="6.86302">
        <ele>1137</ele>
        <time>2017-06-09T13:25:05Z</time>
      </trkpt>
      <trkpt lat="44.05559" lon="6.86306">
        <ele>1137</ele>
        <time>2017-06-09T13:25:05Z</time>
      </trkpt>
      <trkpt lat="44.05562" lon="6.86305">
        <ele>1137</ele>
        <time>2017-06-09T13:25:05Z</time>
      </trkpt>
      <trkpt lat="44.05568" lon="6.86303">
        <ele>1137</ele>
        <time>2017-06-09T13:25:36Z</time>
      </trkpt>
      <trkpt lat="44.05569" lon="6.86304">
        <ele>1137</ele>
        <time>2017-06-09T13:25:36Z</time>
      </trkpt>
      <trkpt lat="44.05571" lon="6.86305">
        <ele>1135</ele>
        <time>2017-06-09T13:25:36Z</time>
      </trkpt>
      <trkpt lat="44.05577" lon="6.86308">
        <ele>1135</ele>
        <time>2017-06-09T13:25:36Z</time>
      </trkpt>
      <trkpt lat="44.05587" lon="6.86312">
        <ele>1135</ele>
        <time>2017-06-09T13:25:36Z</time>
      </trkpt>
      <trkpt lat="44.05589" lon="6.8631">
        <ele>1135</ele>
        <time>2017-06-09T13:25:49Z</time>
      </trkpt>
      <trkpt lat="44.05593" lon="6.8631">
        <ele>1135</ele>
        <time>2017-06-09T13:25:49Z</time>
      </trkpt>
      <trkpt lat="44.05599" lon="6.86309">
        <ele>1131</ele>
        <time>2017-06-09T13:25:49Z</time>
      </trkpt>
      <trkpt lat="44.056" lon="6.8631">
        <ele>1131</ele>
        <time>2017-06-09T13:25:49Z</time>
      </trkpt>
      <trkpt lat="44.05606" lon="6.86317">
        <ele>1131</ele>
        <time>2017-06-09T13:26:04Z</time>
      </trkpt>
      <trkpt lat="44.05609" lon="6.86321">
        <ele>1142</ele>
        <time>2017-06-09T13:26:05Z</time>
      </trkpt>
      <trkpt lat="44.0561" lon="6.86327">
        <ele>1142</ele>
        <time>2017-06-09T13:26:06Z</time>
      </trkpt>
      <trkpt lat="44.05613" lon="6.8633">
        <ele>1142</ele>
        <time>2017-06-09T13:26:06Z</time>
      </trkpt>
      <trkpt lat="44.05618" lon="6.86337">
        <ele>1142</ele>
        <time>2017-06-09T13:26:24Z</time>
      </trkpt>
      <trkpt lat="44.05626" lon="6.86344">
        <ele>1133</ele>
        <time>2017-06-09T13:26:24Z</time>
      </trkpt>
      <trkpt lat="44.05632" lon="6.86348">
        <ele>1147</ele>
        <time>2017-06-09T13:26:24Z</time>
      </trkpt>
      <trkpt lat="44.05633" lon="6.86349">
        <ele>1147</ele>
        <time>2017-06-09T13:26:24Z</time>
      </trkpt>
      <trkpt lat="44.05634" lon="6.86349">
        <ele>1147</ele>
        <time>2017-06-09T13:26:56Z</time>
      </trkpt>
      <trkpt lat="44.05639" lon="6.8635">
        <ele>1147</ele>
        <time>2017-06-09T13:26:56Z</time>
      </trkpt>
      <trkpt lat="44.05641" lon="6.86351">
        <ele>1147</ele>
        <time>2017-06-09T13:26:56Z</time>
      </trkpt>
      <trkpt lat="44.05641" lon="6.86349">
        <ele>1147</ele>
        <time>2017-06-09T13:26:56Z</time>
      </trkpt>
      <trkpt lat="44.05644" lon="6.86344">
        <ele>1133</ele>
        <time>2017-06-09T13:26:56Z</time>
      </trkpt>
      <trkpt lat="44.05645" lon="6.86344">
        <ele>1133</ele>
        <time>2017-06-09T13:32:44Z</time>
      </trkpt>
      <trkpt lat="44.05647" lon="6.86345">
        <ele>1133</ele>
        <time>2017-06-09T13:32:44Z</time>
      </trkpt>
      <trkpt lat="44.05649" lon="6.86345">
        <ele>1133</ele>
        <time>2017-06-09T13:32:44Z</time>
      </trkpt>
      <trkpt lat="44.05651" lon="6.86345">
        <ele>1133</ele>
        <time>2017-06-09T13:32:44Z</time>
      </trkpt>
      <trkpt lat="44.05654" lon="6.86349">
        <ele>1147</ele>
        <time>2017-06-09T13:32:44Z</time>
      </trkpt>
      <trkpt lat="44.05655" lon="6.86348">
        <ele>1147</ele>
        <time>2017-06-09T13:32:57Z</time>
      </trkpt>
      <trkpt lat="44.05657" lon="6.86352">
        <ele>1147</ele>
        <time>2017-06-09T13:32:57Z</time>
      </trkpt>
      <trkpt lat="44.05662" lon="6.86358">
        <ele>1147</ele>
        <time>2017-06-09T13:32:57Z</time>
      </trkpt>
      <trkpt lat="44.0566" lon="6.86361">
        <ele>1147</ele>
        <time>2017-06-09T13:32:57Z</time>
      </trkpt>
      <trkpt lat="44.05662" lon="6.86364">
        <ele>1147</ele>
        <time>2017-06-09T13:33:20Z</time>
      </trkpt>
      <trkpt lat="44.05663" lon="6.86364">
        <ele>1147</ele>
        <time>2017-06-09T13:33:20Z</time>
      </trkpt>
      <trkpt lat="44.05666" lon="6.86364">
        <ele>1147</ele>
        <time>2017-06-09T13:33:20Z</time>
      </trkpt>
      <trkpt lat="44.0567" lon="6.86369">
        <ele>1147</ele>
        <time>2017-06-09T13:33:20Z</time>
      </trkpt>
      <trkpt lat="44.05678" lon="6.86368">
        <ele>1147</ele>
        <time>2017-06-09T13:33:20Z</time>
      </trkpt>
      <trkpt lat="44.05681" lon="6.86368">
        <ele>1148</ele>
        <time>2017-06-09T13:33:32Z</time>
      </trkpt>
      <trkpt lat="44.05685" lon="6.86368">
        <ele>1148</ele>
        <time>2017-06-09T13:33:32Z</time>
      </trkpt>
      <trkpt lat="44.0569" lon="6.86368">
        <ele>1148</ele>
        <time>2017-06-09T13:33:32Z</time>
      </trkpt>
      <trkpt lat="44.05696" lon="6.86363">
        <ele>1148</ele>
        <time>2017-06-09T13:33:32Z</time>
      </trkpt>
      <trkpt lat="44.05699" lon="6.86363">
        <ele>1148</ele>
        <time>2017-06-09T13:33:48Z</time>
      </trkpt>
      <trkpt lat="44.05706" lon="6.86363">
        <ele>1148</ele>
        <time>2017-06-09T13:33:48Z</time>
      </trkpt>
      <trkpt lat="44.05706" lon="6.86363">
        <ele>1148</ele>
        <time>2017-06-09T13:33:48Z</time>
      </trkpt>
      <trkpt lat="44.05711" lon="6.8636">
        <ele>1151</ele>
        <time>2017-06-09T13:33:48Z</time>
      </trkpt>
      <trkpt lat="44.05714" lon="6.86356">
        <ele>1151</ele>
        <time>2017-06-09T13:34:05Z</time>
      </trkpt>
      <trkpt lat="44.05722" lon="6.86349">
        <ele>1151</ele>
        <time>2017-06-09T13:34:05Z</time>
      </trkpt>
      <trkpt lat="44.05728" lon="6.86343">
        <ele>1139</ele>
        <time>2017-06-09T13:34:05Z</time>
      </trkpt>
      <trkpt lat="44.05729" lon="6.86343">
        <ele>1139</ele>
        <time>2017-06-09T13:34:05Z</time>
      </trkpt>
      <trkpt lat="44.05735" lon="6.8634">
        <ele>1139</ele>
        <time>2017-06-09T13:34:21Z</time>
      </trkpt>
      <trkpt lat="44.05737" lon="6.86339">
        <ele>1141</ele>
        <time>2017-06-09T13:34:21Z</time>
      </trkpt>
      <trkpt lat="44.05744" lon="6.8633">
        <ele>1141</ele>
        <time>2017-06-09T13:34:21Z</time>
      </trkpt>
      <trkpt lat="44.05746" lon="6.86329">
        <ele>1141</ele>
        <time>2017-06-09T13:34:21Z</time>
      </trkpt>
      <trkpt lat="44.05749" lon="6.86327">
        <ele>1141</ele>
        <time>2017-06-09T13:34:45Z</time>
      </trkpt>
      <trkpt lat="44.05754" lon="6.86335">
        <ele>1141</ele>
        <time>2017-06-09T13:34:45Z</time>
      </trkpt>
      <trkpt lat="44.05764" lon="6.86332">
        <ele>1141</ele>
        <time>2017-06-09T13:34:45Z</time>
      </trkpt>
      <trkpt lat="44.05769" lon="6.86334">
        <ele>1144</ele>
        <time>2017-06-09T13:34:45Z</time>
      </trkpt>
      <trkpt lat="44.05774" lon="6.86335">
        <ele>1144</ele>
        <time>2017-06-09T13:35:00Z</time>
      </trkpt>
      <trkpt lat="44.05778" lon="6.86333">
        <ele>1144</ele>
        <time>2017-06-09T13:35:00Z</time>
      </trkpt>
      <trkpt lat="44.05782" lon="6.86332">
        <ele>1144</ele>
        <time>2017-06-09T13:35:00Z</time>
      </trkpt>
      <trkpt lat="44.05786" lon="6.86328">
        <ele>1144</ele>
        <time>2017-06-09T13:35:00Z</time>
      </trkpt>
      <trkpt lat="44.05791" lon="6.86324">
        <ele>1144</ele>
        <time>2017-06-09T13:35:21Z</time>
      </trkpt>
      <trkpt lat="44.05798" lon="6.86323">
        <ele>1143</ele>
        <time>2017-06-09T13:35:21Z</time>
      </trkpt>
      <trkpt lat="44.05811" lon="6.86324">
        <ele>1143</ele>
        <time>2017-06-09T13:35:21Z</time>
      </trkpt>
      <trkpt lat="44.05812" lon="6.86322">
        <ele>1143</ele>
        <time>2017-06-09T13:35:21Z</time>
      </trkpt>
      <trkpt lat="44.05818" lon="6.86319">
        <ele>1128</ele>
        <time>2017-06-09T13:35:39Z</time>
      </trkpt>
      <trkpt lat="44.05826" lon="6.86308">
        <ele>1130</ele>
        <time>2017-06-09T13:35:39Z</time>
      </trkpt>
      <trkpt lat="44.05828" lon="6.86307">
        <ele>1130</ele>
        <time>2017-06-09T13:35:39Z</time>
      </trkpt>
      <trkpt lat="44.05835" lon="6.8631">
        <ele>1130</ele>
        <time>2017-06-09T13:35:40Z</time>
      </trkpt>
      <trkpt lat="44.05835" lon="6.86315">
        <ele>1130</ele>
        <time>2017-06-09T13:35:52Z</time>
      </trkpt>
      <trkpt lat="44.05841" lon="6.86309">
        <ele>1130</ele>
        <time>2017-06-09T13:35:52Z</time>
      </trkpt>
      <trkpt lat="44.05846" lon="6.86306">
        <ele>1130</ele>
        <time>2017-06-09T13:35:52Z</time>
      </trkpt>
      <trkpt lat="44.0585" lon="6.86305">
        <ele>1133</ele>
        <time>2017-06-09T13:35:52Z</time>
      </trkpt>
      <trkpt lat="44.05854" lon="6.86299">
        <ele>1133</ele>
        <time>2017-06-09T13:36:11Z</time>
      </trkpt>
      <trkpt lat="44.05858" lon="6.86287">
        <ele>1123</ele>
        <time>2017-06-09T13:36:11Z</time>
      </trkpt>
      <trkpt lat="44.05864" lon="6.86279">
        <ele>1123</ele>
        <time>2017-06-09T13:36:11Z</time>
      </trkpt>
      <trkpt lat="44.0587" lon="6.86269">
        <ele>1123</ele>
        <time>2017-06-09T13:36:11Z</time>
      </trkpt>
      <trkpt lat="44.05872" lon="6.8626">
        <ele>1113</ele>
        <time>2017-06-09T13:36:29Z</time>
      </trkpt>
      <trkpt lat="44.05874" lon="6.8626">
        <ele>1113</ele>
        <time>2017-06-09T13:36:29Z</time>
      </trkpt>
      <trkpt lat="44.05879" lon="6.86256">
        <ele>1117</ele>
        <time>2017-06-09T13:36:29Z</time>
      </trkpt>
      <trkpt lat="44.05882" lon="6.86256">
        <ele>1117</ele>
        <time>2017-06-09T13:36:30Z</time>
      </trkpt>
      <trkpt lat="44.05886" lon="6.86253">
        <ele>1117</ele>
        <time>2017-06-09T13:36:52Z</time>
      </trkpt>
      <trkpt lat="44.05894" lon="6.86248">
        <ele>1117</ele>
        <time>2017-06-09T13:36:52Z</time>
      </trkpt>
      <trkpt lat="44.05903" lon="6.86248">
        <ele>1116</ele>
        <time>2017-06-09T13:36:52Z</time>
      </trkpt>
      <trkpt lat="44.05907" lon="6.86249">
        <ele>1116</ele>
        <time>2017-06-09T13:36:52Z</time>
      </trkpt>
      <trkpt lat="44.05914" lon="6.86251">
        <ele>1116</ele>
        <time>2017-06-09T13:37:16Z</time>
      </trkpt>
      <trkpt lat="44.0592" lon="6.86252">
        <ele>1116</ele>
        <time>2017-06-09T13:37:16Z</time>
      </trkpt>
      <trkpt lat="44.0592" lon="6.8625">
        <ele>1116</ele>
        <time>2017-06-09T13:37:17Z</time>
      </trkpt>
      <trkpt lat="44.05918" lon="6.86234">
        <ele>1109</ele>
        <time>2017-06-09T13:37:17Z</time>
      </trkpt>
      <trkpt lat="44.0592" lon="6.86233">
        <ele>1109</ele>
        <time>2017-06-09T13:37:33Z</time>
      </trkpt>
      <trkpt lat="44.05923" lon="6.86235">
        <ele>1109</ele>
        <time>2017-06-09T13:37:33Z</time>
      </trkpt>
      <trkpt lat="44.05925" lon="6.86239">
        <ele>1116</ele>
        <time>2017-06-09T13:37:33Z</time>
      </trkpt>
      <trkpt lat="44.05926" lon="6.86242">
        <ele>1116</ele>
        <time>2017-06-09T13:37:33Z</time>
      </trkpt>
      <trkpt lat="44.05928" lon="6.86245">
        <ele>1116</ele>
        <time>2017-06-09T13:37:34Z</time>
      </trkpt>
      <trkpt lat="44.05932" lon="6.86247">
        <ele>1109</ele>
        <time>2017-06-09T13:37:52Z</time>
      </trkpt>
      <trkpt lat="44.05943" lon="6.86245">
        <ele>1109</ele>
        <time>2017-06-09T13:37:52Z</time>
      </trkpt>
      <trkpt lat="44.05946" lon="6.8624">
        <ele>1109</ele>
        <time>2017-06-09T13:37:52Z</time>
      </trkpt>
      <trkpt lat="44.05948" lon="6.86239">
        <ele>1109</ele>
        <time>2017-06-09T13:37:52Z</time>
      </trkpt>
      <trkpt lat="44.05953" lon="6.86236">
        <ele>1102</ele>
        <time>2017-06-09T13:38:13Z</time>
      </trkpt>
      <trkpt lat="44.05963" lon="6.86239">
        <ele>1102</ele>
        <time>2017-06-09T13:38:13Z</time>
      </trkpt>
      <trkpt lat="44.05965" lon="6.86246">
        <ele>1102</ele>
        <time>2017-06-09T13:38:13Z</time>
      </trkpt>
      <trkpt lat="44.05966" lon="6.86248">
        <ele>1102</ele>
        <time>2017-06-09T13:38:13Z</time>
      </trkpt>
      <trkpt lat="44.0597" lon="6.86255">
        <ele>1102</ele>
        <time>2017-06-09T13:38:34Z</time>
      </trkpt>
      <trkpt lat="44.05975" lon="6.86259">
        <ele>1102</ele>
        <time>2017-06-09T13:38:34Z</time>
      </trkpt>
      <trkpt lat="44.05975" lon="6.86263">
        <ele>1102</ele>
        <time>2017-06-09T13:38:34Z</time>
      </trkpt>
      <trkpt lat="44.05976" lon="6.86264">
        <ele>1102</ele>
        <time>2017-06-09T13:38:34Z</time>
      </trkpt>
      <trkpt lat="44.05975" lon="6.86265">
        <ele>1108</ele>
        <time>2017-06-09T13:38:34Z</time>
      </trkpt>
      <trkpt lat="44.05975" lon="6.86266">
        <ele>1108</ele>
        <time>2017-06-09T13:39:08Z</time>
      </trkpt>
      <trkpt lat="44.05975" lon="6.86266">
        <ele>1108</ele>
        <time>2017-06-09T13:39:08Z</time>
      </trkpt>
      <trkpt lat="44.05975" lon="6.86266">
        <ele>1108</ele>
        <time>2017-06-09T13:39:08Z</time>
      </trkpt>
      <trkpt lat="44.05981" lon="6.8627">
        <ele>1108</ele>
        <time>2017-06-09T13:39:08Z</time>
      </trkpt>
      <trkpt lat="44.05984" lon="6.86271">
        <ele>1108</ele>
        <time>2017-06-09T13:39:08Z</time>
      </trkpt>
      <trkpt lat="44.05992" lon="6.86277">
        <ele>1101</ele>
        <time>2017-06-09T13:39:25Z</time>
      </trkpt>
      <trkpt lat="44.05996" lon="6.86281">
        <ele>1101</ele>
        <time>2017-06-09T13:39:25Z</time>
      </trkpt>
      <trkpt lat="44.05996" lon="6.86282">
        <ele>1101</ele>
        <time>2017-06-09T13:39:25Z</time>
      </trkpt>
      <trkpt lat="44.05999" lon="6.86288">
        <ele>1101</ele>
        <time>2017-06-09T13:39:25Z</time>
      </trkpt>
      <trkpt lat="44.06004" lon="6.86295">
        <ele>1103</ele>
        <time>2017-06-09T13:39:42Z</time>
      </trkpt>
      <trkpt lat="44.06008" lon="6.86303">
        <ele>1103</ele>
        <time>2017-06-09T13:39:42Z</time>
      </trkpt>
      <trkpt lat="44.06013" lon="6.86311">
        <ele>1103</ele>
        <time>2017-06-09T13:39:42Z</time>
      </trkpt>
      <trkpt lat="44.06018" lon="6.86315">
        <ele>1095</ele>
        <time>2017-06-09T13:39:42Z</time>
      </trkpt>
      <trkpt lat="44.06022" lon="6.86319">
        <ele>1095</ele>
        <time>2017-06-09T13:40:00Z</time>
      </trkpt>
      <trkpt lat="44.06026" lon="6.86316">
        <ele>1095</ele>
        <time>2017-06-09T13:40:00Z</time>
      </trkpt>
      <trkpt lat="44.06029" lon="6.86317">
        <ele>1095</ele>
        <time>2017-06-09T13:40:00Z</time>
      </trkpt>
      <trkpt lat="44.06031" lon="6.86317">
        <ele>1095</ele>
        <time>2017-06-09T13:40:00Z</time>
      </trkpt>
      <trkpt lat="44.06036" lon="6.86318">
        <ele>1095</ele>
        <time>2017-06-09T13:40:00Z</time>
      </trkpt>
      <trkpt lat="44.06041" lon="6.86319">
        <ele>1095</ele>
        <time>2017-06-09T13:40:17Z</time>
      </trkpt>
      <trkpt lat="44.06046" lon="6.86322">
        <ele>1092</ele>
        <time>2017-06-09T13:40:17Z</time>
      </trkpt>
      <trkpt lat="44.06048" lon="6.86324">
        <ele>1092</ele>
        <time>2017-06-09T13:40:17Z</time>
      </trkpt>
      <trkpt lat="44.0605" lon="6.86324">
        <ele>1092</ele>
        <time>2017-06-09T13:40:17Z</time>
      </trkpt>
      <trkpt lat="44.06055" lon="6.86324">
        <ele>1092</ele>
        <time>2017-06-09T13:40:34Z</time>
      </trkpt>
      <trkpt lat="44.06055" lon="6.86325">
        <ele>1092</ele>
        <time>2017-06-09T13:40:34Z</time>
      </trkpt>
      <trkpt lat="44.0606" lon="6.86326">
        <ele>1092</ele>
        <time>2017-06-09T13:40:34Z</time>
      </trkpt>
      <trkpt lat="44.06065" lon="6.86329">
        <ele>1092</ele>
        <time>2017-06-09T13:40:34Z</time>
      </trkpt>
      <trkpt lat="44.06067" lon="6.86332">
        <ele>1092</ele>
        <time>2017-06-09T13:40:50Z</time>
      </trkpt>
      <trkpt lat="44.06083" lon="6.86335">
        <ele>1084</ele>
        <time>2017-06-09T13:40:50Z</time>
      </trkpt>
      <trkpt lat="44.06083" lon="6.86339">
        <ele>1084</ele>
        <time>2017-06-09T13:40:50Z</time>
      </trkpt>
      <trkpt lat="44.06083" lon="6.86344">
        <ele>1084</ele>
        <time>2017-06-09T13:40:51Z</time>
      </trkpt>
      <trkpt lat="44.06081" lon="6.86345">
        <ele>1084</ele>
        <time>2017-06-09T13:41:04Z</time>
      </trkpt>
      <trkpt lat="44.06086" lon="6.8636">
        <ele>1089</ele>
        <time>2017-06-09T13:41:04Z</time>
      </trkpt>
      <trkpt lat="44.06087" lon="6.86361">
        <ele>1089</ele>
        <time>2017-06-09T13:41:04Z</time>
      </trkpt>
      <trkpt lat="44.06092" lon="6.86367">
        <ele>1089</ele>
        <time>2017-06-09T13:41:04Z</time>
      </trkpt>
      <trkpt lat="44.061" lon="6.86373">
        <ele>1081</ele>
        <time>2017-06-09T13:41:20Z</time>
      </trkpt>
      <trkpt lat="44.06106" lon="6.86377">
        <ele>1088</ele>
        <time>2017-06-09T13:41:20Z</time>
      </trkpt>
      <trkpt lat="44.06108" lon="6.8638">
        <ele>1088</ele>
        <time>2017-06-09T13:41:20Z</time>
      </trkpt>
      <trkpt lat="44.06113" lon="6.86382">
        <ele>1088</ele>
        <time>2017-06-09T13:41:20Z</time>
      </trkpt>
      <trkpt lat="44.06118" lon="6.86382">
        <ele>1088</ele>
        <time>2017-06-09T13:41:38Z</time>
      </trkpt>
      <trkpt lat="44.06124" lon="6.86378">
        <ele>1088</ele>
        <time>2017-06-09T13:41:38Z</time>
      </trkpt>
      <trkpt lat="44.06127" lon="6.86378">
        <ele>1086</ele>
        <time>2017-06-09T13:41:38Z</time>
      </trkpt>
      <trkpt lat="44.06131" lon="6.86374">
        <ele>1076</ele>
        <time>2017-06-09T13:41:38Z</time>
      </trkpt>
      <trkpt lat="44.06135" lon="6.86375">
        <ele>1076</ele>
        <time>2017-06-09T13:41:53Z</time>
      </trkpt>
      <trkpt lat="44.06143" lon="6.86369">
        <ele>1076</ele>
        <time>2017-06-09T13:41:53Z</time>
      </trkpt>
      <trkpt lat="44.06144" lon="6.86364">
        <ele>1076</ele>
        <time>2017-06-09T13:41:54Z</time>
      </trkpt>
      <trkpt lat="44.06145" lon="6.86361">
        <ele>1076</ele>
        <time>2017-06-09T13:41:54Z</time>
      </trkpt>
      <trkpt lat="44.06148" lon="6.86353">
        <ele>1076</ele>
        <time>2017-06-09T13:42:11Z</time>
      </trkpt>
      <trkpt lat="44.06152" lon="6.86351">
        <ele>1076</ele>
        <time>2017-06-09T13:42:11Z</time>
      </trkpt>
      <trkpt lat="44.06153" lon="6.86346">
        <ele>1068</ele>
        <time>2017-06-09T13:42:11Z</time>
      </trkpt>
      <trkpt lat="44.0616" lon="6.8634">
        <ele>1068</ele>
        <time>2017-06-09T13:42:11Z</time>
      </trkpt>
      <trkpt lat="44.0616" lon="6.86338">
        <ele>1068</ele>
        <time>2017-06-09T13:42:24Z</time>
      </trkpt>
      <trkpt lat="44.06167" lon="6.86329">
        <ele>1068</ele>
        <time>2017-06-09T13:42:24Z</time>
      </trkpt>
      <trkpt lat="44.06167" lon="6.86325">
        <ele>1068</ele>
        <time>2017-06-09T13:42:24Z</time>
      </trkpt>
      <trkpt lat="44.0617" lon="6.86322">
        <ele>1068</ele>
        <time>2017-06-09T13:42:24Z</time>
      </trkpt>
      <trkpt lat="44.06176" lon="6.86319">
        <ele>1060</ele>
        <time>2017-06-09T13:42:40Z</time>
      </trkpt>
      <trkpt lat="44.0618" lon="6.86316">
        <ele>1060</ele>
        <time>2017-06-09T13:42:40Z</time>
      </trkpt>
      <trkpt lat="44.06183" lon="6.86309">
        <ele>1062</ele>
        <time>2017-06-09T13:42:40Z</time>
      </trkpt>
      <trkpt lat="44.06188" lon="6.86304">
        <ele>1062</ele>
        <time>2017-06-09T13:42:40Z</time>
      </trkpt>
      <trkpt lat="44.06194" lon="6.86294">
        <ele>1062</ele>
        <time>2017-06-09T13:42:57Z</time>
      </trkpt>
      <trkpt lat="44.06194" lon="6.86287">
        <ele>1055</ele>
        <time>2017-06-09T13:42:57Z</time>
      </trkpt>
      <trkpt lat="44.06196" lon="6.8628">
        <ele>1055</ele>
        <time>2017-06-09T13:42:57Z</time>
      </trkpt>
      <trkpt lat="44.06199" lon="6.86277">
        <ele>1055</ele>
        <time>2017-06-09T13:42:57Z</time>
      </trkpt>
      <trkpt lat="44.06204" lon="6.86268">
        <ele>1055</ele>
        <time>2017-06-09T13:43:12Z</time>
      </trkpt>
      <trkpt lat="44.06205" lon="6.86271">
        <ele>1055</ele>
        <time>2017-06-09T13:43:12Z</time>
      </trkpt>
      <trkpt lat="44.06212" lon="6.86266">
        <ele>1056</ele>
        <time>2017-06-09T13:43:13Z</time>
      </trkpt>
      <trkpt lat="44.06213" lon="6.86265">
        <ele>1056</ele>
        <time>2017-06-09T13:43:13Z</time>
      </trkpt>
      <trkpt lat="44.06215" lon="6.86264">
        <ele>1056</ele>
        <time>2017-06-09T13:43:29Z</time>
      </trkpt>
      <trkpt lat="44.06219" lon="6.86263">
        <ele>1048</ele>
        <time>2017-06-09T13:43:29Z</time>
      </trkpt>
      <trkpt lat="44.06222" lon="6.86258">
        <ele>1048</ele>
        <time>2017-06-09T13:43:29Z</time>
      </trkpt>
      <trkpt lat="44.06228" lon="6.86256">
        <ele>1048</ele>
        <time>2017-06-09T13:43:30Z</time>
      </trkpt>
      <trkpt lat="44.0623" lon="6.86249">
        <ele>1048</ele>
        <time>2017-06-09T13:43:45Z</time>
      </trkpt>
      <trkpt lat="44.06235" lon="6.86243">
        <ele>1048</ele>
        <time>2017-06-09T13:43:45Z</time>
      </trkpt>
      <trkpt lat="44.06238" lon="6.86241">
        <ele>1048</ele>
        <time>2017-06-09T13:43:45Z</time>
      </trkpt>
      <trkpt lat="44.06245" lon="6.86239">
        <ele>1048</ele>
        <time>2017-06-09T13:43:45Z</time>
      </trkpt>
      <trkpt lat="44.06247" lon="6.86241">
        <ele>1048</ele>
        <time>2017-06-09T13:44:00Z</time>
      </trkpt>
      <trkpt lat="44.06248" lon="6.8624">
        <ele>1048</ele>
        <time>2017-06-09T13:44:00Z</time>
      </trkpt>
      <trkpt lat="44.06254" lon="6.8624">
        <ele>1048</ele>
        <time>2017-06-09T13:44:00Z</time>
      </trkpt>
      <trkpt lat="44.06257" lon="6.8624">
        <ele>1048</ele>
        <time>2017-06-09T13:44:00Z</time>
      </trkpt>
      <trkpt lat="44.06266" lon="6.86241">
        <ele>1043</ele>
        <time>2017-06-09T13:44:21Z</time>
      </trkpt>
      <trkpt lat="44.06265" lon="6.86243">
        <ele>1043</ele>
        <time>2017-06-09T13:44:21Z</time>
      </trkpt>
      <trkpt lat="44.06268" lon="6.86238">
        <ele>1043</ele>
        <time>2017-06-09T13:44:21Z</time>
      </trkpt>
      <trkpt lat="44.06271" lon="6.8624">
        <ele>1043</ele>
        <time>2017-06-09T13:44:21Z</time>
      </trkpt>
      <trkpt lat="44.06276" lon="6.8624">
        <ele>1043</ele>
        <time>2017-06-09T13:44:21Z</time>
      </trkpt>
      <trkpt lat="44.06277" lon="6.86239">
        <ele>1043</ele>
        <time>2017-06-09T13:44:36Z</time>
      </trkpt>
      <trkpt lat="44.06283" lon="6.86236">
        <ele>1043</ele>
        <time>2017-06-09T13:44:36Z</time>
      </trkpt>
      <trkpt lat="44.06288" lon="6.86235">
        <ele>1038</ele>
        <time>2017-06-09T13:44:36Z</time>
      </trkpt>
      <trkpt lat="44.06293" lon="6.86237">
        <ele>1034</ele>
        <time>2017-06-09T13:44:36Z</time>
      </trkpt>
      <trkpt lat="44.06299" lon="6.86236">
        <ele>1034</ele>
        <time>2017-06-09T13:44:53Z</time>
      </trkpt>
      <trkpt lat="44.06298" lon="6.86232">
        <ele>1031</ele>
        <time>2017-06-09T13:44:53Z</time>
      </trkpt>
      <trkpt lat="44.06304" lon="6.86225">
        <ele>1031</ele>
        <time>2017-06-09T13:44:53Z</time>
      </trkpt>
      <trkpt lat="44.06308" lon="6.86223">
        <ele>1031</ele>
        <time>2017-06-09T13:44:53Z</time>
      </trkpt>
      <trkpt lat="44.0631" lon="6.86221">
        <ele>1031</ele>
        <time>2017-06-09T13:45:11Z</time>
      </trkpt>
      <trkpt lat="44.0631" lon="6.86223">
        <ele>1031</ele>
        <time>2017-06-09T13:45:11Z</time>
      </trkpt>
      <trkpt lat="44.06314" lon="6.86226">
        <ele>1031</ele>
        <time>2017-06-09T13:45:11Z</time>
      </trkpt>
      <trkpt lat="44.06321" lon="6.86232">
        <ele>1023</ele>
        <time>2017-06-09T13:45:11Z</time>
      </trkpt>
      <trkpt lat="44.06321" lon="6.86232">
        <ele>1023</ele>
        <time>2017-06-09T13:45:24Z</time>
      </trkpt>
      <trkpt lat="44.0632" lon="6.8624">
        <ele>1024</ele>
        <time>2017-06-09T13:45:24Z</time>
      </trkpt>
      <trkpt lat="44.0632" lon="6.86241">
        <ele>1024</ele>
        <time>2017-06-09T13:45:24Z</time>
      </trkpt>
      <trkpt lat="44.06319" lon="6.86245">
        <ele>1034</ele>
        <time>2017-06-09T13:45:24Z</time>
      </trkpt>
      <trkpt lat="44.06319" lon="6.86257">
        <ele>1034</ele>
        <time>2017-06-09T13:45:47Z</time>
      </trkpt>
      <trkpt lat="44.06321" lon="6.86259">
        <ele>1024</ele>
        <time>2017-06-09T13:45:47Z</time>
      </trkpt>
      <trkpt lat="44.06323" lon="6.86265">
        <ele>1026</ele>
        <time>2017-06-09T13:45:47Z</time>
      </trkpt>
      <trkpt lat="44.06324" lon="6.86267">
        <ele>1026</ele>
        <time>2017-06-09T13:45:48Z</time>
      </trkpt>
      <trkpt lat="44.06328" lon="6.86276">
        <ele>1026</ele>
        <time>2017-06-09T13:45:48Z</time>
      </trkpt>
      <trkpt lat="44.06329" lon="6.86277">
        <ele>1026</ele>
        <time>2017-06-09T13:46:01Z</time>
      </trkpt>
      <trkpt lat="44.06336" lon="6.86286">
        <ele>1026</ele>
        <time>2017-06-09T13:46:01Z</time>
      </trkpt>
      <trkpt lat="44.06338" lon="6.86289">
        <ele>1026</ele>
        <time>2017-06-09T13:46:01Z</time>
      </trkpt>
      <trkpt lat="44.06342" lon="6.86294">
        <ele>1028</ele>
        <time>2017-06-09T13:46:01Z</time>
      </trkpt>
      <trkpt lat="44.06344" lon="6.86296">
        <ele>1028</ele>
        <time>2017-06-09T13:46:16Z</time>
      </trkpt>
      <trkpt lat="44.06347" lon="6.863">
        <ele>1028</ele>
        <time>2017-06-09T13:46:16Z</time>
      </trkpt>
      <trkpt lat="44.06351" lon="6.86305">
        <ele>1018</ele>
        <time>2017-06-09T13:46:16Z</time>
      </trkpt>
      <trkpt lat="44.06352" lon="6.8631">
        <ele>1018</ele>
        <time>2017-06-09T13:46:16Z</time>
      </trkpt>
      <trkpt lat="44.06354" lon="6.86316">
        <ele>1018</ele>
        <time>2017-06-09T13:46:33Z</time>
      </trkpt>
      <trkpt lat="44.06355" lon="6.86324">
        <ele>1019</ele>
        <time>2017-06-09T13:46:33Z</time>
      </trkpt>
      <trkpt lat="44.06357" lon="6.86334">
        <ele>1019</ele>
        <time>2017-06-09T13:46:33Z</time>
      </trkpt>
      <trkpt lat="44.06357" lon="6.86337">
        <ele>1019</ele>
        <time>2017-06-09T13:46:33Z</time>
      </trkpt>
      <trkpt lat="44.06361" lon="6.86344">
        <ele>1019</ele>
        <time>2017-06-09T13:46:50Z</time>
      </trkpt>
      <trkpt lat="44.06361" lon="6.8635">
        <ele>1021</ele>
        <time>2017-06-09T13:46:50Z</time>
      </trkpt>
      <trkpt lat="44.06367" lon="6.86356">
        <ele>1021</ele>
        <time>2017-06-09T13:46:50Z</time>
      </trkpt>
      <trkpt lat="44.06372" lon="6.8636">
        <ele>1021</ele>
        <time>2017-06-09T13:46:50Z</time>
      </trkpt>
      <trkpt lat="44.06375" lon="6.86362">
        <ele>1011</ele>
        <time>2017-06-09T13:47:04Z</time>
      </trkpt>
      <trkpt lat="44.06382" lon="6.86366">
        <ele>1011</ele>
        <time>2017-06-09T13:47:04Z</time>
      </trkpt>
      <trkpt lat="44.06382" lon="6.86366">
        <ele>1011</ele>
        <time>2017-06-09T13:47:04Z</time>
      </trkpt>
      <trkpt lat="44.06385" lon="6.8637">
        <ele>1011</ele>
        <time>2017-06-09T13:47:04Z</time>
      </trkpt>
      <trkpt lat="44.06389" lon="6.86373">
        <ele>1011</ele>
        <time>2017-06-09T13:47:20Z</time>
      </trkpt>
      <trkpt lat="44.06389" lon="6.86376">
        <ele>1013</ele>
        <time>2017-06-09T13:47:20Z</time>
      </trkpt>
      <trkpt lat="44.06398" lon="6.86378">
        <ele>1013</ele>
        <time>2017-06-09T13:47:20Z</time>
      </trkpt>
      <trkpt lat="44.064" lon="6.86379">
        <ele>1013</ele>
        <time>2017-06-09T13:47:20Z</time>
      </trkpt>
      <trkpt lat="44.06405" lon="6.8638">
        <ele>1004</ele>
        <time>2017-06-09T13:47:40Z</time>
      </trkpt>
      <trkpt lat="44.06418" lon="6.86387">
        <ele>1004</ele>
        <time>2017-06-09T13:47:41Z</time>
      </trkpt>
      <trkpt lat="44.06422" lon="6.86393">
        <ele>1004</ele>
        <time>2017-06-09T13:47:42Z</time>
      </trkpt>
      <trkpt lat="44.06422" lon="6.86395">
        <ele>1004</ele>
        <time>2017-06-09T13:47:42Z</time>
      </trkpt>
      <trkpt lat="44.06423" lon="6.86396">
        <ele>1004</ele>
        <time>2017-06-09T13:47:59Z</time>
      </trkpt>
      <trkpt lat="44.06433" lon="6.86406">
        <ele>992</ele>
        <time>2017-06-09T13:47:59Z</time>
      </trkpt>
      <trkpt lat="44.06434" lon="6.86407">
        <ele>992</ele>
        <time>2017-06-09T13:47:59Z</time>
      </trkpt>
      <trkpt lat="44.06439" lon="6.86413">
        <ele>992</ele>
        <time>2017-06-09T13:47:59Z</time>
      </trkpt>
      <trkpt lat="44.0644" lon="6.86415">
        <ele>992</ele>
        <time>2017-06-09T13:48:20Z</time>
      </trkpt>
      <trkpt lat="44.06442" lon="6.86417">
        <ele>992</ele>
        <time>2017-06-09T13:48:20Z</time>
      </trkpt>
      <trkpt lat="44.06445" lon="6.86425">
        <ele>992</ele>
        <time>2017-06-09T13:48:20Z</time>
      </trkpt>
      <trkpt lat="44.0645" lon="6.86436">
        <ele>992</ele>
        <time>2017-06-09T13:48:20Z</time>
      </trkpt>
      <trkpt lat="44.0645" lon="6.86437">
        <ele>992</ele>
        <time>2017-06-09T13:48:32Z</time>
      </trkpt>
      <trkpt lat="44.06451" lon="6.86447">
        <ele>992</ele>
        <time>2017-06-09T13:48:32Z</time>
      </trkpt>
      <trkpt lat="44.06452" lon="6.8645">
        <ele>992</ele>
        <time>2017-06-09T13:48:32Z</time>
      </trkpt>
      <trkpt lat="44.0645" lon="6.86456">
        <ele>992</ele>
        <time>2017-06-09T13:48:32Z</time>
      </trkpt>
      <trkpt lat="44.06449" lon="6.86462">
        <ele>993</ele>
        <time>2017-06-09T13:48:48Z</time>
      </trkpt>
      <trkpt lat="44.06446" lon="6.86467">
        <ele>993</ele>
        <time>2017-06-09T13:48:48Z</time>
      </trkpt>
      <trkpt lat="44.06446" lon="6.8647">
        <ele>993</ele>
        <time>2017-06-09T13:48:48Z</time>
      </trkpt>
      <trkpt lat="44.06447" lon="6.86478">
        <ele>993</ele>
        <time>2017-06-09T13:48:48Z</time>
      </trkpt>
      <trkpt lat="44.06446" lon="6.86487">
        <ele>993</ele>
        <time>2017-06-09T13:49:05Z</time>
      </trkpt>
      <trkpt lat="44.06446" lon="6.86488">
        <ele>993</ele>
        <time>2017-06-09T13:49:05Z</time>
      </trkpt>
      <trkpt lat="44.06452" lon="6.86503">
        <ele>993</ele>
        <time>2017-06-09T13:49:06Z</time>
      </trkpt>
      <trkpt lat="44.06453" lon="6.86505">
        <ele>993</ele>
        <time>2017-06-09T13:49:06Z</time>
      </trkpt>
      <trkpt lat="44.06456" lon="6.86512">
        <ele>993</ele>
        <time>2017-06-09T13:49:23Z</time>
      </trkpt>
      <trkpt lat="44.06464" lon="6.86521">
        <ele>981</ele>
        <time>2017-06-09T13:49:23Z</time>
      </trkpt>
      <trkpt lat="44.06466" lon="6.86526">
        <ele>981</ele>
        <time>2017-06-09T13:49:23Z</time>
      </trkpt>
      <trkpt lat="44.06467" lon="6.86537">
        <ele>981</ele>
        <time>2017-06-09T13:49:23Z</time>
      </trkpt>
      <trkpt lat="44.06467" lon="6.8654">
        <ele>981</ele>
        <time>2017-06-09T13:49:36Z</time>
      </trkpt>
      <trkpt lat="44.06469" lon="6.86547">
        <ele>981</ele>
        <time>2017-06-09T13:49:36Z</time>
      </trkpt>
      <trkpt lat="44.06474" lon="6.86553">
        <ele>981</ele>
        <time>2017-06-09T13:49:36Z</time>
      </trkpt>
      <trkpt lat="44.0648" lon="6.8656">
        <ele>981</ele>
        <time>2017-06-09T13:49:36Z</time>
      </trkpt>
      <trkpt lat="44.0648" lon="6.86566">
        <ele>981</ele>
        <time>2017-06-09T13:49:56Z</time>
      </trkpt>
      <trkpt lat="44.06483" lon="6.8657">
        <ele>979</ele>
        <time>2017-06-09T13:49:56Z</time>
      </trkpt>
      <trkpt lat="44.06486" lon="6.86575">
        <ele>979</ele>
        <time>2017-06-09T13:49:56Z</time>
      </trkpt>
      <trkpt lat="44.06482" lon="6.86583">
        <ele>979</ele>
        <time>2017-06-09T13:49:56Z</time>
      </trkpt>
      <trkpt lat="44.06481" lon="6.86585">
        <ele>979</ele>
        <time>2017-06-09T13:50:11Z</time>
      </trkpt>
      <trkpt lat="44.0648" lon="6.8659">
        <ele>979</ele>
        <time>2017-06-09T13:50:11Z</time>
      </trkpt>
      <trkpt lat="44.06479" lon="6.86592">
        <ele>979</ele>
        <time>2017-06-09T13:50:11Z</time>
      </trkpt>
      <trkpt lat="44.06478" lon="6.866">
        <ele>978</ele>
        <time>2017-06-09T13:50:11Z</time>
      </trkpt>
      <trkpt lat="44.06476" lon="6.866">
        <ele>978</ele>
        <time>2017-06-09T13:50:26Z</time>
      </trkpt>
      <trkpt lat="44.06475" lon="6.86608">
        <ele>978</ele>
        <time>2017-06-09T13:50:26Z</time>
      </trkpt>
      <trkpt lat="44.06476" lon="6.86609">
        <ele>978</ele>
        <time>2017-06-09T13:50:26Z</time>
      </trkpt>
      <trkpt lat="44.06469" lon="6.86615">
        <ele>978</ele>
        <time>2017-06-09T13:50:26Z</time>
      </trkpt>
      <trkpt lat="44.06468" lon="6.86616">
        <ele>978</ele>
        <time>2017-06-09T13:50:40Z</time>
      </trkpt>
      <trkpt lat="44.06465" lon="6.86621">
        <ele>978</ele>
        <time>2017-06-09T13:50:40Z</time>
      </trkpt>
      <trkpt lat="44.06463" lon="6.86624">
        <ele>978</ele>
        <time>2017-06-09T13:50:40Z</time>
      </trkpt>
      <trkpt lat="44.0646" lon="6.86628">
        <ele>975</ele>
        <time>2017-06-09T13:50:40Z</time>
      </trkpt>
      <trkpt lat="44.06458" lon="6.86635">
        <ele>987</ele>
        <time>2017-06-09T13:51:03Z</time>
      </trkpt>
      <trkpt lat="44.06459" lon="6.86639">
        <ele>975</ele>
        <time>2017-06-09T13:51:03Z</time>
      </trkpt>
      <trkpt lat="44.06459" lon="6.86645">
        <ele>975</ele>
        <time>2017-06-09T13:51:03Z</time>
      </trkpt>
      <trkpt lat="44.06459" lon="6.86647">
        <ele>975</ele>
        <time>2017-06-09T13:51:03Z</time>
      </trkpt>
      <trkpt lat="44.06462" lon="6.86657">
        <ele>974</ele>
        <time>2017-06-09T13:51:03Z</time>
      </trkpt>
      <trkpt lat="44.06464" lon="6.86657">
        <ele>974</ele>
        <time>2017-06-09T13:51:24Z</time>
      </trkpt>
      <trkpt lat="44.06467" lon="6.86662">
        <ele>974</ele>
        <time>2017-06-09T13:51:24Z</time>
      </trkpt>
      <trkpt lat="44.06474" lon="6.86671">
        <ele>974</ele>
        <time>2017-06-09T13:51:24Z</time>
      </trkpt>
      <trkpt lat="44.06481" lon="6.86682">
        <ele>974</ele>
        <time>2017-06-09T13:51:24Z</time>
      </trkpt>
      <trkpt lat="44.06483" lon="6.86684">
        <ele>974</ele>
        <time>2017-06-09T13:51:36Z</time>
      </trkpt>
      <trkpt lat="44.06487" lon="6.86686">
        <ele>962</ele>
        <time>2017-06-09T13:51:36Z</time>
      </trkpt>
      <trkpt lat="44.06489" lon="6.86687">
        <ele>962</ele>
        <time>2017-06-09T13:51:36Z</time>
      </trkpt>
      <trkpt lat="44.06495" lon="6.86691">
        <ele>962</ele>
        <time>2017-06-09T13:51:36Z</time>
      </trkpt>
      <trkpt lat="44.06499" lon="6.86697">
        <ele>962</ele>
        <time>2017-06-09T13:51:52Z</time>
      </trkpt>
      <trkpt lat="44.06503" lon="6.86703">
        <ele>962</ele>
        <time>2017-06-09T13:51:52Z</time>
      </trkpt>
      <trkpt lat="44.06506" lon="6.86711">
        <ele>961</ele>
        <time>2017-06-09T13:51:53Z</time>
      </trkpt>
      <trkpt lat="44.0651" lon="6.86715">
        <ele>961</ele>
        <time>2017-06-09T13:51:53Z</time>
      </trkpt>
      <trkpt lat="44.06514" lon="6.86715">
        <ele>950</ele>
        <time>2017-06-09T13:52:08Z</time>
      </trkpt>
      <trkpt lat="44.06517" lon="6.86713">
        <ele>950</ele>
        <time>2017-06-09T13:52:08Z</time>
      </trkpt>
      <trkpt lat="44.06521" lon="6.86713">
        <ele>950</ele>
        <time>2017-06-09T13:52:08Z</time>
      </trkpt>
      <trkpt lat="44.06525" lon="6.86712">
        <ele>950</ele>
        <time>2017-06-09T13:52:08Z</time>
      </trkpt>
      <trkpt lat="44.06528" lon="6.86714">
        <ele>950</ele>
        <time>2017-06-09T13:52:27Z</time>
      </trkpt>
      <trkpt lat="44.06535" lon="6.86719">
        <ele>950</ele>
        <time>2017-06-09T13:52:27Z</time>
      </trkpt>
      <trkpt lat="44.06537" lon="6.8672">
        <ele>950</ele>
        <time>2017-06-09T13:52:27Z</time>
      </trkpt>
      <trkpt lat="44.06542" lon="6.86724">
        <ele>939</ele>
        <time>2017-06-09T13:52:27Z</time>
      </trkpt>
      <trkpt lat="44.06544" lon="6.86724">
        <ele>939</ele>
        <time>2017-06-09T13:52:42Z</time>
      </trkpt>
      <trkpt lat="44.06545" lon="6.86729">
        <ele>939</ele>
        <time>2017-06-09T13:52:42Z</time>
      </trkpt>
      <trkpt lat="44.06548" lon="6.86734">
        <ele>939</ele>
        <time>2017-06-09T13:52:42Z</time>
      </trkpt>
      <trkpt lat="44.06545" lon="6.86741">
        <ele>940</ele>
        <time>2017-06-09T13:52:42Z</time>
      </trkpt>
      <trkpt lat="44.06546" lon="6.86745">
        <ele>940</ele>
        <time>2017-06-09T13:52:59Z</time>
      </trkpt>
      <trkpt lat="44.06549" lon="6.86752">
        <ele>940</ele>
        <time>2017-06-09T13:52:59Z</time>
      </trkpt>
      <trkpt lat="44.06551" lon="6.86755">
        <ele>940</ele>
        <time>2017-06-09T13:53:00Z</time>
      </trkpt>
      <trkpt lat="44.06549" lon="6.86762">
        <ele>940</ele>
        <time>2017-06-09T13:53:00Z</time>
      </trkpt>
      <trkpt lat="44.06551" lon="6.86765">
        <ele>941</ele>
        <time>2017-06-09T13:53:15Z</time>
      </trkpt>
      <trkpt lat="44.06552" lon="6.86771">
        <ele>941</ele>
        <time>2017-06-09T13:53:15Z</time>
      </trkpt>
      <trkpt lat="44.06547" lon="6.86777">
        <ele>941</ele>
        <time>2017-06-09T13:53:15Z</time>
      </trkpt>
      <trkpt lat="44.06546" lon="6.86786">
        <ele>941</ele>
        <time>2017-06-09T13:53:15Z</time>
      </trkpt>
      <trkpt lat="44.06549" lon="6.86789">
        <ele>941</ele>
        <time>2017-06-09T13:55:39Z</time>
      </trkpt>
      <trkpt lat="44.06551" lon="6.86786">
        <ele>941</ele>
        <time>2017-06-09T13:55:39Z</time>
      </trkpt>
      <trkpt lat="44.06565" lon="6.86787">
        <ele>941</ele>
        <time>2017-06-09T13:55:39Z</time>
      </trkpt>
      <trkpt lat="44.06567" lon="6.86787">
        <ele>941</ele>
        <time>2017-06-09T13:55:39Z</time>
      </trkpt>
      <trkpt lat="44.06574" lon="6.86788">
        <ele>933</ele>
        <time>2017-06-09T13:55:39Z</time>
      </trkpt>
      <trkpt lat="44.06574" lon="6.86789">
        <ele>933</ele>
        <time>2017-06-09T13:55:54Z</time>
      </trkpt>
      <trkpt lat="44.06581" lon="6.86787">
        <ele>933</ele>
        <time>2017-06-09T13:55:54Z</time>
      </trkpt>
      <trkpt lat="44.06584" lon="6.86784">
        <ele>933</ele>
        <time>2017-06-09T13:55:54Z</time>
      </trkpt>
      <trkpt lat="44.06589" lon="6.86782">
        <ele>933</ele>
        <time>2017-06-09T13:55:54Z</time>
      </trkpt>
      <trkpt lat="44.06592" lon="6.86782">
        <ele>933</ele>
        <time>2017-06-09T13:56:12Z</time>
      </trkpt>
      <trkpt lat="44.06596" lon="6.86778">
        <ele>933</ele>
        <time>2017-06-09T13:56:12Z</time>
      </trkpt>
      <trkpt lat="44.06599" lon="6.86776">
        <ele>935</ele>
        <time>2017-06-09T13:56:12Z</time>
      </trkpt>
      <trkpt lat="44.06607" lon="6.86771">
        <ele>935</ele>
        <time>2017-06-09T13:56:12Z</time>
      </trkpt>
      <trkpt lat="44.06608" lon="6.86771">
        <ele>935</ele>
        <time>2017-06-09T13:56:27Z</time>
      </trkpt>
      <trkpt lat="44.06614" lon="6.86773">
        <ele>935</ele>
        <time>2017-06-09T13:56:27Z</time>
      </trkpt>
      <trkpt lat="44.06616" lon="6.86774">
        <ele>935</ele>
        <time>2017-06-09T13:56:28Z</time>
      </trkpt>
      <trkpt lat="44.06621" lon="6.86771">
        <ele>935</ele>
        <time>2017-06-09T13:56:28Z</time>
      </trkpt>
      <trkpt lat="44.06622" lon="6.8677">
        <ele>935</ele>
        <time>2017-06-09T13:56:42Z</time>
      </trkpt>
      <trkpt lat="44.06622" lon="6.86762">
        <ele>928</ele>
        <time>2017-06-09T13:56:42Z</time>
      </trkpt>
      <trkpt lat="44.06625" lon="6.86756">
        <ele>928</ele>
        <time>2017-06-09T13:56:42Z</time>
      </trkpt>
      <trkpt lat="44.06626" lon="6.86749">
        <ele>936</ele>
        <time>2017-06-09T13:56:42Z</time>
      </trkpt>
      <trkpt lat="44.06626" lon="6.86749">
        <ele>936</ele>
        <time>2017-06-09T13:57:04Z</time>
      </trkpt>
      <trkpt lat="44.06629" lon="6.86736">
        <ele>928</ele>
        <time>2017-06-09T13:57:04Z</time>
      </trkpt>
      <trkpt lat="44.06636" lon="6.86727">
        <ele>928</ele>
        <time>2017-06-09T13:57:04Z</time>
      </trkpt>
      <trkpt lat="44.0664" lon="6.86721">
        <ele>928</ele>
        <time>2017-06-09T13:57:04Z</time>
      </trkpt>
      <trkpt lat="44.06645" lon="6.86714">
        <ele>928</ele>
        <time>2017-06-09T13:57:22Z</time>
      </trkpt>
      <trkpt lat="44.06652" lon="6.86707">
        <ele>920</ele>
        <time>2017-06-09T13:57:22Z</time>
      </trkpt>
      <trkpt lat="44.06654" lon="6.86701">
        <ele>933</ele>
        <time>2017-06-09T13:57:22Z</time>
      </trkpt>
      <trkpt lat="44.06655" lon="6.86694">
        <ele>933</ele>
        <time>2017-06-09T13:57:22Z</time>
      </trkpt>
      <trkpt lat="44.0666" lon="6.86686">
        <ele>933</ele>
        <time>2017-06-09T13:57:48Z</time>
      </trkpt>
      <trkpt lat="44.06666" lon="6.86682">
        <ele>933</ele>
        <time>2017-06-09T13:57:48Z</time>
      </trkpt>
      <trkpt lat="44.0667" lon="6.8667">
        <ele>926</ele>
        <time>2017-06-09T13:57:48Z</time>
      </trkpt>
      <trkpt lat="44.06671" lon="6.86651">
        <ele>917</ele>
        <time>2017-06-09T13:57:49Z</time>
      </trkpt>
      <trkpt lat="44.06671" lon="6.8665">
        <ele>917</ele>
        <time>2017-06-09T13:58:00Z</time>
      </trkpt>
      <trkpt lat="44.06668" lon="6.86644">
        <ele>917</ele>
        <time>2017-06-09T13:58:00Z</time>
      </trkpt>
      <trkpt lat="44.06669" lon="6.86634">
        <ele>917</ele>
        <time>2017-06-09T13:58:00Z</time>
      </trkpt>
      <trkpt lat="44.0667" lon="6.86633">
        <ele>917</ele>
        <time>2017-06-09T13:58:00Z</time>
      </trkpt>
      <trkpt lat="44.06672" lon="6.86627">
        <ele>917</ele>
        <time>2017-06-09T13:58:24Z</time>
      </trkpt>
      <trkpt lat="44.06678" lon="6.86618">
        <ele>913</ele>
        <time>2017-06-09T13:58:24Z</time>
      </trkpt>
      <trkpt lat="44.06683" lon="6.86604">
        <ele>931</ele>
        <time>2017-06-09T13:58:24Z</time>
      </trkpt>
      <trkpt lat="44.06686" lon="6.86598">
        <ele>931</ele>
        <time>2017-06-09T13:58:24Z</time>
      </trkpt>
      <trkpt lat="44.06689" lon="6.86591">
        <ele>924</ele>
        <time>2017-06-09T13:58:52Z</time>
      </trkpt>
      <trkpt lat="44.06695" lon="6.86579">
        <ele>924</ele>
        <time>2017-06-09T13:58:52Z</time>
      </trkpt>
      <trkpt lat="44.06703" lon="6.86571">
        <ele>924</ele>
        <time>2017-06-09T13:58:52Z</time>
      </trkpt>
      <trkpt lat="44.06709" lon="6.86558">
        <ele>929</ele>
        <time>2017-06-09T13:58:52Z</time>
      </trkpt>
      <trkpt lat="44.0671" lon="6.86554">
        <ele>929</ele>
        <time>2017-06-09T13:59:04Z</time>
      </trkpt>
      <trkpt lat="44.06712" lon="6.86545">
        <ele>929</ele>
        <time>2017-06-09T13:59:04Z</time>
      </trkpt>
      <trkpt lat="44.06714" lon="6.86543">
        <ele>929</ele>
        <time>2017-06-09T13:59:04Z</time>
      </trkpt>
      <trkpt lat="44.06716" lon="6.8654">
        <ele>925</ele>
        <time>2017-06-09T13:59:04Z</time>
      </trkpt>
      <trkpt lat="44.06719" lon="6.86532">
        <ele>925</ele>
        <time>2017-06-09T13:59:20Z</time>
      </trkpt>
      <trkpt lat="44.06717" lon="6.86524">
        <ele>925</ele>
        <time>2017-06-09T13:59:20Z</time>
      </trkpt>
      <trkpt lat="44.06714" lon="6.86518">
        <ele>925</ele>
        <time>2017-06-09T13:59:20Z</time>
      </trkpt>
      <trkpt lat="44.06712" lon="6.86514">
        <ele>920</ele>
        <time>2017-06-09T13:59:20Z</time>
      </trkpt>
      <trkpt lat="44.06712" lon="6.86508">
        <ele>920</ele>
        <time>2017-06-09T13:59:36Z</time>
      </trkpt>
      <trkpt lat="44.0671" lon="6.865">
        <ele>920</ele>
        <time>2017-06-09T13:59:36Z</time>
      </trkpt>
      <trkpt lat="44.0671" lon="6.86494">
        <ele>920</ele>
        <time>2017-06-09T13:59:36Z</time>
      </trkpt>
      <trkpt lat="44.0671" lon="6.86489">
        <ele>920</ele>
        <time>2017-06-09T13:59:36Z</time>
      </trkpt>
      <trkpt lat="44.06711" lon="6.86481">
        <ele>913</ele>
        <time>2017-06-09T13:59:52Z</time>
      </trkpt>
      <trkpt lat="44.06708" lon="6.86464">
        <ele>895</ele>
        <time>2017-06-09T13:59:52Z</time>
      </trkpt>
      <trkpt lat="44.06707" lon="6.86456">
        <ele>889</ele>
        <time>2017-06-09T13:59:53Z</time>
      </trkpt>
      <trkpt lat="44.06707" lon="6.86454">
        <ele>889</ele>
        <time>2017-06-09T13:59:53Z</time>
      </trkpt>
      <trkpt lat="44.0671" lon="6.86451">
        <ele>904</ele>
        <time>2017-06-09T14:00:11Z</time>
      </trkpt>
      <trkpt lat="44.06715" lon="6.86448">
        <ele>904</ele>
        <time>2017-06-09T14:00:11Z</time>
      </trkpt>
      <trkpt lat="44.06715" lon="6.86446">
        <ele>904</ele>
        <time>2017-06-09T14:00:11Z</time>
      </trkpt>
      <trkpt lat="44.06719" lon="6.86437">
        <ele>904</ele>
        <time>2017-06-09T14:00:11Z</time>
      </trkpt>
      <trkpt lat="44.06718" lon="6.86436">
        <ele>904</ele>
        <time>2017-06-09T14:00:24Z</time>
      </trkpt>
      <trkpt lat="44.06723" lon="6.86423">
        <ele>896</ele>
        <time>2017-06-09T14:00:24Z</time>
      </trkpt>
      <trkpt lat="44.06725" lon="6.86417">
        <ele>896</ele>
        <time>2017-06-09T14:00:24Z</time>
      </trkpt>
      <trkpt lat="44.06727" lon="6.86418">
        <ele>896</ele>
        <time>2017-06-09T14:00:24Z</time>
      </trkpt>
      <trkpt lat="44.06732" lon="6.86415">
        <ele>896</ele>
        <time>2017-06-09T14:00:40Z</time>
      </trkpt>
      <trkpt lat="44.06736" lon="6.86416">
        <ele>896</ele>
        <time>2017-06-09T14:00:40Z</time>
      </trkpt>
      <trkpt lat="44.0674" lon="6.86413">
        <ele>905</ele>
        <time>2017-06-09T14:00:40Z</time>
      </trkpt>
      <trkpt lat="44.06745" lon="6.8641">
        <ele>905</ele>
        <time>2017-06-09T14:00:40Z</time>
      </trkpt>
      <trkpt lat="44.06751" lon="6.86411">
        <ele>905</ele>
        <time>2017-06-09T14:00:59Z</time>
      </trkpt>
      <trkpt lat="44.06758" lon="6.86405">
        <ele>905</ele>
        <time>2017-06-09T14:00:59Z</time>
      </trkpt>
      <trkpt lat="44.06761" lon="6.86405">
        <ele>905</ele>
        <time>2017-06-09T14:00:59Z</time>
      </trkpt>
      <trkpt lat="44.06769" lon="6.8639">
        <ele>912</ele>
        <time>2017-06-09T14:01:00Z</time>
      </trkpt>
      <trkpt lat="44.06774" lon="6.86384">
        <ele>912</ele>
        <time>2017-06-09T14:01:28Z</time>
      </trkpt>
      <trkpt lat="44.06781" lon="6.86381">
        <ele>912</ele>
        <time>2017-06-09T14:01:28Z</time>
      </trkpt>
      <trkpt lat="44.06775" lon="6.86372">
        <ele>907</ele>
        <time>2017-06-09T14:01:28Z</time>
      </trkpt>
      <trkpt lat="44.06766" lon="6.86355">
        <ele>907</ele>
        <time>2017-06-09T14:01:28Z</time>
      </trkpt>
      <trkpt lat="44.06765" lon="6.86352">
        <ele>907</ele>
        <time>2017-06-09T14:01:40Z</time>
      </trkpt>
      <trkpt lat="44.06764" lon="6.86343">
        <ele>903</ele>
        <time>2017-06-09T14:01:40Z</time>
      </trkpt>
      <trkpt lat="44.06761" lon="6.8634">
        <ele>887</ele>
        <time>2017-06-09T14:01:40Z</time>
      </trkpt>
      <trkpt lat="44.0676" lon="6.86333">
        <ele>887</ele>
        <time>2017-06-09T14:01:40Z</time>
      </trkpt>
      <trkpt lat="44.06759" lon="6.86321">
        <ele>887</ele>
        <time>2017-06-09T14:01:56Z</time>
      </trkpt>
      <trkpt lat="44.0676" lon="6.86313">
        <ele>881</ele>
        <time>2017-06-09T14:01:56Z</time>
      </trkpt>
      <trkpt lat="44.06764" lon="6.86307">
        <ele>896</ele>
        <time>2017-06-09T14:01:56Z</time>
      </trkpt>
      <trkpt lat="44.06764" lon="6.86306">
        <ele>896</ele>
        <time>2017-06-09T14:01:57Z</time>
      </trkpt>
      <trkpt lat="44.06765" lon="6.863">
        <ele>896</ele>
        <time>2017-06-09T14:02:20Z</time>
      </trkpt>
      <trkpt lat="44.06765" lon="6.86299">
        <ele>896</ele>
        <time>2017-06-09T14:02:20Z</time>
      </trkpt>
      <trkpt lat="44.0677" lon="6.86287">
        <ele>889</ele>
        <time>2017-06-09T14:02:20Z</time>
      </trkpt>
      <trkpt lat="44.06775" lon="6.86271">
        <ele>889</ele>
        <time>2017-06-09T14:02:20Z</time>
      </trkpt>
      <trkpt lat="44.06776" lon="6.86269">
        <ele>889</ele>
        <time>2017-06-09T14:02:34Z</time>
      </trkpt>
      <trkpt lat="44.0678" lon="6.86258">
        <ele>879</ele>
        <time>2017-06-09T14:02:34Z</time>
      </trkpt>
      <trkpt lat="44.06782" lon="6.86258">
        <ele>879</ele>
        <time>2017-06-09T14:02:34Z</time>
      </trkpt>
      <trkpt lat="44.06789" lon="6.86258">
        <ele>879</ele>
        <time>2017-06-09T14:02:34Z</time>
      </trkpt>
      <trkpt lat="44.06791" lon="6.86257">
        <ele>879</ele>
        <time>2017-06-09T14:02:49Z</time>
      </trkpt>
      <trkpt lat="44.06794" lon="6.86256">
        <ele>892</ele>
        <time>2017-06-09T14:02:49Z</time>
      </trkpt>
      <trkpt lat="44.06795" lon="6.86246">
        <ele>892</ele>
        <time>2017-06-09T14:02:49Z</time>
      </trkpt>
      <trkpt lat="44.06796" lon="6.86245">
        <ele>892</ele>
        <time>2017-06-09T14:02:49Z</time>
      </trkpt>
      <trkpt lat="44.06797" lon="6.86235">
        <ele>880</ele>
        <time>2017-06-09T14:03:04Z</time>
      </trkpt>
      <trkpt lat="44.06797" lon="6.86226">
        <ele>880</ele>
        <time>2017-06-09T14:03:04Z</time>
      </trkpt>
      <trkpt lat="44.06797" lon="6.86222">
        <ele>880</ele>
        <time>2017-06-09T14:03:04Z</time>
      </trkpt>
      <trkpt lat="44.06799" lon="6.86216">
        <ele>880</ele>
        <time>2017-06-09T14:03:04Z</time>
      </trkpt>
      <trkpt lat="44.06814" lon="6.86202">
        <ele>867</ele>
        <time>2017-06-09T14:03:40Z</time>
      </trkpt>
      <trkpt lat="44.06817" lon="6.86198">
        <ele>867</ele>
        <time>2017-06-09T14:03:40Z</time>
      </trkpt>
      <trkpt lat="44.06821" lon="6.86192">
        <ele>882</ele>
        <time>2017-06-09T14:03:40Z</time>
      </trkpt>
      <trkpt lat="44.06825" lon="6.86191">
        <ele>882</ele>
        <time>2017-06-09T14:03:40Z</time>
      </trkpt>
      <trkpt lat="44.06827" lon="6.8619">
        <ele>882</ele>
        <time>2017-06-09T14:03:40Z</time>
      </trkpt>
      <trkpt lat="44.06832" lon="6.86186">
        <ele>882</ele>
        <time>2017-06-09T14:03:57Z</time>
      </trkpt>
      <trkpt lat="44.06837" lon="6.86179">
        <ele>868</ele>
        <time>2017-06-09T14:03:57Z</time>
      </trkpt>
      <trkpt lat="44.06841" lon="6.86169">
        <ele>868</ele>
        <time>2017-06-09T14:03:58Z</time>
      </trkpt>
      <trkpt lat="44.06841" lon="6.86165">
        <ele>868</ele>
        <time>2017-06-09T14:03:58Z</time>
      </trkpt>
      <trkpt lat="44.06841" lon="6.86162">
        <ele>868</ele>
        <time>2017-06-09T14:04:13Z</time>
      </trkpt>
      <trkpt lat="44.06843" lon="6.86149">
        <ele>858</ele>
        <time>2017-06-09T14:04:13Z</time>
      </trkpt>
      <trkpt lat="44.06848" lon="6.86139">
        <ele>872</ele>
        <time>2017-06-09T14:04:13Z</time>
      </trkpt>
      <trkpt lat="44.06849" lon="6.86137">
        <ele>872</ele>
        <time>2017-06-09T14:04:13Z</time>
      </trkpt>
      <trkpt lat="44.06853" lon="6.86133">
        <ele>872</ele>
        <time>2017-06-09T14:04:30Z</time>
      </trkpt>
      <trkpt lat="44.06858" lon="6.86128">
        <ele>872</ele>
        <time>2017-06-09T14:04:30Z</time>
      </trkpt>
      <trkpt lat="44.0686" lon="6.86125">
        <ele>857</ele>
        <time>2017-06-09T14:04:31Z</time>
      </trkpt>
      <trkpt lat="44.06865" lon="6.86122">
        <ele>857</ele>
        <time>2017-06-09T14:04:31Z</time>
      </trkpt>
      <trkpt lat="44.06867" lon="6.86121">
        <ele>857</ele>
        <time>2017-06-09T14:04:44Z</time>
      </trkpt>
      <trkpt lat="44.06873" lon="6.86117">
        <ele>857</ele>
        <time>2017-06-09T14:04:44Z</time>
      </trkpt>
      <trkpt lat="44.06874" lon="6.86117">
        <ele>857</ele>
        <time>2017-06-09T14:04:44Z</time>
      </trkpt>
      <trkpt lat="44.06879" lon="6.86117">
        <ele>866</ele>
        <time>2017-06-09T14:04:44Z</time>
      </trkpt>
      <trkpt lat="44.06882" lon="6.86118">
        <ele>866</ele>
        <time>2017-06-09T14:05:02Z</time>
      </trkpt>
      <trkpt lat="44.0689" lon="6.8612">
        <ele>866</ele>
        <time>2017-06-09T14:05:02Z</time>
      </trkpt>
      <trkpt lat="44.06897" lon="6.86122">
        <ele>866</ele>
        <time>2017-06-09T14:05:02Z</time>
      </trkpt>
      <trkpt lat="44.06902" lon="6.86122">
        <ele>866</ele>
        <time>2017-06-09T14:05:02Z</time>
      </trkpt>
      <trkpt lat="44.06903" lon="6.86122">
        <ele>862</ele>
        <time>2017-06-09T14:05:17Z</time>
      </trkpt>
      <trkpt lat="44.06909" lon="6.86121">
        <ele>862</ele>
        <time>2017-06-09T14:05:17Z</time>
      </trkpt>
      <trkpt lat="44.06918" lon="6.86118">
        <ele>862</ele>
        <time>2017-06-09T14:05:17Z</time>
      </trkpt>
      <trkpt lat="44.06922" lon="6.86115">
        <ele>862</ele>
        <time>2017-06-09T14:05:17Z</time>
      </trkpt>
      <trkpt lat="44.06928" lon="6.86118">
        <ele>862</ele>
        <time>2017-06-09T14:05:34Z</time>
      </trkpt>
      <trkpt lat="44.06936" lon="6.86118">
        <ele>854</ele>
        <time>2017-06-09T14:05:34Z</time>
      </trkpt>
      <trkpt lat="44.06938" lon="6.86121">
        <ele>854</ele>
        <time>2017-06-09T14:05:35Z</time>
      </trkpt>
      <trkpt lat="44.06943" lon="6.86125">
        <ele>854</ele>
        <time>2017-06-09T14:05:35Z</time>
      </trkpt>
      <trkpt lat="44.06949" lon="6.86126">
        <ele>875</ele>
        <time>2017-06-09T14:05:53Z</time>
      </trkpt>
      <trkpt lat="44.06954" lon="6.86132">
        <ele>875</ele>
        <time>2017-06-09T14:05:53Z</time>
      </trkpt>
      <trkpt lat="44.06956" lon="6.86132">
        <ele>875</ele>
        <time>2017-06-09T14:05:53Z</time>
      </trkpt>
      <trkpt lat="44.06957" lon="6.86133">
        <ele>875</ele>
        <time>2017-06-09T14:05:53Z</time>
      </trkpt>
      <trkpt lat="44.06959" lon="6.86134">
        <ele>876</ele>
        <time>2017-06-09T14:06:16Z</time>
      </trkpt>
      <trkpt lat="44.06965" lon="6.86136">
        <ele>876</ele>
        <time>2017-06-09T14:06:16Z</time>
      </trkpt>
      <trkpt lat="44.06977" lon="6.8613">
        <ele>876</ele>
        <time>2017-06-09T14:06:16Z</time>
      </trkpt>
      <trkpt lat="44.06981" lon="6.86121">
        <ele>862</ele>
        <time>2017-06-09T14:06:16Z</time>
      </trkpt>
      <trkpt lat="44.06983" lon="6.86116">
        <ele>862</ele>
        <time>2017-06-09T14:06:41Z</time>
      </trkpt>
      <trkpt lat="44.06984" lon="6.86111">
        <ele>862</ele>
        <time>2017-06-09T14:06:41Z</time>
      </trkpt>
      <trkpt lat="44.06984" lon="6.86104">
        <ele>862</ele>
        <time>2017-06-09T14:06:41Z</time>
      </trkpt>
      <trkpt lat="44.06987" lon="6.86098">
        <ele>875</ele>
        <time>2017-06-09T14:06:41Z</time>
      </trkpt>
      <trkpt lat="44.06988" lon="6.86095">
        <ele>868</ele>
        <time>2017-06-09T14:06:41Z</time>
      </trkpt>
      <trkpt lat="44.06993" lon="6.86095">
        <ele>868</ele>
        <time>2017-06-09T14:06:58Z</time>
      </trkpt>
      <trkpt lat="44.07001" lon="6.86091">
        <ele>868</ele>
        <time>2017-06-09T14:06:58Z</time>
      </trkpt>
      <trkpt lat="44.07001" lon="6.8609">
        <ele>868</ele>
        <time>2017-06-09T14:06:58Z</time>
      </trkpt>
      <trkpt lat="44.07008" lon="6.86086">
        <ele>868</ele>
        <time>2017-06-09T14:06:59Z</time>
      </trkpt>
      <trkpt lat="44.0701" lon="6.86083">
        <ele>868</ele>
        <time>2017-06-09T14:07:15Z</time>
      </trkpt>
      <trkpt lat="44.07013" lon="6.86079">
        <ele>868</ele>
        <time>2017-06-09T14:07:15Z</time>
      </trkpt>
      <trkpt lat="44.07015" lon="6.86074">
        <ele>884</ele>
        <time>2017-06-09T14:07:15Z</time>
      </trkpt>
      <trkpt lat="44.07015" lon="6.86058">
        <ele>876</ele>
        <time>2017-06-09T14:07:15Z</time>
      </trkpt>
      <trkpt lat="44.07015" lon="6.86057">
        <ele>876</ele>
        <time>2017-06-09T14:07:30Z</time>
      </trkpt>
      <trkpt lat="44.07017" lon="6.86048">
        <ele>876</ele>
        <time>2017-06-09T14:07:30Z</time>
      </trkpt>
      <trkpt lat="44.07019" lon="6.86042">
        <ele>866</ele>
        <time>2017-06-09T14:07:30Z</time>
      </trkpt>
      <trkpt lat="44.0702" lon="6.86033">
        <ele>866</ele>
        <time>2017-06-09T14:07:30Z</time>
      </trkpt>
      <trkpt lat="44.07021" lon="6.86032">
        <ele>866</ele>
        <time>2017-06-09T14:07:56Z</time>
      </trkpt>
      <trkpt lat="44.07029" lon="6.86024">
        <ele>866</ele>
        <time>2017-06-09T14:07:56Z</time>
      </trkpt>
      <trkpt lat="44.07039" lon="6.86022">
        <ele>866</ele>
        <time>2017-06-09T14:07:56Z</time>
      </trkpt>
      <trkpt lat="44.07051" lon="6.86014">
        <ele>878</ele>
        <time>2017-06-09T14:07:56Z</time>
      </trkpt>
      <trkpt lat="44.07057" lon="6.86009">
        <ele>864</ele>
        <time>2017-06-09T14:08:12Z</time>
      </trkpt>
      <trkpt lat="44.07059" lon="6.86007">
        <ele>864</ele>
        <time>2017-06-09T14:08:12Z</time>
      </trkpt>
      <trkpt lat="44.07065" lon="6.86">
        <ele>864</ele>
        <time>2017-06-09T14:08:12Z</time>
      </trkpt>
      <trkpt lat="44.07068" lon="6.85995">
        <ele>864</ele>
        <time>2017-06-09T14:08:12Z</time>
      </trkpt>
      <trkpt lat="44.07071" lon="6.85989">
        <ele>878</ele>
        <time>2017-06-09T14:08:31Z</time>
      </trkpt>
      <trkpt lat="44.07075" lon="6.85984">
        <ele>866</ele>
        <time>2017-06-09T14:08:31Z</time>
      </trkpt>
      <trkpt lat="44.07079" lon="6.85979">
        <ele>866</ele>
        <time>2017-06-09T14:08:31Z</time>
      </trkpt>
      <trkpt lat="44.07084" lon="6.85972">
        <ele>866</ele>
        <time>2017-06-09T14:08:31Z</time>
      </trkpt>
      <trkpt lat="44.07084" lon="6.8597">
        <ele>866</ele>
        <time>2017-06-09T14:08:46Z</time>
      </trkpt>
      <trkpt lat="44.07089" lon="6.85956">
        <ele>852</ele>
        <time>2017-06-09T14:08:46Z</time>
      </trkpt>
      <trkpt lat="44.07092" lon="6.85953">
        <ele>852</ele>
        <time>2017-06-09T14:08:46Z</time>
      </trkpt>
      <trkpt lat="44.07096" lon="6.85947">
        <ele>852</ele>
        <time>2017-06-09T14:08:47Z</time>
      </trkpt>
      <trkpt lat="44.07097" lon="6.85945">
        <ele>862</ele>
        <time>2017-06-09T14:09:01Z</time>
      </trkpt>
      <trkpt lat="44.07102" lon="6.85939">
        <ele>862</ele>
        <time>2017-06-09T14:09:01Z</time>
      </trkpt>
      <trkpt lat="44.07103" lon="6.85937">
        <ele>862</ele>
        <time>2017-06-09T14:09:01Z</time>
      </trkpt>
      <trkpt lat="44.07107" lon="6.85934">
        <ele>862</ele>
        <time>2017-06-09T14:09:01Z</time>
      </trkpt>
      <trkpt lat="44.07109" lon="6.85932">
        <ele>862</ele>
        <time>2017-06-09T14:09:16Z</time>
      </trkpt>
      <trkpt lat="44.07113" lon="6.8593">
        <ele>846</ele>
        <time>2017-06-09T14:09:16Z</time>
      </trkpt>
      <trkpt lat="44.07117" lon="6.8592">
        <ele>846</ele>
        <time>2017-06-09T14:09:16Z</time>
      </trkpt>
      <trkpt lat="44.0712" lon="6.85915">
        <ele>846</ele>
        <time>2017-06-09T14:09:16Z</time>
      </trkpt>
      <trkpt lat="44.07123" lon="6.85914">
        <ele>846</ele>
        <time>2017-06-09T14:09:33Z</time>
      </trkpt>
      <trkpt lat="44.07126" lon="6.8591">
        <ele>847</ele>
        <time>2017-06-09T14:09:33Z</time>
      </trkpt>
      <trkpt lat="44.07131" lon="6.85914">
        <ele>847</ele>
        <time>2017-06-09T14:09:34Z</time>
      </trkpt>
      <trkpt lat="44.07136" lon="6.85915">
        <ele>847</ele>
        <time>2017-06-09T14:09:34Z</time>
      </trkpt>
      <trkpt lat="44.07142" lon="6.85918">
        <ele>847</ele>
        <time>2017-06-09T14:09:51Z</time>
      </trkpt>
      <trkpt lat="44.07142" lon="6.85923">
        <ele>847</ele>
        <time>2017-06-09T14:09:51Z</time>
      </trkpt>
      <trkpt lat="44.07142" lon="6.85925">
        <ele>847</ele>
        <time>2017-06-09T14:09:51Z</time>
      </trkpt>
      <trkpt lat="44.07153" lon="6.85927">
        <ele>847</ele>
        <time>2017-06-09T14:09:51Z</time>
      </trkpt>
      <trkpt lat="44.07153" lon="6.85926">
        <ele>847</ele>
        <time>2017-06-09T14:10:04Z</time>
      </trkpt>
      <trkpt lat="44.07165" lon="6.85925">
        <ele>847</ele>
        <time>2017-06-09T14:10:04Z</time>
      </trkpt>
      <trkpt lat="44.07168" lon="6.85925">
        <ele>847</ele>
        <time>2017-06-09T14:10:04Z</time>
      </trkpt>
      <trkpt lat="44.07172" lon="6.85923">
        <ele>847</ele>
        <time>2017-06-09T14:10:04Z</time>
      </trkpt>
      <trkpt lat="44.07179" lon="6.8592">
        <ele>847</ele>
        <time>2017-06-09T14:10:20Z</time>
      </trkpt>
      <trkpt lat="44.07181" lon="6.85918">
        <ele>848</ele>
        <time>2017-06-09T14:10:20Z</time>
      </trkpt>
      <trkpt lat="44.07186" lon="6.85919">
        <ele>848</ele>
        <time>2017-06-09T14:10:20Z</time>
      </trkpt>
      <trkpt lat="44.0719" lon="6.85919">
        <ele>848</ele>
        <time>2017-06-09T14:10:20Z</time>
      </trkpt>
      <trkpt lat="44.07192" lon="6.85921">
        <ele>848</ele>
        <time>2017-06-09T14:10:36Z</time>
      </trkpt>
      <trkpt lat="44.07196" lon="6.85921">
        <ele>848</ele>
        <time>2017-06-09T14:10:36Z</time>
      </trkpt>
      <trkpt lat="44.07201" lon="6.85919">
        <ele>848</ele>
        <time>2017-06-09T14:10:36Z</time>
      </trkpt>
      <trkpt lat="44.07206" lon="6.85921">
        <ele>848</ele>
        <time>2017-06-09T14:10:36Z</time>
      </trkpt>
      <trkpt lat="44.07214" lon="6.8592">
        <ele>846</ele>
        <time>2017-06-09T14:10:54Z</time>
      </trkpt>
      <trkpt lat="44.07219" lon="6.85922">
        <ele>846</ele>
        <time>2017-06-09T14:10:54Z</time>
      </trkpt>
      <trkpt lat="44.07222" lon="6.85914">
        <ele>846</ele>
        <time>2017-06-09T14:10:54Z</time>
      </trkpt>
      <trkpt lat="44.07227" lon="6.85918">
        <ele>846</ele>
        <time>2017-06-09T14:10:54Z</time>
      </trkpt>
      <trkpt lat="44.07228" lon="6.8592">
        <ele>846</ele>
        <time>2017-06-09T14:11:12Z</time>
      </trkpt>
      <trkpt lat="44.07236" lon="6.85922">
        <ele>846</ele>
        <time>2017-06-09T14:11:12Z</time>
      </trkpt>
      <trkpt lat="44.07237" lon="6.85924">
        <ele>844</ele>
        <time>2017-06-09T14:11:12Z</time>
      </trkpt>
      <trkpt lat="44.07248" lon="6.85924">
        <ele>844</ele>
        <time>2017-06-09T14:11:12Z</time>
      </trkpt>
      <trkpt lat="44.07249" lon="6.85926">
        <ele>844</ele>
        <time>2017-06-09T14:11:27Z</time>
      </trkpt>
      <trkpt lat="44.07257" lon="6.85929">
        <ele>844</ele>
        <time>2017-06-09T14:11:27Z</time>
      </trkpt>
      <trkpt lat="44.0726" lon="6.85931">
        <ele>859</ele>
        <time>2017-06-09T14:11:28Z</time>
      </trkpt>
      <trkpt lat="44.07266" lon="6.85934">
        <ele>848</ele>
        <time>2017-06-09T14:11:28Z</time>
      </trkpt>
      <trkpt lat="44.07267" lon="6.85934">
        <ele>848</ele>
        <time>2017-06-09T14:11:40Z</time>
      </trkpt>
      <trkpt lat="44.07269" lon="6.85938">
        <ele>848</ele>
        <time>2017-06-09T14:11:40Z</time>
      </trkpt>
      <trkpt lat="44.07272" lon="6.85941">
        <ele>848</ele>
        <time>2017-06-09T14:11:40Z</time>
      </trkpt>
      <trkpt lat="44.07273" lon="6.85944">
        <ele>848</ele>
        <time>2017-06-09T14:11:40Z</time>
      </trkpt>
      <trkpt lat="44.07277" lon="6.85946">
        <ele>848</ele>
        <time>2017-06-09T14:11:56Z</time>
      </trkpt>
      <trkpt lat="44.07292" lon="6.85947">
        <ele>842</ele>
        <time>2017-06-09T14:11:56Z</time>
      </trkpt>
      <trkpt lat="44.07296" lon="6.85947">
        <ele>842</ele>
        <time>2017-06-09T14:11:56Z</time>
      </trkpt>
      <trkpt lat="44.07301" lon="6.85946">
        <ele>842</ele>
        <time>2017-06-09T14:11:56Z</time>
      </trkpt>
      <trkpt lat="44.07313" lon="6.85943">
        <ele>842</ele>
        <time>2017-06-09T14:12:54Z</time>
      </trkpt>
      <trkpt lat="44.07314" lon="6.85943">
        <ele>842</ele>
        <time>2017-06-09T14:12:54Z</time>
      </trkpt>
      <trkpt lat="44.07314" lon="6.85942">
        <ele>842</ele>
        <time>2017-06-09T14:12:55Z</time>
      </trkpt>
      <trkpt lat="44.07318" lon="6.85942">
        <ele>842</ele>
        <time>2017-06-09T14:12:55Z</time>
      </trkpt>
      <trkpt lat="44.07321" lon="6.85943">
        <ele>839</ele>
        <time>2017-06-09T14:12:55Z</time>
      </trkpt>
      <trkpt lat="44.07327" lon="6.85941">
        <ele>839</ele>
        <time>2017-06-09T14:14:44Z</time>
      </trkpt>
      <trkpt lat="44.07328" lon="6.85941">
        <ele>839</ele>
        <time>2017-06-09T14:14:44Z</time>
      </trkpt>
      <trkpt lat="44.07327" lon="6.85939">
        <ele>839</ele>
        <time>2017-06-09T14:14:44Z</time>
      </trkpt>
      <trkpt lat="44.07327" lon="6.85939">
        <ele>839</ele>
        <time>2017-06-09T14:14:44Z</time>
      </trkpt>
      <trkpt lat="44.07331" lon="6.85938">
        <ele>839</ele>
        <time>2017-06-09T14:14:44Z</time>
      </trkpt>
      <trkpt lat="44.07335" lon="6.85937">
        <ele>839</ele>
        <time>2017-06-09T14:15:03Z</time>
      </trkpt>
      <trkpt lat="44.07336" lon="6.85935">
        <ele>839</ele>
        <time>2017-06-09T14:15:04Z</time>
      </trkpt>
      <trkpt lat="44.07334" lon="6.85931">
        <ele>839</ele>
        <time>2017-06-09T14:15:04Z</time>
      </trkpt>
      <trkpt lat="44.07335" lon="6.85921">
        <ele>829</ele>
        <time>2017-06-09T14:15:04Z</time>
      </trkpt>
      <trkpt lat="44.07333" lon="6.85921">
        <ele>829</ele>
        <time>2017-06-09T14:15:25Z</time>
      </trkpt>
      <trkpt lat="44.07333" lon="6.8592">
        <ele>829</ele>
        <time>2017-06-09T14:15:26Z</time>
      </trkpt>
      <trkpt lat="44.07332" lon="6.85917">
        <ele>829</ele>
        <time>2017-06-09T14:15:26Z</time>
      </trkpt>
      <trkpt lat="44.0733" lon="6.85914">
        <ele>829</ele>
        <time>2017-06-09T14:15:27Z</time>
      </trkpt>
      <trkpt lat="44.07327" lon="6.8591">
        <ele>829</ele>
        <time>2017-06-09T14:15:27Z</time>
      </trkpt>
      <trkpt lat="44.07327" lon="6.85908">
        <ele>829</ele>
        <time>2017-06-09T14:15:40Z</time>
      </trkpt>
      <trkpt lat="44.07323" lon="6.859">
        <ele>814</ele>
        <time>2017-06-09T14:15:40Z</time>
      </trkpt>
      <trkpt lat="44.07321" lon="6.85895">
        <ele>814</ele>
        <time>2017-06-09T14:15:40Z</time>
      </trkpt>
      <trkpt lat="44.07318" lon="6.85889">
        <ele>822</ele>
        <time>2017-06-09T14:15:40Z</time>
      </trkpt>
      <trkpt lat="44.07315" lon="6.85889">
        <ele>822</ele>
        <time>2017-06-09T14:16:05Z</time>
      </trkpt>
      <trkpt lat="44.07313" lon="6.85885">
        <ele>822</ele>
        <time>2017-06-09T14:16:05Z</time>
      </trkpt>
      <trkpt lat="44.07313" lon="6.85882">
        <ele>822</ele>
        <time>2017-06-09T14:16:05Z</time>
      </trkpt>
      <trkpt lat="44.07312" lon="6.85882">
        <ele>822</ele>
        <time>2017-06-09T14:16:05Z</time>
      </trkpt>
      <trkpt lat="44.07312" lon="6.85878">
        <ele>822</ele>
        <time>2017-06-09T14:16:05Z</time>
      </trkpt>
      <trkpt lat="44.07308" lon="6.85873">
        <ele>808</ele>
        <time>2017-06-09T14:16:23Z</time>
      </trkpt>
      <trkpt lat="44.07306" lon="6.85867">
        <ele>808</ele>
        <time>2017-06-09T14:16:23Z</time>
      </trkpt>
      <trkpt lat="44.07304" lon="6.85864">
        <ele>808</ele>
        <time>2017-06-09T14:16:23Z</time>
      </trkpt>
      <trkpt lat="44.07304" lon="6.85862">
        <ele>808</ele>
        <time>2017-06-09T14:16:23Z</time>
      </trkpt>
      <trkpt lat="44.07307" lon="6.85859">
        <ele>808</ele>
        <time>2017-06-09T14:16:48Z</time>
      </trkpt>
      <trkpt lat="44.07309" lon="6.85858">
        <ele>808</ele>
        <time>2017-06-09T14:16:48Z</time>
      </trkpt>
      <trkpt lat="44.07312" lon="6.85858">
        <ele>808</ele>
        <time>2017-06-09T14:16:48Z</time>
      </trkpt>
      <trkpt lat="44.07312" lon="6.85858">
        <ele>808</ele>
        <time>2017-06-09T14:16:48Z</time>
      </trkpt>
      <trkpt lat="44.07314" lon="6.85857">
        <ele>808</ele>
        <time>2017-06-09T14:16:48Z</time>
      </trkpt>
      <trkpt lat="44.07315" lon="6.85856">
        <ele>808</ele>
        <time>2017-06-09T14:17:14Z</time>
      </trkpt>
      <trkpt lat="44.07321" lon="6.85853">
        <ele>801</ele>
        <time>2017-06-09T14:17:14Z</time>
      </trkpt>
      <trkpt lat="44.07323" lon="6.85853">
        <ele>801</ele>
        <time>2017-06-09T14:17:14Z</time>
      </trkpt>
      <trkpt lat="44.07324" lon="6.85853">
        <ele>801</ele>
        <time>2017-06-09T14:17:14Z</time>
      </trkpt>
      <trkpt lat="44.07328" lon="6.85851">
        <ele>801</ele>
        <time>2017-06-09T14:17:14Z</time>
      </trkpt>
      <trkpt lat="44.07328" lon="6.85851">
        <ele>801</ele>
        <time>2017-06-09T14:17:31Z</time>
      </trkpt>
      <trkpt lat="44.07334" lon="6.85849">
        <ele>801</ele>
        <time>2017-06-09T14:17:31Z</time>
      </trkpt>
      <trkpt lat="44.07334" lon="6.85849">
        <ele>801</ele>
        <time>2017-06-09T14:17:31Z</time>
      </trkpt>
      <trkpt lat="44.07338" lon="6.85848">
        <ele>801</ele>
        <time>2017-06-09T14:17:31Z</time>
      </trkpt>
      <trkpt lat="44.07359" lon="6.85844">
        <ele>784</ele>
        <time>2017-06-09T14:18:35Z</time>
      </trkpt>
      <trkpt lat="44.0736" lon="6.85843">
        <ele>784</ele>
        <time>2017-06-09T14:18:35Z</time>
      </trkpt>
      <trkpt lat="44.07362" lon="6.85841">
        <ele>784</ele>
        <time>2017-06-09T14:18:36Z</time>
      </trkpt>
      <trkpt lat="44.07362" lon="6.85839">
        <ele>784</ele>
        <time>2017-06-09T14:18:36Z</time>
      </trkpt>
      <trkpt lat="44.07368" lon="6.85841">
        <ele>784</ele>
        <time>2017-06-09T14:18:36Z</time>
      </trkpt>
      <trkpt lat="44.07377" lon="6.85845">
        <ele>775</ele>
        <time>2017-06-09T14:19:18Z</time>
      </trkpt>
      <trkpt lat="44.07377" lon="6.85846">
        <ele>775</ele>
        <time>2017-06-09T14:19:18Z</time>
      </trkpt>
      <trkpt lat="44.0738" lon="6.85846">
        <ele>775</ele>
        <time>2017-06-09T14:19:19Z</time>
      </trkpt>
      <trkpt lat="44.07381" lon="6.85846">
        <ele>775</ele>
        <time>2017-06-09T14:19:19Z</time>
      </trkpt>
      <trkpt lat="44.07389" lon="6.85848">
        <ele>785</ele>
        <time>2017-06-09T14:19:19Z</time>
      </trkpt>
      <trkpt lat="44.07394" lon="6.85852">
        <ele>785</ele>
        <time>2017-06-09T14:19:37Z</time>
      </trkpt>
      <trkpt lat="44.074" lon="6.8585">
        <ele>785</ele>
        <time>2017-06-09T14:19:37Z</time>
      </trkpt>
      <trkpt lat="44.07406" lon="6.85852">
        <ele>780</ele>
        <time>2017-06-09T14:19:37Z</time>
      </trkpt>
      <trkpt lat="44.07407" lon="6.85854">
        <ele>780</ele>
        <time>2017-06-09T14:19:37Z</time>
      </trkpt>
      <trkpt lat="44.07413" lon="6.85859">
        <ele>780</ele>
        <time>2017-06-09T14:19:52Z</time>
      </trkpt>
      <trkpt lat="44.07417" lon="6.85864">
        <ele>780</ele>
        <time>2017-06-09T14:19:52Z</time>
      </trkpt>
      <trkpt lat="44.07426" lon="6.85868">
        <ele>780</ele>
        <time>2017-06-09T14:19:52Z</time>
      </trkpt>
      <trkpt lat="44.07438" lon="6.85874">
        <ele>784</ele>
        <time>2017-06-09T14:19:52Z</time>
      </trkpt>
      <trkpt lat="44.07446" lon="6.8588">
        <ele>798</ele>
        <time>2017-06-09T14:20:12Z</time>
      </trkpt>
      <trkpt lat="44.07452" lon="6.85878">
        <ele>798</ele>
        <time>2017-06-09T14:20:12Z</time>
      </trkpt>
      <trkpt lat="44.07453" lon="6.85874">
        <ele>784</ele>
        <time>2017-06-09T14:20:12Z</time>
      </trkpt>
      <trkpt lat="44.0746" lon="6.85865">
        <ele>785</ele>
        <time>2017-06-09T14:20:12Z</time>
      </trkpt>
      <trkpt lat="44.0746" lon="6.85865">
        <ele>785</ele>
        <time>2017-06-09T14:20:26Z</time>
      </trkpt>
      <trkpt lat="44.07464" lon="6.85871">
        <ele>785</ele>
        <time>2017-06-09T14:20:26Z</time>
      </trkpt>
      <trkpt lat="44.07467" lon="6.85875">
        <ele>785</ele>
        <time>2017-06-09T14:20:26Z</time>
      </trkpt>
      <trkpt lat="44.07473" lon="6.85881">
        <ele>796</ele>
        <time>2017-06-09T14:20:26Z</time>
      </trkpt>
      <trkpt lat="44.07478" lon="6.85876">
        <ele>796</ele>
        <time>2017-06-09T14:20:54Z</time>
      </trkpt>
      <trkpt lat="44.0748" lon="6.85872">
        <ele>785</ele>
        <time>2017-06-09T14:20:55Z</time>
      </trkpt>
      <trkpt lat="44.0748" lon="6.85871">
        <ele>785</ele>
        <time>2017-06-09T14:20:55Z</time>
      </trkpt>
      <trkpt lat="44.07491" lon="6.85872">
        <ele>778</ele>
        <time>2017-06-09T14:20:55Z</time>
      </trkpt>
      <trkpt lat="44.07496" lon="6.85874">
        <ele>778</ele>
        <time>2017-06-09T14:20:55Z</time>
      </trkpt>
      <trkpt lat="44.07497" lon="6.85874">
        <ele>778</ele>
        <time>2017-06-09T14:21:10Z</time>
      </trkpt>
      <trkpt lat="44.07502" lon="6.85874">
        <ele>778</ele>
        <time>2017-06-09T14:21:10Z</time>
      </trkpt>
      <trkpt lat="44.07506" lon="6.85872">
        <ele>778</ele>
        <time>2017-06-09T14:21:10Z</time>
      </trkpt>
      <trkpt lat="44.07516" lon="6.85869">
        <ele>772</ele>
        <time>2017-06-09T14:21:10Z</time>
      </trkpt>
      <trkpt lat="44.07517" lon="6.85869">
        <ele>772</ele>
        <time>2017-06-09T14:21:30Z</time>
      </trkpt>
      <trkpt lat="44.07529" lon="6.85871">
        <ele>772</ele>
        <time>2017-06-09T14:21:31Z</time>
      </trkpt>
      <trkpt lat="44.07533" lon="6.85867">
        <ele>772</ele>
        <time>2017-06-09T14:21:31Z</time>
      </trkpt>
      <trkpt lat="44.07542" lon="6.85863">
        <ele>772</ele>
        <time>2017-06-09T14:21:31Z</time>
      </trkpt>
      <trkpt lat="44.07543" lon="6.85863">
        <ele>772</ele>
        <time>2017-06-09T14:21:46Z</time>
      </trkpt>
      <trkpt lat="44.07548" lon="6.85865">
        <ele>772</ele>
        <time>2017-06-09T14:21:46Z</time>
      </trkpt>
      <trkpt lat="44.0755" lon="6.85861">
        <ele>772</ele>
        <time>2017-06-09T14:21:46Z</time>
      </trkpt>
      <trkpt lat="44.07557" lon="6.85856">
        <ele>772</ele>
        <time>2017-06-09T14:21:47Z</time>
      </trkpt>
      <trkpt lat="44.07557" lon="6.85856">
        <ele>772</ele>
        <time>2017-06-09T14:22:01Z</time>
      </trkpt>
      <trkpt lat="44.0756" lon="6.85852">
        <ele>772</ele>
        <time>2017-06-09T14:22:01Z</time>
      </trkpt>
      <trkpt lat="44.0756" lon="6.85844">
        <ele>764</ele>
        <time>2017-06-09T14:22:01Z</time>
      </trkpt>
      <trkpt lat="44.07561" lon="6.8584">
        <ele>764</ele>
        <time>2017-06-09T14:22:01Z</time>
      </trkpt>
      <trkpt lat="44.07564" lon="6.85832">
        <ele>764</ele>
        <time>2017-06-09T14:22:19Z</time>
      </trkpt>
      <trkpt lat="44.07567" lon="6.8583">
        <ele>764</ele>
        <time>2017-06-09T14:22:19Z</time>
      </trkpt>
      <trkpt lat="44.07571" lon="6.85824">
        <ele>767</ele>
        <time>2017-06-09T14:22:20Z</time>
      </trkpt>
      <trkpt lat="44.07577" lon="6.85812">
        <ele>764</ele>
        <time>2017-06-09T14:22:20Z</time>
      </trkpt>
      <trkpt lat="44.07574" lon="6.85799">
        <ele>764</ele>
        <time>2017-06-09T14:22:39Z</time>
      </trkpt>
      <trkpt lat="44.07574" lon="6.85796">
        <ele>764</ele>
        <time>2017-06-09T14:22:39Z</time>
      </trkpt>
      <trkpt lat="44.07572" lon="6.85791">
        <ele>764</ele>
        <time>2017-06-09T14:22:39Z</time>
      </trkpt>
      <trkpt lat="44.07583" lon="6.85791">
        <ele>764</ele>
        <time>2017-06-09T14:22:39Z</time>
      </trkpt>
      <trkpt lat="44.07584" lon="6.85791">
        <ele>764</ele>
        <time>2017-06-09T14:22:55Z</time>
      </trkpt>
      <trkpt lat="44.07592" lon="6.85793">
        <ele>764</ele>
        <time>2017-06-09T14:22:55Z</time>
      </trkpt>
      <trkpt lat="44.07596" lon="6.85791">
        <ele>764</ele>
        <time>2017-06-09T14:22:55Z</time>
      </trkpt>
      <trkpt lat="44.07602" lon="6.85787">
        <ele>763</ele>
        <time>2017-06-09T14:22:55Z</time>
      </trkpt>
      <trkpt lat="44.07603" lon="6.85787">
        <ele>763</ele>
        <time>2017-06-09T14:23:09Z</time>
      </trkpt>
      <trkpt lat="44.07605" lon="6.85786">
        <ele>763</ele>
        <time>2017-06-09T14:23:09Z</time>
      </trkpt>
      <trkpt lat="44.07613" lon="6.8578">
        <ele>763</ele>
        <time>2017-06-09T14:23:09Z</time>
      </trkpt>
      <trkpt lat="44.07618" lon="6.85777">
        <ele>763</ele>
        <time>2017-06-09T14:23:09Z</time>
      </trkpt>
      <trkpt lat="44.07625" lon="6.85773">
        <ele>763</ele>
        <time>2017-06-09T14:23:26Z</time>
      </trkpt>
      <trkpt lat="44.07632" lon="6.85771">
        <ele>764</ele>
        <time>2017-06-09T14:23:26Z</time>
      </trkpt>
      <trkpt lat="44.07634" lon="6.8577">
        <ele>764</ele>
        <time>2017-06-09T14:23:26Z</time>
      </trkpt>
      <trkpt lat="44.07642" lon="6.85767">
        <ele>764</ele>
        <time>2017-06-09T14:23:26Z</time>
      </trkpt>
    </trkseg>
  </trk>
</gpx>